<?xml version='1.0' encoding='UTF-8'?><gpx version="1.1" creator="JPX - https://github.com/jenetics/jpx" xmlns="http://www.topografix.com/GPX/1/1"><trk><trkseg><trkpt lat="45.05196750987871" lon="9.597665536988353"><ele>59.0</ele><time>2026-04-04T12:16:23.413Z</time></trkpt><trkpt lat="45.05198331297297" lon="9.597578335661662"><ele>59.0</ele><time>2026-04-04T12:16:26.268Z</time></trkpt><trkpt lat="45.051962710310534" lon="9.597460870459868"><ele>59.0</ele><time>2026-04-04T12:16:29.122Z</time></trkpt><trkpt lat="45.05195805332564" lon="9.597351824420421"><ele>59.0</ele><time>2026-04-04T12:16:31.984Z</time></trkpt><trkpt lat="45.05195517195488" lon="9.597254808439562"><ele>59.0</ele><time>2026-04-04T12:16:33.986Z</time></trkpt><trkpt lat="45.0519730983064" lon="9.597152134059273"><ele>59.0</ele><time>2026-04-04T12:16:35.988Z</time></trkpt><trkpt lat="45.05201228678742" lon="9.597060476222275"><ele>59.0</ele><time>2026-04-04T12:16:37.99Z</time></trkpt><trkpt lat="45.05208475616216" lon="9.597052756944105"><ele>59.00000000000001</ele><time>2026-04-04T12:16:39.991Z</time></trkpt><trkpt lat="45.05217416087766" lon="9.597036700403907"><ele>59.0</ele><time>2026-04-04T12:16:42.993Z</time></trkpt><trkpt lat="45.05224496408127" lon="9.597037602005457"><ele>59.0</ele><time>2026-04-04T12:16:45.994Z</time></trkpt><trkpt lat="45.052309128520584" lon="9.597019558945105"><ele>59.0</ele><time>2026-04-04T12:16:47.995Z</time></trkpt><trkpt lat="45.05233520591216" lon="9.596912398151865"><ele>59.00000000000001</ele><time>2026-04-04T12:16:49.996Z</time></trkpt><trkpt lat="45.05233448154683" lon="9.596794354914023"><ele>59.0</ele><time>2026-04-04T12:16:51.996Z</time></trkpt><trkpt lat="45.05230184703507" lon="9.59668274686412"><ele>59.16666666666667</ele><time>2026-04-04T12:16:53.997Z</time></trkpt><trkpt lat="45.05228383061464" lon="9.59657397967966"><ele>59.333333333333336</ele><time>2026-04-04T12:16:55.998Z</time></trkpt><trkpt lat="45.0522536290012" lon="9.596465843018409"><ele>59.5</ele><time>2026-04-04T12:16:57.998Z</time></trkpt><trkpt lat="45.052235466580804" lon="9.596375917376719"><ele>59.66666666666667</ele><time>2026-04-04T12:16:59.998Z</time></trkpt><trkpt lat="45.05221243385871" lon="9.596287911470839"><ele>59.833333333333336</ele><time>2026-04-04T12:17:01.999Z</time></trkpt><trkpt lat="45.052188316038794" lon="9.596161551223414"><ele>60.0</ele><time>2026-04-04T12:17:04.999Z</time></trkpt><trkpt lat="45.05217784820752" lon="9.596070555393382"><ele>60.0</ele><time>2026-04-04T12:17:06.999Z</time></trkpt><trkpt lat="45.052174867264874" lon="9.595964254958139"><ele>60.0</ele><time>2026-04-04T12:17:09Z</time></trkpt><trkpt lat="45.0521662384249" lon="9.5958484567558"><ele>60.0</ele><time>2026-04-04T12:17:11Z</time></trkpt><trkpt lat="45.05215992178484" lon="9.595735133271697"><ele>60.0</ele><time>2026-04-04T12:17:13Z</time></trkpt><trkpt lat="45.052157766768765" lon="9.595620885531991"><ele>60.0</ele><time>2026-04-04T12:17:15Z</time></trkpt><trkpt lat="45.05215797987173" lon="9.595494035508734"><ele>60.0</ele><time>2026-04-04T12:17:17Z</time></trkpt><trkpt lat="45.05216226139061" lon="9.595369537166476"><ele>60.0</ele><time>2026-04-04T12:17:19Z</time></trkpt><trkpt lat="45.05216025192683" lon="9.595243866500148"><ele>60.0</ele><time>2026-04-04T12:17:21.001Z</time></trkpt><trkpt lat="45.052162371008606" lon="9.595131144028556"><ele>60.0</ele><time>2026-04-04T12:17:23.001Z</time></trkpt><trkpt lat="45.05216517897408" lon="9.595006834159086"><ele>60.0</ele><time>2026-04-04T12:17:25.001Z</time></trkpt><trkpt lat="45.052161422003074" lon="9.594893534447344"><ele>60.0</ele><time>2026-04-04T12:17:27.001Z</time></trkpt><trkpt lat="45.05215886868955" lon="9.594775786471931"><ele>60.0</ele><time>2026-04-04T12:17:29.001Z</time></trkpt><trkpt lat="45.05216021795479" lon="9.594663433744657"><ele>60.0</ele><time>2026-04-04T12:17:31.001Z</time></trkpt><trkpt lat="45.05216411747392" lon="9.594535952353255"><ele>60.0</ele><time>2026-04-04T12:17:33.001Z</time></trkpt><trkpt lat="45.0521623383364" lon="9.594418876770307"><ele>60.0</ele><time>2026-04-04T12:17:35.001Z</time></trkpt><trkpt lat="45.052166847479704" lon="9.594288975915527"><ele>60.0</ele><time>2026-04-04T12:17:37.001Z</time></trkpt><trkpt lat="45.052169656382524" lon="9.594156807205692"><ele>60.0</ele><time>2026-04-04T12:17:39.001Z</time></trkpt><trkpt lat="45.05217420764078" lon="9.594026530741026"><ele>59.8</ele><time>2026-04-04T12:17:41.001Z</time></trkpt><trkpt lat="45.05217997291653" lon="9.593890806526709"><ele>59.6</ele><time>2026-04-04T12:17:43.001Z</time></trkpt><trkpt lat="45.05217986523369" lon="9.59375869270973"><ele>59.400000000000006</ele><time>2026-04-04T12:17:45.001Z</time></trkpt><trkpt lat="45.05218257608314" lon="9.593628456790837"><ele>59.2</ele><time>2026-04-04T12:17:47.001Z</time></trkpt><trkpt lat="45.0521794606837" lon="9.593495899343084"><ele>59.0</ele><time>2026-04-04T12:17:49.001Z</time></trkpt><trkpt lat="45.05218685500559" lon="9.593364689409038"><ele>59.0</ele><time>2026-04-04T12:17:51.001Z</time></trkpt><trkpt lat="45.052179295265745" lon="9.593235439417374"><ele>59.00000000000001</ele><time>2026-04-04T12:17:53.001Z</time></trkpt><trkpt lat="45.05218643932712" lon="9.593103976660444"><ele>59.00000000000001</ele><time>2026-04-04T12:17:55.001Z</time></trkpt><trkpt lat="45.0521830453785" lon="9.592972792420046"><ele>59.0</ele><time>2026-04-04T12:17:57.001Z</time></trkpt><trkpt lat="45.05218300395392" lon="9.592841616319765"><ele>59.0</ele><time>2026-04-04T12:17:59.001Z</time></trkpt><trkpt lat="45.05218791527065" lon="9.592713106346315"><ele>59.2</ele><time>2026-04-04T12:18:01.001Z</time></trkpt><trkpt lat="45.05217950720796" lon="9.592586357642732"><ele>59.400000000000006</ele><time>2026-04-04T12:18:03.001Z</time></trkpt><trkpt lat="45.05217196454746" lon="9.592458212501649"><ele>59.6</ele><time>2026-04-04T12:18:05.001Z</time></trkpt><trkpt lat="45.05216462807487" lon="9.592328333322973"><ele>59.8</ele><time>2026-04-04T12:18:07.001Z</time></trkpt><trkpt lat="45.05215389830054" lon="9.59220183156339"><ele>60.0</ele><time>2026-04-04T12:18:09.001Z</time></trkpt><trkpt lat="45.05214153072869" lon="9.59207186184144"><ele>60.4</ele><time>2026-04-04T12:18:11.001Z</time></trkpt><trkpt lat="45.05212591595014" lon="9.591952120398684"><ele>60.8</ele><time>2026-04-04T12:18:13.001Z</time></trkpt><trkpt lat="45.0521140756207" lon="9.591825966851678"><ele>61.2</ele><time>2026-04-04T12:18:15.001Z</time></trkpt><trkpt lat="45.052100368362" lon="9.591688809273249"><ele>61.6</ele><time>2026-04-04T12:18:17.001Z</time></trkpt><trkpt lat="45.0520838407415" lon="9.59155948836754"><ele>62.0</ele><time>2026-04-04T12:18:19.001Z</time></trkpt><trkpt lat="45.052070263922396" lon="9.591422712694754"><ele>62.0</ele><time>2026-04-04T12:18:21.001Z</time></trkpt><trkpt lat="45.052056586535166" lon="9.591281240870167"><ele>62.0</ele><time>2026-04-04T12:18:23.001Z</time></trkpt><trkpt lat="45.05204771518901" lon="9.591141929404591"><ele>62.0</ele><time>2026-04-04T12:18:25.002Z</time></trkpt><trkpt lat="45.05203291333193" lon="9.591003546835259"><ele>62.0</ele><time>2026-04-04T12:18:27.002Z</time></trkpt><trkpt lat="45.05201939385079" lon="9.590869303184503"><ele>62.0</ele><time>2026-04-04T12:18:29.002Z</time></trkpt><trkpt lat="45.05200625871229" lon="9.590747175360406"><ele>62.0</ele><time>2026-04-04T12:18:31.002Z</time></trkpt><trkpt lat="45.05198598066603" lon="9.590602304093657"><ele>62.0</ele><time>2026-04-04T12:18:33.002Z</time></trkpt><trkpt lat="45.05197342977337" lon="9.590466024819753"><ele>62.0</ele><time>2026-04-04T12:18:35.002Z</time></trkpt><trkpt lat="45.051958493011036" lon="9.59033121775009"><ele>62.0</ele><time>2026-04-04T12:18:37.002Z</time></trkpt><trkpt lat="45.05194289363655" lon="9.590192879226846"><ele>62.0</ele><time>2026-04-04T12:18:39.002Z</time></trkpt><trkpt lat="45.05193365051025" lon="9.590058177666714"><ele>61.8</ele><time>2026-04-04T12:18:41.002Z</time></trkpt><trkpt lat="45.05191680754663" lon="9.58993098772583"><ele>61.6</ele><time>2026-04-04T12:18:43.002Z</time></trkpt><trkpt lat="45.05190128332656" lon="9.589799211626639"><ele>61.39999999999999</ele><time>2026-04-04T12:18:45.002Z</time></trkpt><trkpt lat="45.05189341135579" lon="9.58966492990585"><ele>61.199999999999996</ele><time>2026-04-04T12:18:47.002Z</time></trkpt><trkpt lat="45.05187483493731" lon="9.589543573801086"><ele>61.0</ele><time>2026-04-04T12:18:49.002Z</time></trkpt><trkpt lat="45.05185670853688" lon="9.58942814622065"><ele>60.99999999999999</ele><time>2026-04-04T12:18:51.002Z</time></trkpt><trkpt lat="45.05185174324225" lon="9.589317533100022"><ele>61.0</ele><time>2026-04-04T12:18:53.002Z</time></trkpt><trkpt lat="45.05182305416322" lon="9.58919531042694"><ele>61.0</ele><time>2026-04-04T12:18:55.002Z</time></trkpt><trkpt lat="45.05177848539008" lon="9.589083210608191"><ele>61.0</ele><time>2026-04-04T12:18:57.002Z</time></trkpt><trkpt lat="45.05174355070261" lon="9.588967755164132"><ele>60.99999999999999</ele><time>2026-04-04T12:18:59.002Z</time></trkpt><trkpt lat="45.05170567841742" lon="9.588846979658"><ele>61.0</ele><time>2026-04-04T12:19:01.002Z</time></trkpt><trkpt lat="45.05166125152813" lon="9.58873144640604"><ele>61.4</ele><time>2026-04-04T12:19:03.002Z</time></trkpt><trkpt lat="45.051603622868555" lon="9.588629112220483"><ele>61.8</ele><time>2026-04-04T12:19:05.002Z</time></trkpt><trkpt lat="45.05154227084994" lon="9.588528861658093"><ele>62.199999999999996</ele><time>2026-04-04T12:19:07.002Z</time></trkpt><trkpt lat="45.05147526060924" lon="9.588436265451652"><ele>62.599999999999994</ele><time>2026-04-04T12:19:09.002Z</time></trkpt><trkpt lat="45.05141169750079" lon="9.588337596106099"><ele>63.0</ele><time>2026-04-04T12:19:11.002Z</time></trkpt><trkpt lat="45.05134635542336" lon="9.588262700555477"><ele>63.0</ele><time>2026-04-04T12:19:13.002Z</time></trkpt><trkpt lat="45.051280681611075" lon="9.58816777919975"><ele>63.0</ele><time>2026-04-04T12:19:15.002Z</time></trkpt><trkpt lat="45.05121046403907" lon="9.588068219340386"><ele>63.0</ele><time>2026-04-04T12:19:17.002Z</time></trkpt><trkpt lat="45.05114187739203" lon="9.587971954810342"><ele>63.0</ele><time>2026-04-04T12:19:19.002Z</time></trkpt><trkpt lat="45.051079750290334" lon="9.587869542942574"><ele>63.0</ele><time>2026-04-04T12:19:21.002Z</time></trkpt><trkpt lat="45.05100548982974" lon="9.587778364645391"><ele>62.8</ele><time>2026-04-04T12:19:23.002Z</time></trkpt><trkpt lat="45.05093354050952" lon="9.587684794913827"><ele>62.599999999999994</ele><time>2026-04-04T12:19:25.002Z</time></trkpt><trkpt lat="45.0508657045947" lon="9.587588656026611"><ele>62.400000000000006</ele><time>2026-04-04T12:19:27.002Z</time></trkpt><trkpt lat="45.050796677661836" lon="9.58749811396673"><ele>62.2</ele><time>2026-04-04T12:19:29.002Z</time></trkpt><trkpt lat="45.050733718071236" lon="9.587390579602078"><ele>62.0</ele><time>2026-04-04T12:19:31.002Z</time></trkpt><trkpt lat="45.0506535055834" lon="9.587304022677346"><ele>62.0</ele><time>2026-04-04T12:19:33.002Z</time></trkpt><trkpt lat="45.05058587570572" lon="9.587226295393181"><ele>62.0</ele><time>2026-04-04T12:19:35.002Z</time></trkpt><trkpt lat="45.05052190167046" lon="9.587128607353574"><ele>62.0</ele><time>2026-04-04T12:19:37.002Z</time></trkpt><trkpt lat="45.050450843549825" lon="9.587043299265034"><ele>62.0</ele><time>2026-04-04T12:19:39.002Z</time></trkpt><trkpt lat="45.05039212786353" lon="9.586965291266976"><ele>62.0</ele><time>2026-04-04T12:19:41.002Z</time></trkpt><trkpt lat="45.05031920979793" lon="9.586866093045861"><ele>61.6</ele><time>2026-04-04T12:19:43.002Z</time></trkpt><trkpt lat="45.05025553206549" lon="9.586769732852844"><ele>61.2</ele><time>2026-04-04T12:19:45.002Z</time></trkpt><trkpt lat="45.05019154985163" lon="9.58668056636699"><ele>60.8</ele><time>2026-04-04T12:19:47.002Z</time></trkpt><trkpt lat="45.05012474601515" lon="9.586585442491852"><ele>60.4</ele><time>2026-04-04T12:19:49.002Z</time></trkpt><trkpt lat="45.050055810121606" lon="9.586499997327577"><ele>60.0</ele><time>2026-04-04T12:19:51.002Z</time></trkpt><trkpt lat="45.0499856360168" lon="9.58641278128521"><ele>60.2</ele><time>2026-04-04T12:19:53.002Z</time></trkpt><trkpt lat="45.04991492667463" lon="9.586324870534328"><ele>60.4</ele><time>2026-04-04T12:19:55.002Z</time></trkpt><trkpt lat="45.04983917437854" lon="9.58623209561947"><ele>60.599999999999994</ele><time>2026-04-04T12:19:57.002Z</time></trkpt><trkpt lat="45.04977222713051" lon="9.586144573518617"><ele>60.8</ele><time>2026-04-04T12:19:59.002Z</time></trkpt><trkpt lat="45.04970939796256" lon="9.586054460721675"><ele>61.0</ele><time>2026-04-04T12:20:01.002Z</time></trkpt><trkpt lat="45.04963452805263" lon="9.585948280316401"><ele>61.199999999999996</ele><time>2026-04-04T12:20:03.002Z</time></trkpt><trkpt lat="45.04959067481315" lon="9.585825846871693"><ele>61.39999999999999</ele><time>2026-04-04T12:20:05.002Z</time></trkpt><trkpt lat="45.04953390492747" lon="9.585702595471817"><ele>61.6</ele><time>2026-04-04T12:20:07.002Z</time></trkpt><trkpt lat="45.04948233670174" lon="9.585568997775425"><ele>61.8</ele><time>2026-04-04T12:20:09.002Z</time></trkpt><trkpt lat="45.04942929240688" lon="9.585443336261672"><ele>62.0</ele><time>2026-04-04T12:20:11.002Z</time></trkpt><trkpt lat="45.04937716424436" lon="9.585328411644966"><ele>61.6</ele><time>2026-04-04T12:20:13.002Z</time></trkpt><trkpt lat="45.049329167535255" lon="9.585213651085551"><ele>61.2</ele><time>2026-04-04T12:20:15.002Z</time></trkpt><trkpt lat="45.04927701838045" lon="9.585099065132594"><ele>60.8</ele><time>2026-04-04T12:20:17.002Z</time></trkpt><trkpt lat="45.04922832070118" lon="9.584985982123785"><ele>60.4</ele><time>2026-04-04T12:20:19.002Z</time></trkpt><trkpt lat="45.049185747852405" lon="9.584866188895173"><ele>60.0</ele><time>2026-04-04T12:20:21.002Z</time></trkpt><trkpt lat="45.049137959247716" lon="9.584750393349182"><ele>60.4</ele><time>2026-04-04T12:20:23.002Z</time></trkpt><trkpt lat="45.049082642093275" lon="9.584635341292532"><ele>60.8</ele><time>2026-04-04T12:20:25.002Z</time></trkpt><trkpt lat="45.049031846343745" lon="9.584519643213262"><ele>61.2</ele><time>2026-04-04T12:20:27.002Z</time></trkpt><trkpt lat="45.04898675611105" lon="9.584406369964462"><ele>61.6</ele><time>2026-04-04T12:20:29.002Z</time></trkpt><trkpt lat="45.0489392686494" lon="9.584288305009059"><ele>62.0</ele><time>2026-04-04T12:20:31.002Z</time></trkpt><trkpt lat="45.04888922474184" lon="9.584170103674778"><ele>62.0</ele><time>2026-04-04T12:20:33.002Z</time></trkpt><trkpt lat="45.04883454364364" lon="9.584056843838827"><ele>62.0</ele><time>2026-04-04T12:20:35.002Z</time></trkpt><trkpt lat="45.04878308703221" lon="9.583943237328294"><ele>62.0</ele><time>2026-04-04T12:20:37.002Z</time></trkpt><trkpt lat="45.04873676812736" lon="9.583826161302733"><ele>62.0</ele><time>2026-04-04T12:20:39.002Z</time></trkpt><trkpt lat="45.04868373068433" lon="9.583708844772923"><ele>62.0</ele><time>2026-04-04T12:20:41.002Z</time></trkpt><trkpt lat="45.04863638494324" lon="9.583588718625334"><ele>62.0</ele><time>2026-04-04T12:20:43.002Z</time></trkpt><trkpt lat="45.04858722311195" lon="9.58347372239381"><ele>62.0</ele><time>2026-04-04T12:20:45.002Z</time></trkpt><trkpt lat="45.04854286912794" lon="9.583350442264464"><ele>62.0</ele><time>2026-04-04T12:20:47.002Z</time></trkpt><trkpt lat="45.04849621500379" lon="9.583234510144495"><ele>62.0</ele><time>2026-04-04T12:20:49.002Z</time></trkpt><trkpt lat="45.048445291273815" lon="9.583117118825117"><ele>62.0</ele><time>2026-04-04T12:20:51.002Z</time></trkpt><trkpt lat="45.04839854200991" lon="9.582999038383845"><ele>62.0</ele><time>2026-04-04T12:20:53.002Z</time></trkpt><trkpt lat="45.048353594956694" lon="9.582884071370689"><ele>62.0</ele><time>2026-04-04T12:20:55.002Z</time></trkpt><trkpt lat="45.04830249088061" lon="9.58276766307235"><ele>62.0</ele><time>2026-04-04T12:20:57.002Z</time></trkpt><trkpt lat="45.04825206769452" lon="9.582646925788792"><ele>62.0</ele><time>2026-04-04T12:20:59.002Z</time></trkpt><trkpt lat="45.04820318495386" lon="9.582532856102883"><ele>62.0</ele><time>2026-04-04T12:21:01.002Z</time></trkpt><trkpt lat="45.04816517717124" lon="9.582420558201132"><ele>62.2</ele><time>2026-04-04T12:21:03.002Z</time></trkpt><trkpt lat="45.048108572823324" lon="9.582309413568458"><ele>62.400000000000006</ele><time>2026-04-04T12:21:05.002Z</time></trkpt><trkpt lat="45.04805998407027" lon="9.582193225626867"><ele>62.599999999999994</ele><time>2026-04-04T12:21:07.002Z</time></trkpt><trkpt lat="45.048010523026136" lon="9.582077004630943"><ele>62.8</ele><time>2026-04-04T12:21:09.002Z</time></trkpt><trkpt lat="45.047959899703024" lon="9.581960203472654"><ele>63.0</ele><time>2026-04-04T12:21:11.002Z</time></trkpt><trkpt lat="45.04790658648653" lon="9.58183868299819"><ele>63.0</ele><time>2026-04-04T12:21:13.002Z</time></trkpt><trkpt lat="45.04785609962321" lon="9.581714448748146"><ele>63.0</ele><time>2026-04-04T12:21:15.002Z</time></trkpt><trkpt lat="45.04780675712176" lon="9.58159682868071"><ele>63.0</ele><time>2026-04-04T12:21:17.002Z</time></trkpt><trkpt lat="45.04775964234995" lon="9.581472427749128"><ele>63.0</ele><time>2026-04-04T12:21:19.002Z</time></trkpt><trkpt lat="45.0477065071422" lon="9.581359197491336"><ele>63.0</ele><time>2026-04-04T12:21:21.002Z</time></trkpt><trkpt lat="45.047654025419526" lon="9.581245469833611"><ele>63.0</ele><time>2026-04-04T12:21:23.002Z</time></trkpt><trkpt lat="45.04760233559918" lon="9.5811284854753"><ele>63.0</ele><time>2026-04-04T12:21:25.002Z</time></trkpt><trkpt lat="45.04755372064285" lon="9.581012282796365"><ele>63.0</ele><time>2026-04-04T12:21:27.002Z</time></trkpt><trkpt lat="45.04750247743806" lon="9.580893753300085"><ele>63.0</ele><time>2026-04-04T12:21:29.002Z</time></trkpt><trkpt lat="45.04746313140862" lon="9.580773267565148"><ele>63.0</ele><time>2026-04-04T12:21:31.002Z</time></trkpt><trkpt lat="45.047410706689945" lon="9.580653458666777"><ele>63.0</ele><time>2026-04-04T12:21:33.002Z</time></trkpt><trkpt lat="45.047362538138806" lon="9.5805362011671"><ele>63.0</ele><time>2026-04-04T12:21:35.002Z</time></trkpt><trkpt lat="45.04731317473174" lon="9.580418485326637"><ele>63.0</ele><time>2026-04-04T12:21:37.002Z</time></trkpt><trkpt lat="45.04726194768823" lon="9.580295848228456"><ele>63.0</ele><time>2026-04-04T12:21:39.002Z</time></trkpt><trkpt lat="45.04721522912952" lon="9.580181533208146"><ele>63.0</ele><time>2026-04-04T12:21:41.002Z</time></trkpt><trkpt lat="45.04716819982071" lon="9.580059932305348"><ele>62.8</ele><time>2026-04-04T12:21:43.002Z</time></trkpt><trkpt lat="45.047118300134414" lon="9.579945024680145"><ele>62.599999999999994</ele><time>2026-04-04T12:21:45.002Z</time></trkpt><trkpt lat="45.04706854157767" lon="9.579827344888194"><ele>62.400000000000006</ele><time>2026-04-04T12:21:47.002Z</time></trkpt><trkpt lat="45.047019679029525" lon="9.57970315518274"><ele>62.2</ele><time>2026-04-04T12:21:49.002Z</time></trkpt><trkpt lat="45.046966094222526" lon="9.57957853619812"><ele>62.0</ele><time>2026-04-04T12:21:51.002Z</time></trkpt><trkpt lat="45.04691888014518" lon="9.579457594285422"><ele>61.8</ele><time>2026-04-04T12:21:53.002Z</time></trkpt><trkpt lat="45.046868139156906" lon="9.579331906537218"><ele>61.6</ele><time>2026-04-04T12:21:55.002Z</time></trkpt><trkpt lat="45.04681775802038" lon="9.579209746705375"><ele>61.39999999999999</ele><time>2026-04-04T12:21:57.002Z</time></trkpt><trkpt lat="45.046770007387025" lon="9.579087213131853"><ele>61.199999999999996</ele><time>2026-04-04T12:21:59.002Z</time></trkpt><trkpt lat="45.046727653923746" lon="9.578957188033414"><ele>61.0</ele><time>2026-04-04T12:22:01.002Z</time></trkpt><trkpt lat="45.04668561404725" lon="9.57882584466647"><ele>61.0</ele><time>2026-04-04T12:22:03.002Z</time></trkpt><trkpt lat="45.04664025552162" lon="9.578695412168415"><ele>60.99999999999999</ele><time>2026-04-04T12:22:05.002Z</time></trkpt><trkpt lat="45.046602065374636" lon="9.578561990853704"><ele>60.99999999999999</ele><time>2026-04-04T12:22:07.002Z</time></trkpt><trkpt lat="45.04655931156317" lon="9.578437631896636"><ele>61.0</ele><time>2026-04-04T12:22:09.002Z</time></trkpt><trkpt lat="45.04652209547664" lon="9.578306626903895"><ele>61.0</ele><time>2026-04-04T12:22:11.002Z</time></trkpt><trkpt lat="45.04648143832862" lon="9.578185466346339"><ele>61.0</ele><time>2026-04-04T12:22:13.002Z</time></trkpt><trkpt lat="45.046443362540835" lon="9.578063883110694"><ele>60.99999999999999</ele><time>2026-04-04T12:22:15.002Z</time></trkpt><trkpt lat="45.04640290844728" lon="9.577943167546735"><ele>60.99999999999999</ele><time>2026-04-04T12:22:17.002Z</time></trkpt><trkpt lat="45.04636767607988" lon="9.577825127941557"><ele>61.0</ele><time>2026-04-04T12:22:19.002Z</time></trkpt><trkpt lat="45.046325373283736" lon="9.577706243673285"><ele>61.0</ele><time>2026-04-04T12:22:21.002Z</time></trkpt><trkpt lat="45.04628200439585" lon="9.577592311794625"><ele>61.0</ele><time>2026-04-04T12:22:23.002Z</time></trkpt><trkpt lat="45.04624527769512" lon="9.57747035677116"><ele>60.99999999999999</ele><time>2026-04-04T12:22:25.002Z</time></trkpt><trkpt lat="45.046206821168994" lon="9.577348727468967"><ele>60.99999999999999</ele><time>2026-04-04T12:22:27.002Z</time></trkpt><trkpt lat="45.04616615288228" lon="9.57722146554991"><ele>61.0</ele><time>2026-04-04T12:22:29.002Z</time></trkpt><trkpt lat="45.04612615812898" lon="9.577091329471237"><ele>61.0</ele><time>2026-04-04T12:22:31.002Z</time></trkpt><trkpt lat="45.04608831435543" lon="9.57696844741163"><ele>61.166666666666664</ele><time>2026-04-04T12:22:33.002Z</time></trkpt><trkpt lat="45.04605225081035" lon="9.576854093024464"><ele>61.33333333333333</ele><time>2026-04-04T12:22:35.002Z</time></trkpt><trkpt lat="45.046016979133015" lon="9.576742453216584"><ele>61.5</ele><time>2026-04-04T12:22:37.002Z</time></trkpt><trkpt lat="45.04597806977323" lon="9.576630070949074"><ele>61.66666666666667</ele><time>2026-04-04T12:22:39.002Z</time></trkpt><trkpt lat="45.04593895781632" lon="9.576518134508783"><ele>61.833333333333336</ele><time>2026-04-04T12:22:41.003Z</time></trkpt><trkpt lat="45.04590172017714" lon="9.57640896573488"><ele>62.0</ele><time>2026-04-04T12:22:43.003Z</time></trkpt><trkpt lat="45.04586057585071" lon="9.576299062161214"><ele>62.2</ele><time>2026-04-04T12:22:45.003Z</time></trkpt><trkpt lat="45.04582591004644" lon="9.576180232629552"><ele>62.400000000000006</ele><time>2026-04-04T12:22:47.003Z</time></trkpt><trkpt lat="45.045779866789566" lon="9.576058094550701"><ele>62.599999999999994</ele><time>2026-04-04T12:22:49.003Z</time></trkpt><trkpt lat="45.04574207808208" lon="9.575934236450545"><ele>62.8</ele><time>2026-04-04T12:22:51.003Z</time></trkpt><trkpt lat="45.045704575323505" lon="9.575809658413203"><ele>63.0</ele><time>2026-04-04T12:22:53.003Z</time></trkpt><trkpt lat="45.045657911716546" lon="9.575689791143562"><ele>63.0</ele><time>2026-04-04T12:22:55.003Z</time></trkpt><trkpt lat="45.045622121619296" lon="9.575566707274882"><ele>63.0</ele><time>2026-04-04T12:22:57.003Z</time></trkpt><trkpt lat="45.04558095810363" lon="9.575440811592452"><ele>63.0</ele><time>2026-04-04T12:22:59.003Z</time></trkpt><trkpt lat="45.04554878123411" lon="9.575321407705855"><ele>63.0</ele><time>2026-04-04T12:23:01.003Z</time></trkpt><trkpt lat="45.0454976504078" lon="9.575196970640174"><ele>63.0</ele><time>2026-04-04T12:23:03.003Z</time></trkpt><trkpt lat="45.045460893064856" lon="9.575064337856533"><ele>63.2</ele><time>2026-04-04T12:23:05.003Z</time></trkpt><trkpt lat="45.04542240680952" lon="9.574929098834518"><ele>63.4</ele><time>2026-04-04T12:23:07.003Z</time></trkpt><trkpt lat="45.04537451480794" lon="9.574798920614741"><ele>63.60000000000001</ele><time>2026-04-04T12:23:09.003Z</time></trkpt><trkpt lat="45.04534107711934" lon="9.57466871937468"><ele>63.800000000000004</ele><time>2026-04-04T12:23:11.003Z</time></trkpt><trkpt lat="45.04529861728536" lon="9.57453686097846"><ele>64.0</ele><time>2026-04-04T12:23:13.003Z</time></trkpt><trkpt lat="45.045261097194434" lon="9.574410424444737"><ele>64.4</ele><time>2026-04-04T12:23:15.003Z</time></trkpt><trkpt lat="45.045219767327396" lon="9.574278546796018"><ele>64.80000000000001</ele><time>2026-04-04T12:23:17.003Z</time></trkpt><trkpt lat="45.045184058266436" lon="9.5741514953637"><ele>65.19999999999999</ele><time>2026-04-04T12:23:19.003Z</time></trkpt><trkpt lat="45.04514296809668" lon="9.574029041508396"><ele>65.6</ele><time>2026-04-04T12:23:21.003Z</time></trkpt><trkpt lat="45.045094763934834" lon="9.573898785719077"><ele>66.0</ele><time>2026-04-04T12:23:23.003Z</time></trkpt><trkpt lat="45.04504585048016" lon="9.573774342627612"><ele>65.6</ele><time>2026-04-04T12:23:25.003Z</time></trkpt><trkpt lat="45.0450028410229" lon="9.57365138510912"><ele>65.19999999999999</ele><time>2026-04-04T12:23:27.003Z</time></trkpt><trkpt lat="45.04496152960628" lon="9.57351963712087"><ele>64.80000000000001</ele><time>2026-04-04T12:23:29.003Z</time></trkpt><trkpt lat="45.04492080876536" lon="9.573396044288756"><ele>64.4</ele><time>2026-04-04T12:23:31.003Z</time></trkpt><trkpt lat="45.04487577179336" lon="9.573261931800385"><ele>64.0</ele><time>2026-04-04T12:23:33.003Z</time></trkpt><trkpt lat="45.04483969034877" lon="9.573138457073219"><ele>63.800000000000004</ele><time>2026-04-04T12:23:35.003Z</time></trkpt><trkpt lat="45.04479682924525" lon="9.57300972006781"><ele>63.60000000000001</ele><time>2026-04-04T12:23:37.003Z</time></trkpt><trkpt lat="45.044761837702765" lon="9.572876527488681"><ele>63.4</ele><time>2026-04-04T12:23:39.003Z</time></trkpt><trkpt lat="45.04473506442196" lon="9.57273926018966"><ele>63.2</ele><time>2026-04-04T12:23:41.003Z</time></trkpt><trkpt lat="45.04472508335194" lon="9.572605937654062"><ele>63.0</ele><time>2026-04-04T12:23:43.003Z</time></trkpt><trkpt lat="45.04474093763502" lon="9.57247066213488"><ele>63.0</ele><time>2026-04-04T12:23:45.003Z</time></trkpt><trkpt lat="45.04475591863946" lon="9.572337477008137"><ele>63.0</ele><time>2026-04-04T12:23:47.003Z</time></trkpt><trkpt lat="45.04476799527715" lon="9.572201278505963"><ele>63.0</ele><time>2026-04-04T12:23:49.003Z</time></trkpt><trkpt lat="45.044781122995204" lon="9.572064717886835"><ele>63.0</ele><time>2026-04-04T12:23:51.003Z</time></trkpt><trkpt lat="45.04479882719278" lon="9.571925932608313"><ele>63.0</ele><time>2026-04-04T12:23:53.003Z</time></trkpt><trkpt lat="45.04481285592832" lon="9.571784455659657"><ele>63.0</ele><time>2026-04-04T12:23:55.003Z</time></trkpt><trkpt lat="45.044823101071884" lon="9.571649883293025"><ele>63.0</ele><time>2026-04-04T12:23:57.003Z</time></trkpt><trkpt lat="45.04483215340188" lon="9.57151014613178"><ele>63.0</ele><time>2026-04-04T12:23:59.003Z</time></trkpt><trkpt lat="45.044832313280224" lon="9.571373860134917"><ele>63.0</ele><time>2026-04-04T12:24:01.003Z</time></trkpt><trkpt lat="45.04481527069209" lon="9.571240297191906"><ele>63.0</ele><time>2026-04-04T12:24:03.003Z</time></trkpt><trkpt lat="45.0447726896312" lon="9.57113000590595"><ele>63.2</ele><time>2026-04-04T12:24:05.003Z</time></trkpt><trkpt lat="45.04471149133236" lon="9.571011537246113"><ele>63.4</ele><time>2026-04-04T12:24:07.003Z</time></trkpt><trkpt lat="45.04465218189143" lon="9.570899472558759"><ele>63.60000000000001</ele><time>2026-04-04T12:24:09.003Z</time></trkpt><trkpt lat="45.044591392991975" lon="9.570784043423705"><ele>63.800000000000004</ele><time>2026-04-04T12:24:11.003Z</time></trkpt><trkpt lat="45.044529672238184" lon="9.570672953034144"><ele>64.0</ele><time>2026-04-04T12:24:13.003Z</time></trkpt><trkpt lat="45.04447039516766" lon="9.570555789150646"><ele>64.0</ele><time>2026-04-04T12:24:15.003Z</time></trkpt><trkpt lat="45.04441162015377" lon="9.570441396999115"><ele>64.0</ele><time>2026-04-04T12:24:17.003Z</time></trkpt><trkpt lat="45.044351793299455" lon="9.570327920143631"><ele>64.0</ele><time>2026-04-04T12:24:19.003Z</time></trkpt><trkpt lat="45.04428923172153" lon="9.57021162321193"><ele>64.0</ele><time>2026-04-04T12:24:21.003Z</time></trkpt><trkpt lat="45.04423051533871" lon="9.57009217887212"><ele>64.0</ele><time>2026-04-04T12:24:23.003Z</time></trkpt><trkpt lat="45.04416979432857" lon="9.569971294464281"><ele>63.800000000000004</ele><time>2026-04-04T12:24:25.003Z</time></trkpt><trkpt lat="45.04410595114385" lon="9.569848132833918"><ele>63.60000000000001</ele><time>2026-04-04T12:24:27.003Z</time></trkpt><trkpt lat="45.04404361454571" lon="9.569735097238405"><ele>63.4</ele><time>2026-04-04T12:24:29.003Z</time></trkpt><trkpt lat="45.04399098284556" lon="9.569616338652668"><ele>63.2</ele><time>2026-04-04T12:24:31.003Z</time></trkpt><trkpt lat="45.04393059181519" lon="9.569487477677606"><ele>63.0</ele><time>2026-04-04T12:24:33.003Z</time></trkpt><trkpt lat="45.043875967012575" lon="9.569360613727886"><ele>63.0</ele><time>2026-04-04T12:24:35.003Z</time></trkpt><trkpt lat="45.043819362538265" lon="9.56923929486119"><ele>63.0</ele><time>2026-04-04T12:24:37.003Z</time></trkpt><trkpt lat="45.043762365362184" lon="9.56911859309946"><ele>63.0</ele><time>2026-04-04T12:24:39.003Z</time></trkpt><trkpt lat="45.04370495109753" lon="9.56900046258898"><ele>63.0</ele><time>2026-04-04T12:24:41.003Z</time></trkpt><trkpt lat="45.04364956586145" lon="9.568882922733872"><ele>63.0</ele><time>2026-04-04T12:24:43.003Z</time></trkpt><trkpt lat="45.04359554146953" lon="9.568763693927"><ele>63.4</ele><time>2026-04-04T12:24:45.003Z</time></trkpt><trkpt lat="45.04354113797861" lon="9.568649608961737"><ele>63.8</ele><time>2026-04-04T12:24:47.003Z</time></trkpt><trkpt lat="45.04348432111808" lon="9.568536696327067"><ele>64.2</ele><time>2026-04-04T12:24:49.003Z</time></trkpt><trkpt lat="45.04343200490163" lon="9.568427034927138"><ele>64.6</ele><time>2026-04-04T12:24:51.003Z</time></trkpt><trkpt lat="45.0433720113007" lon="9.568303835640204"><ele>65.0</ele><time>2026-04-04T12:24:53.003Z</time></trkpt><trkpt lat="45.04331162019223" lon="9.568184410181445"><ele>64.8</ele><time>2026-04-04T12:24:55.003Z</time></trkpt><trkpt lat="45.04325391371235" lon="9.568070836401576"><ele>64.6</ele><time>2026-04-04T12:24:57.003Z</time></trkpt><trkpt lat="45.043197979572675" lon="9.567954401688215"><ele>64.4</ele><time>2026-04-04T12:24:59.003Z</time></trkpt><trkpt lat="45.04313826760216" lon="9.567832258659916"><ele>64.2</ele><time>2026-04-04T12:25:01.003Z</time></trkpt><trkpt lat="45.04308047381933" lon="9.567707740884378"><ele>64.0</ele><time>2026-04-04T12:25:03.003Z</time></trkpt><trkpt lat="45.04301669445495" lon="9.56759025540239"><ele>64.0</ele><time>2026-04-04T12:25:05.003Z</time></trkpt><trkpt lat="45.04296349705982" lon="9.567476972693656"><ele>64.0</ele><time>2026-04-04T12:25:07.003Z</time></trkpt><trkpt lat="45.04290417695519" lon="9.567363304245816"><ele>64.0</ele><time>2026-04-04T12:25:09.003Z</time></trkpt><trkpt lat="45.04285060336929" lon="9.567244561857295"><ele>64.0</ele><time>2026-04-04T12:25:11.003Z</time></trkpt><trkpt lat="45.04278912888915" lon="9.567124127616214"><ele>64.0</ele><time>2026-04-04T12:25:13.003Z</time></trkpt><trkpt lat="45.04273449183931" lon="9.566994086543145"><ele>63.800000000000004</ele><time>2026-04-04T12:25:15.003Z</time></trkpt><trkpt lat="45.04268022488884" lon="9.566875038930661"><ele>63.60000000000001</ele><time>2026-04-04T12:25:17.003Z</time></trkpt><trkpt lat="45.04262867163796" lon="9.56675788131745"><ele>63.4</ele><time>2026-04-04T12:25:19.003Z</time></trkpt><trkpt lat="45.042583257808445" lon="9.566628614981855"><ele>63.2</ele><time>2026-04-04T12:25:21.003Z</time></trkpt><trkpt lat="45.04253140458291" lon="9.566505505539045"><ele>63.0</ele><time>2026-04-04T12:25:23.003Z</time></trkpt><trkpt lat="45.04248798169606" lon="9.566373251789765"><ele>63.2</ele><time>2026-04-04T12:25:25.003Z</time></trkpt><trkpt lat="45.04242989067615" lon="9.566252547691317"><ele>63.4</ele><time>2026-04-04T12:25:27.003Z</time></trkpt><trkpt lat="45.04238093693832" lon="9.566125414597735"><ele>63.60000000000001</ele><time>2026-04-04T12:25:29.003Z</time></trkpt><trkpt lat="45.04233526878352" lon="9.56600743093938"><ele>63.800000000000004</ele><time>2026-04-04T12:25:31.003Z</time></trkpt><trkpt lat="45.04229182665828" lon="9.565899686538485"><ele>64.0</ele><time>2026-04-04T12:25:33.003Z</time></trkpt><trkpt lat="45.04224221586698" lon="9.565795306695435"><ele>64.4</ele><time>2026-04-04T12:25:35.003Z</time></trkpt><trkpt lat="45.04220749217834" lon="9.565692278761873"><ele>64.80000000000001</ele><time>2026-04-04T12:25:37.003Z</time></trkpt><trkpt lat="45.042162869667386" lon="9.56558206657789"><ele>65.19999999999999</ele><time>2026-04-04T12:25:39.003Z</time></trkpt><trkpt lat="45.04211532329777" lon="9.565463542509795"><ele>65.6</ele><time>2026-04-04T12:25:41.003Z</time></trkpt><trkpt lat="45.042058931519556" lon="9.565345462093852"><ele>66.0</ele><time>2026-04-04T12:25:43.003Z</time></trkpt><trkpt lat="45.04201926687066" lon="9.565231362318773"><ele>66.16666666666667</ele><time>2026-04-04T12:25:45.003Z</time></trkpt><trkpt lat="45.041970740684455" lon="9.565131036140285"><ele>66.33333333333333</ele><time>2026-04-04T12:25:47.003Z</time></trkpt><trkpt lat="45.04193266073628" lon="9.565020016067237"><ele>66.5</ele><time>2026-04-04T12:25:49.003Z</time></trkpt><trkpt lat="45.041896039517134" lon="9.564909213568692"><ele>66.66666666666666</ele><time>2026-04-04T12:25:51.003Z</time></trkpt><trkpt lat="45.04186274188865" lon="9.564815570049447"><ele>66.83333333333333</ele><time>2026-04-04T12:25:53.003Z</time></trkpt><trkpt lat="45.041842325226156" lon="9.564714295520153"><ele>67.0</ele><time>2026-04-04T12:25:55.003Z</time></trkpt><trkpt lat="45.04181006671118" lon="9.564603675964683"><ele>66.6</ele><time>2026-04-04T12:25:57.003Z</time></trkpt><trkpt lat="45.04177172463465" lon="9.564472460598996"><ele>66.2</ele><time>2026-04-04T12:25:59.003Z</time></trkpt><trkpt lat="45.04173081036475" lon="9.564343045706087"><ele>65.8</ele><time>2026-04-04T12:26:01.003Z</time></trkpt><trkpt lat="45.04171315970232" lon="9.564196251520874"><ele>65.4</ele><time>2026-04-04T12:26:03.003Z</time></trkpt><trkpt lat="45.04169000194068" lon="9.564056796816425"><ele>65.0</ele><time>2026-04-04T12:26:05.003Z</time></trkpt><trkpt lat="45.041662958940215" lon="9.563916609693495"><ele>65.0</ele><time>2026-04-04T12:26:07.003Z</time></trkpt><trkpt lat="45.041631990914894" lon="9.563770640340877"><ele>65.0</ele><time>2026-04-04T12:26:09.003Z</time></trkpt><trkpt lat="45.04159931380382" lon="9.563632214969328"><ele>65.0</ele><time>2026-04-04T12:26:11.003Z</time></trkpt><trkpt lat="45.04156770354461" lon="9.56348637190813"><ele>65.0</ele><time>2026-04-04T12:26:13.003Z</time></trkpt><trkpt lat="45.04153614985669" lon="9.563344184260176"><ele>65.0</ele><time>2026-04-04T12:26:15.003Z</time></trkpt><trkpt lat="45.04150948410507" lon="9.56319893301496"><ele>64.8</ele><time>2026-04-04T12:26:17.003Z</time></trkpt><trkpt lat="45.041478634149705" lon="9.563050056809484"><ele>64.6</ele><time>2026-04-04T12:26:19.003Z</time></trkpt><trkpt lat="45.04145077307823" lon="9.562902089433356"><ele>64.4</ele><time>2026-04-04T12:26:21.003Z</time></trkpt><trkpt lat="45.041411702783996" lon="9.562757388597372"><ele>64.2</ele><time>2026-04-04T12:26:23.003Z</time></trkpt><trkpt lat="45.04138040851186" lon="9.562607058594095"><ele>64.0</ele><time>2026-04-04T12:26:25.003Z</time></trkpt><trkpt lat="45.04134939952842" lon="9.56246487076866"><ele>64.0</ele><time>2026-04-04T12:26:27.003Z</time></trkpt><trkpt lat="45.04132057274599" lon="9.56233075487481"><ele>64.0</ele><time>2026-04-04T12:26:29.003Z</time></trkpt><trkpt lat="45.04129168658287" lon="9.562179529799069"><ele>64.0</ele><time>2026-04-04T12:26:31.003Z</time></trkpt><trkpt lat="45.04125908364076" lon="9.562036356779673"><ele>64.0</ele><time>2026-04-04T12:26:33.003Z</time></trkpt><trkpt lat="45.04122770167456" lon="9.561889353463778"><ele>64.0</ele><time>2026-04-04T12:26:35.003Z</time></trkpt><trkpt lat="45.041200103070224" lon="9.561744632928827"><ele>64.2</ele><time>2026-04-04T12:26:37.003Z</time></trkpt><trkpt lat="45.041166404257545" lon="9.561610658415455"><ele>64.4</ele><time>2026-04-04T12:26:39.003Z</time></trkpt><trkpt lat="45.04113046358133" lon="9.561475367852507"><ele>64.6</ele><time>2026-04-04T12:26:41.003Z</time></trkpt><trkpt lat="45.04109481965894" lon="9.561342024574593"><ele>64.8</ele><time>2026-04-04T12:26:43.003Z</time></trkpt><trkpt lat="45.04106103896611" lon="9.561200067882874"><ele>65.0</ele><time>2026-04-04T12:26:45.003Z</time></trkpt><trkpt lat="45.04102818251211" lon="9.561064547764834"><ele>65.0</ele><time>2026-04-04T12:26:47.003Z</time></trkpt><trkpt lat="45.04098958823099" lon="9.560934022278344"><ele>65.0</ele><time>2026-04-04T12:26:49.003Z</time></trkpt><trkpt lat="45.04095856792583" lon="9.56079988610098"><ele>65.0</ele><time>2026-04-04T12:26:51.003Z</time></trkpt><trkpt lat="45.04091982173138" lon="9.560665763497507"><ele>65.0</ele><time>2026-04-04T12:26:53.003Z</time></trkpt><trkpt lat="45.040884692360805" lon="9.560529966406193"><ele>65.0</ele><time>2026-04-04T12:26:55.003Z</time></trkpt><trkpt lat="45.04084881163092" lon="9.560390286978393"><ele>65.2</ele><time>2026-04-04T12:26:57.003Z</time></trkpt><trkpt lat="45.04081360752516" lon="9.560246988871107"><ele>65.4</ele><time>2026-04-04T12:26:59.004Z</time></trkpt><trkpt lat="45.0407793009624" lon="9.560108806753597"><ele>65.6</ele><time>2026-04-04T12:27:01.004Z</time></trkpt><trkpt lat="45.04073960877825" lon="9.559967327605051"><ele>65.8</ele><time>2026-04-04T12:27:03.004Z</time></trkpt><trkpt lat="45.04070065032327" lon="9.559820203711974"><ele>66.0</ele><time>2026-04-04T12:27:05.004Z</time></trkpt><trkpt lat="45.040662128813786" lon="9.559679571291309"><ele>66.2</ele><time>2026-04-04T12:27:07.004Z</time></trkpt><trkpt lat="45.040623637585334" lon="9.559538984851066"><ele>66.39999999999999</ele><time>2026-04-04T12:27:09.004Z</time></trkpt><trkpt lat="45.04059275379762" lon="9.559396049531877"><ele>66.6</ele><time>2026-04-04T12:27:11.004Z</time></trkpt><trkpt lat="45.04057567341402" lon="9.559248506102938"><ele>66.8</ele><time>2026-04-04T12:27:13.004Z</time></trkpt><trkpt lat="45.040591066551045" lon="9.559087378185351"><ele>67.0</ele><time>2026-04-04T12:27:15.004Z</time></trkpt><trkpt lat="45.04061123077009" lon="9.558940242166171"><ele>67.2</ele><time>2026-04-04T12:27:17.004Z</time></trkpt><trkpt lat="45.04063776316055" lon="9.55879073315139"><ele>67.4</ele><time>2026-04-04T12:27:19.004Z</time></trkpt><trkpt lat="45.040657864766864" lon="9.55863664106217"><ele>67.6</ele><time>2026-04-04T12:27:21.004Z</time></trkpt><trkpt lat="45.040675361667006" lon="9.558494064097426"><ele>67.8</ele><time>2026-04-04T12:27:23.004Z</time></trkpt><trkpt lat="45.04069446702806" lon="9.558348517797029"><ele>68.0</ele><time>2026-04-04T12:27:25.004Z</time></trkpt><trkpt lat="45.04071381631346" lon="9.558206468869018"><ele>67.6</ele><time>2026-04-04T12:27:27.004Z</time></trkpt><trkpt lat="45.040734764039755" lon="9.55806221817575"><ele>67.19999999999999</ele><time>2026-04-04T12:27:29.004Z</time></trkpt><trkpt lat="45.04075290842659" lon="9.557917070409129"><ele>66.8</ele><time>2026-04-04T12:27:31.004Z</time></trkpt><trkpt lat="45.040771762554016" lon="9.557770368287313"><ele>66.39999999999999</ele><time>2026-04-04T12:27:33.004Z</time></trkpt><trkpt lat="45.04078873555446" lon="9.5576282612776"><ele>66.0</ele><time>2026-04-04T12:27:35.004Z</time></trkpt><trkpt lat="45.04080766015713" lon="9.557480963296562"><ele>66.0</ele><time>2026-04-04T12:27:37.004Z</time></trkpt><trkpt lat="45.040830837153024" lon="9.557330288031425"><ele>66.0</ele><time>2026-04-04T12:27:39.004Z</time></trkpt><trkpt lat="45.040845263054706" lon="9.557178147203793"><ele>66.0</ele><time>2026-04-04T12:27:41.004Z</time></trkpt><trkpt lat="45.04086830112824" lon="9.557026782876473"><ele>66.0</ele><time>2026-04-04T12:27:43.004Z</time></trkpt><trkpt lat="45.04088672992972" lon="9.556875623560586"><ele>66.0</ele><time>2026-04-04T12:27:45.004Z</time></trkpt><trkpt lat="45.040907452789746" lon="9.556725524587266"><ele>65.8</ele><time>2026-04-04T12:27:47.004Z</time></trkpt><trkpt lat="45.04092389894811" lon="9.556578193612271"><ele>65.6</ele><time>2026-04-04T12:27:49.004Z</time></trkpt><trkpt lat="45.04094200901679" lon="9.556433687292813"><ele>65.4</ele><time>2026-04-04T12:27:51.004Z</time></trkpt><trkpt lat="45.04095614881083" lon="9.556291006810351"><ele>65.2</ele><time>2026-04-04T12:27:53.004Z</time></trkpt><trkpt lat="45.04096619234301" lon="9.556142263778215"><ele>65.0</ele><time>2026-04-04T12:27:55.004Z</time></trkpt><trkpt lat="45.04097943579663" lon="9.555995369761524"><ele>65.6</ele><time>2026-04-04T12:27:57.004Z</time></trkpt><trkpt lat="45.04098448707299" lon="9.555847694922031"><ele>66.2</ele><time>2026-04-04T12:27:59.004Z</time></trkpt><trkpt lat="45.04100107542882" lon="9.555693068511914"><ele>66.8</ele><time>2026-04-04T12:28:01.004Z</time></trkpt><trkpt lat="45.04101024576721" lon="9.55554054005875"><ele>67.4</ele><time>2026-04-04T12:28:03.004Z</time></trkpt><trkpt lat="45.04101975433973" lon="9.555394972888509"><ele>68.0</ele><time>2026-04-04T12:28:05.004Z</time></trkpt><trkpt lat="45.041026846419214" lon="9.55524333585798"><ele>68.2</ele><time>2026-04-04T12:28:07.004Z</time></trkpt><trkpt lat="45.041037159929" lon="9.55508665011411"><ele>68.4</ele><time>2026-04-04T12:28:09.004Z</time></trkpt><trkpt lat="45.04104357082676" lon="9.554934020600024"><ele>68.60000000000001</ele><time>2026-04-04T12:28:11.004Z</time></trkpt><trkpt lat="45.04104798977666" lon="9.55477852160863"><ele>68.8</ele><time>2026-04-04T12:28:13.004Z</time></trkpt><trkpt lat="45.04104706424468" lon="9.55462342841411"><ele>69.0</ele><time>2026-04-04T12:28:15.004Z</time></trkpt><trkpt lat="45.04103368712611" lon="9.554464641435233"><ele>69.25</ele><time>2026-04-04T12:28:17.004Z</time></trkpt><trkpt lat="45.041009459618735" lon="9.554307324957726"><ele>69.5</ele><time>2026-04-04T12:28:19.004Z</time></trkpt><trkpt lat="45.040966700229504" lon="9.55415542917882"><ele>69.75</ele><time>2026-04-04T12:28:21.004Z</time></trkpt><trkpt lat="45.04094286936373" lon="9.554004358259277"><ele>70.0</ele><time>2026-04-04T12:28:23.004Z</time></trkpt><trkpt lat="45.04091887852692" lon="9.553849935509211"><ele>69.8</ele><time>2026-04-04T12:28:25.004Z</time></trkpt><trkpt lat="45.040895044205286" lon="9.553701490248033"><ele>69.6</ele><time>2026-04-04T12:28:27.004Z</time></trkpt><trkpt lat="45.040855697492546" lon="9.553560581836113"><ele>69.4</ele><time>2026-04-04T12:28:29.004Z</time></trkpt><trkpt lat="45.04082432118255" lon="9.553420216902012"><ele>69.2</ele><time>2026-04-04T12:28:31.004Z</time></trkpt><trkpt lat="45.04079490398908" lon="9.553292150907682"><ele>69.0</ele><time>2026-04-04T12:28:33.004Z</time></trkpt><trkpt lat="45.040756279268564" lon="9.553166521367096"><ele>69.0</ele><time>2026-04-04T12:28:35.004Z</time></trkpt><trkpt lat="45.040729976901034" lon="9.553054212984247"><ele>69.0</ele><time>2026-04-04T12:28:37.004Z</time></trkpt><trkpt lat="45.04069971670743" lon="9.552956778049463"><ele>69.0</ele><time>2026-04-04T12:28:39.004Z</time></trkpt><trkpt lat="45.04068553048477" lon="9.552839411989744"><ele>69.0</ele><time>2026-04-04T12:28:41.004Z</time></trkpt><trkpt lat="45.04065287335417" lon="9.552704936885366"><ele>69.0</ele><time>2026-04-04T12:28:43.004Z</time></trkpt><trkpt lat="45.04064993871685" lon="9.552573657437913"><ele>69.0</ele><time>2026-04-04T12:28:45.004Z</time></trkpt><trkpt lat="45.040627543321015" lon="9.552430051379414"><ele>69.0</ele><time>2026-04-04T12:28:47.004Z</time></trkpt><trkpt lat="45.04059732219038" lon="9.552301117080841"><ele>69.0</ele><time>2026-04-04T12:28:49.004Z</time></trkpt><trkpt lat="45.0405787041562" lon="9.552179360451616"><ele>69.0</ele><time>2026-04-04T12:28:51.004Z</time></trkpt><trkpt lat="45.040553072997184" lon="9.552044488753197"><ele>69.0</ele><time>2026-04-04T12:28:53.004Z</time></trkpt><trkpt lat="45.040546485878714" lon="9.551916671689034"><ele>69.0</ele><time>2026-04-04T12:28:55.004Z</time></trkpt><trkpt lat="45.04051984597178" lon="9.551788572662439"><ele>69.0</ele><time>2026-04-04T12:28:57.004Z</time></trkpt><trkpt lat="45.04050383237304" lon="9.551678700150804"><ele>69.0</ele><time>2026-04-04T12:28:59.004Z</time></trkpt><trkpt lat="45.040482296988216" lon="9.551561445864868"><ele>69.0</ele><time>2026-04-04T12:29:01.004Z</time></trkpt><trkpt lat="45.04046495832607" lon="9.55142616291041"><ele>69.0</ele><time>2026-04-04T12:29:03.004Z</time></trkpt><trkpt lat="45.04044279062027" lon="9.551307585777133"><ele>69.0</ele><time>2026-04-04T12:29:05.004Z</time></trkpt><trkpt lat="45.04043220535964" lon="9.551192846630341"><ele>69.0</ele><time>2026-04-04T12:29:07.004Z</time></trkpt><trkpt lat="45.04040884753312" lon="9.551056441419313"><ele>69.2</ele><time>2026-04-04T12:29:09.004Z</time></trkpt><trkpt lat="45.04039029680503" lon="9.550915701395166"><ele>69.4</ele><time>2026-04-04T12:29:11.004Z</time></trkpt><trkpt lat="45.04036486653095" lon="9.55078027247663"><ele>69.6</ele><time>2026-04-04T12:29:13.004Z</time></trkpt><trkpt lat="45.040344867004386" lon="9.550632366188118"><ele>69.8</ele><time>2026-04-04T12:29:15.004Z</time></trkpt><trkpt lat="45.040316828639696" lon="9.550496904402031"><ele>70.0</ele><time>2026-04-04T12:29:17.004Z</time></trkpt><trkpt lat="45.04028510578936" lon="9.55035991637344"><ele>70.2</ele><time>2026-04-04T12:29:19.004Z</time></trkpt><trkpt lat="45.040263207401445" lon="9.550210192175197"><ele>70.4</ele><time>2026-04-04T12:29:21.004Z</time></trkpt><trkpt lat="45.04022695285721" lon="9.550065092161597"><ele>70.6</ele><time>2026-04-04T12:29:23.004Z</time></trkpt><trkpt lat="45.04021000752163" lon="9.549918277980023"><ele>70.8</ele><time>2026-04-04T12:29:25.004Z</time></trkpt><trkpt lat="45.04019260481758" lon="9.549781017524685"><ele>71.0</ele><time>2026-04-04T12:29:27.004Z</time></trkpt><trkpt lat="45.04016377223135" lon="9.549648487750767"><ele>70.83333333333334</ele><time>2026-04-04T12:29:29.004Z</time></trkpt><trkpt lat="45.04014619231231" lon="9.549528399195324"><ele>70.66666666666667</ele><time>2026-04-04T12:29:31.004Z</time></trkpt><trkpt lat="45.040104365743346" lon="9.549415822431678"><ele>70.5</ele><time>2026-04-04T12:29:33.004Z</time></trkpt><trkpt lat="45.04006507996466" lon="9.549307678296465"><ele>70.33333333333333</ele><time>2026-04-04T12:29:35.004Z</time></trkpt><trkpt lat="45.040032451338725" lon="9.549228737621812"><ele>70.16666666666666</ele><time>2026-04-04T12:29:36.004Z</time></trkpt><trkpt lat="45.039983073365036" lon="9.54913392322885"><ele>70.0</ele><time>2026-04-04T12:29:38.004Z</time></trkpt><trkpt lat="45.039921442110824" lon="9.549006593214372"><ele>70.0</ele><time>2026-04-04T12:29:40.004Z</time></trkpt><trkpt lat="45.03985569184523" lon="9.548881566154241"><ele>70.0</ele><time>2026-04-04T12:29:42.004Z</time></trkpt><trkpt lat="45.03979388943347" lon="9.5487698198727"><ele>70.0</ele><time>2026-04-04T12:29:44.004Z</time></trkpt><trkpt lat="45.03972978386075" lon="9.548650494012122"><ele>70.0</ele><time>2026-04-04T12:29:46.004Z</time></trkpt><trkpt lat="45.03966863096456" lon="9.548545234877375"><ele>70.0</ele><time>2026-04-04T12:29:48.004Z</time></trkpt><trkpt lat="45.039607778630575" lon="9.548422148228715"><ele>69.4</ele><time>2026-04-04T12:29:50.004Z</time></trkpt><trkpt lat="45.03954123904126" lon="9.548311968499432"><ele>68.8</ele><time>2026-04-04T12:29:52.004Z</time></trkpt><trkpt lat="45.03945592005581" lon="9.548235663754562"><ele>68.2</ele><time>2026-04-04T12:29:54.004Z</time></trkpt><trkpt lat="45.039360150372026" lon="9.548206048667199"><ele>67.6</ele><time>2026-04-04T12:29:56.004Z</time></trkpt><trkpt lat="45.0392615159442" lon="9.54821062798959"><ele>67.0</ele><time>2026-04-04T12:29:58.004Z</time></trkpt><trkpt lat="45.03915892941433" lon="9.548209659511958"><ele>67.4</ele><time>2026-04-04T12:30:00.004Z</time></trkpt><trkpt lat="45.03905833544504" lon="9.548208499294212"><ele>67.80000000000001</ele><time>2026-04-04T12:30:02.004Z</time></trkpt><trkpt lat="45.03895817984161" lon="9.54820965108442"><ele>68.2</ele><time>2026-04-04T12:30:04.004Z</time></trkpt><trkpt lat="45.038861202227686" lon="9.548213467640823"><ele>68.60000000000001</ele><time>2026-04-04T12:30:06.004Z</time></trkpt><trkpt lat="45.03876430363108" lon="9.548217303345847"><ele>69.0</ele><time>2026-04-04T12:30:08.004Z</time></trkpt><trkpt lat="45.038663346432585" lon="9.54821262187618"><ele>69.0</ele><time>2026-04-04T12:30:10.004Z</time></trkpt><trkpt lat="45.03856604444526" lon="9.548210614021606"><ele>69.0</ele><time>2026-04-04T12:30:12.004Z</time></trkpt><trkpt lat="45.03846904635852" lon="9.5482113594948"><ele>69.0</ele><time>2026-04-04T12:30:14.004Z</time></trkpt><trkpt lat="45.03836841754916" lon="9.548209603134007"><ele>69.0</ele><time>2026-04-04T12:30:16.004Z</time></trkpt><trkpt lat="45.03826870458" lon="9.548213844793988"><ele>69.0</ele><time>2026-04-04T12:30:18.004Z</time></trkpt><trkpt lat="45.03816585151573" lon="9.548212351827226"><ele>69.4</ele><time>2026-04-04T12:30:20.004Z</time></trkpt><trkpt lat="45.0380690551619" lon="9.548210608211884"><ele>69.80000000000001</ele><time>2026-04-04T12:30:22.004Z</time></trkpt><trkpt lat="45.037968386640905" lon="9.548208757877214"><ele>70.19999999999999</ele><time>2026-04-04T12:30:24.004Z</time></trkpt><trkpt lat="45.03786884056346" lon="9.54820045555738"><ele>70.6</ele><time>2026-04-04T12:30:26.004Z</time></trkpt><trkpt lat="45.03776956816536" lon="9.548202523032458"><ele>71.0</ele><time>2026-04-04T12:30:28.004Z</time></trkpt><trkpt lat="45.0376725128863" lon="9.548205008581071"><ele>71.0</ele><time>2026-04-04T12:30:30.004Z</time></trkpt><trkpt lat="45.03757764713115" lon="9.548200672289642"><ele>71.0</ele><time>2026-04-04T12:30:32.004Z</time></trkpt><trkpt lat="45.03747735090531" lon="9.548202098127307"><ele>71.0</ele><time>2026-04-04T12:30:34.004Z</time></trkpt><trkpt lat="45.03737656572536" lon="9.548201545108917"><ele>71.0</ele><time>2026-04-04T12:30:36.004Z</time></trkpt><trkpt lat="45.037276368801734" lon="9.54819524053727"><ele>71.0</ele><time>2026-04-04T12:30:38.004Z</time></trkpt><trkpt lat="45.037174258253664" lon="9.548201322433489"><ele>70.8</ele><time>2026-04-04T12:30:40.004Z</time></trkpt><trkpt lat="45.03707247476385" lon="9.548204513550585"><ele>70.6</ele><time>2026-04-04T12:30:42.004Z</time></trkpt><trkpt lat="45.03697135213995" lon="9.548201382646571"><ele>70.4</ele><time>2026-04-04T12:30:44.004Z</time></trkpt><trkpt lat="45.03686569763491" lon="9.548200967677529"><ele>70.2</ele><time>2026-04-04T12:30:46.004Z</time></trkpt><trkpt lat="45.03676196527678" lon="9.548199184036028"><ele>70.0</ele><time>2026-04-04T12:30:48.004Z</time></trkpt><trkpt lat="45.03666051567989" lon="9.54819905942872"><ele>70.0</ele><time>2026-04-04T12:30:50.004Z</time></trkpt><trkpt lat="45.03655567049483" lon="9.548199257273279"><ele>70.0</ele><time>2026-04-04T12:30:52.004Z</time></trkpt><trkpt lat="45.03645580620361" lon="9.548198419093541"><ele>70.0</ele><time>2026-04-04T12:30:54.004Z</time></trkpt><trkpt lat="45.03635690010603" lon="9.548198100607783"><ele>70.0</ele><time>2026-04-04T12:30:56.004Z</time></trkpt><trkpt lat="45.03625752310274" lon="9.548193181436984"><ele>70.0</ele><time>2026-04-04T12:30:58.004Z</time></trkpt><trkpt lat="45.03615523651222" lon="9.548192718785844"><ele>70.0</ele><time>2026-04-04T12:31:00.004Z</time></trkpt><trkpt lat="45.0360589011762" lon="9.548188317443808"><ele>70.0</ele><time>2026-04-04T12:31:02.004Z</time></trkpt><trkpt lat="45.03596089919883" lon="9.54819128815494"><ele>70.0</ele><time>2026-04-04T12:31:04.004Z</time></trkpt><trkpt lat="45.03585679036725" lon="9.548183741202399"><ele>70.0</ele><time>2026-04-04T12:31:06.004Z</time></trkpt><trkpt lat="45.03575285181725" lon="9.54818566845642"><ele>70.0</ele><time>2026-04-04T12:31:08.004Z</time></trkpt><trkpt lat="45.03565186356519" lon="9.548186567390838"><ele>70.2</ele><time>2026-04-04T12:31:10.004Z</time></trkpt><trkpt lat="45.03555076884571" lon="9.548185693162466"><ele>70.4</ele><time>2026-04-04T12:31:12.004Z</time></trkpt><trkpt lat="45.03544844268041" lon="9.548180631713423"><ele>70.6</ele><time>2026-04-04T12:31:14.004Z</time></trkpt><trkpt lat="45.0353446812615" lon="9.548178407874726"><ele>70.8</ele><time>2026-04-04T12:31:16.004Z</time></trkpt><trkpt lat="45.03524848539543" lon="9.548173361317529"><ele>71.0</ele><time>2026-04-04T12:31:18.005Z</time></trkpt><trkpt lat="45.0351492986649" lon="9.548176664264366"><ele>71.0</ele><time>2026-04-04T12:31:20.005Z</time></trkpt><trkpt lat="45.03504904252279" lon="9.548174361993448"><ele>71.0</ele><time>2026-04-04T12:31:22.005Z</time></trkpt><trkpt lat="45.03495011153292" lon="9.54817387428313"><ele>71.0</ele><time>2026-04-04T12:31:24.005Z</time></trkpt><trkpt lat="45.03485158628648" lon="9.548176446088444"><ele>71.0</ele><time>2026-04-04T12:31:26.005Z</time></trkpt><trkpt lat="45.034754317944525" lon="9.548171311842582"><ele>71.0</ele><time>2026-04-04T12:31:28.005Z</time></trkpt><trkpt lat="45.03465822859955" lon="9.548171994204981"><ele>70.8</ele><time>2026-04-04T12:31:30.005Z</time></trkpt><trkpt lat="45.03456151499522" lon="9.548170536246245"><ele>70.6</ele><time>2026-04-04T12:31:32.005Z</time></trkpt><trkpt lat="45.03446181793545" lon="9.548171800265044"><ele>70.4</ele><time>2026-04-04T12:31:34.005Z</time></trkpt><trkpt lat="45.03436169805263" lon="9.548171007110156"><ele>70.2</ele><time>2026-04-04T12:31:36.005Z</time></trkpt><trkpt lat="45.03426034232165" lon="9.548169121396828"><ele>70.0</ele><time>2026-04-04T12:31:38.005Z</time></trkpt><trkpt lat="45.03415903041446" lon="9.548166654527593"><ele>70.0</ele><time>2026-04-04T12:31:40.005Z</time></trkpt><trkpt lat="45.03405811111669" lon="9.548168959243421"><ele>70.0</ele><time>2026-04-04T12:31:42.005Z</time></trkpt><trkpt lat="45.03395822644252" lon="9.5481747352195"><ele>70.0</ele><time>2026-04-04T12:31:44.005Z</time></trkpt><trkpt lat="45.03385748511388" lon="9.548192409787683"><ele>70.0</ele><time>2026-04-04T12:31:46.005Z</time></trkpt><trkpt lat="45.03375183497691" lon="9.548208020396954"><ele>70.0</ele><time>2026-04-04T12:31:48.005Z</time></trkpt><trkpt lat="45.03365189141187" lon="9.548234437196236"><ele>70.0</ele><time>2026-04-04T12:31:50.005Z</time></trkpt><trkpt lat="45.03354806499602" lon="9.548260585776985"><ele>70.0</ele><time>2026-04-04T12:31:52.005Z</time></trkpt><trkpt lat="45.03344411989706" lon="9.548284963951943"><ele>70.0</ele><time>2026-04-04T12:31:54.005Z</time></trkpt><trkpt lat="45.03333584845164" lon="9.548305692633079"><ele>70.0</ele><time>2026-04-04T12:31:56.005Z</time></trkpt><trkpt lat="45.03323610183079" lon="9.548336143979208"><ele>70.0</ele><time>2026-04-04T12:31:58.005Z</time></trkpt><trkpt lat="45.033128416206985" lon="9.548363856070717"><ele>70.0</ele><time>2026-04-04T12:32:00.005Z</time></trkpt><trkpt lat="45.03301978053547" lon="9.548387683902444"><ele>70.0</ele><time>2026-04-04T12:32:02.005Z</time></trkpt><trkpt lat="45.032916770658304" lon="9.548412412090672"><ele>70.0</ele><time>2026-04-04T12:32:04.005Z</time></trkpt><trkpt lat="45.032807342876815" lon="9.548442840345107"><ele>70.0</ele><time>2026-04-04T12:32:06.005Z</time></trkpt><trkpt lat="45.03270406052297" lon="9.548467265620841"><ele>70.0</ele><time>2026-04-04T12:32:08.005Z</time></trkpt><trkpt lat="45.03260747068045" lon="9.548489936421802"><ele>70.0</ele><time>2026-04-04T12:32:10.005Z</time></trkpt><trkpt lat="45.03250944632469" lon="9.548518204628893"><ele>70.0</ele><time>2026-04-04T12:32:12.005Z</time></trkpt><trkpt lat="45.03240912937805" lon="9.548537023146384"><ele>70.0</ele><time>2026-04-04T12:32:14.005Z</time></trkpt><trkpt lat="45.03231281310305" lon="9.548561939442838"><ele>70.0</ele><time>2026-04-04T12:32:16.005Z</time></trkpt><trkpt lat="45.0322152437664" lon="9.548588496842886"><ele>70.0</ele><time>2026-04-04T12:32:18.005Z</time></trkpt><trkpt lat="45.032116997368995" lon="9.54860933632041"><ele>70.2</ele><time>2026-04-04T12:32:20.005Z</time></trkpt><trkpt lat="45.03202127405152" lon="9.548631873917623"><ele>70.4</ele><time>2026-04-04T12:32:22.005Z</time></trkpt><trkpt lat="45.03192270849429" lon="9.548660014172036"><ele>70.6</ele><time>2026-04-04T12:32:24.005Z</time></trkpt><trkpt lat="45.03182669391148" lon="9.548684361567666"><ele>70.8</ele><time>2026-04-04T12:32:26.005Z</time></trkpt><trkpt lat="45.031725532555576" lon="9.548707833114907"><ele>71.0</ele><time>2026-04-04T12:32:28.005Z</time></trkpt><trkpt lat="45.031619255457066" lon="9.548729017002017"><ele>71.0</ele><time>2026-04-04T12:32:30.005Z</time></trkpt><trkpt lat="45.03152218230238" lon="9.548754150517976"><ele>71.0</ele><time>2026-04-04T12:32:32.005Z</time></trkpt><trkpt lat="45.03141543728115" lon="9.548778164633184"><ele>71.0</ele><time>2026-04-04T12:32:34.005Z</time></trkpt><trkpt lat="45.03131577367108" lon="9.548805766241482"><ele>71.0</ele><time>2026-04-04T12:32:36.005Z</time></trkpt><trkpt lat="45.03121373148419" lon="9.548828895170299"><ele>71.0</ele><time>2026-04-04T12:32:38.005Z</time></trkpt><trkpt lat="45.03111605058709" lon="9.548855361341001"><ele>71.0</ele><time>2026-04-04T12:32:40.005Z</time></trkpt><trkpt lat="45.03101156758628" lon="9.548874641406556"><ele>71.0</ele><time>2026-04-04T12:32:42.005Z</time></trkpt><trkpt lat="45.030909264908814" lon="9.548901202436346"><ele>71.0</ele><time>2026-04-04T12:32:44.005Z</time></trkpt><trkpt lat="45.030806254803586" lon="9.548925693576079"><ele>71.0</ele><time>2026-04-04T12:32:46.005Z</time></trkpt><trkpt lat="45.030705482069365" lon="9.548945900481431"><ele>71.0</ele><time>2026-04-04T12:32:48.005Z</time></trkpt><trkpt lat="45.030604338839645" lon="9.548975421774118"><ele>71.0</ele><time>2026-04-04T12:32:50.005Z</time></trkpt><trkpt lat="45.030504990819644" lon="9.54900126884143"><ele>71.0</ele><time>2026-04-04T12:32:52.005Z</time></trkpt><trkpt lat="45.03040553558413" lon="9.549022443072543"><ele>71.0</ele><time>2026-04-04T12:32:54.005Z</time></trkpt><trkpt lat="45.03030597354639" lon="9.549046552281974"><ele>71.0</ele><time>2026-04-04T12:32:56.005Z</time></trkpt><trkpt lat="45.030205140116" lon="9.5490741728167"><ele>71.0</ele><time>2026-04-04T12:32:58.005Z</time></trkpt><trkpt lat="45.030108565689545" lon="9.549097768469162"><ele>71.0</ele><time>2026-04-04T12:33:00.005Z</time></trkpt><trkpt lat="45.0300062755781" lon="9.549121369976032"><ele>71.0</ele><time>2026-04-04T12:33:02.005Z</time></trkpt><trkpt lat="45.029911500930766" lon="9.54915037904204"><ele>71.0</ele><time>2026-04-04T12:33:04.005Z</time></trkpt><trkpt lat="45.02980820519296" lon="9.549168918729732"><ele>71.0</ele><time>2026-04-04T12:33:06.005Z</time></trkpt><trkpt lat="45.02970698050783" lon="9.549198481342868"><ele>71.0</ele><time>2026-04-04T12:33:08.005Z</time></trkpt><trkpt lat="45.02960874905352" lon="9.54922858001543"><ele>71.0</ele><time>2026-04-04T12:33:10.005Z</time></trkpt><trkpt lat="45.029502937170435" lon="9.549248772861382"><ele>71.0</ele><time>2026-04-04T12:33:12.005Z</time></trkpt><trkpt lat="45.02939766789669" lon="9.549272891289675"><ele>71.0</ele><time>2026-04-04T12:33:14.005Z</time></trkpt><trkpt lat="45.02929446923327" lon="9.549292091943034"><ele>71.0</ele><time>2026-04-04T12:33:16.005Z</time></trkpt><trkpt lat="45.02919322762471" lon="9.549321946404215"><ele>71.0</ele><time>2026-04-04T12:33:18.005Z</time></trkpt><trkpt lat="45.02909277412242" lon="9.549343174239528"><ele>71.0</ele><time>2026-04-04T12:33:20.005Z</time></trkpt><trkpt lat="45.02899260213079" lon="9.549371153548321"><ele>71.0</ele><time>2026-04-04T12:33:22.005Z</time></trkpt><trkpt lat="45.028891574137795" lon="9.549392938922834"><ele>71.0</ele><time>2026-04-04T12:33:24.005Z</time></trkpt><trkpt lat="45.02879369227685" lon="9.549418611274744"><ele>71.0</ele><time>2026-04-04T12:33:26.005Z</time></trkpt><trkpt lat="45.02868710355934" lon="9.549442899599498"><ele>71.0</ele><time>2026-04-04T12:33:28.005Z</time></trkpt><trkpt lat="45.02859026528951" lon="9.549468162889655"><ele>71.0</ele><time>2026-04-04T12:33:30.005Z</time></trkpt><trkpt lat="45.02848596851597" lon="9.549491642892024"><ele>71.0</ele><time>2026-04-04T12:33:32.005Z</time></trkpt><trkpt lat="45.02838568823589" lon="9.54951553588165"><ele>71.0</ele><time>2026-04-04T12:33:34.005Z</time></trkpt><trkpt lat="45.02828146834921" lon="9.54954291990227"><ele>71.0</ele><time>2026-04-04T12:33:36.005Z</time></trkpt><trkpt lat="45.02817842135935" lon="9.5495667020562"><ele>71.0</ele><time>2026-04-04T12:33:38.005Z</time></trkpt><trkpt lat="45.028076372792135" lon="9.54959219497456"><ele>71.2</ele><time>2026-04-04T12:33:40.005Z</time></trkpt><trkpt lat="45.02797380493886" lon="9.549616017159273"><ele>71.39999999999999</ele><time>2026-04-04T12:33:42.005Z</time></trkpt><trkpt lat="45.027871304614806" lon="9.549640929858281"><ele>71.6</ele><time>2026-04-04T12:33:44.005Z</time></trkpt><trkpt lat="45.027767387574244" lon="9.54966436993785"><ele>71.8</ele><time>2026-04-04T12:33:46.005Z</time></trkpt><trkpt lat="45.02766439150082" lon="9.549690587714698"><ele>72.0</ele><time>2026-04-04T12:33:48.005Z</time></trkpt><trkpt lat="45.02756322323877" lon="9.5497118532512"><ele>72.8</ele><time>2026-04-04T12:33:50.005Z</time></trkpt><trkpt lat="45.027462202728394" lon="9.549737562211764"><ele>73.6</ele><time>2026-04-04T12:33:52.005Z</time></trkpt><trkpt lat="45.027360886032476" lon="9.549764816272198"><ele>74.39999999999999</ele><time>2026-04-04T12:33:54.005Z</time></trkpt><trkpt lat="45.02725758266907" lon="9.549789338324244"><ele>75.2</ele><time>2026-04-04T12:33:56.005Z</time></trkpt><trkpt lat="45.02715462150284" lon="9.549813607216706"><ele>76.0</ele><time>2026-04-04T12:33:58.005Z</time></trkpt><trkpt lat="45.02705412372729" lon="9.549835828960733"><ele>76.0</ele><time>2026-04-04T12:34:00.005Z</time></trkpt><trkpt lat="45.026952250280644" lon="9.549863336741867"><ele>76.0</ele><time>2026-04-04T12:34:02.005Z</time></trkpt><trkpt lat="45.02685134198684" lon="9.54988764582385"><ele>76.0</ele><time>2026-04-04T12:34:04.005Z</time></trkpt><trkpt lat="45.02675321488891" lon="9.549913798139633"><ele>76.0</ele><time>2026-04-04T12:34:06.005Z</time></trkpt><trkpt lat="45.026649085386595" lon="9.549941061922055"><ele>76.0</ele><time>2026-04-04T12:34:08.005Z</time></trkpt><trkpt lat="45.02655121549209" lon="9.549969652224812"><ele>75.8</ele><time>2026-04-04T12:34:10.005Z</time></trkpt><trkpt lat="45.02644646714052" lon="9.549993105978565"><ele>75.6</ele><time>2026-04-04T12:34:12.005Z</time></trkpt><trkpt lat="45.026355951482046" lon="9.550041518403477"><ele>75.4</ele><time>2026-04-04T12:34:14.005Z</time></trkpt><trkpt lat="45.0262540043094" lon="9.550072396871231"><ele>75.2</ele><time>2026-04-04T12:34:16.005Z</time></trkpt><trkpt lat="45.02615754894122" lon="9.550107858278615"><ele>75.0</ele><time>2026-04-04T12:34:18.005Z</time></trkpt><trkpt lat="45.02606260402029" lon="9.550122349210746"><ele>75.0</ele><time>2026-04-04T12:34:20.005Z</time></trkpt><trkpt lat="45.02596009683686" lon="9.550121976303814"><ele>75.0</ele><time>2026-04-04T12:34:22.005Z</time></trkpt><trkpt lat="45.02590539895093" lon="9.550075589063102"><ele>75.0</ele><time>2026-04-04T12:34:23.005Z</time></trkpt><trkpt lat="45.02582658148849" lon="9.549978159204974"><ele>75.0</ele><time>2026-04-04T12:34:25.005Z</time></trkpt><trkpt lat="45.02574910838533" lon="9.549893609919248"><ele>75.0</ele><time>2026-04-04T12:34:27.005Z</time></trkpt><trkpt lat="45.025701944685295" lon="9.549762279840769"><ele>75.0</ele><time>2026-04-04T12:34:29.005Z</time></trkpt><trkpt lat="45.0256617353213" lon="9.549631874766904"><ele>75.0</ele><time>2026-04-04T12:34:31.005Z</time></trkpt><trkpt lat="45.02563602570263" lon="9.549488190013182"><ele>75.0</ele><time>2026-04-04T12:34:33.005Z</time></trkpt><trkpt lat="45.025610085521514" lon="9.549356193511413"><ele>75.0</ele><time>2026-04-04T12:34:35.005Z</time></trkpt><trkpt lat="45.025578973834236" lon="9.549222757033181"><ele>75.0</ele><time>2026-04-04T12:34:37.005Z</time></trkpt><trkpt lat="45.02554263865581" lon="9.549097699609282"><ele>75.0</ele><time>2026-04-04T12:34:39.005Z</time></trkpt><trkpt lat="45.02553055806734" lon="9.548950020054962"><ele>75.0</ele><time>2026-04-04T12:34:41.005Z</time></trkpt><trkpt lat="45.02549460689045" lon="9.54880802865371"><ele>75.0</ele><time>2026-04-04T12:34:43.005Z</time></trkpt><trkpt lat="45.02546890848218" lon="9.54866916952953"><ele>75.0</ele><time>2026-04-04T12:34:45.005Z</time></trkpt><trkpt lat="45.02544002588074" lon="9.548526962621462"><ele>75.0</ele><time>2026-04-04T12:34:47.005Z</time></trkpt><trkpt lat="45.025404380454106" lon="9.548391910547544"><ele>75.0</ele><time>2026-04-04T12:34:49.005Z</time></trkpt><trkpt lat="45.02536681089513" lon="9.548264233500662"><ele>75.0</ele><time>2026-04-04T12:34:51.005Z</time></trkpt><trkpt lat="45.02532164541501" lon="9.548140382074852"><ele>75.0</ele><time>2026-04-04T12:34:53.005Z</time></trkpt><trkpt lat="45.02527501661184" lon="9.54802313538269"><ele>75.0</ele><time>2026-04-04T12:34:55.005Z</time></trkpt><trkpt lat="45.025228033312764" lon="9.547899616070232"><ele>75.0</ele><time>2026-04-04T12:34:57.005Z</time></trkpt><trkpt lat="45.02517206081036" lon="9.547784748406098"><ele>75.2</ele><time>2026-04-04T12:34:59.005Z</time></trkpt><trkpt lat="45.02512391132824" lon="9.547661119760376"><ele>75.4</ele><time>2026-04-04T12:35:01.005Z</time></trkpt><trkpt lat="45.02506412060653" lon="9.547545252914693"><ele>75.6</ele><time>2026-04-04T12:35:03.005Z</time></trkpt><trkpt lat="45.02500653499818" lon="9.547426778558712"><ele>75.8</ele><time>2026-04-04T12:35:05.005Z</time></trkpt><trkpt lat="45.024945828766825" lon="9.54731221395661"><ele>76.0</ele><time>2026-04-04T12:35:07.005Z</time></trkpt><trkpt lat="45.02488655321814" lon="9.547194227831229"><ele>76.0</ele><time>2026-04-04T12:35:09.005Z</time></trkpt><trkpt lat="45.02482480942182" lon="9.547077617554628"><ele>76.0</ele><time>2026-04-04T12:35:11.005Z</time></trkpt><trkpt lat="45.02476374157845" lon="9.546962931121545"><ele>76.0</ele><time>2026-04-04T12:35:13.005Z</time></trkpt><trkpt lat="45.02470173410177" lon="9.546850963842047"><ele>76.0</ele><time>2026-04-04T12:35:15.005Z</time></trkpt><trkpt lat="45.02464391471604" lon="9.546735397407565"><ele>76.0</ele><time>2026-04-04T12:35:17.005Z</time></trkpt><trkpt lat="45.024584512482846" lon="9.54662402383225"><ele>76.0</ele><time>2026-04-04T12:35:19.005Z</time></trkpt><trkpt lat="45.02452432165155" lon="9.54651653954698"><ele>76.0</ele><time>2026-04-04T12:35:21.005Z</time></trkpt><trkpt lat="45.02446397372579" lon="9.54641250096032"><ele>76.0</ele><time>2026-04-04T12:35:23.005Z</time></trkpt><trkpt lat="45.024401367201015" lon="9.546309588211951"><ele>76.0</ele><time>2026-04-04T12:35:25.005Z</time></trkpt><trkpt lat="45.02433710816411" lon="9.54621318931838"><ele>76.0</ele><time>2026-04-04T12:35:27.005Z</time></trkpt><trkpt lat="45.02427466251483" lon="9.546113326412323"><ele>76.0</ele><time>2026-04-04T12:35:29.005Z</time></trkpt><trkpt lat="45.02421011450716" lon="9.546008595025333"><ele>76.0</ele><time>2026-04-04T12:35:31.005Z</time></trkpt><trkpt lat="45.024141846331254" lon="9.54591622107055"><ele>76.0</ele><time>2026-04-04T12:35:33.005Z</time></trkpt><trkpt lat="45.02408318450288" lon="9.54581852116904"><ele>76.0</ele><time>2026-04-04T12:35:35.005Z</time></trkpt><trkpt lat="45.02401024491028" lon="9.545712646107225"><ele>76.0</ele><time>2026-04-04T12:35:37.006Z</time></trkpt><trkpt lat="45.023939841492684" lon="9.545612484846618"><ele>76.0</ele><time>2026-04-04T12:35:39.006Z</time></trkpt><trkpt lat="45.02387098393358" lon="9.545506317433366"><ele>76.0</ele><time>2026-04-04T12:35:41.006Z</time></trkpt><trkpt lat="45.023799825885824" lon="9.545406073351906"><ele>76.0</ele><time>2026-04-04T12:35:43.006Z</time></trkpt><trkpt lat="45.02372518942506" lon="9.545310357545478"><ele>76.0</ele><time>2026-04-04T12:35:45.006Z</time></trkpt><trkpt lat="45.02365514784316" lon="9.545202575609606"><ele>76.0</ele><time>2026-04-04T12:35:47.006Z</time></trkpt><trkpt lat="45.023580000915736" lon="9.545093667514925"><ele>76.0</ele><time>2026-04-04T12:35:49.006Z</time></trkpt><trkpt lat="45.023508240197906" lon="9.544988355843188"><ele>76.0</ele><time>2026-04-04T12:35:51.006Z</time></trkpt><trkpt lat="45.02343636937678" lon="9.544881937463382"><ele>76.0</ele><time>2026-04-04T12:35:53.006Z</time></trkpt><trkpt lat="45.02336489260183" lon="9.54477742733042"><ele>76.0</ele><time>2026-04-04T12:35:55.006Z</time></trkpt><trkpt lat="45.02329817152478" lon="9.54467213436323"><ele>76.0</ele><time>2026-04-04T12:35:57.006Z</time></trkpt><trkpt lat="45.02323086394455" lon="9.54457220692676"><ele>76.0</ele><time>2026-04-04T12:35:59.006Z</time></trkpt><trkpt lat="45.02316625906421" lon="9.544476375220231"><ele>76.0</ele><time>2026-04-04T12:36:01.006Z</time></trkpt><trkpt lat="45.02310125197184" lon="9.544370246078515"><ele>76.0</ele><time>2026-04-04T12:36:03.006Z</time></trkpt><trkpt lat="45.02303285970883" lon="9.544279686355651"><ele>76.0</ele><time>2026-04-04T12:36:05.006Z</time></trkpt><trkpt lat="45.02297405483894" lon="9.544178007195612"><ele>76.0</ele><time>2026-04-04T12:36:07.006Z</time></trkpt><trkpt lat="45.02289463121353" lon="9.54410315135529"><ele>76.0</ele><time>2026-04-04T12:36:09.006Z</time></trkpt><trkpt lat="45.02279000455704" lon="9.544126290536765"><ele>76.0</ele><time>2026-04-04T12:36:11.006Z</time></trkpt><trkpt lat="45.022696462586765" lon="9.544177210649123"><ele>76.0</ele><time>2026-04-04T12:36:13.006Z</time></trkpt><trkpt lat="45.022600346899694" lon="9.544228689496563"><ele>76.0</ele><time>2026-04-04T12:36:15.006Z</time></trkpt><trkpt lat="45.02250198094708" lon="9.544277780126505"><ele>76.0</ele><time>2026-04-04T12:36:17.006Z</time></trkpt><trkpt lat="45.02240439158801" lon="9.544330582979343"><ele>76.0</ele><time>2026-04-04T12:36:19.006Z</time></trkpt><trkpt lat="45.02230766924063" lon="9.544380587311666"><ele>76.0</ele><time>2026-04-04T12:36:21.006Z</time></trkpt><trkpt lat="45.02221099999435" lon="9.544432575913794"><ele>76.0</ele><time>2026-04-04T12:36:23.006Z</time></trkpt><trkpt lat="45.022115248175304" lon="9.544481620882184"><ele>76.0</ele><time>2026-04-04T12:36:25.006Z</time></trkpt><trkpt lat="45.02201858987149" lon="9.544532177627232"><ele>76.0</ele><time>2026-04-04T12:36:27.006Z</time></trkpt><trkpt lat="45.021921266140275" lon="9.544582988976192"><ele>76.0</ele><time>2026-04-04T12:36:29.006Z</time></trkpt><trkpt lat="45.021825457480915" lon="9.544634436354274"><ele>76.0</ele><time>2026-04-04T12:36:31.006Z</time></trkpt><trkpt lat="45.0217297589393" lon="9.54468711746915"><ele>76.0</ele><time>2026-04-04T12:36:33.006Z</time></trkpt><trkpt lat="45.021634486968416" lon="9.544735755892575"><ele>76.0</ele><time>2026-04-04T12:36:35.007Z</time></trkpt><trkpt lat="45.02154012033745" lon="9.54478501319438"><ele>76.0</ele><time>2026-04-04T12:36:37.007Z</time></trkpt><trkpt lat="45.0214456982978" lon="9.544834869434917"><ele>75.8</ele><time>2026-04-04T12:36:39.007Z</time></trkpt><trkpt lat="45.021353550841894" lon="9.544884986391361"><ele>75.6</ele><time>2026-04-04T12:36:41.007Z</time></trkpt><trkpt lat="45.021258843257286" lon="9.544936083893475"><ele>75.4</ele><time>2026-04-04T12:36:43.007Z</time></trkpt><trkpt lat="45.02116413355746" lon="9.544987274289804"><ele>75.2</ele><time>2026-04-04T12:36:45.007Z</time></trkpt><trkpt lat="45.02106845816043" lon="9.545041571259741"><ele>75.0</ele><time>2026-04-04T12:36:47.007Z</time></trkpt><trkpt lat="45.02097062638553" lon="9.545091541343087"><ele>75.0</ele><time>2026-04-04T12:36:49.007Z</time></trkpt><trkpt lat="45.02087448943581" lon="9.54514416175821"><ele>75.0</ele><time>2026-04-04T12:36:51.007Z</time></trkpt><trkpt lat="45.02077973813548" lon="9.545197500913979"><ele>75.0</ele><time>2026-04-04T12:36:53.007Z</time></trkpt><trkpt lat="45.02068486776561" lon="9.545244026648993"><ele>75.0</ele><time>2026-04-04T12:36:55.007Z</time></trkpt><trkpt lat="45.0205903526414" lon="9.545295602025194"><ele>75.0</ele><time>2026-04-04T12:36:57.007Z</time></trkpt><trkpt lat="45.02049699784582" lon="9.545343602877582"><ele>74.8</ele><time>2026-04-04T12:36:59.007Z</time></trkpt><trkpt lat="45.02040312748733" lon="9.545391852172312"><ele>74.6</ele><time>2026-04-04T12:37:01.007Z</time></trkpt><trkpt lat="45.020306939424366" lon="9.54544180557193"><ele>74.4</ele><time>2026-04-04T12:37:03.007Z</time></trkpt><trkpt lat="45.020209847615135" lon="9.545486219089769"><ele>74.2</ele><time>2026-04-04T12:37:05.007Z</time></trkpt><trkpt lat="45.020113119416806" lon="9.545541367376039"><ele>74.0</ele><time>2026-04-04T12:37:07.007Z</time></trkpt><trkpt lat="45.020019376809785" lon="9.545593624298235"><ele>74.2</ele><time>2026-04-04T12:37:09.007Z</time></trkpt><trkpt lat="45.01992212614467" lon="9.545646739060794"><ele>74.4</ele><time>2026-04-04T12:37:11.007Z</time></trkpt><trkpt lat="45.01982964358843" lon="9.545700442776054"><ele>74.6</ele><time>2026-04-04T12:37:13.007Z</time></trkpt><trkpt lat="45.01973759982094" lon="9.545750539692472"><ele>74.8</ele><time>2026-04-04T12:37:15.007Z</time></trkpt><trkpt lat="45.01964116292652" lon="9.545799014820354"><ele>75.0</ele><time>2026-04-04T12:37:17.007Z</time></trkpt><trkpt lat="45.01954993384388" lon="9.545848423781383"><ele>75.0</ele><time>2026-04-04T12:37:19.007Z</time></trkpt><trkpt lat="45.01945425286959" lon="9.545895317209585"><ele>75.0</ele><time>2026-04-04T12:37:21.007Z</time></trkpt><trkpt lat="45.01936009766705" lon="9.545945878545016"><ele>75.0</ele><time>2026-04-04T12:37:23.007Z</time></trkpt><trkpt lat="45.01926598142488" lon="9.545996647427991"><ele>75.0</ele><time>2026-04-04T12:37:25.007Z</time></trkpt><trkpt lat="45.019172669588066" lon="9.546041697180486"><ele>75.0</ele><time>2026-04-04T12:37:27.007Z</time></trkpt><trkpt lat="45.01908851257036" lon="9.546093084686767"><ele>74.8</ele><time>2026-04-04T12:37:29.006Z</time></trkpt><trkpt lat="45.01899291819909" lon="9.54612578903497"><ele>74.6</ele><time>2026-04-04T12:37:31.007Z</time></trkpt><trkpt lat="45.01890361470009" lon="9.546164290704812"><ele>74.4</ele><time>2026-04-04T12:37:33.007Z</time></trkpt><trkpt lat="45.01880258671385" lon="9.54618145675915"><ele>74.2</ele><time>2026-04-04T12:37:35.007Z</time></trkpt><trkpt lat="45.018707983442674" lon="9.546155571740046"><ele>74.0</ele><time>2026-04-04T12:37:37.007Z</time></trkpt><trkpt lat="45.018623780149554" lon="9.546118843162954"><ele>74.0</ele><time>2026-04-04T12:37:39.007Z</time></trkpt><trkpt lat="45.01854750914833" lon="9.546085195649491"><ele>74.0</ele><time>2026-04-04T12:37:41.007Z</time></trkpt><trkpt lat="45.01847322489109" lon="9.546046848592841"><ele>74.0</ele><time>2026-04-04T12:37:43.007Z</time></trkpt><trkpt lat="45.018405560645675" lon="9.546019598969405"><ele>74.0</ele><time>2026-04-04T12:37:45.007Z</time></trkpt><trkpt lat="45.01832958131253" lon="9.546006715271357"><ele>74.0</ele><time>2026-04-04T12:37:47.007Z</time></trkpt><trkpt lat="45.01824555981321" lon="9.546001805841298"><ele>74.0</ele><time>2026-04-04T12:37:49.007Z</time></trkpt><trkpt lat="45.018158715207655" lon="9.546013714686742"><ele>74.4</ele><time>2026-04-04T12:37:51.007Z</time></trkpt><trkpt lat="45.0180607338666" lon="9.54601201459937"><ele>74.80000000000001</ele><time>2026-04-04T12:37:53.007Z</time></trkpt><trkpt lat="45.017977811329224" lon="9.545972128787584"><ele>75.19999999999999</ele><time>2026-04-04T12:37:55.007Z</time></trkpt><trkpt lat="45.017888615322484" lon="9.545901710030579"><ele>75.6</ele><time>2026-04-04T12:37:57.007Z</time></trkpt><trkpt lat="45.017790643200975" lon="9.545867505288719"><ele>76.0</ele><time>2026-04-04T12:37:59.007Z</time></trkpt><trkpt lat="45.017681144333324" lon="9.545902248216981"><ele>76.0</ele><time>2026-04-04T12:38:01.007Z</time></trkpt><trkpt lat="45.01759739410793" lon="9.545985618374477"><ele>76.0</ele><time>2026-04-04T12:38:03.007Z</time></trkpt><trkpt lat="45.01752474456821" lon="9.54609597896616"><ele>76.0</ele><time>2026-04-04T12:38:05.007Z</time></trkpt><trkpt lat="45.01744836023154" lon="9.546188105447019"><ele>76.0</ele><time>2026-04-04T12:38:07.007Z</time></trkpt><trkpt lat="45.01735760555308" lon="9.54623413458939"><ele>76.0</ele><time>2026-04-04T12:38:09.007Z</time></trkpt><trkpt lat="45.01727097131169" lon="9.546249352956202"><ele>76.2</ele><time>2026-04-04T12:38:11.007Z</time></trkpt><trkpt lat="45.01717898846502" lon="9.546260659800248"><ele>76.39999999999999</ele><time>2026-04-04T12:38:13.007Z</time></trkpt><trkpt lat="45.01707857224801" lon="9.54626007628793"><ele>76.6</ele><time>2026-04-04T12:38:15.007Z</time></trkpt><trkpt lat="45.016978632292236" lon="9.546259682732565"><ele>76.8</ele><time>2026-04-04T12:38:17.007Z</time></trkpt><trkpt lat="45.01687851503263" lon="9.546262410353552"><ele>77.0</ele><time>2026-04-04T12:38:19.007Z</time></trkpt><trkpt lat="45.016776686490914" lon="9.546259496641746"><ele>77.0</ele><time>2026-04-04T12:38:21.007Z</time></trkpt><trkpt lat="45.016676321102366" lon="9.546261562456744"><ele>77.0</ele><time>2026-04-04T12:38:23.007Z</time></trkpt><trkpt lat="45.016579577724336" lon="9.54626943743308"><ele>77.0</ele><time>2026-04-04T12:38:25.007Z</time></trkpt><trkpt lat="45.01648718592003" lon="9.546268761113813"><ele>77.0</ele><time>2026-04-04T12:38:27.007Z</time></trkpt><trkpt lat="45.016390061164046" lon="9.54626857295221"><ele>77.0</ele><time>2026-04-04T12:38:29.007Z</time></trkpt><trkpt lat="45.016287376439266" lon="9.54627171574154"><ele>77.0</ele><time>2026-04-04T12:38:31.007Z</time></trkpt><trkpt lat="45.01619609904658" lon="9.546277509822737"><ele>77.0</ele><time>2026-04-04T12:38:33.007Z</time></trkpt><trkpt lat="45.016102864683795" lon="9.546286566959779"><ele>77.0</ele><time>2026-04-04T12:38:35.007Z</time></trkpt><trkpt lat="45.01601005213455" lon="9.546290375497838"><ele>77.0</ele><time>2026-04-04T12:38:37.007Z</time></trkpt><trkpt lat="45.01590662514081" lon="9.54629276223749"><ele>77.0</ele><time>2026-04-04T12:38:39.007Z</time></trkpt><trkpt lat="45.01580816639683" lon="9.54630505295228"><ele>76.8</ele><time>2026-04-04T12:38:41.007Z</time></trkpt><trkpt lat="45.0157112794876" lon="9.54630405771791"><ele>76.6</ele><time>2026-04-04T12:38:43.007Z</time></trkpt><trkpt lat="45.01561071927971" lon="9.546310614432421"><ele>76.39999999999999</ele><time>2026-04-04T12:38:45.007Z</time></trkpt><trkpt lat="45.01550947877291" lon="9.546309569760995"><ele>76.2</ele><time>2026-04-04T12:38:47.007Z</time></trkpt><trkpt lat="45.015416028283276" lon="9.546314969546355"><ele>76.0</ele><time>2026-04-04T12:38:49.007Z</time></trkpt><trkpt lat="45.01532076108355" lon="9.546313860621018"><ele>76.0</ele><time>2026-04-04T12:38:51.007Z</time></trkpt><trkpt lat="45.01522386429597" lon="9.546318788913336"><ele>76.0</ele><time>2026-04-04T12:38:53.007Z</time></trkpt><trkpt lat="45.01512616865367" lon="9.546324461272516"><ele>76.0</ele><time>2026-04-04T12:38:55.007Z</time></trkpt><trkpt lat="45.01502785133826" lon="9.546326801603728"><ele>76.0</ele><time>2026-04-04T12:38:57.007Z</time></trkpt><trkpt lat="45.014926501926695" lon="9.546325506845255"><ele>76.0</ele><time>2026-04-04T12:38:59.007Z</time></trkpt><trkpt lat="45.01482352618935" lon="9.546329067989978"><ele>76.2</ele><time>2026-04-04T12:39:01.007Z</time></trkpt><trkpt lat="45.01472186027763" lon="9.546335406947573"><ele>76.39999999999999</ele><time>2026-04-04T12:39:03.007Z</time></trkpt><trkpt lat="45.01461990571137" lon="9.546339947965205"><ele>76.6</ele><time>2026-04-04T12:39:05.007Z</time></trkpt><trkpt lat="45.014517277061266" lon="9.546341057322733"><ele>76.8</ele><time>2026-04-04T12:39:07.007Z</time></trkpt><trkpt lat="45.01441989723264" lon="9.546344459119092"><ele>77.0</ele><time>2026-04-04T12:39:09.007Z</time></trkpt><trkpt lat="45.01432073998006" lon="9.546348681221525"><ele>77.0</ele><time>2026-04-04T12:39:11.007Z</time></trkpt><trkpt lat="45.014224013607055" lon="9.546347463617701"><ele>77.0</ele><time>2026-04-04T12:39:13.007Z</time></trkpt><trkpt lat="45.0141239271447" lon="9.54635328973557"><ele>77.0</ele><time>2026-04-04T12:39:15.007Z</time></trkpt><trkpt lat="45.01402214106288" lon="9.546347993062994"><ele>77.0</ele><time>2026-04-04T12:39:17.007Z</time></trkpt><trkpt lat="45.013924961977054" lon="9.546355122315637"><ele>77.0</ele><time>2026-04-04T12:39:19.007Z</time></trkpt><trkpt lat="45.01382533080452" lon="9.546359833120919"><ele>77.4</ele><time>2026-04-04T12:39:21.007Z</time></trkpt><trkpt lat="45.01373034571627" lon="9.546364637424649"><ele>77.80000000000001</ele><time>2026-04-04T12:39:23.007Z</time></trkpt><trkpt lat="45.01363599334753" lon="9.546365093407358"><ele>78.2</ele><time>2026-04-04T12:39:25.007Z</time></trkpt><trkpt lat="45.01354141805036" lon="9.54636686073463"><ele>78.60000000000001</ele><time>2026-04-04T12:39:27.007Z</time></trkpt><trkpt lat="45.01344572961816" lon="9.546372350123695"><ele>79.0</ele><time>2026-04-04T12:39:29.008Z</time></trkpt><trkpt lat="45.013343000765374" lon="9.546373750175437"><ele>78.8</ele><time>2026-04-04T12:39:31.008Z</time></trkpt><trkpt lat="45.01324286616871" lon="9.546376152764397"><ele>78.60000000000001</ele><time>2026-04-04T12:39:33.008Z</time></trkpt><trkpt lat="45.0131400145878" lon="9.546377574898868"><ele>78.4</ele><time>2026-04-04T12:39:35.007Z</time></trkpt><trkpt lat="45.0130425287964" lon="9.546382319215262"><ele>78.2</ele><time>2026-04-04T12:39:37.007Z</time></trkpt><trkpt lat="45.01294159490167" lon="9.54638996430026"><ele>78.0</ele><time>2026-04-04T12:39:39.008Z</time></trkpt><trkpt lat="45.01284135927839" lon="9.546387963342289"><ele>78.0</ele><time>2026-04-04T12:39:41.007Z</time></trkpt><trkpt lat="45.01274448423468" lon="9.546391845585703"><ele>78.0</ele><time>2026-04-04T12:39:43.007Z</time></trkpt><trkpt lat="45.0126451605408" lon="9.546395113124332"><ele>78.0</ele><time>2026-04-04T12:39:45.007Z</time></trkpt><trkpt lat="45.0125508664857" lon="9.546396229411181"><ele>78.0</ele><time>2026-04-04T12:39:47.007Z</time></trkpt><trkpt lat="45.012456244854164" lon="9.546395747229598"><ele>78.0</ele><time>2026-04-04T12:39:49.007Z</time></trkpt><trkpt lat="45.01236668974941" lon="9.546397255119295"><ele>77.8</ele><time>2026-04-04T12:39:51.007Z</time></trkpt><trkpt lat="45.01227039239065" lon="9.546391580757717"><ele>77.6</ele><time>2026-04-04T12:39:53.007Z</time></trkpt><trkpt lat="45.012175100669715" lon="9.546383837908962"><ele>77.4</ele><time>2026-04-04T12:39:55.007Z</time></trkpt><trkpt lat="45.012074420532606" lon="9.546382072505697"><ele>77.2</ele><time>2026-04-04T12:39:57.007Z</time></trkpt><trkpt lat="45.011980344755564" lon="9.546374023695687"><ele>77.0</ele><time>2026-04-04T12:39:59.007Z</time></trkpt><trkpt lat="45.01187945524842" lon="9.546367869273944"><ele>77.0</ele><time>2026-04-04T12:40:01.007Z</time></trkpt><trkpt lat="45.01178107728073" lon="9.54636151161138"><ele>77.0</ele><time>2026-04-04T12:40:03.007Z</time></trkpt><trkpt lat="45.011680540954885" lon="9.546356042065778"><ele>77.0</ele><time>2026-04-04T12:40:05.007Z</time></trkpt><trkpt lat="45.01158060661167" lon="9.546348488590512"><ele>77.0</ele><time>2026-04-04T12:40:07.007Z</time></trkpt><trkpt lat="45.01148163645389" lon="9.54633593228951"><ele>77.0</ele><time>2026-04-04T12:40:09.007Z</time></trkpt><trkpt lat="45.01137581446962" lon="9.546335012034609"><ele>77.4</ele><time>2026-04-04T12:40:11.007Z</time></trkpt><trkpt lat="45.01127619846334" lon="9.54632340533678"><ele>77.80000000000001</ele><time>2026-04-04T12:40:13.007Z</time></trkpt><trkpt lat="45.01117708364865" lon="9.54632292026268"><ele>78.2</ele><time>2026-04-04T12:40:15.007Z</time></trkpt><trkpt lat="45.01107437325244" lon="9.54631527738827"><ele>78.60000000000001</ele><time>2026-04-04T12:40:17.007Z</time></trkpt><trkpt lat="45.01097263093748" lon="9.54631122581198"><ele>79.0</ele><time>2026-04-04T12:40:19.007Z</time></trkpt><trkpt lat="45.01087340237023" lon="9.546303661380053"><ele>78.8</ele><time>2026-04-04T12:40:21.007Z</time></trkpt><trkpt lat="45.010769967598755" lon="9.546294684385881"><ele>78.60000000000001</ele><time>2026-04-04T12:40:23.007Z</time></trkpt><trkpt lat="45.01066987663378" lon="9.546294748249304"><ele>78.4</ele><time>2026-04-04T12:40:25.007Z</time></trkpt><trkpt lat="45.01056975037042" lon="9.546289747696111"><ele>78.2</ele><time>2026-04-04T12:40:27.007Z</time></trkpt><trkpt lat="45.010470755827725" lon="9.546282194844222"><ele>78.0</ele><time>2026-04-04T12:40:29.007Z</time></trkpt><trkpt lat="45.010368246067436" lon="9.546278929919593"><ele>78.0</ele><time>2026-04-04T12:40:31.007Z</time></trkpt><trkpt lat="45.01027042114181" lon="9.546272110766242"><ele>78.0</ele><time>2026-04-04T12:40:33.007Z</time></trkpt><trkpt lat="45.01016924303009" lon="9.546263913088898"><ele>78.0</ele><time>2026-04-04T12:40:35.007Z</time></trkpt><trkpt lat="45.010068414891876" lon="9.546256365338024"><ele>78.0</ele><time>2026-04-04T12:40:37.007Z</time></trkpt><trkpt lat="45.009961117627846" lon="9.546248928471615"><ele>78.0</ele><time>2026-04-04T12:40:39.007Z</time></trkpt><trkpt lat="45.009869325489824" lon="9.54624364326656"><ele>78.4</ele><time>2026-04-04T12:40:41.007Z</time></trkpt><trkpt lat="45.00976509447231" lon="9.546232338581762"><ele>78.8</ele><time>2026-04-04T12:40:43.007Z</time></trkpt><trkpt lat="45.00966288260481" lon="9.546227671364393"><ele>79.2</ele><time>2026-04-04T12:40:45.007Z</time></trkpt><trkpt lat="45.00956437379087" lon="9.546218720025331"><ele>79.6</ele><time>2026-04-04T12:40:47.007Z</time></trkpt><trkpt lat="45.0094654753383" lon="9.54621210878561"><ele>80.0</ele><time>2026-04-04T12:40:49.007Z</time></trkpt><trkpt lat="45.00936587572193" lon="9.546211980193208"><ele>80.2</ele><time>2026-04-04T12:40:51.007Z</time></trkpt><trkpt lat="45.00926726100659" lon="9.546203907229811"><ele>80.4</ele><time>2026-04-04T12:40:53.007Z</time></trkpt><trkpt lat="45.00917143152665" lon="9.546199208517526"><ele>80.6</ele><time>2026-04-04T12:40:55.007Z</time></trkpt><trkpt lat="45.00907333391719" lon="9.546195607706148"><ele>80.8</ele><time>2026-04-04T12:40:57.007Z</time></trkpt><trkpt lat="45.00897584305158" lon="9.546190036035135"><ele>81.0</ele><time>2026-04-04T12:40:59.007Z</time></trkpt><trkpt lat="45.00887974823484" lon="9.546179548209178"><ele>81.0</ele><time>2026-04-04T12:41:01.007Z</time></trkpt><trkpt lat="45.00877644999005" lon="9.54617214781846"><ele>81.0</ele><time>2026-04-04T12:41:03.007Z</time></trkpt><trkpt lat="45.008674948349025" lon="9.546161221512854"><ele>81.0</ele><time>2026-04-04T12:41:05.007Z</time></trkpt><trkpt lat="45.008575225637884" lon="9.54615866808867"><ele>81.0</ele><time>2026-04-04T12:41:07.007Z</time></trkpt><trkpt lat="45.00847340965066" lon="9.54615374892959"><ele>81.0</ele><time>2026-04-04T12:41:09.007Z</time></trkpt><trkpt lat="45.00837196127736" lon="9.546141864567117"><ele>81.0</ele><time>2026-04-04T12:41:11.007Z</time></trkpt><trkpt lat="45.0082751711388" lon="9.546138322115905"><ele>81.0</ele><time>2026-04-04T12:41:13.007Z</time></trkpt><trkpt lat="45.00817575791769" lon="9.546130852315992"><ele>81.0</ele><time>2026-04-04T12:41:15.007Z</time></trkpt><trkpt lat="45.0080781107612" lon="9.546128645222366"><ele>81.0</ele><time>2026-04-04T12:41:17.007Z</time></trkpt><trkpt lat="45.00798292165139" lon="9.546126532274531"><ele>81.0</ele><time>2026-04-04T12:41:19.007Z</time></trkpt><trkpt lat="45.007887405903624" lon="9.546115643133094"><ele>81.0</ele><time>2026-04-04T12:41:21.007Z</time></trkpt><trkpt lat="45.007793442788945" lon="9.546110738464462"><ele>81.0</ele><time>2026-04-04T12:41:23.007Z</time></trkpt><trkpt lat="45.00770030412218" lon="9.546105640007523"><ele>81.0</ele><time>2026-04-04T12:41:25.007Z</time></trkpt><trkpt lat="45.0075999771313" lon="9.5460987294465"><ele>81.0</ele><time>2026-04-04T12:41:27.007Z</time></trkpt><trkpt lat="45.007496944636564" lon="9.546098656521567"><ele>81.0</ele><time>2026-04-04T12:41:29.007Z</time></trkpt><trkpt lat="45.00739794690807" lon="9.546098744881343"><ele>81.0</ele><time>2026-04-04T12:41:31.007Z</time></trkpt><trkpt lat="45.007291278046765" lon="9.546099362848231"><ele>81.0</ele><time>2026-04-04T12:41:33.009Z</time></trkpt><trkpt lat="45.0071880232616" lon="9.546102627559472"><ele>81.0</ele><time>2026-04-04T12:41:35.008Z</time></trkpt><trkpt lat="45.00708817772478" lon="9.546110473051456"><ele>81.0</ele><time>2026-04-04T12:41:37.008Z</time></trkpt><trkpt lat="45.00699017280562" lon="9.546103003753352"><ele>81.0</ele><time>2026-04-04T12:41:39.008Z</time></trkpt><trkpt lat="45.00688769727446" lon="9.546101262447129"><ele>81.0</ele><time>2026-04-04T12:41:41.008Z</time></trkpt><trkpt lat="45.00678777807589" lon="9.546096758359514"><ele>81.0</ele><time>2026-04-04T12:41:43.008Z</time></trkpt><trkpt lat="45.0066874170953" lon="9.546098230306228"><ele>81.0</ele><time>2026-04-04T12:41:45.008Z</time></trkpt><trkpt lat="45.00658839554781" lon="9.546098116274994"><ele>81.0</ele><time>2026-04-04T12:41:47.008Z</time></trkpt><trkpt lat="45.00648858488169" lon="9.54610118907731"><ele>81.0</ele><time>2026-04-04T12:41:49.008Z</time></trkpt><trkpt lat="45.006392058004664" lon="9.546109217346762"><ele>81.6</ele><time>2026-04-04T12:41:51.008Z</time></trkpt><trkpt lat="45.00628988361376" lon="9.546101490735134"><ele>82.19999999999999</ele><time>2026-04-04T12:41:53.008Z</time></trkpt><trkpt lat="45.006190519082516" lon="9.54611339356376"><ele>82.80000000000001</ele><time>2026-04-04T12:41:55.008Z</time></trkpt><trkpt lat="45.006086624395934" lon="9.54610729552787"><ele>83.4</ele><time>2026-04-04T12:41:57.008Z</time></trkpt><trkpt lat="45.00598414435851" lon="9.54611017861144"><ele>84.0</ele><time>2026-04-04T12:41:59.008Z</time></trkpt><trkpt lat="45.00588258289467" lon="9.546111046402263"><ele>83.6</ele><time>2026-04-04T12:42:01.008Z</time></trkpt><trkpt lat="45.00577593856801" lon="9.54611258607644"><ele>83.2</ele><time>2026-04-04T12:42:03.008Z</time></trkpt><trkpt lat="45.00567987458769" lon="9.54610817807919"><ele>82.8</ele><time>2026-04-04T12:42:05.008Z</time></trkpt><trkpt lat="45.00557951273313" lon="9.54610745507073"><ele>82.39999999999999</ele><time>2026-04-04T12:42:07.008Z</time></trkpt><trkpt lat="45.00547763208148" lon="9.546104817669526"><ele>82.0</ele><time>2026-04-04T12:42:09.008Z</time></trkpt><trkpt lat="45.00537957710156" lon="9.54611031399287"><ele>82.0</ele><time>2026-04-04T12:42:11.008Z</time></trkpt><trkpt lat="45.00527887838419" lon="9.546111231151462"><ele>82.0</ele><time>2026-04-04T12:42:13.008Z</time></trkpt><trkpt lat="45.00517979339997" lon="9.546113116675576"><ele>82.0</ele><time>2026-04-04T12:42:15.008Z</time></trkpt><trkpt lat="45.00508199159347" lon="9.546115202508263"><ele>82.0</ele><time>2026-04-04T12:42:17.008Z</time></trkpt><trkpt lat="45.00498398402685" lon="9.54611345481855"><ele>82.0</ele><time>2026-04-04T12:42:19.008Z</time></trkpt><trkpt lat="45.00488917614819" lon="9.546116923514889"><ele>82.19999999999999</ele><time>2026-04-04T12:42:21.008Z</time></trkpt><trkpt lat="45.00479248575749" lon="9.546120778950554"><ele>82.4</ele><time>2026-04-04T12:42:23.008Z</time></trkpt><trkpt lat="45.00469231266117" lon="9.546122715915857"><ele>82.6</ele><time>2026-04-04T12:42:25.008Z</time></trkpt><trkpt lat="45.00459531842305" lon="9.546119439926324"><ele>82.80000000000001</ele><time>2026-04-04T12:42:27.008Z</time></trkpt><trkpt lat="45.0044961955053" lon="9.546121748024198"><ele>83.0</ele><time>2026-04-04T12:42:29.008Z</time></trkpt><trkpt lat="45.00439877706613" lon="9.54612365211887"><ele>83.0</ele><time>2026-04-04T12:42:31.008Z</time></trkpt><trkpt lat="45.004292431172104" lon="9.54612800025134"><ele>83.0</ele><time>2026-04-04T12:42:33.008Z</time></trkpt><trkpt lat="45.004195859374086" lon="9.546130095809946"><ele>83.0</ele><time>2026-04-04T12:42:35.008Z</time></trkpt><trkpt lat="45.0040921223724" lon="9.54612939610712"><ele>83.0</ele><time>2026-04-04T12:42:37.008Z</time></trkpt><trkpt lat="45.0039959883958" lon="9.54613251201332"><ele>83.0</ele><time>2026-04-04T12:42:39.008Z</time></trkpt><trkpt lat="45.00389662844998" lon="9.546132796592662"><ele>83.4</ele><time>2026-04-04T12:42:41.008Z</time></trkpt><trkpt lat="45.0037979021615" lon="9.546129092539367"><ele>83.80000000000001</ele><time>2026-04-04T12:42:43.008Z</time></trkpt><trkpt lat="45.00369831579307" lon="9.546131602132176"><ele>84.2</ele><time>2026-04-04T12:42:45.008Z</time></trkpt><trkpt lat="45.003596328950444" lon="9.546132041707365"><ele>84.6</ele><time>2026-04-04T12:42:47.008Z</time></trkpt><trkpt lat="45.003498748814195" lon="9.5461332954036"><ele>85.0</ele><time>2026-04-04T12:42:49.008Z</time></trkpt><trkpt lat="45.00340510368469" lon="9.546137388133264"><ele>85.16666666666666</ele><time>2026-04-04T12:42:51.008Z</time></trkpt><trkpt lat="45.00331287502536" lon="9.546142470883545"><ele>85.33333333333333</ele><time>2026-04-04T12:42:53.008Z</time></trkpt><trkpt lat="45.00321791616923" lon="9.546143123589834"><ele>85.5</ele><time>2026-04-04T12:42:55.008Z</time></trkpt><trkpt lat="45.003127200050464" lon="9.546121079208127"><ele>85.66666666666667</ele><time>2026-04-04T12:42:57.008Z</time></trkpt><trkpt lat="45.00307931752441" lon="9.546019800778316"><ele>85.83333333333334</ele><time>2026-04-04T12:42:59.008Z</time></trkpt><trkpt lat="45.003047348727705" lon="9.545920127994755"><ele>86.0</ele><time>2026-04-04T12:43:01.008Z</time></trkpt><trkpt lat="45.00300457058076" lon="9.545819348825853"><ele>86.0</ele><time>2026-04-04T12:43:03.008Z</time></trkpt><trkpt lat="45.00297222730695" lon="9.54572019775794"><ele>86.0</ele><time>2026-04-04T12:43:05.008Z</time></trkpt><trkpt lat="45.002940571016104" lon="9.545627795951996"><ele>86.0</ele><time>2026-04-04T12:43:07.008Z</time></trkpt><trkpt lat="45.002909593827084" lon="9.545536642877236"><ele>86.0</ele><time>2026-04-04T12:43:09.008Z</time></trkpt><trkpt lat="45.00288030244019" lon="9.54544041674205"><ele>86.0</ele><time>2026-04-04T12:43:11.008Z</time></trkpt><trkpt lat="45.002846568051474" lon="9.545346502951123"><ele>86.0</ele><time>2026-04-04T12:43:13.008Z</time></trkpt><trkpt lat="45.00281179418634" lon="9.545233583496238"><ele>86.19999999999999</ele><time>2026-04-04T12:43:15.008Z</time></trkpt><trkpt lat="45.002770363369635" lon="9.545120053023828"><ele>86.39999999999999</ele><time>2026-04-04T12:43:17.008Z</time></trkpt><trkpt lat="45.0027322697624" lon="9.545000734555291"><ele>86.6</ele><time>2026-04-04T12:43:19.008Z</time></trkpt><trkpt lat="45.0026893193009" lon="9.544880467197594"><ele>86.8</ele><time>2026-04-04T12:43:21.008Z</time></trkpt><trkpt lat="45.002645871495936" lon="9.544762231238348"><ele>87.0</ele><time>2026-04-04T12:43:23.008Z</time></trkpt><trkpt lat="45.002609979719836" lon="9.544646214525494"><ele>87.0</ele><time>2026-04-04T12:43:25.008Z</time></trkpt><trkpt lat="45.00256670616453" lon="9.544525522395242"><ele>87.0</ele><time>2026-04-04T12:43:27.008Z</time></trkpt><trkpt lat="45.00252428278688" lon="9.544399420111084"><ele>87.0</ele><time>2026-04-04T12:43:29.008Z</time></trkpt><trkpt lat="45.00248016859751" lon="9.544272356529524"><ele>87.0</ele><time>2026-04-04T12:43:31.008Z</time></trkpt><trkpt lat="45.00243752139174" lon="9.544147387308724"><ele>87.0</ele><time>2026-04-04T12:43:33.008Z</time></trkpt><trkpt lat="45.00239126704615" lon="9.544020165408812"><ele>87.0</ele><time>2026-04-04T12:43:35.008Z</time></trkpt><trkpt lat="45.00234598864527" lon="9.543893286464446"><ele>87.0</ele><time>2026-04-04T12:43:37.008Z</time></trkpt><trkpt lat="45.00230696792521" lon="9.54377040106536"><ele>87.0</ele><time>2026-04-04T12:43:39.009Z</time></trkpt><trkpt lat="45.00226244984885" lon="9.543646772205854"><ele>87.0</ele><time>2026-04-04T12:43:41.008Z</time></trkpt><trkpt lat="45.00222099161373" lon="9.543528277375433"><ele>87.0</ele><time>2026-04-04T12:43:43.008Z</time></trkpt><trkpt lat="45.0021763762568" lon="9.543403339030778"><ele>86.6</ele><time>2026-04-04T12:43:45.008Z</time></trkpt><trkpt lat="45.00213410055264" lon="9.543276517520582"><ele>86.19999999999999</ele><time>2026-04-04T12:43:47.009Z</time></trkpt><trkpt lat="45.002089124435145" lon="9.543155133804435"><ele>85.8</ele><time>2026-04-04T12:43:49.008Z</time></trkpt><trkpt lat="45.00204474262616" lon="9.543026631250092"><ele>85.4</ele><time>2026-04-04T12:43:51.009Z</time></trkpt><trkpt lat="45.00200149223451" lon="9.542899928677755"><ele>85.0</ele><time>2026-04-04T12:43:53.008Z</time></trkpt><trkpt lat="45.001955591705766" lon="9.542781290200224"><ele>85.0</ele><time>2026-04-04T12:43:55.008Z</time></trkpt><trkpt lat="45.00191369521951" lon="9.542658393337602"><ele>85.0</ele><time>2026-04-04T12:43:57.008Z</time></trkpt><trkpt lat="45.00186969654714" lon="9.542530887843771"><ele>85.0</ele><time>2026-04-04T12:43:59.008Z</time></trkpt><trkpt lat="45.00182288934981" lon="9.542408106907569"><ele>85.0</ele><time>2026-04-04T12:44:01.008Z</time></trkpt><trkpt lat="45.00177976954254" lon="9.542277145465269"><ele>85.0</ele><time>2026-04-04T12:44:03.008Z</time></trkpt><trkpt lat="45.001736136218845" lon="9.542153034444109"><ele>85.4</ele><time>2026-04-04T12:44:05.008Z</time></trkpt><trkpt lat="45.001695448978495" lon="9.542026767184458"><ele>85.8</ele><time>2026-04-04T12:44:07.008Z</time></trkpt><trkpt lat="45.00165191003236" lon="9.541899769750602"><ele>86.19999999999999</ele><time>2026-04-04T12:44:09.009Z</time></trkpt><trkpt lat="45.00160984586113" lon="9.541780768294458"><ele>86.6</ele><time>2026-04-04T12:44:11.009Z</time></trkpt><trkpt lat="45.00156753898029" lon="9.541652070705668"><ele>87.0</ele><time>2026-04-04T12:44:13.009Z</time></trkpt><trkpt lat="45.00152717465619" lon="9.541536459097962"><ele>87.19999999999999</ele><time>2026-04-04T12:44:15.009Z</time></trkpt><trkpt lat="45.00148470797023" lon="9.541417706482145"><ele>87.4</ele><time>2026-04-04T12:44:17.009Z</time></trkpt><trkpt lat="45.001441081592844" lon="9.541287755214322"><ele>87.6</ele><time>2026-04-04T12:44:19.009Z</time></trkpt><trkpt lat="45.00139822970547" lon="9.541164686937242"><ele>87.80000000000001</ele><time>2026-04-04T12:44:21.009Z</time></trkpt><trkpt lat="45.001357409796015" lon="9.541042633101725"><ele>88.0</ele><time>2026-04-04T12:44:23.009Z</time></trkpt><trkpt lat="45.00131477216361" lon="9.540919343195148"><ele>88.0</ele><time>2026-04-04T12:44:25.009Z</time></trkpt><trkpt lat="45.001269489385976" lon="9.540792478147967"><ele>88.0</ele><time>2026-04-04T12:44:27.009Z</time></trkpt><trkpt lat="45.00122619317219" lon="9.540667984545742"><ele>88.0</ele><time>2026-04-04T12:44:29.009Z</time></trkpt><trkpt lat="45.001187179254615" lon="9.540539580348598"><ele>88.0</ele><time>2026-04-04T12:44:31.009Z</time></trkpt><trkpt lat="45.00113756966881" lon="9.540408759754468"><ele>88.0</ele><time>2026-04-04T12:44:33.009Z</time></trkpt><trkpt lat="45.00109571175199" lon="9.540284363149212"><ele>88.16666666666666</ele><time>2026-04-04T12:44:35.009Z</time></trkpt><trkpt lat="45.001047651179206" lon="9.540164286737395"><ele>88.33333333333333</ele><time>2026-04-04T12:44:37.009Z</time></trkpt><trkpt lat="45.001011540058904" lon="9.540044796241665"><ele>88.5</ele><time>2026-04-04T12:44:39.009Z</time></trkpt><trkpt lat="45.0009677990936" lon="9.539941504292665"><ele>88.66666666666667</ele><time>2026-04-04T12:44:41.009Z</time></trkpt><trkpt lat="45.000931791510816" lon="9.539841775043042"><ele>88.83333333333334</ele><time>2026-04-04T12:44:43.009Z</time></trkpt><trkpt lat="45.00089777485819" lon="9.539738383731331"><ele>89.0</ele><time>2026-04-04T12:44:45.009Z</time></trkpt><trkpt lat="45.00086299086664" lon="9.539639267841139"><ele>89.16666666666667</ele><time>2026-04-04T12:44:47.009Z</time></trkpt><trkpt lat="45.00082759331461" lon="9.539548208102365"><ele>89.33333333333334</ele><time>2026-04-04T12:44:49.009Z</time></trkpt><trkpt lat="45.000790015870656" lon="9.53944724108699"><ele>89.5</ele><time>2026-04-04T12:44:51.009Z</time></trkpt><trkpt lat="45.0007542404765" lon="9.53934260994128"><ele>89.66666666666667</ele><time>2026-04-04T12:44:53.009Z</time></trkpt><trkpt lat="45.00071351890186" lon="9.539226702556983"><ele>89.83333333333333</ele><time>2026-04-04T12:44:55.009Z</time></trkpt><trkpt lat="45.00067541139571" lon="9.5391156563932"><ele>90.0</ele><time>2026-04-04T12:44:57.009Z</time></trkpt><trkpt lat="45.000636972959406" lon="9.539011527065504"><ele>90.0</ele><time>2026-04-04T12:44:59.009Z</time></trkpt><trkpt lat="45.00060170288227" lon="9.538915591637615"><ele>90.0</ele><time>2026-04-04T12:45:01.009Z</time></trkpt><trkpt lat="45.000566420024434" lon="9.538813397544333"><ele>90.0</ele><time>2026-04-04T12:45:03.009Z</time></trkpt><trkpt lat="45.000532013059626" lon="9.538722185875942"><ele>90.0</ele><time>2026-04-04T12:45:05.009Z</time></trkpt><trkpt lat="45.00050168355371" lon="9.538611825169694"><ele>90.0</ele><time>2026-04-04T12:45:07.009Z</time></trkpt><trkpt lat="45.00045889370927" lon="9.538500057968667"><ele>90.0</ele><time>2026-04-04T12:45:09.009Z</time></trkpt><trkpt lat="45.0004205838552" lon="9.538387569851047"><ele>90.0</ele><time>2026-04-04T12:45:11.009Z</time></trkpt><trkpt lat="45.00037849554745" lon="9.538277767889214"><ele>90.0</ele><time>2026-04-04T12:45:13.009Z</time></trkpt><trkpt lat="45.000347929118284" lon="9.53817612417822"><ele>90.0</ele><time>2026-04-04T12:45:15.009Z</time></trkpt><trkpt lat="45.00031179743635" lon="9.538083347823813"><ele>90.0</ele><time>2026-04-04T12:45:17.009Z</time></trkpt><trkpt lat="45.00027794949779" lon="9.53797819813438"><ele>90.0</ele><time>2026-04-04T12:45:19.009Z</time></trkpt><trkpt lat="45.00024655868268" lon="9.537879156548586"><ele>90.0</ele><time>2026-04-04T12:45:21.009Z</time></trkpt><trkpt lat="45.000216088511706" lon="9.53777253265441"><ele>90.0</ele><time>2026-04-04T12:45:23.009Z</time></trkpt><trkpt lat="45.00018682730607" lon="9.537665209761546"><ele>90.0</ele><time>2026-04-04T12:45:25.009Z</time></trkpt><trkpt lat="45.00015347091469" lon="9.537543520883194"><ele>90.0</ele><time>2026-04-04T12:45:27.009Z</time></trkpt><trkpt lat="45.00011210836807" lon="9.537418166711998"><ele>90.0</ele><time>2026-04-04T12:45:29.009Z</time></trkpt><trkpt lat="45.00008553198096" lon="9.53728875821392"><ele>90.0</ele><time>2026-04-04T12:45:31.009Z</time></trkpt><trkpt lat="45.00004910375794" lon="9.537169018425708"><ele>90.0</ele><time>2026-04-04T12:45:33.009Z</time></trkpt><trkpt lat="45.00002029396305" lon="9.537049895464113"><ele>90.0</ele><time>2026-04-04T12:45:35.009Z</time></trkpt><trkpt lat="44.99998481780571" lon="9.536926413086377"><ele>90.0</ele><time>2026-04-04T12:45:37.009Z</time></trkpt><trkpt lat="44.99995114953163" lon="9.53679373921104"><ele>90.0</ele><time>2026-04-04T12:45:39.009Z</time></trkpt><trkpt lat="44.99991876419528" lon="9.536656623549215"><ele>90.0</ele><time>2026-04-04T12:45:41.009Z</time></trkpt><trkpt lat="44.999882499115074" lon="9.536523984750938"><ele>90.0</ele><time>2026-04-04T12:45:43.009Z</time></trkpt><trkpt lat="44.99984670895268" lon="9.536392735027329"><ele>90.0</ele><time>2026-04-04T12:45:45.009Z</time></trkpt><trkpt lat="44.99980843335634" lon="9.53626244847624"><ele>90.0</ele><time>2026-04-04T12:45:47.009Z</time></trkpt><trkpt lat="44.99976627560418" lon="9.536136163771845"><ele>90.0</ele><time>2026-04-04T12:45:49.009Z</time></trkpt><trkpt lat="44.99973312546758" lon="9.536004362448928"><ele>90.0</ele><time>2026-04-04T12:45:51.009Z</time></trkpt><trkpt lat="44.99969524727167" lon="9.53587300871287"><ele>89.8</ele><time>2026-04-04T12:45:53.009Z</time></trkpt><trkpt lat="44.99965757198148" lon="9.535749841919577"><ele>89.6</ele><time>2026-04-04T12:45:55.009Z</time></trkpt><trkpt lat="44.99961265224129" lon="9.53563632720804"><ele>89.4</ele><time>2026-04-04T12:45:57.009Z</time></trkpt><trkpt lat="44.999563065557396" lon="9.535543460144023"><ele>89.2</ele><time>2026-04-04T12:45:59.009Z</time></trkpt><trkpt lat="44.99953116083976" lon="9.535430076803056"><ele>89.0</ele><time>2026-04-04T12:46:01.009Z</time></trkpt><trkpt lat="44.99947601915767" lon="9.53530907788737"><ele>89.0</ele><time>2026-04-04T12:46:03.009Z</time></trkpt><trkpt lat="44.999435761195734" lon="9.53521176736208"><ele>89.0</ele><time>2026-04-04T12:46:05.009Z</time></trkpt><trkpt lat="44.99938289661935" lon="9.535101255816791"><ele>89.0</ele><time>2026-04-04T12:46:07.009Z</time></trkpt><trkpt lat="44.99933528773774" lon="9.534988851438257"><ele>89.0</ele><time>2026-04-04T12:46:09.009Z</time></trkpt><trkpt lat="44.999278471171614" lon="9.534890337293387"><ele>89.0</ele><time>2026-04-04T12:46:11.009Z</time></trkpt><trkpt lat="44.99921773223703" lon="9.53479933668034"><ele>89.0</ele><time>2026-04-04T12:46:13.009Z</time></trkpt><trkpt lat="44.99916766039584" lon="9.534690562761897"><ele>89.4</ele><time>2026-04-04T12:46:15.009Z</time></trkpt><trkpt lat="44.999121600933584" lon="9.534575783035308"><ele>89.80000000000001</ele><time>2026-04-04T12:46:17.009Z</time></trkpt><trkpt lat="44.999078167547175" lon="9.53447990292403"><ele>90.19999999999999</ele><time>2026-04-04T12:46:19.008Z</time></trkpt><trkpt lat="44.99901058968953" lon="9.534385034614807"><ele>90.6</ele><time>2026-04-04T12:46:21.008Z</time></trkpt><trkpt lat="44.998952326073194" lon="9.53428908649694"><ele>91.0</ele><time>2026-04-04T12:46:23.008Z</time></trkpt><trkpt lat="44.99889334338503" lon="9.534189704485373"><ele>91.0</ele><time>2026-04-04T12:46:25.008Z</time></trkpt><trkpt lat="44.998838791412076" lon="9.534094371579807"><ele>91.0</ele><time>2026-04-04T12:46:27.008Z</time></trkpt><trkpt lat="44.99878707839769" lon="9.533989939706025"><ele>91.0</ele><time>2026-04-04T12:46:29.008Z</time></trkpt><trkpt lat="44.99873882791729" lon="9.533905353231551"><ele>91.0</ele><time>2026-04-04T12:46:31.008Z</time></trkpt><trkpt lat="44.99868539713367" lon="9.533783783604097"><ele>91.0</ele><time>2026-04-04T12:46:33.008Z</time></trkpt><trkpt lat="44.998629921319484" lon="9.533669897315265"><ele>91.0</ele><time>2026-04-04T12:46:35.008Z</time></trkpt><trkpt lat="44.99857646143944" lon="9.533571055295756"><ele>91.0</ele><time>2026-04-04T12:46:37.008Z</time></trkpt><trkpt lat="44.99852105847309" lon="9.533475805085978"><ele>91.0</ele><time>2026-04-04T12:46:39.008Z</time></trkpt><trkpt lat="44.99847910020284" lon="9.533350539324806"><ele>91.0</ele><time>2026-04-04T12:46:41.008Z</time></trkpt><trkpt lat="44.998433528256534" lon="9.533233294437442"><ele>91.0</ele><time>2026-04-04T12:46:43.008Z</time></trkpt><trkpt lat="44.998396916252204" lon="9.533109125307503"><ele>91.0</ele><time>2026-04-04T12:46:45.008Z</time></trkpt><trkpt lat="44.99839420003326" lon="9.532979926249823"><ele>91.0</ele><time>2026-04-04T12:46:47.008Z</time></trkpt><trkpt lat="44.99839117369107" lon="9.532849087855023"><ele>91.0</ele><time>2026-04-04T12:46:49.008Z</time></trkpt><trkpt lat="44.99840291083726" lon="9.532720278197637"><ele>91.0</ele><time>2026-04-04T12:46:51.008Z</time></trkpt><trkpt lat="44.99840596736101" lon="9.532595053585293"><ele>91.0</ele><time>2026-04-04T12:46:53.008Z</time></trkpt><trkpt lat="44.998406472457155" lon="9.532478510784495"><ele>91.0</ele><time>2026-04-04T12:46:55.008Z</time></trkpt><trkpt lat="44.9984100463814" lon="9.532349072972426"><ele>91.0</ele><time>2026-04-04T12:46:57.008Z</time></trkpt><trkpt lat="44.99840104111101" lon="9.532236596315308"><ele>91.0</ele><time>2026-04-04T12:46:59.008Z</time></trkpt><trkpt lat="44.99839204317491" lon="9.532064226162984"><ele>91.0</ele><time>2026-04-04T12:47:02.008Z</time></trkpt><trkpt lat="44.99838168715894" lon="9.531948534596605"><ele>91.0</ele><time>2026-04-04T12:47:04.008Z</time></trkpt><trkpt lat="44.99836497058642" lon="9.531834523598"><ele>91.0</ele><time>2026-04-04T12:47:06.008Z</time></trkpt><trkpt lat="44.998317886003186" lon="9.531719225779337"><ele>91.0</ele><time>2026-04-04T12:47:08.008Z</time></trkpt><trkpt lat="44.99826006013542" lon="9.531638010018913"><ele>91.0</ele><time>2026-04-04T12:47:10.008Z</time></trkpt><trkpt lat="44.9981924738579" lon="9.531559502726488"><ele>91.0</ele><time>2026-04-04T12:47:12.008Z</time></trkpt><trkpt lat="44.99815281137489" lon="9.531446724524068"><ele>91.0</ele><time>2026-04-04T12:47:14.008Z</time></trkpt><trkpt lat="44.998089390273975" lon="9.531351650088041"><ele>91.0</ele><time>2026-04-04T12:47:16.008Z</time></trkpt><trkpt lat="44.998030643498424" lon="9.531256090537486"><ele>91.0</ele><time>2026-04-04T12:47:18.008Z</time></trkpt><trkpt lat="44.997972077782656" lon="9.531172636356972"><ele>90.8</ele><time>2026-04-04T12:47:20.008Z</time></trkpt><trkpt lat="44.99789764922547" lon="9.531069370889293"><ele>90.6</ele><time>2026-04-04T12:47:22.008Z</time></trkpt><trkpt lat="44.99784432173437" lon="9.530986983926832"><ele>90.4</ele><time>2026-04-04T12:47:24.008Z</time></trkpt><trkpt lat="44.99778162701039" lon="9.530870930882058"><ele>90.2</ele><time>2026-04-04T12:47:26.008Z</time></trkpt><trkpt lat="44.9977276769295" lon="9.530765523616179"><ele>90.0</ele><time>2026-04-04T12:47:28.008Z</time></trkpt><trkpt lat="44.997671074919566" lon="9.530676229474352"><ele>90.0</ele><time>2026-04-04T12:47:30.008Z</time></trkpt><trkpt lat="44.99761904275366" lon="9.530573237779327"><ele>90.0</ele><time>2026-04-04T12:47:32.008Z</time></trkpt><trkpt lat="44.99756535661818" lon="9.530482803779762"><ele>90.0</ele><time>2026-04-04T12:47:34.008Z</time></trkpt><trkpt lat="44.997505335867174" lon="9.530378429787449"><ele>90.0</ele><time>2026-04-04T12:47:36.008Z</time></trkpt><trkpt lat="44.997442948143544" lon="9.530272430266573"><ele>90.0</ele><time>2026-04-04T12:47:38.008Z</time></trkpt><trkpt lat="44.997385413244785" lon="9.530167058796357"><ele>90.2</ele><time>2026-04-04T12:47:40.008Z</time></trkpt><trkpt lat="44.99732265204655" lon="9.530068654355773"><ele>90.4</ele><time>2026-04-04T12:47:42.008Z</time></trkpt><trkpt lat="44.9972697218469" lon="9.529968803265433"><ele>90.6</ele><time>2026-04-04T12:47:44.008Z</time></trkpt><trkpt lat="44.99721416395158" lon="9.52986268793447"><ele>90.8</ele><time>2026-04-04T12:47:46.008Z</time></trkpt><trkpt lat="44.99716307913007" lon="9.529761300277801"><ele>91.0</ele><time>2026-04-04T12:47:48.008Z</time></trkpt><trkpt lat="44.997113641099496" lon="9.529646081690199"><ele>90.8</ele><time>2026-04-04T12:47:50.008Z</time></trkpt><trkpt lat="44.99705956238666" lon="9.529545167396218"><ele>90.6</ele><time>2026-04-04T12:47:52.009Z</time></trkpt><trkpt lat="44.997000938879175" lon="9.52944654702028"><ele>90.4</ele><time>2026-04-04T12:47:54.008Z</time></trkpt><trkpt lat="44.996952509023" lon="9.529329850991148"><ele>90.2</ele><time>2026-04-04T12:47:56.008Z</time></trkpt><trkpt lat="44.99689699782699" lon="9.529215660320533"><ele>90.0</ele><time>2026-04-04T12:47:58.008Z</time></trkpt><trkpt lat="44.996843871982115" lon="9.529113468359068"><ele>90.0</ele><time>2026-04-04T12:48:00.008Z</time></trkpt><trkpt lat="44.99680003030674" lon="9.52901739559104"><ele>90.0</ele><time>2026-04-04T12:48:02.008Z</time></trkpt><trkpt lat="44.99675415509921" lon="9.528925932260668"><ele>90.0</ele><time>2026-04-04T12:48:04.008Z</time></trkpt><trkpt lat="44.99670626844288" lon="9.528835674347423"><ele>90.0</ele><time>2026-04-04T12:48:06.008Z</time></trkpt><trkpt lat="44.99666190629869" lon="9.528728523517724"><ele>90.0</ele><time>2026-04-04T12:48:08.008Z</time></trkpt><trkpt lat="44.99661254364353" lon="9.528627039796936"><ele>90.0</ele><time>2026-04-04T12:48:10.008Z</time></trkpt><trkpt lat="44.99656086155439" lon="9.528522029628368"><ele>90.0</ele><time>2026-04-04T12:48:12.008Z</time></trkpt><trkpt lat="44.99651405710229" lon="9.528427219397411"><ele>90.0</ele><time>2026-04-04T12:48:14.008Z</time></trkpt><trkpt lat="44.99646197753392" lon="9.52832297686593"><ele>90.0</ele><time>2026-04-04T12:48:16.008Z</time></trkpt><trkpt lat="44.99641166455162" lon="9.52822114478186"><ele>90.0</ele><time>2026-04-04T12:48:18.008Z</time></trkpt><trkpt lat="44.99636047833239" lon="9.528112869057487"><ele>90.0</ele><time>2026-04-04T12:48:20.008Z</time></trkpt><trkpt lat="44.99630710419026" lon="9.528011091170915"><ele>90.0</ele><time>2026-04-04T12:48:22.008Z</time></trkpt><trkpt lat="44.99625938909313" lon="9.527908127519783"><ele>90.0</ele><time>2026-04-04T12:48:24.009Z</time></trkpt><trkpt lat="44.99620831424363" lon="9.527802241449113"><ele>90.0</ele><time>2026-04-04T12:48:26.009Z</time></trkpt><trkpt lat="44.996154866683725" lon="9.52769429061932"><ele>90.0</ele><time>2026-04-04T12:48:28.009Z</time></trkpt><trkpt lat="44.996101111171626" lon="9.527591061967772"><ele>90.0</ele><time>2026-04-04T12:48:30.009Z</time></trkpt><trkpt lat="44.99605044734482" lon="9.527479912578944"><ele>90.0</ele><time>2026-04-04T12:48:32.009Z</time></trkpt><trkpt lat="44.99599682271828" lon="9.527376210487406"><ele>90.0</ele><time>2026-04-04T12:48:34.009Z</time></trkpt><trkpt lat="44.995947676681105" lon="9.527266150134107"><ele>90.0</ele><time>2026-04-04T12:48:36.009Z</time></trkpt><trkpt lat="44.99589471073235" lon="9.527167215973613"><ele>90.0</ele><time>2026-04-04T12:48:38.009Z</time></trkpt><trkpt lat="44.99584437210487" lon="9.52705704413985"><ele>90.0</ele><time>2026-04-04T12:48:40.009Z</time></trkpt><trkpt lat="44.995800098021355" lon="9.52695507228629"><ele>90.0</ele><time>2026-04-04T12:48:42.009Z</time></trkpt><trkpt lat="44.99574782243581" lon="9.5268661927101"><ele>90.0</ele><time>2026-04-04T12:48:44.009Z</time></trkpt><trkpt lat="44.995684087599116" lon="9.526794304385932"><ele>90.33333333333333</ele><time>2026-04-04T12:48:46.009Z</time></trkpt><trkpt lat="44.995606855283526" lon="9.526761608817207"><ele>90.66666666666667</ele><time>2026-04-04T12:48:48.009Z</time></trkpt><trkpt lat="44.99552478165201" lon="9.526740513063691"><ele>91.0</ele><time>2026-04-04T12:48:50.009Z</time></trkpt><trkpt lat="44.99544405126302" lon="9.526735891078594"><ele>91.33333333333334</ele><time>2026-04-04T12:48:52.009Z</time></trkpt><trkpt lat="44.9953633789367" lon="9.526741815962852"><ele>91.66666666666667</ele><time>2026-04-04T12:48:54.009Z</time></trkpt><trkpt lat="44.99527258642214" lon="9.526745890124147"><ele>92.0</ele><time>2026-04-04T12:48:56.009Z</time></trkpt><trkpt lat="44.995186680889965" lon="9.526751287219955"><ele>92.0</ele><time>2026-04-04T12:48:58.009Z</time></trkpt><trkpt lat="44.99509360771007" lon="9.526754612836012"><ele>92.0</ele><time>2026-04-04T12:49:00.009Z</time></trkpt><trkpt lat="44.99501073059834" lon="9.526759846328565"><ele>92.0</ele><time>2026-04-04T12:49:02.009Z</time></trkpt><trkpt lat="44.9949186290895" lon="9.52676258503665"><ele>92.0</ele><time>2026-04-04T12:49:04.009Z</time></trkpt><trkpt lat="44.994832511829294" lon="9.526764991853868"><ele>92.0</ele><time>2026-04-04T12:49:06.009Z</time></trkpt><trkpt lat="44.994744066603" lon="9.526767819966485"><ele>92.0</ele><time>2026-04-04T12:49:08.009Z</time></trkpt><trkpt lat="44.99465391797791" lon="9.526769073527895"><ele>92.16666666666667</ele><time>2026-04-04T12:49:10.009Z</time></trkpt><trkpt lat="44.99456828957592" lon="9.526763939761468"><ele>92.33333333333334</ele><time>2026-04-04T12:49:12.009Z</time></trkpt><trkpt lat="44.99447973626318" lon="9.52675118905958"><ele>92.5</ele><time>2026-04-04T12:49:14.009Z</time></trkpt><trkpt lat="44.994389960969734" lon="9.526736648971179"><ele>92.66666666666667</ele><time>2026-04-04T12:49:16.009Z</time></trkpt><trkpt lat="44.9942990589398" lon="9.52672076212888"><ele>92.83333333333333</ele><time>2026-04-04T12:49:18.009Z</time></trkpt><trkpt lat="44.994209424945986" lon="9.526709028132453"><ele>93.0</ele><time>2026-04-04T12:49:20.009Z</time></trkpt><trkpt lat="44.994120598126976" lon="9.526694445771529"><ele>93.4</ele><time>2026-04-04T12:49:22.009Z</time></trkpt><trkpt lat="44.994030779206504" lon="9.526683968984885"><ele>93.80000000000001</ele><time>2026-04-04T12:49:24.009Z</time></trkpt><trkpt lat="44.99394332417598" lon="9.526669294327384"><ele>94.2</ele><time>2026-04-04T12:49:26.009Z</time></trkpt><trkpt lat="44.993855007554785" lon="9.526653093322688"><ele>94.6</ele><time>2026-04-04T12:49:28.009Z</time></trkpt><trkpt lat="44.9937634825202" lon="9.526635989722687"><ele>95.0</ele><time>2026-04-04T12:49:30.009Z</time></trkpt><trkpt lat="44.99367398798919" lon="9.526616401408619"><ele>95.0</ele><time>2026-04-04T12:49:32.009Z</time></trkpt><trkpt lat="44.99358486715634" lon="9.526591831918592"><ele>95.0</ele><time>2026-04-04T12:49:34.009Z</time></trkpt><trkpt lat="44.99349711066164" lon="9.526568508603248"><ele>95.0</ele><time>2026-04-04T12:49:36.009Z</time></trkpt><trkpt lat="44.99340681192707" lon="9.526541903824786"><ele>95.0</ele><time>2026-04-04T12:49:38.009Z</time></trkpt><trkpt lat="44.9933178330217" lon="9.526513227568763"><ele>95.0</ele><time>2026-04-04T12:49:40.009Z</time></trkpt><trkpt lat="44.99322635245306" lon="9.526481824706716"><ele>95.2</ele><time>2026-04-04T12:49:42.009Z</time></trkpt><trkpt lat="44.993131615664986" lon="9.52644830362675"><ele>95.4</ele><time>2026-04-04T12:49:44.009Z</time></trkpt><trkpt lat="44.993043296163044" lon="9.526430211658537"><ele>95.6</ele><time>2026-04-04T12:49:46.009Z</time></trkpt><trkpt lat="44.992953677945366" lon="9.526396104213191"><ele>95.8</ele><time>2026-04-04T12:49:48.009Z</time></trkpt><trkpt lat="44.992863401736045" lon="9.526369773906119"><ele>96.0</ele><time>2026-04-04T12:49:50.009Z</time></trkpt><trkpt lat="44.992775018799065" lon="9.526340666064248"><ele>96.0</ele><time>2026-04-04T12:49:52.009Z</time></trkpt><trkpt lat="44.99268665728512" lon="9.526314157509345"><ele>96.0</ele><time>2026-04-04T12:49:54.009Z</time></trkpt><trkpt lat="44.99259866489887" lon="9.526291713570219"><ele>96.0</ele><time>2026-04-04T12:49:56.009Z</time></trkpt><trkpt lat="44.9925115923996" lon="9.526257460415076"><ele>96.0</ele><time>2026-04-04T12:49:58.008Z</time></trkpt><trkpt lat="44.99242096718458" lon="9.526227792732001"><ele>96.0</ele><time>2026-04-04T12:50:00.008Z</time></trkpt><trkpt lat="44.99232934409634" lon="9.526203819919337"><ele>95.4</ele><time>2026-04-04T12:50:02.009Z</time></trkpt><trkpt lat="44.99224029556416" lon="9.526161226965009"><ele>94.8</ele><time>2026-04-04T12:50:04.009Z</time></trkpt><trkpt lat="44.99215528710846" lon="9.526108597341697"><ele>94.2</ele><time>2026-04-04T12:50:06.009Z</time></trkpt><trkpt lat="44.99207768437029" lon="9.526047451967413"><ele>93.60000000000001</ele><time>2026-04-04T12:50:08.008Z</time></trkpt><trkpt lat="44.992007713494594" lon="9.525975769138608"><ele>93.0</ele><time>2026-04-04T12:50:10.009Z</time></trkpt><trkpt lat="44.99193595611507" lon="9.525902321474046"><ele>93.0</ele><time>2026-04-04T12:50:12.009Z</time></trkpt><trkpt lat="44.991875262149954" lon="9.525814472418523"><ele>93.0</ele><time>2026-04-04T12:50:14.009Z</time></trkpt><trkpt lat="44.991813300720246" lon="9.525729495842826"><ele>93.0</ele><time>2026-04-04T12:50:16.009Z</time></trkpt><trkpt lat="44.99175226109023" lon="9.525641412469682"><ele>93.0</ele><time>2026-04-04T12:50:18.009Z</time></trkpt><trkpt lat="44.9916876916879" lon="9.525560063800361"><ele>93.0</ele><time>2026-04-04T12:50:20.009Z</time></trkpt><trkpt lat="44.99162638564442" lon="9.525463000990213"><ele>93.0</ele><time>2026-04-04T12:50:22.009Z</time></trkpt><trkpt lat="44.99156740869815" lon="9.525381754658104"><ele>93.60000000000001</ele><time>2026-04-04T12:50:24.009Z</time></trkpt><trkpt lat="44.99150114962073" lon="9.525292391849542"><ele>94.2</ele><time>2026-04-04T12:50:26.009Z</time></trkpt><trkpt lat="44.991438730298945" lon="9.525197938905317"><ele>94.8</ele><time>2026-04-04T12:50:28.009Z</time></trkpt><trkpt lat="44.991372870362284" lon="9.525107691243646"><ele>95.4</ele><time>2026-04-04T12:50:30.009Z</time></trkpt><trkpt lat="44.991309837886575" lon="9.525015087476017"><ele>96.0</ele><time>2026-04-04T12:50:32.009Z</time></trkpt><trkpt lat="44.99124093792582" lon="9.524924557238988"><ele>96.0</ele><time>2026-04-04T12:50:34.009Z</time></trkpt><trkpt lat="44.991172828827004" lon="9.524833835188538"><ele>96.0</ele><time>2026-04-04T12:50:36.009Z</time></trkpt><trkpt lat="44.991111495749884" lon="9.524757238257715"><ele>96.0</ele><time>2026-04-04T12:50:38.009Z</time></trkpt><trkpt lat="44.99104346974218" lon="9.524665916736552"><ele>96.0</ele><time>2026-04-04T12:50:40.009Z</time></trkpt><trkpt lat="44.9909757037177" lon="9.524571875602483"><ele>96.0</ele><time>2026-04-04T12:50:42.009Z</time></trkpt><trkpt lat="44.990915870659556" lon="9.524480335954719"><ele>96.0</ele><time>2026-04-04T12:50:44.009Z</time></trkpt><trkpt lat="44.99084942593035" lon="9.524395861102429"><ele>96.0</ele><time>2026-04-04T12:50:46.009Z</time></trkpt><trkpt lat="44.99078405062857" lon="9.524310051360814"><ele>96.0</ele><time>2026-04-04T12:50:48.009Z</time></trkpt><trkpt lat="44.99072776356832" lon="9.524221424395437"><ele>96.0</ele><time>2026-04-04T12:50:50.009Z</time></trkpt><trkpt lat="44.990665775032326" lon="9.524139137861152"><ele>96.0</ele><time>2026-04-04T12:50:52.009Z</time></trkpt><trkpt lat="44.99060390249232" lon="9.524053669344093"><ele>96.0</ele><time>2026-04-04T12:50:54.009Z</time></trkpt><trkpt lat="44.99053648302809" lon="9.523958528241101"><ele>96.0</ele><time>2026-04-04T12:50:56.009Z</time></trkpt><trkpt lat="44.99047761884024" lon="9.52387117090239"><ele>96.0</ele><time>2026-04-04T12:50:58.009Z</time></trkpt><trkpt lat="44.99041076351283" lon="9.523777312671438"><ele>96.0</ele><time>2026-04-04T12:51:00.009Z</time></trkpt><trkpt lat="44.99034713013997" lon="9.523688999265731"><ele>96.0</ele><time>2026-04-04T12:51:02.009Z</time></trkpt><trkpt lat="44.99028318310228" lon="9.523618971871874"><ele>96.0</ele><time>2026-04-04T12:51:04.009Z</time></trkpt><trkpt lat="44.99020056567863" lon="9.523554776887856"><ele>96.0</ele><time>2026-04-04T12:51:06.009Z</time></trkpt><trkpt lat="44.99010715283018" lon="9.523499700256405"><ele>96.5</ele><time>2026-04-04T12:51:08.009Z</time></trkpt><trkpt lat="44.990005174708116" lon="9.523445095838735"><ele>97.0</ele><time>2026-04-04T12:51:10.009Z</time></trkpt><trkpt lat="44.98989532762955" lon="9.52339862130886"><ele>97.5</ele><time>2026-04-04T12:51:12.009Z</time></trkpt><trkpt lat="44.989791371887385" lon="9.523346414918866"><ele>98.0</ele><time>2026-04-04T12:51:14.009Z</time></trkpt><trkpt lat="44.98968015499377" lon="9.52329824342445"><ele>98.0</ele><time>2026-04-04T12:51:16.009Z</time></trkpt><trkpt lat="44.989581174676104" lon="9.52325567875742"><ele>98.0</ele><time>2026-04-04T12:51:18.009Z</time></trkpt><trkpt lat="44.989482695924565" lon="9.523215191415032"><ele>98.0</ele><time>2026-04-04T12:51:20.009Z</time></trkpt><trkpt lat="44.98938806549358" lon="9.523173309619994"><ele>98.0</ele><time>2026-04-04T12:51:22.009Z</time></trkpt><trkpt lat="44.98929779004005" lon="9.523136851031262"><ele>98.0</ele><time>2026-04-04T12:51:24.009Z</time></trkpt><trkpt lat="44.98920543239865" lon="9.523093884546237"><ele>97.83333333333333</ele><time>2026-04-04T12:51:26.009Z</time></trkpt><trkpt lat="44.98911253182306" lon="9.523061070464871"><ele>97.66666666666666</ele><time>2026-04-04T12:51:28.009Z</time></trkpt><trkpt lat="44.98902410981843" lon="9.523026015127208"><ele>97.5</ele><time>2026-04-04T12:51:30.009Z</time></trkpt><trkpt lat="44.98894305595674" lon="9.522992479325618"><ele>97.33333333333334</ele><time>2026-04-04T12:51:32.009Z</time></trkpt><trkpt lat="44.98885898702875" lon="9.522956093666497"><ele>97.16666666666667</ele><time>2026-04-04T12:51:34.009Z</time></trkpt><trkpt lat="44.98877380255706" lon="9.522927531835546"><ele>97.0</ele><time>2026-04-04T12:51:36.009Z</time></trkpt><trkpt lat="44.988693869100594" lon="9.522891474117836"><ele>96.83333333333334</ele><time>2026-04-04T12:51:38.009Z</time></trkpt><trkpt lat="44.98861350095213" lon="9.522856059182516"><ele>96.66666666666667</ele><time>2026-04-04T12:51:40.009Z</time></trkpt><trkpt lat="44.988529594721136" lon="9.522822598531784"><ele>96.5</ele><time>2026-04-04T12:51:42.009Z</time></trkpt><trkpt lat="44.98844790653279" lon="9.52279414983907"><ele>96.33333333333334</ele><time>2026-04-04T12:51:44.009Z</time></trkpt><trkpt lat="44.988357994732155" lon="9.52275573803942"><ele>96.16666666666667</ele><time>2026-04-04T12:51:46.009Z</time></trkpt><trkpt lat="44.9882687892371" lon="9.522718523153879"><ele>96.0</ele><time>2026-04-04T12:51:48.009Z</time></trkpt><trkpt lat="44.988184657306675" lon="9.522674087520741"><ele>96.5</ele><time>2026-04-04T12:51:50.009Z</time></trkpt><trkpt lat="44.988088498124526" lon="9.522643528374536"><ele>97.0</ele><time>2026-04-04T12:51:52.009Z</time></trkpt><trkpt lat="44.98801749600989" lon="9.522606349306477"><ele>97.5</ele><time>2026-04-04T12:51:54.009Z</time></trkpt><trkpt lat="44.98793428956966" lon="9.522578697864715"><ele>98.0</ele><time>2026-04-04T12:51:56.009Z</time></trkpt><trkpt lat="44.987849270179126" lon="9.522546736960386"><ele>98.5</ele><time>2026-04-04T12:51:58.009Z</time></trkpt><trkpt lat="44.98776129722755" lon="9.52250958150302"><ele>99.0</ele><time>2026-04-04T12:52:00.009Z</time></trkpt><trkpt lat="44.987679105333136" lon="9.52247639153354"><ele>99.0</ele><time>2026-04-04T12:52:02.009Z</time></trkpt><trkpt lat="44.9875889562611" lon="9.522458607411789"><ele>99.0</ele><time>2026-04-04T12:52:04.009Z</time></trkpt><trkpt lat="44.98750893675993" lon="9.522443226767601"><ele>99.0</ele><time>2026-04-04T12:52:06.009Z</time></trkpt><trkpt lat="44.987434638207084" lon="9.52242227357457"><ele>99.0</ele><time>2026-04-04T12:52:08.01Z</time></trkpt><trkpt lat="44.98736085900043" lon="9.522409814957284"><ele>99.0</ele><time>2026-04-04T12:52:10.009Z</time></trkpt><trkpt lat="44.98728535445206" lon="9.522389923689659"><ele>99.0</ele><time>2026-04-04T12:52:12.01Z</time></trkpt><trkpt lat="44.98720324061596" lon="9.52237445909582"><ele>98.83333333333333</ele><time>2026-04-04T12:52:14.009Z</time></trkpt><trkpt lat="44.98712404857183" lon="9.522356615962172"><ele>98.66666666666666</ele><time>2026-04-04T12:52:16.009Z</time></trkpt><trkpt lat="44.987041627041584" lon="9.522337675399722"><ele>98.5</ele><time>2026-04-04T12:52:18.009Z</time></trkpt><trkpt lat="44.98696063227914" lon="9.522314289410145"><ele>98.33333333333333</ele><time>2026-04-04T12:52:20.009Z</time></trkpt><trkpt lat="44.98687475160874" lon="9.522296805467557"><ele>98.16666666666666</ele><time>2026-04-04T12:52:22.009Z</time></trkpt><trkpt lat="44.98679005333391" lon="9.522299541434736"><ele>98.0</ele><time>2026-04-04T12:52:24.009Z</time></trkpt><trkpt lat="44.986711368029795" lon="9.522280426798304"><ele>97.66666666666666</ele><time>2026-04-04T12:52:26.009Z</time></trkpt><trkpt lat="44.98663729286725" lon="9.522269808446547"><ele>97.33333333333333</ele><time>2026-04-04T12:52:28.009Z</time></trkpt><trkpt lat="44.98656865072656" lon="9.522269382514994"><ele>97.0</ele><time>2026-04-04T12:52:30.009Z</time></trkpt><trkpt lat="44.98650495204588" lon="9.52226754341705"><ele>96.66666666666666</ele><time>2026-04-04T12:52:32.009Z</time></trkpt><trkpt lat="44.986426933811536" lon="9.522251832563642"><ele>96.33333333333333</ele><time>2026-04-04T12:52:34.009Z</time></trkpt><trkpt lat="44.98634427890718" lon="9.522245229997695"><ele>96.0</ele><time>2026-04-04T12:52:36.009Z</time></trkpt><trkpt lat="44.98625857894301" lon="9.52223915586821"><ele>96.0</ele><time>2026-04-04T12:52:38.01Z</time></trkpt><trkpt lat="44.98618315140747" lon="9.52222179629069"><ele>96.0</ele><time>2026-04-04T12:52:40.01Z</time></trkpt><trkpt lat="44.986091769745606" lon="9.522215917314018"><ele>96.0</ele><time>2026-04-04T12:52:42.01Z</time></trkpt><trkpt lat="44.986002238865666" lon="9.52219350340563"><ele>96.0</ele><time>2026-04-04T12:52:44.01Z</time></trkpt><trkpt lat="44.98591277978033" lon="9.522180161848365"><ele>96.0</ele><time>2026-04-04T12:52:46.01Z</time></trkpt><trkpt lat="44.985821123234764" lon="9.522168194328554"><ele>96.0</ele><time>2026-04-04T12:52:48.01Z</time></trkpt><trkpt lat="44.985727974370704" lon="9.522156191068884"><ele>96.16666666666667</ele><time>2026-04-04T12:52:50.01Z</time></trkpt><trkpt lat="44.9856421726837" lon="9.522148127800236"><ele>96.33333333333334</ele><time>2026-04-04T12:52:52.01Z</time></trkpt><trkpt lat="44.98555485619047" lon="9.52212389081733"><ele>96.5</ele><time>2026-04-04T12:52:54.01Z</time></trkpt><trkpt lat="44.985466785778875" lon="9.522108231513572"><ele>96.66666666666667</ele><time>2026-04-04T12:52:56.01Z</time></trkpt><trkpt lat="44.985378327191285" lon="9.522091686518307"><ele>96.83333333333334</ele><time>2026-04-04T12:52:58.01Z</time></trkpt><trkpt lat="44.98528776305627" lon="9.522075131866504"><ele>97.0</ele><time>2026-04-04T12:53:00.01Z</time></trkpt><trkpt lat="44.98520183824076" lon="9.52205833741446"><ele>97.0</ele><time>2026-04-04T12:53:02.01Z</time></trkpt><trkpt lat="44.985106968184354" lon="9.522043696959289"><ele>97.0</ele><time>2026-04-04T12:53:04.01Z</time></trkpt><trkpt lat="44.985018150960705" lon="9.522045912023325"><ele>97.0</ele><time>2026-04-04T12:53:06.01Z</time></trkpt><trkpt lat="44.98491976651994" lon="9.52204938284257"><ele>97.0</ele><time>2026-04-04T12:53:08.01Z</time></trkpt><trkpt lat="44.984826464628775" lon="9.522060634551018"><ele>97.0</ele><time>2026-04-04T12:53:10.01Z</time></trkpt><trkpt lat="44.98473283639203" lon="9.52208748186118"><ele>97.39999999999999</ele><time>2026-04-04T12:53:12.01Z</time></trkpt><trkpt lat="44.98464564736207" lon="9.522116563561946"><ele>97.8</ele><time>2026-04-04T12:53:14.01Z</time></trkpt><trkpt lat="44.98456542126428" lon="9.522142774292348"><ele>98.2</ele><time>2026-04-04T12:53:16.01Z</time></trkpt><trkpt lat="44.984475859909686" lon="9.522173744880154"><ele>98.6</ele><time>2026-04-04T12:53:18.01Z</time></trkpt><trkpt lat="44.9843873568194" lon="9.522202528626156"><ele>99.0</ele><time>2026-04-04T12:53:20.01Z</time></trkpt><trkpt lat="44.984294545914885" lon="9.522229992430914"><ele>99.0</ele><time>2026-04-04T12:53:22.01Z</time></trkpt><trkpt lat="44.984208613416634" lon="9.522262171608478"><ele>99.0</ele><time>2026-04-04T12:53:24.01Z</time></trkpt><trkpt lat="44.98411968992154" lon="9.522285270504097"><ele>99.0</ele><time>2026-04-04T12:53:26.01Z</time></trkpt><trkpt lat="44.98403942346198" lon="9.522304995288472"><ele>99.0</ele><time>2026-04-04T12:53:28.01Z</time></trkpt><trkpt lat="44.9839636976611" lon="9.522327578322377"><ele>99.0</ele><time>2026-04-04T12:53:30.01Z</time></trkpt><trkpt lat="44.983889483452906" lon="9.522332471855112"><ele>99.0</ele><time>2026-04-04T12:53:32.01Z</time></trkpt><trkpt lat="44.983805659316715" lon="9.522351293152504"><ele>99.0</ele><time>2026-04-04T12:53:34.01Z</time></trkpt><trkpt lat="44.983725736082036" lon="9.522362330375678"><ele>99.0</ele><time>2026-04-04T12:53:36.01Z</time></trkpt><trkpt lat="44.98364098445439" lon="9.522377047623825"><ele>99.0</ele><time>2026-04-04T12:53:38.01Z</time></trkpt><trkpt lat="44.98355884874388" lon="9.522386718508002"><ele>99.0</ele><time>2026-04-04T12:53:40.01Z</time></trkpt><trkpt lat="44.98347259404153" lon="9.522396964293794"><ele>99.0</ele><time>2026-04-04T12:53:42.01Z</time></trkpt><trkpt lat="44.983386517748876" lon="9.522405777868888"><ele>99.0</ele><time>2026-04-04T12:53:44.01Z</time></trkpt><trkpt lat="44.98330142958334" lon="9.52241347555663"><ele>99.0</ele><time>2026-04-04T12:53:46.01Z</time></trkpt><trkpt lat="44.983217132357304" lon="9.522412463853508"><ele>99.0</ele><time>2026-04-04T12:53:48.01Z</time></trkpt><trkpt lat="44.9831396131577" lon="9.522405613037378"><ele>99.0</ele><time>2026-04-04T12:53:50.01Z</time></trkpt><trkpt lat="44.983061023306064" lon="9.522402045339778"><ele>99.0</ele><time>2026-04-04T12:53:52.01Z</time></trkpt><trkpt lat="44.98299044881949" lon="9.522388567222627"><ele>99.0</ele><time>2026-04-04T12:53:54.01Z</time></trkpt><trkpt lat="44.98291641945677" lon="9.522374906723735"><ele>99.0</ele><time>2026-04-04T12:53:56.01Z</time></trkpt><trkpt lat="44.98283944884726" lon="9.522363456425328"><ele>99.0</ele><time>2026-04-04T12:53:58.01Z</time></trkpt><trkpt lat="44.98276539278798" lon="9.522344757181576"><ele>99.0</ele><time>2026-04-04T12:54:00.01Z</time></trkpt><trkpt lat="44.98269355685573" lon="9.522323140307115"><ele>99.0</ele><time>2026-04-04T12:54:02.01Z</time></trkpt><trkpt lat="44.98262382703091" lon="9.522302883593532"><ele>99.0</ele><time>2026-04-04T12:54:04.01Z</time></trkpt><trkpt lat="44.9825534634118" lon="9.522277819210242"><ele>99.0</ele><time>2026-04-04T12:54:06.01Z</time></trkpt><trkpt lat="44.982488348460876" lon="9.522257359090561"><ele>99.0</ele><time>2026-04-04T12:54:08.01Z</time></trkpt><trkpt lat="44.98242455129028" lon="9.522223560173712"><ele>99.0</ele><time>2026-04-04T12:54:10.01Z</time></trkpt><trkpt lat="44.9823615967789" lon="9.522196589620245"><ele>99.0</ele><time>2026-04-04T12:54:12.01Z</time></trkpt><trkpt lat="44.982297008834934" lon="9.522159809401654"><ele>99.0</ele><time>2026-04-04T12:54:14.009Z</time></trkpt><trkpt lat="44.982230789367655" lon="9.52211805936513"><ele>99.0</ele><time>2026-04-04T12:54:16.01Z</time></trkpt><trkpt lat="44.982158463899076" lon="9.52207447337808"><ele>99.0</ele><time>2026-04-04T12:54:18.01Z</time></trkpt><trkpt lat="44.982084554454595" lon="9.522027013071888"><ele>99.0</ele><time>2026-04-04T12:54:20.009Z</time></trkpt><trkpt lat="44.98200288920209" lon="9.52197539775181"><ele>99.0</ele><time>2026-04-04T12:54:22.01Z</time></trkpt><trkpt lat="44.981922795732494" lon="9.521919641502214"><ele>99.0</ele><time>2026-04-04T12:54:24.01Z</time></trkpt><trkpt lat="44.981835288194894" lon="9.521867337918254"><ele>99.0</ele><time>2026-04-04T12:54:26.01Z</time></trkpt><trkpt lat="44.98174821365872" lon="9.521817144232736"><ele>99.0</ele><time>2026-04-04T12:54:28.01Z</time></trkpt><trkpt lat="44.98165426080384" lon="9.521775572010675"><ele>99.0</ele><time>2026-04-04T12:54:30.01Z</time></trkpt><trkpt lat="44.981561307913964" lon="9.521746473513296"><ele>99.0</ele><time>2026-04-04T12:54:32.01Z</time></trkpt><trkpt lat="44.98146514557896" lon="9.521728102822271"><ele>99.4</ele><time>2026-04-04T12:54:34.01Z</time></trkpt><trkpt lat="44.98136668310434" lon="9.521719971645089"><ele>99.80000000000001</ele><time>2026-04-04T12:54:36.01Z</time></trkpt><trkpt lat="44.981262009852074" lon="9.521736208813744"><ele>100.19999999999999</ele><time>2026-04-04T12:54:38.01Z</time></trkpt><trkpt lat="44.98117033607153" lon="9.521752361523095"><ele>100.6</ele><time>2026-04-04T12:54:40.01Z</time></trkpt><trkpt lat="44.98107291602054" lon="9.521772583326108"><ele>101.0</ele><time>2026-04-04T12:54:42.01Z</time></trkpt><trkpt lat="44.98097213149259" lon="9.521797875366143"><ele>101.0</ele><time>2026-04-04T12:54:44.01Z</time></trkpt><trkpt lat="44.98086839091038" lon="9.521828162545411"><ele>101.0</ele><time>2026-04-04T12:54:46.01Z</time></trkpt><trkpt lat="44.98075776048707" lon="9.521855070468959"><ele>101.0</ele><time>2026-04-04T12:54:48.01Z</time></trkpt><trkpt lat="44.980645729306154" lon="9.52188581084429"><ele>101.0</ele><time>2026-04-04T12:54:50.01Z</time></trkpt><trkpt lat="44.98053592595582" lon="9.521914378052083"><ele>101.0</ele><time>2026-04-04T12:54:52.01Z</time></trkpt><trkpt lat="44.98042935912089" lon="9.521948816500172"><ele>100.8</ele><time>2026-04-04T12:54:54.01Z</time></trkpt><trkpt lat="44.980328958708775" lon="9.521993397627865"><ele>100.6</ele><time>2026-04-04T12:54:56.01Z</time></trkpt><trkpt lat="44.98023271184859" lon="9.522047989751867"><ele>100.4</ele><time>2026-04-04T12:54:58.01Z</time></trkpt><trkpt lat="44.98013725257813" lon="9.52211916042381"><ele>100.2</ele><time>2026-04-04T12:55:00.01Z</time></trkpt><trkpt lat="44.9800434688872" lon="9.5221919444936"><ele>100.0</ele><time>2026-04-04T12:55:02.01Z</time></trkpt><trkpt lat="44.97994911891195" lon="9.522263493032103"><ele>100.4</ele><time>2026-04-04T12:55:04.01Z</time></trkpt><trkpt lat="44.97985332285177" lon="9.52232780587289"><ele>100.8</ele><time>2026-04-04T12:55:06.01Z</time></trkpt><trkpt lat="44.979755388501445" lon="9.522375275492454"><ele>101.19999999999999</ele><time>2026-04-04T12:55:08.01Z</time></trkpt><trkpt lat="44.979657443937384" lon="9.522412235815915"><ele>101.6</ele><time>2026-04-04T12:55:10.01Z</time></trkpt><trkpt lat="44.97956185431271" lon="9.522437246231515"><ele>102.0</ele><time>2026-04-04T12:55:12.01Z</time></trkpt><trkpt lat="44.979468611242226" lon="9.5224593306145"><ele>102.0</ele><time>2026-04-04T12:55:14.01Z</time></trkpt><trkpt lat="44.97937601692996" lon="9.52247723877243"><ele>102.0</ele><time>2026-04-04T12:55:16.01Z</time></trkpt><trkpt lat="44.97928077854124" lon="9.52249414822976"><ele>102.0</ele><time>2026-04-04T12:55:18.01Z</time></trkpt><trkpt lat="44.979185060799175" lon="9.522513459926557"><ele>102.0</ele><time>2026-04-04T12:55:20.01Z</time></trkpt><trkpt lat="44.97909101534336" lon="9.522533439108962"><ele>102.0</ele><time>2026-04-04T12:55:22.01Z</time></trkpt><trkpt lat="44.97899514450737" lon="9.52255152660155"><ele>101.6</ele><time>2026-04-04T12:55:24.01Z</time></trkpt><trkpt lat="44.978898635096854" lon="9.52256984911178"><ele>101.19999999999999</ele><time>2026-04-04T12:55:26.011Z</time></trkpt><trkpt lat="44.97880237628328" lon="9.522589626494852"><ele>100.8</ele><time>2026-04-04T12:55:28.011Z</time></trkpt><trkpt lat="44.97870572523092" lon="9.522606464444364"><ele>100.4</ele><time>2026-04-04T12:55:30.011Z</time></trkpt><trkpt lat="44.97860951791131" lon="9.522621432368611"><ele>100.0</ele><time>2026-04-04T12:55:32.011Z</time></trkpt><trkpt lat="44.97851283766509" lon="9.522621908255466"><ele>100.0</ele><time>2026-04-04T12:55:34.011Z</time></trkpt><trkpt lat="44.97841507845295" lon="9.522613767225755"><ele>100.0</ele><time>2026-04-04T12:55:36.011Z</time></trkpt><trkpt lat="44.97831684055627" lon="9.522593967435427"><ele>100.0</ele><time>2026-04-04T12:55:38.011Z</time></trkpt><trkpt lat="44.97822139909821" lon="9.522570579597225"><ele>100.0</ele><time>2026-04-04T12:55:40.011Z</time></trkpt><trkpt lat="44.97812594867263" lon="9.522542094849989"><ele>100.0</ele><time>2026-04-04T12:55:42.011Z</time></trkpt><trkpt lat="44.9780296171074" lon="9.522514863281307"><ele>100.4</ele><time>2026-04-04T12:55:44.011Z</time></trkpt><trkpt lat="44.97793732174899" lon="9.522484105351037"><ele>100.8</ele><time>2026-04-04T12:55:46.011Z</time></trkpt><trkpt lat="44.977840975744" lon="9.522460243277212"><ele>101.19999999999999</ele><time>2026-04-04T12:55:48.011Z</time></trkpt><trkpt lat="44.97774444507283" lon="9.522423647884937"><ele>101.6</ele><time>2026-04-04T12:55:50.011Z</time></trkpt><trkpt lat="44.977647073001556" lon="9.522395115490164"><ele>102.0</ele><time>2026-04-04T12:55:52.011Z</time></trkpt><trkpt lat="44.977546077346894" lon="9.52237346757959"><ele>102.19999999999999</ele><time>2026-04-04T12:55:54.011Z</time></trkpt><trkpt lat="44.97745075443509" lon="9.522332491495128"><ele>102.4</ele><time>2026-04-04T12:55:56.011Z</time></trkpt><trkpt lat="44.97735287237063" lon="9.522305852962154"><ele>102.6</ele><time>2026-04-04T12:55:58.011Z</time></trkpt><trkpt lat="44.97725567793497" lon="9.522279135117659"><ele>102.80000000000001</ele><time>2026-04-04T12:56:00.011Z</time></trkpt><trkpt lat="44.97715301103218" lon="9.522247553385789"><ele>103.0</ele><time>2026-04-04T12:56:02.011Z</time></trkpt><trkpt lat="44.97705677555872" lon="9.522214011512272"><ele>103.0</ele><time>2026-04-04T12:56:04.011Z</time></trkpt><trkpt lat="44.976957405893515" lon="9.52218480723212"><ele>103.0</ele><time>2026-04-04T12:56:06.011Z</time></trkpt><trkpt lat="44.97685844600677" lon="9.522149902546635"><ele>103.0</ele><time>2026-04-04T12:56:08.011Z</time></trkpt><trkpt lat="44.97676088578562" lon="9.522123554716957"><ele>103.0</ele><time>2026-04-04T12:56:10.011Z</time></trkpt><trkpt lat="44.97667318626142" lon="9.522094365322772"><ele>103.0</ele><time>2026-04-04T12:56:12.011Z</time></trkpt><trkpt lat="44.976579218647935" lon="9.522068889645919"><ele>103.2</ele><time>2026-04-04T12:56:14.011Z</time></trkpt><trkpt lat="44.976484875009504" lon="9.522036702526115"><ele>103.4</ele><time>2026-04-04T12:56:16.01Z</time></trkpt><trkpt lat="44.97638766533722" lon="9.522003297418719"><ele>103.60000000000001</ele><time>2026-04-04T12:56:18.01Z</time></trkpt><trkpt lat="44.97629595118982" lon="9.52197997305466"><ele>103.80000000000001</ele><time>2026-04-04T12:56:20.01Z</time></trkpt><trkpt lat="44.97620569787535" lon="9.521948969900354"><ele>104.0</ele><time>2026-04-04T12:56:22.01Z</time></trkpt><trkpt lat="44.976115961536934" lon="9.521926621832758"><ele>104.0</ele><time>2026-04-04T12:56:24.01Z</time></trkpt><trkpt lat="44.976026030669324" lon="9.521894629903132"><ele>104.0</ele><time>2026-04-04T12:56:26.01Z</time></trkpt><trkpt lat="44.975934810169" lon="9.521866616974005"><ele>104.0</ele><time>2026-04-04T12:56:28.011Z</time></trkpt><trkpt lat="44.975843262611825" lon="9.52183906894913"><ele>104.0</ele><time>2026-04-04T12:56:30.011Z</time></trkpt><trkpt lat="44.975751647919815" lon="9.521808901900796"><ele>104.0</ele><time>2026-04-04T12:56:32.011Z</time></trkpt><trkpt lat="44.97566012970799" lon="9.521783797603488"><ele>104.2</ele><time>2026-04-04T12:56:34.011Z</time></trkpt><trkpt lat="44.975571894461346" lon="9.521759181780782"><ele>104.4</ele><time>2026-04-04T12:56:36.011Z</time></trkpt><trkpt lat="44.97548455597038" lon="9.521739647118112"><ele>104.6</ele><time>2026-04-04T12:56:38.011Z</time></trkpt><trkpt lat="44.97539429411189" lon="9.521699869762458"><ele>104.8</ele><time>2026-04-04T12:56:40.011Z</time></trkpt><trkpt lat="44.97530533713917" lon="9.52167952761711"><ele>105.0</ele><time>2026-04-04T12:56:42.011Z</time></trkpt><trkpt lat="44.975216711483135" lon="9.521658449442636"><ele>105.0</ele><time>2026-04-04T12:56:44.011Z</time></trkpt><trkpt lat="44.97513186308677" lon="9.52163518897652"><ele>105.0</ele><time>2026-04-04T12:56:46.011Z</time></trkpt><trkpt lat="44.97505349187599" lon="9.521633380627941"><ele>105.0</ele><time>2026-04-04T12:56:48.011Z</time></trkpt><trkpt lat="44.97499554723877" lon="9.521702903268531"><ele>105.0</ele><time>2026-04-04T12:56:50.011Z</time></trkpt><trkpt lat="44.97495584945668" lon="9.521802004570102"><ele>105.0</ele><time>2026-04-04T12:56:52.011Z</time></trkpt><trkpt lat="44.97493917622207" lon="9.521904145131385"><ele>105.0</ele><time>2026-04-04T12:56:54.011Z</time></trkpt><trkpt lat="44.97491520974778" lon="9.522040190057924"><ele>105.71428571428571</ele><time>2026-04-04T12:56:57.011Z</time></trkpt><trkpt lat="44.97489868617421" lon="9.522128935003606"><ele>106.42857142857143</ele><time>2026-04-04T12:56:59.011Z</time></trkpt><trkpt lat="44.97487951519551" lon="9.52221462909915"><ele>107.14285714285714</ele><time>2026-04-04T12:57:01.011Z</time></trkpt><trkpt lat="44.97486707390897" lon="9.52234228913206"><ele>107.85714285714286</ele><time>2026-04-04T12:57:04.011Z</time></trkpt><trkpt lat="44.974853760156996" lon="9.522431924153215"><ele>108.57142857142857</ele><time>2026-04-04T12:57:06.011Z</time></trkpt><trkpt lat="44.974842743431" lon="9.522559063373823"><ele>109.28571428571428</ele><time>2026-04-04T12:57:09.011Z</time></trkpt><trkpt lat="44.974837251345775" lon="9.522649391478703"><ele>110.0</ele><time>2026-04-04T12:57:11.011Z</time></trkpt><trkpt lat="44.97482637200492" lon="9.522776939412989"><ele>110.6</ele><time>2026-04-04T12:57:14.011Z</time></trkpt><trkpt lat="44.97481935427946" lon="9.522907946185086"><ele>111.2</ele><time>2026-04-04T12:57:17.011Z</time></trkpt><trkpt lat="44.97480393783856" lon="9.523033577143002"><ele>111.80000000000001</ele><time>2026-04-04T12:57:20.011Z</time></trkpt><trkpt lat="44.97479555473665" lon="9.523156470857751"><ele>112.4</ele><time>2026-04-04T12:57:23.011Z</time></trkpt><trkpt lat="44.97478332078506" lon="9.523280542105645"><ele>113.0</ele><time>2026-04-04T12:57:26.011Z</time></trkpt><trkpt lat="44.97477638576283" lon="9.52341284736839"><ele>112.99999999999999</ele><time>2026-04-04T12:57:29.011Z</time></trkpt><trkpt lat="44.974766938720265" lon="9.523532251385944"><ele>113.0</ele><time>2026-04-04T12:57:32.011Z</time></trkpt><trkpt lat="44.97475152405952" lon="9.523658672796387"><ele>113.0</ele><time>2026-04-04T12:57:35.011Z</time></trkpt><trkpt lat="44.97473954591266" lon="9.523781136042482"><ele>113.0</ele><time>2026-04-04T12:57:38.011Z</time></trkpt><trkpt lat="44.97472391233321" lon="9.523907298533853"><ele>112.99999999999999</ele><time>2026-04-04T12:57:41.011Z</time></trkpt><trkpt lat="44.97471302358286" lon="9.524006851311595"><ele>113.0</ele><time>2026-04-04T12:57:44.011Z</time></trkpt><trkpt lat="44.974692757122284" lon="9.52411929422937"><ele>113.66666666666666</ele><time>2026-04-04T12:57:48.011Z</time></trkpt><trkpt lat="44.97467141546555" lon="9.52422959193047"><ele>114.33333333333333</ele><time>2026-04-04T12:57:51.011Z</time></trkpt><trkpt lat="44.97464236651796" lon="9.524334307028916"><ele>115.0</ele><time>2026-04-04T12:57:54.011Z</time></trkpt><trkpt lat="44.97458766943275" lon="9.524433931566056"><ele>115.66666666666666</ele><time>2026-04-04T12:57:57.011Z</time></trkpt><trkpt lat="44.97452873182429" lon="9.524523698220998"><ele>116.33333333333333</ele><time>2026-04-04T12:58:00.011Z</time></trkpt><trkpt lat="44.974463546906" lon="9.524572629042718"><ele>117.0</ele><time>2026-04-04T12:58:03.011Z</time></trkpt><trkpt lat="44.97438427611311" lon="9.52459345502495"><ele>117.0</ele><time>2026-04-04T12:58:06.011Z</time></trkpt><trkpt lat="44.97445669235484" lon="9.524648680286894"><ele>117.0</ele><time>2026-04-04T12:58:10.011Z</time></trkpt><trkpt lat="44.97452559111002" lon="9.524614062796225"><ele>117.0</ele><time>2026-04-04T12:58:12.011Z</time></trkpt><trkpt lat="44.97459305841593" lon="9.524535618326597"><ele>117.0</ele><time>2026-04-04T12:58:14.011Z</time></trkpt><trkpt lat="44.97465783990024" lon="9.52443689983238"><ele>117.0</ele><time>2026-04-04T12:58:16.011Z</time></trkpt><trkpt lat="44.97470038152884" lon="9.524322529522339"><ele>117.0</ele><time>2026-04-04T12:58:18.011Z</time></trkpt><trkpt lat="44.974730140119966" lon="9.524196434061604"><ele>117.0</ele><time>2026-04-04T12:58:20.011Z</time></trkpt><trkpt lat="44.97474629652627" lon="9.524070516295781"><ele>117.0</ele><time>2026-04-04T12:58:22.01Z</time></trkpt><trkpt lat="44.974760348401716" lon="9.523962852770145"><ele>117.0</ele><time>2026-04-04T12:58:24.011Z</time></trkpt><trkpt lat="44.974770642869196" lon="9.523836523109026"><ele>117.0</ele><time>2026-04-04T12:58:27.01Z</time></trkpt><trkpt lat="44.97478959264853" lon="9.523723462875497"><ele>117.0</ele><time>2026-04-04T12:58:29.01Z</time></trkpt><trkpt lat="44.9748022394095" lon="9.523597266685156"><ele>117.0</ele><time>2026-04-04T12:58:31.01Z</time></trkpt><trkpt lat="44.97481526645227" lon="9.523475808865067"><ele>116.33333333333333</ele><time>2026-04-04T12:58:33.011Z</time></trkpt><trkpt lat="44.97482839817814" lon="9.523354788933613"><ele>115.66666666666666</ele><time>2026-04-04T12:58:35.011Z</time></trkpt><trkpt lat="44.97484031299014" lon="9.523229985195721"><ele>115.0</ele><time>2026-04-04T12:58:37.011Z</time></trkpt><trkpt lat="44.974845198287596" lon="9.523113012679886"><ele>114.33333333333333</ele><time>2026-04-04T12:58:39.011Z</time></trkpt><trkpt lat="44.97485523782107" lon="9.523014947441714"><ele>113.66666666666666</ele><time>2026-04-04T12:58:41.011Z</time></trkpt><trkpt lat="44.974865606724684" lon="9.522894209144939"><ele>113.0</ele><time>2026-04-04T12:58:43.011Z</time></trkpt><trkpt lat="44.974874864109424" lon="9.52275569498864"><ele>112.4</ele><time>2026-04-04T12:58:45.011Z</time></trkpt><trkpt lat="44.97488598479826" lon="9.522592557525613"><ele>111.80000000000001</ele><time>2026-04-04T12:58:47.011Z</time></trkpt><trkpt lat="44.97489650181592" lon="9.522413552276005"><ele>111.2</ele><time>2026-04-04T12:58:49.011Z</time></trkpt><trkpt lat="44.97490912773366" lon="9.522315298397267"><ele>110.6</ele><time>2026-04-04T12:58:50.011Z</time></trkpt><trkpt lat="44.97491584864429" lon="9.522219226250382"><ele>110.0</ele><time>2026-04-04T12:58:51.011Z</time></trkpt><trkpt lat="44.97493037811537" lon="9.52211713095934"><ele>109.33333333333333</ele><time>2026-04-04T12:58:52.011Z</time></trkpt><trkpt lat="44.97494854024515" lon="9.522016772809915"><ele>108.66666666666666</ele><time>2026-04-04T12:58:53.011Z</time></trkpt><trkpt lat="44.97498263583625" lon="9.52192136071006"><ele>108.0</ele><time>2026-04-04T12:58:54.011Z</time></trkpt><trkpt lat="44.975003286660815" lon="9.521819578701539"><ele>107.33333333333334</ele><time>2026-04-04T12:58:55.011Z</time></trkpt><trkpt lat="44.97501784449507" lon="9.521727290371865"><ele>106.66666666666667</ele><time>2026-04-04T12:58:56.011Z</time></trkpt><trkpt lat="44.9750574857371" lon="9.521656033759866"><ele>106.0</ele><time>2026-04-04T12:58:57.011Z</time></trkpt><trkpt lat="44.9751761045674" lon="9.521661534063519"><ele>105.85714285714286</ele><time>2026-04-04T12:58:58.011Z</time></trkpt><trkpt lat="44.975259235463305" lon="9.521698479718049"><ele>105.71428571428571</ele><time>2026-04-04T12:58:59.011Z</time></trkpt><trkpt lat="44.975324064736746" lon="9.52173955037286"><ele>105.57142857142857</ele><time>2026-04-04T12:59:00.011Z</time></trkpt><trkpt lat="44.97538839332841" lon="9.5217649513824"><ele>105.42857142857143</ele><time>2026-04-04T12:59:01.011Z</time></trkpt><trkpt lat="44.975461588282535" lon="9.521781331489882"><ele>105.28571428571428</ele><time>2026-04-04T12:59:02.011Z</time></trkpt><trkpt lat="44.97552572842313" lon="9.52179772094339"><ele>105.14285714285714</ele><time>2026-04-04T12:59:03.011Z</time></trkpt><trkpt lat="44.975588985426114" lon="9.521816371111974"><ele>105.0</ele><time>2026-04-04T12:59:04.011Z</time></trkpt><trkpt lat="44.97569847815835" lon="9.521850847062666"><ele>105.0</ele><time>2026-04-04T12:59:06.011Z</time></trkpt><trkpt lat="44.975815014705475" lon="9.521887054399878"><ele>105.0</ele><time>2026-04-04T12:59:08.011Z</time></trkpt><trkpt lat="44.97593026177984" lon="9.52191704078174"><ele>105.0</ele><time>2026-04-04T12:59:10.011Z</time></trkpt><trkpt lat="44.976038945942" lon="9.521950753918768"><ele>105.0</ele><time>2026-04-04T12:59:12.011Z</time></trkpt><trkpt lat="44.976146092872895" lon="9.52199110597966"><ele>105.0</ele><time>2026-04-04T12:59:14.011Z</time></trkpt><trkpt lat="44.97624580513036" lon="9.522020549728206"><ele>105.0</ele><time>2026-04-04T12:59:16.011Z</time></trkpt><trkpt lat="44.97635386436142" lon="9.522054341635862"><ele>105.0</ele><time>2026-04-04T12:59:18.011Z</time></trkpt><trkpt lat="44.9764602838986" lon="9.52209099073783"><ele>105.0</ele><time>2026-04-04T12:59:20.011Z</time></trkpt><trkpt lat="44.97656281694961" lon="9.52212007327464"><ele>105.0</ele><time>2026-04-04T12:59:22.011Z</time></trkpt><trkpt lat="44.976663821530224" lon="9.522153226388415"><ele>104.6</ele><time>2026-04-04T12:59:24.011Z</time></trkpt><trkpt lat="44.9767589223803" lon="9.52218244362422"><ele>104.2</ele><time>2026-04-04T12:59:26.011Z</time></trkpt><trkpt lat="44.97686129556199" lon="9.522210149262216"><ele>103.80000000000001</ele><time>2026-04-04T12:59:28.011Z</time></trkpt><trkpt lat="44.976961483272376" lon="9.52223712952782"><ele>103.4</ele><time>2026-04-04T12:59:30.011Z</time></trkpt><trkpt lat="44.97705729107701" lon="9.52227075197425"><ele>103.0</ele><time>2026-04-04T12:59:32.011Z</time></trkpt><trkpt lat="44.97715582799705" lon="9.522299334051521"><ele>103.0</ele><time>2026-04-04T12:59:34.011Z</time></trkpt><trkpt lat="44.97725011280835" lon="9.522331018614528"><ele>103.0</ele><time>2026-04-04T12:59:36.011Z</time></trkpt><trkpt lat="44.9773446565316" lon="9.522362220736728"><ele>103.0</ele><time>2026-04-04T12:59:38.011Z</time></trkpt><trkpt lat="44.977439952857246" lon="9.522392225610856"><ele>103.0</ele><time>2026-04-04T12:59:40.011Z</time></trkpt><trkpt lat="44.97753612783487" lon="9.522426141594199"><ele>103.0</ele><time>2026-04-04T12:59:42.011Z</time></trkpt><trkpt lat="44.977629659564734" lon="9.522451669974833"><ele>102.80000000000001</ele><time>2026-04-04T12:59:44.011Z</time></trkpt><trkpt lat="44.97772311081185" lon="9.52247997467476"><ele>102.6</ele><time>2026-04-04T12:59:46.011Z</time></trkpt><trkpt lat="44.97781622279383" lon="9.522510854311514"><ele>102.4</ele><time>2026-04-04T12:59:48.011Z</time></trkpt><trkpt lat="44.97790823478369" lon="9.522537581558868"><ele>102.19999999999999</ele><time>2026-04-04T12:59:50.011Z</time></trkpt><trkpt lat="44.97800259637299" lon="9.522566757832134"><ele>102.0</ele><time>2026-04-04T12:59:52.011Z</time></trkpt><trkpt lat="44.97808941297331" lon="9.522596079612724"><ele>102.0</ele><time>2026-04-04T12:59:54.011Z</time></trkpt><trkpt lat="44.97817601771156" lon="9.52262137899722"><ele>102.0</ele><time>2026-04-04T12:59:56.011Z</time></trkpt><trkpt lat="44.9782690746766" lon="9.52264962224274"><ele>102.0</ele><time>2026-04-04T12:59:58.011Z</time></trkpt><trkpt lat="44.97835379105365" lon="9.52266643529656"><ele>102.0</ele><time>2026-04-04T13:00:00.011Z</time></trkpt><trkpt lat="44.978433499981534" lon="9.522682124825248"><ele>102.0</ele><time>2026-04-04T13:00:02.011Z</time></trkpt><trkpt lat="44.978520541463794" lon="9.522685563455022"><ele>102.0</ele><time>2026-04-04T13:00:04.011Z</time></trkpt><trkpt lat="44.9786030118028" lon="9.52268118563084"><ele>101.6</ele><time>2026-04-04T13:00:06.011Z</time></trkpt><trkpt lat="44.97870109065319" lon="9.522669811144079"><ele>101.19999999999999</ele><time>2026-04-04T13:00:08.011Z</time></trkpt><trkpt lat="44.97879470552042" lon="9.522651334457764"><ele>100.8</ele><time>2026-04-04T13:00:10.011Z</time></trkpt><trkpt lat="44.97889959807597" lon="9.52263237146458"><ele>100.4</ele><time>2026-04-04T13:00:12.011Z</time></trkpt><trkpt lat="44.978999156571454" lon="9.522615274433914"><ele>100.0</ele><time>2026-04-04T13:00:14.011Z</time></trkpt><trkpt lat="44.97910255183113" lon="9.522597337257377"><ele>100.4</ele><time>2026-04-04T13:00:16.011Z</time></trkpt><trkpt lat="44.979205160034205" lon="9.522577480817521"><ele>100.8</ele><time>2026-04-04T13:00:18.011Z</time></trkpt><trkpt lat="44.97930600629386" lon="9.522557144429623"><ele>101.19999999999999</ele><time>2026-04-04T13:00:20.011Z</time></trkpt><trkpt lat="44.979405873030885" lon="9.522535706008522"><ele>101.6</ele><time>2026-04-04T13:00:22.011Z</time></trkpt><trkpt lat="44.97950984433899" lon="9.522521641310474"><ele>102.0</ele><time>2026-04-04T13:00:24.011Z</time></trkpt><trkpt lat="44.979617051689715" lon="9.522499291383577"><ele>102.0</ele><time>2026-04-04T13:00:26.011Z</time></trkpt><trkpt lat="44.9797132002502" lon="9.522462394488075"><ele>102.0</ele><time>2026-04-04T13:00:28.01Z</time></trkpt><trkpt lat="44.979818092518855" lon="9.522418723611954"><ele>102.0</ele><time>2026-04-04T13:00:30.011Z</time></trkpt><trkpt lat="44.97991785771746" lon="9.522365239135599"><ele>102.0</ele><time>2026-04-04T13:00:32.011Z</time></trkpt><trkpt lat="44.980010789201366" lon="9.522296941876983"><ele>102.0</ele><time>2026-04-04T13:00:34.01Z</time></trkpt><trkpt lat="44.98010515493661" lon="9.522225738834438"><ele>102.39999999999999</ele><time>2026-04-04T13:00:36.011Z</time></trkpt><trkpt lat="44.980195266207076" lon="9.522144455366226"><ele>102.8</ele><time>2026-04-04T13:00:38.011Z</time></trkpt><trkpt lat="44.98029348531339" lon="9.522081872561316"><ele>103.2</ele><time>2026-04-04T13:00:40.01Z</time></trkpt><trkpt lat="44.98038270503556" lon="9.52203648978213"><ele>103.6</ele><time>2026-04-04T13:00:42.01Z</time></trkpt><trkpt lat="44.98048250911082" lon="9.522001793680333"><ele>104.0</ele><time>2026-04-04T13:00:44.01Z</time></trkpt><trkpt lat="44.980583653888395" lon="9.521970678924035"><ele>103.4</ele><time>2026-04-04T13:00:46.01Z</time></trkpt><trkpt lat="44.98067485472623" lon="9.521942079718901"><ele>102.80000000000001</ele><time>2026-04-04T13:00:48.01Z</time></trkpt><trkpt lat="44.98076733068005" lon="9.521918003241476"><ele>102.19999999999999</ele><time>2026-04-04T13:00:50.01Z</time></trkpt><trkpt lat="44.98086029027992" lon="9.521895355124766"><ele>101.6</ele><time>2026-04-04T13:00:52.01Z</time></trkpt><trkpt lat="44.98094426159996" lon="9.521869618781526"><ele>101.0</ele><time>2026-04-04T13:00:54.01Z</time></trkpt><trkpt lat="44.981030829562364" lon="9.521848825154079"><ele>100.99999999999999</ele><time>2026-04-04T13:00:56.01Z</time></trkpt><trkpt lat="44.981117596026785" lon="9.521833701192058"><ele>101.0</ele><time>2026-04-04T13:00:58.01Z</time></trkpt><trkpt lat="44.98119910907926" lon="9.521812421990607"><ele>101.0</ele><time>2026-04-04T13:01:00.01Z</time></trkpt><trkpt lat="44.981284844538926" lon="9.521801099859621"><ele>101.0</ele><time>2026-04-04T13:01:02.01Z</time></trkpt><trkpt lat="44.98137367227303" lon="9.52179140707314"><ele>100.99999999999999</ele><time>2026-04-04T13:01:04.01Z</time></trkpt><trkpt lat="44.98146658920234" lon="9.521790070981877"><ele>101.0</ele><time>2026-04-04T13:01:06.01Z</time></trkpt><trkpt lat="44.98155825040012" lon="9.521809347766322"><ele>100.99999999999999</ele><time>2026-04-04T13:01:08.01Z</time></trkpt><trkpt lat="44.98164383487269" lon="9.521826153895093"><ele>101.0</ele><time>2026-04-04T13:01:10.01Z</time></trkpt><trkpt lat="44.98172540920413" lon="9.521861645043948"><ele>101.0</ele><time>2026-04-04T13:01:12.01Z</time></trkpt><trkpt lat="44.98179963998899" lon="9.521905675026606"><ele>101.0</ele><time>2026-04-04T13:01:14.01Z</time></trkpt><trkpt lat="44.98187295219781" lon="9.521958520548809"><ele>100.99999999999999</ele><time>2026-04-04T13:01:16.01Z</time></trkpt><trkpt lat="44.98194905163543" lon="9.522001538214194"><ele>101.0</ele><time>2026-04-04T13:01:18.01Z</time></trkpt><trkpt lat="44.98202504937189" lon="9.52205819865599"><ele>100.99999999999999</ele><time>2026-04-04T13:01:20.01Z</time></trkpt><trkpt lat="44.982100179346304" lon="9.522105565887994"><ele>101.0</ele><time>2026-04-04T13:01:22.01Z</time></trkpt><trkpt lat="44.98217591840405" lon="9.522158897663862"><ele>101.0</ele><time>2026-04-04T13:01:24.01Z</time></trkpt><trkpt lat="44.98225417092331" lon="9.52220227195842"><ele>101.0</ele><time>2026-04-04T13:01:26.01Z</time></trkpt><trkpt lat="44.98233967543105" lon="9.52224800176082"><ele>100.99999999999999</ele><time>2026-04-04T13:01:28.01Z</time></trkpt><trkpt lat="44.982422836193145" lon="9.52229115619708"><ele>101.0</ele><time>2026-04-04T13:01:30.01Z</time></trkpt><trkpt lat="44.98251777829928" lon="9.522328781291014"><ele>100.6</ele><time>2026-04-04T13:01:32.01Z</time></trkpt><trkpt lat="44.982616499411364" lon="9.522367993023936"><ele>100.19999999999999</ele><time>2026-04-04T13:01:34.01Z</time></trkpt><trkpt lat="44.982719187028074" lon="9.522397008890124"><ele>99.80000000000001</ele><time>2026-04-04T13:01:36.01Z</time></trkpt><trkpt lat="44.9828293435063" lon="9.522426980801304"><ele>99.4</ele><time>2026-04-04T13:01:38.01Z</time></trkpt><trkpt lat="44.982944021755536" lon="9.522448833487502"><ele>99.0</ele><time>2026-04-04T13:01:40.01Z</time></trkpt><trkpt lat="44.983057968177754" lon="9.522468208072182"><ele>99.0</ele><time>2026-04-04T13:01:42.01Z</time></trkpt><trkpt lat="44.98317640642843" lon="9.52247949079408"><ele>99.0</ele><time>2026-04-04T13:01:44.01Z</time></trkpt><trkpt lat="44.983290835847924" lon="9.522477748737424"><ele>99.0</ele><time>2026-04-04T13:01:46.01Z</time></trkpt><trkpt lat="44.983410705175274" lon="9.522473963280058"><ele>99.0</ele><time>2026-04-04T13:01:48.01Z</time></trkpt><trkpt lat="44.98352601477376" lon="9.522458054309235"><ele>99.2</ele><time>2026-04-04T13:01:50.01Z</time></trkpt><trkpt lat="44.98363782088287" lon="9.522439380247953"><ele>99.4</ele><time>2026-04-04T13:01:52.01Z</time></trkpt><trkpt lat="44.98374557766632" lon="9.5224241526634"><ele>99.6</ele><time>2026-04-04T13:01:54.01Z</time></trkpt><trkpt lat="44.98385410146004" lon="9.52240522300506"><ele>99.8</ele><time>2026-04-04T13:01:56.01Z</time></trkpt><trkpt lat="44.98395916871973" lon="9.52239153768826"><ele>100.0</ele><time>2026-04-04T13:01:58.01Z</time></trkpt><trkpt lat="44.98405724130911" lon="9.522368102643505"><ele>100.0</ele><time>2026-04-04T13:02:00.01Z</time></trkpt><trkpt lat="44.984155084401415" lon="9.522340574564074"><ele>100.0</ele><time>2026-04-04T13:02:02.01Z</time></trkpt><trkpt lat="44.98424731023475" lon="9.522321289283571"><ele>100.0</ele><time>2026-04-04T13:02:04.01Z</time></trkpt><trkpt lat="44.98433169178574" lon="9.522289086987909"><ele>100.0</ele><time>2026-04-04T13:02:06.01Z</time></trkpt><trkpt lat="44.98442068836896" lon="9.522257118556801"><ele>100.0</ele><time>2026-04-04T13:02:08.01Z</time></trkpt><trkpt lat="44.98451607188802" lon="9.522227054022178"><ele>99.8</ele><time>2026-04-04T13:02:10.011Z</time></trkpt><trkpt lat="44.98461774065412" lon="9.522193839766562"><ele>99.6</ele><time>2026-04-04T13:02:12.011Z</time></trkpt><trkpt lat="44.98471600614154" lon="9.522168398047237"><ele>99.4</ele><time>2026-04-04T13:02:14.011Z</time></trkpt><trkpt lat="44.98481228988227" lon="9.522143366152731"><ele>99.2</ele><time>2026-04-04T13:02:16.011Z</time></trkpt><trkpt lat="44.98491281619303" lon="9.52212843905128"><ele>99.0</ele><time>2026-04-04T13:02:18.011Z</time></trkpt><trkpt lat="44.98500629833746" lon="9.522122734116586"><ele>98.80000000000001</ele><time>2026-04-04T13:02:20.011Z</time></trkpt><trkpt lat="44.98510439165778" lon="9.522121602589122"><ele>98.60000000000001</ele><time>2026-04-04T13:02:22.011Z</time></trkpt><trkpt lat="44.98520122431792" lon="9.522133462276267"><ele>98.4</ele><time>2026-04-04T13:02:24.011Z</time></trkpt><trkpt lat="44.98529853913494" lon="9.522151328801794"><ele>98.2</ele><time>2026-04-04T13:02:26.011Z</time></trkpt><trkpt lat="44.98539064774252" lon="9.522175217329561"><ele>98.0</ele><time>2026-04-04T13:02:28.011Z</time></trkpt><trkpt lat="44.985490310621564" lon="9.522190889826296"><ele>97.99999999999999</ele><time>2026-04-04T13:02:30.011Z</time></trkpt><trkpt lat="44.98557931804882" lon="9.522207738541974"><ele>98.0</ele><time>2026-04-04T13:02:32.011Z</time></trkpt><trkpt lat="44.985666461540866" lon="9.522222503389104"><ele>98.0</ele><time>2026-04-04T13:02:34.011Z</time></trkpt><trkpt lat="44.98574775556402" lon="9.522240729495747"><ele>98.0</ele><time>2026-04-04T13:02:36.011Z</time></trkpt><trkpt lat="44.985829176509675" lon="9.52225066504779"><ele>97.99999999999999</ele><time>2026-04-04T13:02:38.011Z</time></trkpt><trkpt lat="44.985911604651946" lon="9.522267297639461"><ele>98.0</ele><time>2026-04-04T13:02:40.011Z</time></trkpt><trkpt lat="44.98600153049285" lon="9.52227899999574"><ele>97.66666666666666</ele><time>2026-04-04T13:02:42.011Z</time></trkpt><trkpt lat="44.98608728896801" lon="9.522287429578704"><ele>97.33333333333333</ele><time>2026-04-04T13:02:44.011Z</time></trkpt><trkpt lat="44.9861771847663" lon="9.522298753467906"><ele>97.0</ele><time>2026-04-04T13:02:46.011Z</time></trkpt><trkpt lat="44.98626633159708" lon="9.522311871734253"><ele>96.66666666666666</ele><time>2026-04-04T13:02:48.011Z</time></trkpt><trkpt lat="44.98634985657878" lon="9.52231872663591"><ele>96.33333333333333</ele><time>2026-04-04T13:02:50.011Z</time></trkpt><trkpt lat="44.98643525867666" lon="9.522328472027091"><ele>96.0</ele><time>2026-04-04T13:02:52.011Z</time></trkpt><trkpt lat="44.986524325302256" lon="9.52234357284153"><ele>96.0</ele><time>2026-04-04T13:02:54.011Z</time></trkpt><trkpt lat="44.98661879120302" lon="9.522356154204493"><ele>96.0</ele><time>2026-04-04T13:02:56.011Z</time></trkpt><trkpt lat="44.98670895959843" lon="9.522369509172226"><ele>96.0</ele><time>2026-04-04T13:02:58.011Z</time></trkpt><trkpt lat="44.986796403767656" lon="9.522380820201843"><ele>96.0</ele><time>2026-04-04T13:03:00.011Z</time></trkpt><trkpt lat="44.98688314586488" lon="9.522390965714994"><ele>96.0</ele><time>2026-04-04T13:03:02.011Z</time></trkpt><trkpt lat="44.986964287780026" lon="9.52240497297721"><ele>96.0</ele><time>2026-04-04T13:03:04.011Z</time></trkpt><trkpt lat="44.98704291630774" lon="9.522417097189381"><ele>96.33333333333333</ele><time>2026-04-04T13:03:06.011Z</time></trkpt><trkpt lat="44.987129638655134" lon="9.522432685648488"><ele>96.66666666666666</ele><time>2026-04-04T13:03:08.011Z</time></trkpt><trkpt lat="44.987220558392316" lon="9.522450728171185"><ele>97.0</ele><time>2026-04-04T13:03:10.011Z</time></trkpt><trkpt lat="44.98730736613095" lon="9.522470649126534"><ele>97.33333333333333</ele><time>2026-04-04T13:03:12.011Z</time></trkpt><trkpt lat="44.98739663517448" lon="9.522480928447912"><ele>97.66666666666666</ele><time>2026-04-04T13:03:14.011Z</time></trkpt><trkpt lat="44.98748205143716" lon="9.522502432224968"><ele>98.0</ele><time>2026-04-04T13:03:16.011Z</time></trkpt><trkpt lat="44.98757181405544" lon="9.522517568100234"><ele>98.16666666666666</ele><time>2026-04-04T13:03:18.011Z</time></trkpt><trkpt lat="44.98765703385172" lon="9.522545247300409"><ele>98.33333333333333</ele><time>2026-04-04T13:03:20.011Z</time></trkpt><trkpt lat="44.98774213178565" lon="9.522568982491691"><ele>98.5</ele><time>2026-04-04T13:03:22.011Z</time></trkpt><trkpt lat="44.98782366767439" lon="9.522605185970122"><ele>98.66666666666666</ele><time>2026-04-04T13:03:24.011Z</time></trkpt><trkpt lat="44.98790622458924" lon="9.52263584352971"><ele>98.83333333333333</ele><time>2026-04-04T13:03:26.011Z</time></trkpt><trkpt lat="44.98798743644086" lon="9.522675791029156"><ele>99.0</ele><time>2026-04-04T13:03:28.011Z</time></trkpt><trkpt lat="44.98807214482961" lon="9.52270143329213"><ele>99.0</ele><time>2026-04-04T13:03:30.011Z</time></trkpt><trkpt lat="44.98815899414511" lon="9.522743093995512"><ele>99.0</ele><time>2026-04-04T13:03:32.011Z</time></trkpt><trkpt lat="44.98823739985723" lon="9.522770552829911"><ele>99.0</ele><time>2026-04-04T13:03:34.011Z</time></trkpt><trkpt lat="44.988325544778235" lon="9.52280506949362"><ele>99.0</ele><time>2026-04-04T13:03:36.011Z</time></trkpt><trkpt lat="44.98840952695436" lon="9.522848910324374"><ele>99.0</ele><time>2026-04-04T13:03:38.011Z</time></trkpt><trkpt lat="44.98849558226714" lon="9.52288305201939"><ele>99.0</ele><time>2026-04-04T13:03:40.011Z</time></trkpt><trkpt lat="44.988577216862616" lon="9.522908768553771"><ele>98.6</ele><time>2026-04-04T13:03:42.011Z</time></trkpt><trkpt lat="44.9886629344467" lon="9.522939396880277"><ele>98.2</ele><time>2026-04-04T13:03:44.011Z</time></trkpt><trkpt lat="44.988752663771635" lon="9.522975573296462"><ele>97.8</ele><time>2026-04-04T13:03:46.011Z</time></trkpt><trkpt lat="44.98884470319725" lon="9.52301349067461"><ele>97.39999999999999</ele><time>2026-04-04T13:03:48.011Z</time></trkpt><trkpt lat="44.988936281675116" lon="9.523051597333536"><ele>97.0</ele><time>2026-04-04T13:03:50.011Z</time></trkpt><trkpt lat="44.98903414894154" lon="9.523093103923188"><ele>97.0</ele><time>2026-04-04T13:03:52.011Z</time></trkpt><trkpt lat="44.98913338453039" lon="9.52313377631306"><ele>97.0</ele><time>2026-04-04T13:03:54.011Z</time></trkpt><trkpt lat="44.989224325058736" lon="9.523163164372376"><ele>97.0</ele><time>2026-04-04T13:03:56.011Z</time></trkpt><trkpt lat="44.98930915120678" lon="9.523200156429395"><ele>97.0</ele><time>2026-04-04T13:03:58.011Z</time></trkpt><trkpt lat="44.989406249037316" lon="9.52323592094183"><ele>97.0</ele><time>2026-04-04T13:04:00.011Z</time></trkpt><trkpt lat="44.989490779291394" lon="9.523270190949969"><ele>97.16666666666667</ele><time>2026-04-04T13:04:02.011Z</time></trkpt><trkpt lat="44.989576264283784" lon="9.523307993467315"><ele>97.33333333333334</ele><time>2026-04-04T13:04:04.011Z</time></trkpt><trkpt lat="44.98965995377797" lon="9.523336663402134"><ele>97.5</ele><time>2026-04-04T13:04:06.011Z</time></trkpt><trkpt lat="44.989741788101455" lon="9.52337118969527"><ele>97.66666666666666</ele><time>2026-04-04T13:04:08.011Z</time></trkpt><trkpt lat="44.989827920497795" lon="9.523406165981724"><ele>97.83333333333333</ele><time>2026-04-04T13:04:10.011Z</time></trkpt><trkpt lat="44.989909901491934" lon="9.52344345747739"><ele>98.0</ele><time>2026-04-04T13:04:12.011Z</time></trkpt><trkpt lat="44.9899902547556" lon="9.523479673850437"><ele>98.0</ele><time>2026-04-04T13:04:14.011Z</time></trkpt><trkpt lat="44.99006586822685" lon="9.523520037243419"><ele>98.0</ele><time>2026-04-04T13:04:16.011Z</time></trkpt><trkpt lat="44.990140045208605" lon="9.52355360747384"><ele>98.0</ele><time>2026-04-04T13:04:18.011Z</time></trkpt><trkpt lat="44.990209559623366" lon="9.523604502197303"><ele>98.0</ele><time>2026-04-04T13:04:20.011Z</time></trkpt><trkpt lat="44.99026799087095" lon="9.523654729236876"><ele>98.0</ele><time>2026-04-04T13:04:22.011Z</time></trkpt><trkpt lat="44.990317778542725" lon="9.523709857479611"><ele>98.0</ele><time>2026-04-04T13:04:24.011Z</time></trkpt><trkpt lat="44.99037196696479" lon="9.523791809308916"><ele>98.0</ele><time>2026-04-04T13:04:26.011Z</time></trkpt><trkpt lat="44.99042563398174" lon="9.52385777604527"><ele>97.66666666666666</ele><time>2026-04-04T13:04:28.011Z</time></trkpt><trkpt lat="44.99048247979545" lon="9.523937989142679"><ele>97.33333333333333</ele><time>2026-04-04T13:04:30.011Z</time></trkpt><trkpt lat="44.99054235055285" lon="9.52402412807749"><ele>97.0</ele><time>2026-04-04T13:04:32.011Z</time></trkpt><trkpt lat="44.99060557207628" lon="9.524109959028134"><ele>96.66666666666666</ele><time>2026-04-04T13:04:34.011Z</time></trkpt><trkpt lat="44.990671803082634" lon="9.524203517036527"><ele>96.33333333333333</ele><time>2026-04-04T13:04:36.011Z</time></trkpt><trkpt lat="44.99073770295292" lon="9.524286399147096"><ele>96.0</ele><time>2026-04-04T13:04:38.011Z</time></trkpt><trkpt lat="44.99080260266614" lon="9.52438562493352"><ele>96.0</ele><time>2026-04-04T13:04:40.012Z</time></trkpt><trkpt lat="44.99087310209656" lon="9.524486782479228"><ele>96.0</ele><time>2026-04-04T13:04:42.012Z</time></trkpt><trkpt lat="44.99094440179294" lon="9.524584667280864"><ele>96.0</ele><time>2026-04-04T13:04:44.011Z</time></trkpt><trkpt lat="44.99101379857466" lon="9.524679797718271"><ele>96.0</ele><time>2026-04-04T13:04:46.011Z</time></trkpt><trkpt lat="44.99108530557158" lon="9.524773078702834"><ele>96.0</ele><time>2026-04-04T13:04:48.011Z</time></trkpt><trkpt lat="44.99115050050221" lon="9.524861838543455"><ele>96.0</ele><time>2026-04-04T13:04:50.011Z</time></trkpt><trkpt lat="44.99122237048856" lon="9.524969475219455"><ele>96.0</ele><time>2026-04-04T13:04:52.012Z</time></trkpt><trkpt lat="44.99129094430921" lon="9.525064682541863"><ele>96.0</ele><time>2026-04-04T13:04:54.012Z</time></trkpt><trkpt lat="44.991359502846" lon="9.525161492818635"><ele>96.0</ele><time>2026-04-04T13:04:56.012Z</time></trkpt><trkpt lat="44.99143089405353" lon="9.52525845967197"><ele>96.0</ele><time>2026-04-04T13:04:58.012Z</time></trkpt><trkpt lat="44.99150172196193" lon="9.525360574479846"><ele>96.0</ele><time>2026-04-04T13:05:00.012Z</time></trkpt><trkpt lat="44.99157027988398" lon="9.525456954129526"><ele>96.0</ele><time>2026-04-04T13:05:02.012Z</time></trkpt><trkpt lat="44.99163865537823" lon="9.52555634317718"><ele>96.0</ele><time>2026-04-04T13:05:04.012Z</time></trkpt><trkpt lat="44.991707784447755" lon="9.525657354408152"><ele>96.0</ele><time>2026-04-04T13:05:06.012Z</time></trkpt><trkpt lat="44.99177848253165" lon="9.525761765681978"><ele>96.0</ele><time>2026-04-04T13:05:08.012Z</time></trkpt><trkpt lat="44.99185185797944" lon="9.525866809974156"><ele>95.6</ele><time>2026-04-04T13:05:10.012Z</time></trkpt><trkpt lat="44.99192705860967" lon="9.525958596586674"><ele>95.19999999999999</ele><time>2026-04-04T13:05:12.012Z</time></trkpt><trkpt lat="44.992006666924944" lon="9.526045275559513"><ele>94.80000000000001</ele><time>2026-04-04T13:05:14.012Z</time></trkpt><trkpt lat="44.99208667168313" lon="9.526126142901166"><ele>94.4</ele><time>2026-04-04T13:05:16.012Z</time></trkpt><trkpt lat="44.9921757234346" lon="9.526194179293528"><ele>94.0</ele><time>2026-04-04T13:05:18.012Z</time></trkpt><trkpt lat="44.992274970757045" lon="9.526244990289058"><ele>94.0</ele><time>2026-04-04T13:05:20.012Z</time></trkpt><trkpt lat="44.99237684731725" lon="9.526279633346935"><ele>94.0</ele><time>2026-04-04T13:05:22.012Z</time></trkpt><trkpt lat="44.992484434893285" lon="9.526312604150453"><ele>94.0</ele><time>2026-04-04T13:05:24.012Z</time></trkpt><trkpt lat="44.99258740235839" lon="9.526351615217685"><ele>94.0</ele><time>2026-04-04T13:05:26.012Z</time></trkpt><trkpt lat="44.992691549284025" lon="9.526386324429758"><ele>94.0</ele><time>2026-04-04T13:05:28.012Z</time></trkpt><trkpt lat="44.99279564111671" lon="9.526413349110197"><ele>94.4</ele><time>2026-04-04T13:05:30.012Z</time></trkpt><trkpt lat="44.992900158835674" lon="9.52644470638775"><ele>94.80000000000001</ele><time>2026-04-04T13:05:32.012Z</time></trkpt><trkpt lat="44.99300749468388" lon="9.526477268657077"><ele>95.19999999999999</ele><time>2026-04-04T13:05:34.012Z</time></trkpt><trkpt lat="44.993112528117486" lon="9.526511741898481"><ele>95.6</ele><time>2026-04-04T13:05:36.012Z</time></trkpt><trkpt lat="44.993219315301744" lon="9.526553177934385"><ele>96.0</ele><time>2026-04-04T13:05:38.012Z</time></trkpt><trkpt lat="44.99332722341475" lon="9.526577482612558"><ele>95.8</ele><time>2026-04-04T13:05:40.012Z</time></trkpt><trkpt lat="44.99342703921283" lon="9.526613650707462"><ele>95.6</ele><time>2026-04-04T13:05:42.012Z</time></trkpt><trkpt lat="44.99352350056684" lon="9.52663664781643"><ele>95.4</ele><time>2026-04-04T13:05:44.012Z</time></trkpt><trkpt lat="44.993621768515844" lon="9.526662708185343"><ele>95.2</ele><time>2026-04-04T13:05:46.012Z</time></trkpt><trkpt lat="44.99371811484436" lon="9.526686435012596"><ele>95.0</ele><time>2026-04-04T13:05:48.012Z</time></trkpt><trkpt lat="44.9938238893504" lon="9.526716686069951"><ele>95.0</ele><time>2026-04-04T13:05:50.012Z</time></trkpt><trkpt lat="44.993924382214914" lon="9.526732045918598"><ele>95.0</ele><time>2026-04-04T13:05:52.012Z</time></trkpt><trkpt lat="44.994033787595924" lon="9.526747105535023"><ele>95.0</ele><time>2026-04-04T13:05:54.012Z</time></trkpt><trkpt lat="44.994133478688056" lon="9.526763144155796"><ele>95.0</ele><time>2026-04-04T13:05:56.012Z</time></trkpt><trkpt lat="44.99423315376854" lon="9.52678474337576"><ele>95.0</ele><time>2026-04-04T13:05:58.012Z</time></trkpt><trkpt lat="44.99432855245175" lon="9.526796328397884"><ele>94.6</ele><time>2026-04-04T13:06:00.012Z</time></trkpt><trkpt lat="44.99443438245424" lon="9.52681161356671"><ele>94.2</ele><time>2026-04-04T13:06:02.012Z</time></trkpt><trkpt lat="44.99453689828954" lon="9.526825189551456"><ele>93.80000000000001</ele><time>2026-04-04T13:06:04.012Z</time></trkpt><trkpt lat="44.99463986293779" lon="9.526832543653972"><ele>93.4</ele><time>2026-04-04T13:06:06.012Z</time></trkpt><trkpt lat="44.99474686448099" lon="9.526826124271148"><ele>93.0</ele><time>2026-04-04T13:06:08.012Z</time></trkpt><trkpt lat="44.994862654633" lon="9.526831837181035"><ele>93.0</ele><time>2026-04-04T13:06:10.012Z</time></trkpt><trkpt lat="44.99497023123937" lon="9.5268243776715"><ele>93.0</ele><time>2026-04-04T13:06:12.012Z</time></trkpt><trkpt lat="44.99503429798769" lon="9.526823778222266"><ele>93.0</ele><time>2026-04-04T13:06:13.012Z</time></trkpt><trkpt lat="44.99514471985913" lon="9.526814804161141"><ele>93.0</ele><time>2026-04-04T13:06:15.012Z</time></trkpt><trkpt lat="44.9952462452261" lon="9.526813064630725"><ele>93.0</ele><time>2026-04-04T13:06:17.012Z</time></trkpt><trkpt lat="44.99535761813761" lon="9.526804207603831"><ele>92.75</ele><time>2026-04-04T13:06:19.012Z</time></trkpt><trkpt lat="44.99546927273637" lon="9.526801734362905"><ele>92.5</ele><time>2026-04-04T13:06:21.012Z</time></trkpt><trkpt lat="44.995581914132856" lon="9.526818959444165"><ele>92.25</ele><time>2026-04-04T13:06:23.012Z</time></trkpt><trkpt lat="44.99568949361196" lon="9.52687749692635"><ele>92.0</ele><time>2026-04-04T13:06:25.012Z</time></trkpt><trkpt lat="44.99577151242594" lon="9.526990189602857"><ele>91.8</ele><time>2026-04-04T13:06:27.012Z</time></trkpt><trkpt lat="44.99582746150835" lon="9.52712873862046"><ele>91.6</ele><time>2026-04-04T13:06:29.012Z</time></trkpt><trkpt lat="44.99588868412628" lon="9.527261993126865"><ele>91.39999999999999</ele><time>2026-04-04T13:06:31.012Z</time></trkpt><trkpt lat="44.995949429336775" lon="9.527390435563753"><ele>91.19999999999999</ele><time>2026-04-04T13:06:33.012Z</time></trkpt><trkpt lat="44.9960101598314" lon="9.527514198197238"><ele>91.0</ele><time>2026-04-04T13:06:35.012Z</time></trkpt><trkpt lat="44.99607074795884" lon="9.527642102266885"><ele>90.8</ele><time>2026-04-04T13:06:37.012Z</time></trkpt><trkpt lat="44.996135244384185" lon="9.527774678461332"><ele>90.6</ele><time>2026-04-04T13:06:39.012Z</time></trkpt><trkpt lat="44.996196862888205" lon="9.527899841884508"><ele>90.4</ele><time>2026-04-04T13:06:41.012Z</time></trkpt><trkpt lat="44.99625988979908" lon="9.528022107920432"><ele>90.2</ele><time>2026-04-04T13:06:43.012Z</time></trkpt><trkpt lat="44.99632111717784" lon="9.528140925576135"><ele>90.0</ele><time>2026-04-04T13:06:45.012Z</time></trkpt><trkpt lat="44.996378799130355" lon="9.52825596167487"><ele>90.0</ele><time>2026-04-04T13:06:47.012Z</time></trkpt><trkpt lat="44.99643817060155" lon="9.528369334922289"><ele>90.0</ele><time>2026-04-04T13:06:49.012Z</time></trkpt><trkpt lat="44.996493649539005" lon="9.528483638970227"><ele>90.0</ele><time>2026-04-04T13:06:51.013Z</time></trkpt><trkpt lat="44.99655007284702" lon="9.528592986923575"><ele>90.0</ele><time>2026-04-04T13:06:53.012Z</time></trkpt><trkpt lat="44.99660699502361" lon="9.528701379990771"><ele>90.0</ele><time>2026-04-04T13:06:55.012Z</time></trkpt><trkpt lat="44.9966640753042" lon="9.528808027579561"><ele>90.0</ele><time>2026-04-04T13:06:57.012Z</time></trkpt><trkpt lat="44.996720619740785" lon="9.528922024285617"><ele>90.0</ele><time>2026-04-04T13:06:59.012Z</time></trkpt><trkpt lat="44.99677101344964" lon="9.529045527476976"><ele>90.0</ele><time>2026-04-04T13:07:01.012Z</time></trkpt><trkpt lat="44.99683113328132" lon="9.529153360542947"><ele>90.0</ele><time>2026-04-04T13:07:03.012Z</time></trkpt><trkpt lat="44.99689161163905" lon="9.529279243787268"><ele>90.0</ele><time>2026-04-04T13:07:05.012Z</time></trkpt><trkpt lat="44.99696263224723" lon="9.52938839619669"><ele>90.0</ele><time>2026-04-04T13:07:07.012Z</time></trkpt><trkpt lat="44.99701935496509" lon="9.52950141582597"><ele>90.0</ele><time>2026-04-04T13:07:09.012Z</time></trkpt><trkpt lat="44.99707391828973" lon="9.529617409724427"><ele>90.0</ele><time>2026-04-04T13:07:11.012Z</time></trkpt><trkpt lat="44.99713265320922" lon="9.529724354944424"><ele>90.0</ele><time>2026-04-04T13:07:13.012Z</time></trkpt><trkpt lat="44.99718431627187" lon="9.52982774060615"><ele>90.0</ele><time>2026-04-04T13:07:15.012Z</time></trkpt><trkpt lat="44.99724386738565" lon="9.529922751729346"><ele>90.0</ele><time>2026-04-04T13:07:17.012Z</time></trkpt><trkpt lat="44.99730053431116" lon="9.530036795153121"><ele>90.0</ele><time>2026-04-04T13:07:19.012Z</time></trkpt><trkpt lat="44.99736570926364" lon="9.530139505210078"><ele>90.0</ele><time>2026-04-04T13:07:21.012Z</time></trkpt><trkpt lat="44.99742299543021" lon="9.530247798018168"><ele>90.0</ele><time>2026-04-04T13:07:23.012Z</time></trkpt><trkpt lat="44.99747835122056" lon="9.53036017045813"><ele>90.0</ele><time>2026-04-04T13:07:25.012Z</time></trkpt><trkpt lat="44.99754105562753" lon="9.530481995518496"><ele>90.0</ele><time>2026-04-04T13:07:27.012Z</time></trkpt><trkpt lat="44.99759613553451" lon="9.530590416641623"><ele>90.0</ele><time>2026-04-04T13:07:29.012Z</time></trkpt><trkpt lat="44.99765381399192" lon="9.530699143519104"><ele>90.0</ele><time>2026-04-04T13:07:31.012Z</time></trkpt><trkpt lat="44.99771028995804" lon="9.530801968104742"><ele>90.0</ele><time>2026-04-04T13:07:33.012Z</time></trkpt><trkpt lat="44.99777032731742" lon="9.530914306163151"><ele>90.0</ele><time>2026-04-04T13:07:35.012Z</time></trkpt><trkpt lat="44.99783548445096" lon="9.531016522210203"><ele>90.0</ele><time>2026-04-04T13:07:37.012Z</time></trkpt><trkpt lat="44.997896836181646" lon="9.531121652386062"><ele>90.0</ele><time>2026-04-04T13:07:39.012Z</time></trkpt><trkpt lat="44.99794796811241" lon="9.531215833986712"><ele>90.0</ele><time>2026-04-04T13:07:41.012Z</time></trkpt><trkpt lat="44.99801072997678" lon="9.531300717909426"><ele>90.0</ele><time>2026-04-04T13:07:43.012Z</time></trkpt><trkpt lat="44.99806043290737" lon="9.531401058447493"><ele>90.0</ele><time>2026-04-04T13:07:45.012Z</time></trkpt><trkpt lat="44.998120870597525" lon="9.531500257197713"><ele>90.0</ele><time>2026-04-04T13:07:47.012Z</time></trkpt><trkpt lat="44.998195523932445" lon="9.531593665059292"><ele>90.2</ele><time>2026-04-04T13:07:49.012Z</time></trkpt><trkpt lat="44.9982537495585" lon="9.531705937119158"><ele>90.4</ele><time>2026-04-04T13:07:51.012Z</time></trkpt><trkpt lat="44.99831741961487" lon="9.531795062687134"><ele>90.6</ele><time>2026-04-04T13:07:53.012Z</time></trkpt><trkpt lat="44.99834481460241" lon="9.531936201064399"><ele>90.8</ele><time>2026-04-04T13:07:55.012Z</time></trkpt><trkpt lat="44.998347455011725" lon="9.5320483395369"><ele>91.0</ele><time>2026-04-04T13:07:57.012Z</time></trkpt><trkpt lat="44.99835117823323" lon="9.532178419926646"><ele>91.0</ele><time>2026-04-04T13:07:59.012Z</time></trkpt><trkpt lat="44.99835312978236" lon="9.53233241360866"><ele>91.0</ele><time>2026-04-04T13:08:01.012Z</time></trkpt><trkpt lat="44.99836992944467" lon="9.532472671034673"><ele>91.0</ele><time>2026-04-04T13:08:03.012Z</time></trkpt><trkpt lat="44.9983675036655" lon="9.532603076137715"><ele>91.0</ele><time>2026-04-04T13:08:05.012Z</time></trkpt><trkpt lat="44.99837086858893" lon="9.532734515395724"><ele>91.0</ele><time>2026-04-04T13:08:07.012Z</time></trkpt><trkpt lat="44.99837765432676" lon="9.532870327891132"><ele>91.0</ele><time>2026-04-04T13:08:09.012Z</time></trkpt><trkpt lat="44.99840089889104" lon="9.533000686455136"><ele>91.0</ele><time>2026-04-04T13:08:11.012Z</time></trkpt><trkpt lat="44.998398914743454" lon="9.533143398131765"><ele>91.0</ele><time>2026-04-04T13:08:13.012Z</time></trkpt><trkpt lat="44.998431196758666" lon="9.533280636731016"><ele>91.0</ele><time>2026-04-04T13:08:15.012Z</time></trkpt><trkpt lat="44.998481813419126" lon="9.53340389356512"><ele>91.0</ele><time>2026-04-04T13:08:17.012Z</time></trkpt><trkpt lat="44.99853881415586" lon="9.533520167991952"><ele>91.0</ele><time>2026-04-04T13:08:19.012Z</time></trkpt><trkpt lat="44.99859097371445" lon="9.533631172488091"><ele>91.0</ele><time>2026-04-04T13:08:21.012Z</time></trkpt><trkpt lat="44.99864282782901" lon="9.533737929076738"><ele>91.0</ele><time>2026-04-04T13:08:23.012Z</time></trkpt><trkpt lat="44.99869173200328" lon="9.533830048065855"><ele>91.0</ele><time>2026-04-04T13:08:25.012Z</time></trkpt><trkpt lat="44.99874028272779" lon="9.533930398144411"><ele>91.0</ele><time>2026-04-04T13:08:27.012Z</time></trkpt><trkpt lat="44.99879637679909" lon="9.534026226551122"><ele>91.0</ele><time>2026-04-04T13:08:29.012Z</time></trkpt><trkpt lat="44.99886023383837" lon="9.534128439076596"><ele>91.0</ele><time>2026-04-04T13:08:31.012Z</time></trkpt><trkpt lat="44.99890943105939" lon="9.534240058407786"><ele>91.0</ele><time>2026-04-04T13:08:33.012Z</time></trkpt><trkpt lat="44.998961482846006" lon="9.534352396817585"><ele>91.0</ele><time>2026-04-04T13:08:35.012Z</time></trkpt><trkpt lat="44.99901704925585" lon="9.534454066486695"><ele>91.0</ele><time>2026-04-04T13:08:37.012Z</time></trkpt><trkpt lat="44.99907561181313" lon="9.534558179623602"><ele>91.0</ele><time>2026-04-04T13:08:39.012Z</time></trkpt><trkpt lat="44.99913721756346" lon="9.534663079924863"><ele>90.6</ele><time>2026-04-04T13:08:41.012Z</time></trkpt><trkpt lat="44.9992030976326" lon="9.534779012836164"><ele>90.19999999999999</ele><time>2026-04-04T13:08:43.012Z</time></trkpt><trkpt lat="44.99925813892641" lon="9.534898612858568"><ele>89.80000000000001</ele><time>2026-04-04T13:08:45.012Z</time></trkpt><trkpt lat="44.999320290086224" lon="9.535012918092443"><ele>89.4</ele><time>2026-04-04T13:08:47.012Z</time></trkpt><trkpt lat="44.999370735811745" lon="9.535133947346479"><ele>89.0</ele><time>2026-04-04T13:08:49.012Z</time></trkpt><trkpt lat="44.99941270172109" lon="9.535252310450764"><ele>89.0</ele><time>2026-04-04T13:08:51.013Z</time></trkpt><trkpt lat="44.99947073132411" lon="9.535372025331364"><ele>89.0</ele><time>2026-04-04T13:08:53.012Z</time></trkpt><trkpt lat="44.99951090778236" lon="9.535497467612252"><ele>89.0</ele><time>2026-04-04T13:08:55.013Z</time></trkpt><trkpt lat="44.99953635284195" lon="9.535614501614308"><ele>89.0</ele><time>2026-04-04T13:08:57.013Z</time></trkpt><trkpt lat="44.99958446356657" lon="9.535733423672369"><ele>89.0</ele><time>2026-04-04T13:08:59.013Z</time></trkpt><trkpt lat="44.99962709322573" lon="9.53585288924953"><ele>89.0</ele><time>2026-04-04T13:09:01.012Z</time></trkpt><trkpt lat="44.99966682884893" lon="9.53597725213202"><ele>89.0</ele><time>2026-04-04T13:09:03.013Z</time></trkpt><trkpt lat="44.99971237987339" lon="9.53609418666208"><ele>89.0</ele><time>2026-04-04T13:09:05.012Z</time></trkpt><trkpt lat="44.9997527521183" lon="9.536213024736805"><ele>89.0</ele><time>2026-04-04T13:09:07.012Z</time></trkpt><trkpt lat="44.999784089152335" lon="9.53633832232936"><ele>89.0</ele><time>2026-04-04T13:09:09.012Z</time></trkpt><trkpt lat="44.99981542152997" lon="9.536459744546194"><ele>89.16666666666667</ele><time>2026-04-04T13:09:11.012Z</time></trkpt><trkpt lat="44.999843632068504" lon="9.536582564957012"><ele>89.33333333333334</ele><time>2026-04-04T13:09:13.012Z</time></trkpt><trkpt lat="44.999873547053646" lon="9.536697343502862"><ele>89.5</ele><time>2026-04-04T13:09:15.012Z</time></trkpt><trkpt lat="44.99990552630748" lon="9.536809781379121"><ele>89.66666666666667</ele><time>2026-04-04T13:09:17.012Z</time></trkpt><trkpt lat="44.99993098205488" lon="9.536924992881868"><ele>89.83333333333333</ele><time>2026-04-04T13:09:19.012Z</time></trkpt><trkpt lat="44.99995764439347" lon="9.537035999302717"><ele>90.0</ele><time>2026-04-04T13:09:21.012Z</time></trkpt><trkpt lat="44.9999890574985" lon="9.537145680315742"><ele>90.0</ele><time>2026-04-04T13:09:23.012Z</time></trkpt><trkpt lat="45.000018369951384" lon="9.537258043758099"><ele>90.0</ele><time>2026-04-04T13:09:25.012Z</time></trkpt><trkpt lat="45.00004344681202" lon="9.537374748256576"><ele>90.0</ele><time>2026-04-04T13:09:27.012Z</time></trkpt><trkpt lat="45.00007371780883" lon="9.537492144932166"><ele>90.0</ele><time>2026-04-04T13:09:29.012Z</time></trkpt><trkpt lat="45.00010054657186" lon="9.53761072755872"><ele>90.0</ele><time>2026-04-04T13:09:31.012Z</time></trkpt><trkpt lat="45.0001371113233" lon="9.537724688525369"><ele>90.0</ele><time>2026-04-04T13:09:33.012Z</time></trkpt><trkpt lat="45.00017435797801" lon="9.537837569695357"><ele>90.0</ele><time>2026-04-04T13:09:35.012Z</time></trkpt><trkpt lat="45.00020355154437" lon="9.537969838178894"><ele>90.0</ele><time>2026-04-04T13:09:37.012Z</time></trkpt><trkpt lat="45.000245167824716" lon="9.538089876954375"><ele>90.0</ele><time>2026-04-04T13:09:39.012Z</time></trkpt><trkpt lat="45.000288032670255" lon="9.538207384888679"><ele>90.0</ele><time>2026-04-04T13:09:41.012Z</time></trkpt><trkpt lat="45.000327928737484" lon="9.538324047840034"><ele>90.0</ele><time>2026-04-04T13:09:43.012Z</time></trkpt><trkpt lat="45.00037177127926" lon="9.538445027683682"><ele>90.0</ele><time>2026-04-04T13:09:45.012Z</time></trkpt><trkpt lat="45.00041308144952" lon="9.538571990045474"><ele>90.0</ele><time>2026-04-04T13:09:47.012Z</time></trkpt><trkpt lat="45.00045812980879" lon="9.538700594262922"><ele>90.0</ele><time>2026-04-04T13:09:49.012Z</time></trkpt><trkpt lat="45.00050313267734" lon="9.538826832241398"><ele>90.0</ele><time>2026-04-04T13:09:51.012Z</time></trkpt><trkpt lat="45.00054212390773" lon="9.53895340113321"><ele>90.0</ele><time>2026-04-04T13:09:53.012Z</time></trkpt><trkpt lat="45.00058340148557" lon="9.539071401554944"><ele>90.0</ele><time>2026-04-04T13:09:55.012Z</time></trkpt><trkpt lat="45.00062756637749" lon="9.539192050357629"><ele>90.0</ele><time>2026-04-04T13:09:57.012Z</time></trkpt><trkpt lat="45.00066692829362" lon="9.539320170208738"><ele>90.0</ele><time>2026-04-04T13:09:59.012Z</time></trkpt><trkpt lat="45.00070697874224" lon="9.539441773346713"><ele>90.0</ele><time>2026-04-04T13:10:01.012Z</time></trkpt><trkpt lat="45.00074843466656" lon="9.539563612644613"><ele>90.0</ele><time>2026-04-04T13:10:03.012Z</time></trkpt><trkpt lat="45.00078801256994" lon="9.539671807903568"><ele>89.8</ele><time>2026-04-04T13:10:05.012Z</time></trkpt><trkpt lat="45.00082347615323" lon="9.539789989945932"><ele>89.6</ele><time>2026-04-04T13:10:07.012Z</time></trkpt><trkpt lat="45.000867628778614" lon="9.539912053666566"><ele>89.4</ele><time>2026-04-04T13:10:09.012Z</time></trkpt><trkpt lat="45.00091046153606" lon="9.540037561997986"><ele>89.2</ele><time>2026-04-04T13:10:11.012Z</time></trkpt><trkpt lat="45.00095350955732" lon="9.540162361915053"><ele>89.0</ele><time>2026-04-04T13:10:13.012Z</time></trkpt><trkpt lat="45.0009958462008" lon="9.540291844151858"><ele>88.80000000000001</ele><time>2026-04-04T13:10:15.012Z</time></trkpt><trkpt lat="45.00104046617363" lon="9.54041850063173"><ele>88.60000000000001</ele><time>2026-04-04T13:10:17.012Z</time></trkpt><trkpt lat="45.001089977255454" lon="9.540550872533345"><ele>88.4</ele><time>2026-04-04T13:10:19.012Z</time></trkpt><trkpt lat="45.00113480037406" lon="9.540673442940124"><ele>88.2</ele><time>2026-04-04T13:10:21.012Z</time></trkpt><trkpt lat="45.001176809624134" lon="9.54079721448606"><ele>88.0</ele><time>2026-04-04T13:10:23.012Z</time></trkpt><trkpt lat="45.0012212351077" lon="9.540917041206063"><ele>88.0</ele><time>2026-04-04T13:10:25.012Z</time></trkpt><trkpt lat="45.00126002475691" lon="9.541039768021824"><ele>88.0</ele><time>2026-04-04T13:10:27.012Z</time></trkpt><trkpt lat="45.001308194799506" lon="9.541163133636665"><ele>88.0</ele><time>2026-04-04T13:10:29.012Z</time></trkpt><trkpt lat="45.00135081137011" lon="9.541296425394242"><ele>88.0</ele><time>2026-04-04T13:10:31.012Z</time></trkpt><trkpt lat="45.001399075355266" lon="9.541420760299335"><ele>88.0</ele><time>2026-04-04T13:10:33.012Z</time></trkpt><trkpt lat="45.001441809467636" lon="9.541550066146286"><ele>88.0</ele><time>2026-04-04T13:10:35.012Z</time></trkpt><trkpt lat="45.00148217939852" lon="9.541677537889559"><ele>88.0</ele><time>2026-04-04T13:10:37.012Z</time></trkpt><trkpt lat="45.00152657043361" lon="9.541799917256824"><ele>88.0</ele><time>2026-04-04T13:10:39.012Z</time></trkpt><trkpt lat="45.00157730458089" lon="9.54193218935051"><ele>88.0</ele><time>2026-04-04T13:10:41.012Z</time></trkpt><trkpt lat="45.00161829146986" lon="9.542055793013091"><ele>88.0</ele><time>2026-04-04T13:10:43.012Z</time></trkpt><trkpt lat="45.001663018832126" lon="9.542177261986186"><ele>87.4</ele><time>2026-04-04T13:10:45.012Z</time></trkpt><trkpt lat="45.00170526641205" lon="9.542300127864731"><ele>86.80000000000001</ele><time>2026-04-04T13:10:47.012Z</time></trkpt><trkpt lat="45.001750216349194" lon="9.542422477791112"><ele>86.2</ele><time>2026-04-04T13:10:49.012Z</time></trkpt><trkpt lat="45.00179540468678" lon="9.54254691315366"><ele>85.6</ele><time>2026-04-04T13:10:51.012Z</time></trkpt><trkpt lat="45.00183833274458" lon="9.542675057176835"><ele>85.0</ele><time>2026-04-04T13:10:53.012Z</time></trkpt><trkpt lat="45.00188356782464" lon="9.5428038436133"><ele>85.0</ele><time>2026-04-04T13:10:55.013Z</time></trkpt><trkpt lat="45.00192615814582" lon="9.542930484508803"><ele>85.0</ele><time>2026-04-04T13:10:57.013Z</time></trkpt><trkpt lat="45.00196946652259" lon="9.543052813819376"><ele>85.0</ele><time>2026-04-04T13:10:59.013Z</time></trkpt><trkpt lat="45.00201254129719" lon="9.543178769775938"><ele>85.0</ele><time>2026-04-04T13:11:01.013Z</time></trkpt><trkpt lat="45.00205673816544" lon="9.543304564809302"><ele>85.0</ele><time>2026-04-04T13:11:03.014Z</time></trkpt><trkpt lat="45.00210345739941" lon="9.54343325827761"><ele>85.0</ele><time>2026-04-04T13:11:05.013Z</time></trkpt><trkpt lat="45.00215027039195" lon="9.543565659702384"><ele>85.0</ele><time>2026-04-04T13:11:07.014Z</time></trkpt><trkpt lat="45.00219743414244" lon="9.543694148855046"><ele>85.0</ele><time>2026-04-04T13:11:09.014Z</time></trkpt><trkpt lat="45.002239294484696" lon="9.543823058689746"><ele>85.0</ele><time>2026-04-04T13:11:11.014Z</time></trkpt><trkpt lat="45.00228522942347" lon="9.543950832719046"><ele>85.0</ele><time>2026-04-04T13:11:13.014Z</time></trkpt><trkpt lat="45.00233274476599" lon="9.544091447747752"><ele>85.4</ele><time>2026-04-04T13:11:15.014Z</time></trkpt><trkpt lat="45.00238053091729" lon="9.54422374793976"><ele>85.8</ele><time>2026-04-04T13:11:17.014Z</time></trkpt><trkpt lat="45.00242665389124" lon="9.544358931518616"><ele>86.19999999999999</ele><time>2026-04-04T13:11:19.014Z</time></trkpt><trkpt lat="45.00247485256739" lon="9.544489556991405"><ele>86.6</ele><time>2026-04-04T13:11:21.014Z</time></trkpt><trkpt lat="45.00252163076521" lon="9.544620382592607"><ele>87.0</ele><time>2026-04-04T13:11:23.014Z</time></trkpt><trkpt lat="45.002567457305744" lon="9.544746424850302"><ele>87.0</ele><time>2026-04-04T13:11:25.014Z</time></trkpt><trkpt lat="45.00261517093733" lon="9.544883602451739"><ele>87.0</ele><time>2026-04-04T13:11:27.014Z</time></trkpt><trkpt lat="45.002659868872065" lon="9.545018935194296"><ele>87.0</ele><time>2026-04-04T13:11:29.014Z</time></trkpt><trkpt lat="45.00271146440273" lon="9.545144558617546"><ele>87.0</ele><time>2026-04-04T13:11:31.014Z</time></trkpt><trkpt lat="45.00275089624519" lon="9.545279952902355"><ele>87.0</ele><time>2026-04-04T13:11:33.014Z</time></trkpt><trkpt lat="45.00279675192471" lon="9.545405638849092"><ele>86.8</ele><time>2026-04-04T13:11:35.014Z</time></trkpt><trkpt lat="45.00284170827587" lon="9.54553918105138"><ele>86.6</ele><time>2026-04-04T13:11:37.014Z</time></trkpt><trkpt lat="45.00288746523544" lon="9.545672467106755"><ele>86.39999999999999</ele><time>2026-04-04T13:11:39.014Z</time></trkpt><trkpt lat="45.0029342517182" lon="9.545803205915385"><ele>86.19999999999999</ele><time>2026-04-04T13:11:41.014Z</time></trkpt><trkpt lat="45.002982088234454" lon="9.54593693563758"><ele>86.0</ele><time>2026-04-04T13:11:43.014Z</time></trkpt><trkpt lat="45.00303138150306" lon="9.54606841536099"><ele>86.0</ele><time>2026-04-04T13:11:45.014Z</time></trkpt><trkpt lat="45.00306931676509" lon="9.546195310579161"><ele>86.0</ele><time>2026-04-04T13:11:47.014Z</time></trkpt><trkpt lat="45.003112656066314" lon="9.546316883112445"><ele>86.0</ele><time>2026-04-04T13:11:49.014Z</time></trkpt><trkpt lat="45.00316169455238" lon="9.54644996265256"><ele>86.0</ele><time>2026-04-04T13:11:51.014Z</time></trkpt><trkpt lat="45.003213193134556" lon="9.546584555651714"><ele>86.0</ele><time>2026-04-04T13:11:53.014Z</time></trkpt><trkpt lat="45.00325362315659" lon="9.546717087852382"><ele>86.0</ele><time>2026-04-04T13:11:55.014Z</time></trkpt><trkpt lat="45.00330275874754" lon="9.546847242261048"><ele>86.0</ele><time>2026-04-04T13:11:57.014Z</time></trkpt><trkpt lat="45.00334901763505" lon="9.546979038405045"><ele>86.0</ele><time>2026-04-04T13:11:59.014Z</time></trkpt><trkpt lat="45.00339515138682" lon="9.547103043183272"><ele>86.0</ele><time>2026-04-04T13:12:01.014Z</time></trkpt><trkpt lat="45.00344001779776" lon="9.547231216382986"><ele>86.0</ele><time>2026-04-04T13:12:03.014Z</time></trkpt><trkpt lat="45.0034813439228" lon="9.547345267127591"><ele>86.0</ele><time>2026-04-04T13:12:05.014Z</time></trkpt><trkpt lat="45.003525065712026" lon="9.547463523985764"><ele>86.0</ele><time>2026-04-04T13:12:07.014Z</time></trkpt><trkpt lat="45.00357406771752" lon="9.547586880627009"><ele>86.0</ele><time>2026-04-04T13:12:09.014Z</time></trkpt><trkpt lat="45.00361782709267" lon="9.547716955544084"><ele>86.0</ele><time>2026-04-04T13:12:11.014Z</time></trkpt><trkpt lat="45.00367195326522" lon="9.547856545756037"><ele>86.0</ele><time>2026-04-04T13:12:13.014Z</time></trkpt><trkpt lat="45.00372941423607" lon="9.547998022805544"><ele>86.0</ele><time>2026-04-04T13:12:15.014Z</time></trkpt><trkpt lat="45.003787217229494" lon="9.548138992243583"><ele>86.0</ele><time>2026-04-04T13:12:17.014Z</time></trkpt><trkpt lat="45.003832501664554" lon="9.548287741320047"><ele>86.0</ele><time>2026-04-04T13:12:19.014Z</time></trkpt><trkpt lat="45.00387285173701" lon="9.548442730207245"><ele>86.0</ele><time>2026-04-04T13:12:21.014Z</time></trkpt><trkpt lat="45.003923947065296" lon="9.548589105432592"><ele>86.19999999999999</ele><time>2026-04-04T13:12:23.014Z</time></trkpt><trkpt lat="45.00397485325012" lon="9.548731265182589"><ele>86.39999999999999</ele><time>2026-04-04T13:12:25.014Z</time></trkpt><trkpt lat="45.00402536163462" lon="9.548863452683838"><ele>86.6</ele><time>2026-04-04T13:12:27.014Z</time></trkpt><trkpt lat="45.004070596935286" lon="9.548998421170234"><ele>86.8</ele><time>2026-04-04T13:12:29.014Z</time></trkpt><trkpt lat="45.004112609188496" lon="9.54912218103821"><ele>87.0</ele><time>2026-04-04T13:12:31.014Z</time></trkpt><trkpt lat="45.00415698568215" lon="9.549244205520717"><ele>86.39999999999999</ele><time>2026-04-04T13:12:33.014Z</time></trkpt><trkpt lat="45.00420125196308" lon="9.549370464385618"><ele>85.8</ele><time>2026-04-04T13:12:35.014Z</time></trkpt><trkpt lat="45.00424454036758" lon="9.549499116837808"><ele>85.2</ele><time>2026-04-04T13:12:37.014Z</time></trkpt><trkpt lat="45.00429102858719" lon="9.549622724820738"><ele>84.6</ele><time>2026-04-04T13:12:39.014Z</time></trkpt><trkpt lat="45.00433752583858" lon="9.549753060088188"><ele>84.0</ele><time>2026-04-04T13:12:41.014Z</time></trkpt><trkpt lat="45.00438328618433" lon="9.549878800595739"><ele>84.0</ele><time>2026-04-04T13:12:43.014Z</time></trkpt><trkpt lat="45.004431258590685" lon="9.550006967044817"><ele>84.0</ele><time>2026-04-04T13:12:45.014Z</time></trkpt><trkpt lat="45.00447979722269" lon="9.550135734698518"><ele>84.0</ele><time>2026-04-04T13:12:47.014Z</time></trkpt><trkpt lat="45.00452925452065" lon="9.550263525857398"><ele>84.0</ele><time>2026-04-04T13:12:49.014Z</time></trkpt><trkpt lat="45.0045742782092" lon="9.550394904843909"><ele>84.0</ele><time>2026-04-04T13:12:51.014Z</time></trkpt><trkpt lat="45.004624196361554" lon="9.550525077139874"><ele>84.0</ele><time>2026-04-04T13:12:53.014Z</time></trkpt><trkpt lat="45.00467308190087" lon="9.550653829679781"><ele>84.0</ele><time>2026-04-04T13:12:55.014Z</time></trkpt><trkpt lat="45.00472100226344" lon="9.550789363037607"><ele>84.0</ele><time>2026-04-04T13:12:57.014Z</time></trkpt><trkpt lat="45.0047696840541" lon="9.550920405557722"><ele>84.0</ele><time>2026-04-04T13:12:59.014Z</time></trkpt><trkpt lat="45.0048178895941" lon="9.551050647079098"><ele>84.0</ele><time>2026-04-04T13:13:01.014Z</time></trkpt><trkpt lat="45.00486320670896" lon="9.551185367643592"><ele>84.2</ele><time>2026-04-04T13:13:03.014Z</time></trkpt><trkpt lat="45.004915807312564" lon="9.55131481308736"><ele>84.4</ele><time>2026-04-04T13:13:05.014Z</time></trkpt><trkpt lat="45.00496650748254" lon="9.551446966845806"><ele>84.6</ele><time>2026-04-04T13:13:07.014Z</time></trkpt><trkpt lat="45.00500847304551" lon="9.5515759122621"><ele>84.8</ele><time>2026-04-04T13:13:09.014Z</time></trkpt><trkpt lat="45.00506020628027" lon="9.551696199568285"><ele>85.0</ele><time>2026-04-04T13:13:11.013Z</time></trkpt><trkpt lat="45.00510350085446" lon="9.551824542531048"><ele>85.0</ele><time>2026-04-04T13:13:13.013Z</time></trkpt><trkpt lat="45.00515466289453" lon="9.55193859104897"><ele>85.0</ele><time>2026-04-04T13:13:15.014Z</time></trkpt><trkpt lat="45.005196011967854" lon="9.552074674583732"><ele>85.0</ele><time>2026-04-04T13:13:17.013Z</time></trkpt><trkpt lat="45.005246731597104" lon="9.552195092769837"><ele>85.0</ele><time>2026-04-04T13:13:19.013Z</time></trkpt><trkpt lat="45.005292565390455" lon="9.552319977461368"><ele>85.0</ele><time>2026-04-04T13:13:21.013Z</time></trkpt><trkpt lat="45.005338788103614" lon="9.55245047956878"><ele>84.8</ele><time>2026-04-04T13:13:23.013Z</time></trkpt><trkpt lat="45.00538772331057" lon="9.552580431982534"><ele>84.6</ele><time>2026-04-04T13:13:25.013Z</time></trkpt><trkpt lat="45.005433805879115" lon="9.552706645543497"><ele>84.4</ele><time>2026-04-04T13:13:27.013Z</time></trkpt><trkpt lat="45.00547813317739" lon="9.552842138346941"><ele>84.2</ele><time>2026-04-04T13:13:29.013Z</time></trkpt><trkpt lat="45.00552216575237" lon="9.552970267826169"><ele>84.0</ele><time>2026-04-04T13:13:31.013Z</time></trkpt><trkpt lat="45.005575518668834" lon="9.553101255486311"><ele>83.6</ele><time>2026-04-04T13:13:33.013Z</time></trkpt><trkpt lat="45.00562286116163" lon="9.55323737707282"><ele>83.2</ele><time>2026-04-04T13:13:35.013Z</time></trkpt><trkpt lat="45.00567234561933" lon="9.553370271275615"><ele>82.8</ele><time>2026-04-04T13:13:37.013Z</time></trkpt><trkpt lat="45.00571721039247" lon="9.553500325903695"><ele>82.39999999999999</ele><time>2026-04-04T13:13:39.013Z</time></trkpt><trkpt lat="45.00576244708655" lon="9.55362881986454"><ele>82.0</ele><time>2026-04-04T13:13:41.013Z</time></trkpt><trkpt lat="45.00581264598529" lon="9.55375719986844"><ele>82.39999999999999</ele><time>2026-04-04T13:13:43.013Z</time></trkpt><trkpt lat="45.0058572128863" lon="9.553886162403952"><ele>82.8</ele><time>2026-04-04T13:13:45.014Z</time></trkpt><trkpt lat="45.00589640594859" lon="9.5540182939851"><ele>83.2</ele><time>2026-04-04T13:13:47.014Z</time></trkpt><trkpt lat="45.005938753439054" lon="9.554152962090226"><ele>83.6</ele><time>2026-04-04T13:13:49.014Z</time></trkpt><trkpt lat="45.00598422956978" lon="9.55428946465191"><ele>84.0</ele><time>2026-04-04T13:13:51.014Z</time></trkpt><trkpt lat="45.00602770049492" lon="9.554430087638947"><ele>83.6</ele><time>2026-04-04T13:13:53.014Z</time></trkpt><trkpt lat="45.00608241240962" lon="9.554568129876548"><ele>83.2</ele><time>2026-04-04T13:13:55.014Z</time></trkpt><trkpt lat="45.00613109446437" lon="9.554706088106858"><ele>82.8</ele><time>2026-04-04T13:13:57.014Z</time></trkpt><trkpt lat="45.006178104087006" lon="9.55483638684381"><ele>82.39999999999999</ele><time>2026-04-04T13:13:59.014Z</time></trkpt><trkpt lat="45.00622855723046" lon="9.554964812168839"><ele>82.0</ele><time>2026-04-04T13:14:01.014Z</time></trkpt><trkpt lat="45.00626785655212" lon="9.555098231034485"><ele>82.0</ele><time>2026-04-04T13:14:03.014Z</time></trkpt><trkpt lat="45.006313370533945" lon="9.555233165786342"><ele>82.0</ele><time>2026-04-04T13:14:05.014Z</time></trkpt><trkpt lat="45.00635979101525" lon="9.555368787180543"><ele>82.0</ele><time>2026-04-04T13:14:07.014Z</time></trkpt><trkpt lat="45.006407958010065" lon="9.555497466033803"><ele>82.0</ele><time>2026-04-04T13:14:09.014Z</time></trkpt><trkpt lat="45.006451692058384" lon="9.555631306503765"><ele>82.0</ele><time>2026-04-04T13:14:11.014Z</time></trkpt><trkpt lat="45.006498903304255" lon="9.555761538146037"><ele>82.19999999999999</ele><time>2026-04-04T13:14:13.014Z</time></trkpt><trkpt lat="45.00654210639875" lon="9.555895690517783"><ele>82.4</ele><time>2026-04-04T13:14:15.014Z</time></trkpt><trkpt lat="45.00658810076293" lon="9.556023303092163"><ele>82.6</ele><time>2026-04-04T13:14:17.014Z</time></trkpt><trkpt lat="45.00663270664982" lon="9.556154587640387"><ele>82.80000000000001</ele><time>2026-04-04T13:14:19.014Z</time></trkpt><trkpt lat="45.00667665219518" lon="9.556285223093143"><ele>83.0</ele><time>2026-04-04T13:14:21.014Z</time></trkpt><trkpt lat="45.00672305439819" lon="9.556412387155602"><ele>83.0</ele><time>2026-04-04T13:14:23.014Z</time></trkpt><trkpt lat="45.00677271332328" lon="9.55654003866238"><ele>83.0</ele><time>2026-04-04T13:14:25.014Z</time></trkpt><trkpt lat="45.00681782199547" lon="9.5566662095424"><ele>83.0</ele><time>2026-04-04T13:14:27.014Z</time></trkpt><trkpt lat="45.00685923394439" lon="9.556787235496357"><ele>83.0</ele><time>2026-04-04T13:14:29.014Z</time></trkpt><trkpt lat="45.00690030194306" lon="9.556900187927953"><ele>83.0</ele><time>2026-04-04T13:14:31.014Z</time></trkpt><trkpt lat="45.00694032944949" lon="9.557015336432302"><ele>82.83333333333334</ele><time>2026-04-04T13:14:33.014Z</time></trkpt><trkpt lat="45.00697460321316" lon="9.55711609478497"><ele>82.66666666666667</ele><time>2026-04-04T13:14:35.014Z</time></trkpt><trkpt lat="45.00701592702608" lon="9.557228978818387"><ele>82.5</ele><time>2026-04-04T13:14:37.014Z</time></trkpt><trkpt lat="45.00705847718387" lon="9.557345359006533"><ele>82.33333333333333</ele><time>2026-04-04T13:14:39.014Z</time></trkpt><trkpt lat="45.00709871739389" lon="9.557461627620041"><ele>82.16666666666666</ele><time>2026-04-04T13:14:41.014Z</time></trkpt><trkpt lat="45.0071375752399" lon="9.557581427009756"><ele>82.0</ele><time>2026-04-04T13:14:43.014Z</time></trkpt><trkpt lat="45.00718136014687" lon="9.55769588891371"><ele>82.0</ele><time>2026-04-04T13:14:45.014Z</time></trkpt><trkpt lat="45.00722425245537" lon="9.557818279866167"><ele>82.0</ele><time>2026-04-04T13:14:47.014Z</time></trkpt><trkpt lat="45.00726937857404" lon="9.557940878819716"><ele>82.0</ele><time>2026-04-04T13:14:49.014Z</time></trkpt><trkpt lat="45.00731086945544" lon="9.558066063641345"><ele>82.0</ele><time>2026-04-04T13:14:51.014Z</time></trkpt><trkpt lat="45.00735873871384" lon="9.558186659237101"><ele>82.0</ele><time>2026-04-04T13:14:53.014Z</time></trkpt><trkpt lat="45.00740044720933" lon="9.558312267242918"><ele>82.0</ele><time>2026-04-04T13:14:55.014Z</time></trkpt><trkpt lat="45.007440748516146" lon="9.558428745550799"><ele>82.0</ele><time>2026-04-04T13:14:57.014Z</time></trkpt><trkpt lat="45.00748387623383" lon="9.558557517824356"><ele>82.0</ele><time>2026-04-04T13:14:59.014Z</time></trkpt><trkpt lat="45.00752458322768" lon="9.55868197152031"><ele>82.0</ele><time>2026-04-04T13:15:01.014Z</time></trkpt><trkpt lat="45.00757134901445" lon="9.558806050315766"><ele>82.0</ele><time>2026-04-04T13:15:03.014Z</time></trkpt><trkpt lat="45.00761914975269" lon="9.558929020782985"><ele>82.0</ele><time>2026-04-04T13:15:05.014Z</time></trkpt><trkpt lat="45.007657827732146" lon="9.559050752761513"><ele>82.0</ele><time>2026-04-04T13:15:07.014Z</time></trkpt><trkpt lat="45.00770234380697" lon="9.559163897775464"><ele>82.0</ele><time>2026-04-04T13:15:09.014Z</time></trkpt><trkpt lat="45.00774695948857" lon="9.559275112371427"><ele>82.0</ele><time>2026-04-04T13:15:11.015Z</time></trkpt><trkpt lat="45.0077991566117" lon="9.559393027597158"><ele>82.0</ele><time>2026-04-04T13:15:13.015Z</time></trkpt><trkpt lat="45.00785150871744" lon="9.559523362426253"><ele>81.6</ele><time>2026-04-04T13:15:15.015Z</time></trkpt><trkpt lat="45.00790866695322" lon="9.559654938478271"><ele>81.19999999999999</ele><time>2026-04-04T13:15:17.014Z</time></trkpt><trkpt lat="45.00796510106206" lon="9.559781915973357"><ele>80.8</ele><time>2026-04-04T13:15:19.014Z</time></trkpt><trkpt lat="45.00802071502528" lon="9.559908256427253"><ele>80.4</ele><time>2026-04-04T13:15:21.015Z</time></trkpt><trkpt lat="45.00807514294505" lon="9.560035301669327"><ele>80.0</ele><time>2026-04-04T13:15:23.015Z</time></trkpt><trkpt lat="45.00813377095177" lon="9.560162860319855"><ele>80.0</ele><time>2026-04-04T13:15:25.015Z</time></trkpt><trkpt lat="45.00818606193089" lon="9.560291666430516"><ele>80.0</ele><time>2026-04-04T13:15:27.015Z</time></trkpt><trkpt lat="45.008241294883675" lon="9.560419638753633"><ele>80.0</ele><time>2026-04-04T13:15:29.015Z</time></trkpt><trkpt lat="45.0083001002547" lon="9.560547314747257"><ele>80.0</ele><time>2026-04-04T13:15:31.015Z</time></trkpt><trkpt lat="45.00835517269963" lon="9.560677432351094"><ele>80.0</ele><time>2026-04-04T13:15:33.015Z</time></trkpt><trkpt lat="45.00841139197241" lon="9.56080354318019"><ele>80.0</ele><time>2026-04-04T13:15:35.015Z</time></trkpt><trkpt lat="45.00846829004668" lon="9.560930280081609"><ele>80.0</ele><time>2026-04-04T13:15:37.015Z</time></trkpt><trkpt lat="45.00852771780373" lon="9.561064037199777"><ele>80.0</ele><time>2026-04-04T13:15:39.015Z</time></trkpt><trkpt lat="45.00858952325685" lon="9.56120480488852"><ele>80.0</ele><time>2026-04-04T13:15:41.015Z</time></trkpt><trkpt lat="45.00865316530816" lon="9.561337410540881"><ele>80.0</ele><time>2026-04-04T13:15:43.015Z</time></trkpt><trkpt lat="45.00870921884086" lon="9.561472157847192"><ele>80.2</ele><time>2026-04-04T13:15:45.015Z</time></trkpt><trkpt lat="45.008771549266314" lon="9.561603500781613"><ele>80.4</ele><time>2026-04-04T13:15:47.015Z</time></trkpt><trkpt lat="45.00883028141748" lon="9.561737835694576"><ele>80.6</ele><time>2026-04-04T13:15:49.015Z</time></trkpt><trkpt lat="45.00888847344555" lon="9.561870100660371"><ele>80.8</ele><time>2026-04-04T13:15:51.015Z</time></trkpt><trkpt lat="45.00894764187943" lon="9.562000130286357"><ele>81.0</ele><time>2026-04-04T13:15:53.015Z</time></trkpt><trkpt lat="45.009005438042514" lon="9.562128935973057"><ele>81.0</ele><time>2026-04-04T13:15:55.015Z</time></trkpt><trkpt lat="45.00906635236297" lon="9.56225508741796"><ele>81.0</ele><time>2026-04-04T13:15:57.015Z</time></trkpt><trkpt lat="45.0091138235395" lon="9.56237601536306"><ele>81.0</ele><time>2026-04-04T13:15:59.015Z</time></trkpt><trkpt lat="45.00915148456158" lon="9.562492826671887"><ele>81.0</ele><time>2026-04-04T13:16:01.015Z</time></trkpt><trkpt lat="45.00920415250506" lon="9.562614677157422"><ele>81.0</ele><time>2026-04-04T13:16:03.015Z</time></trkpt><trkpt lat="45.00923862783908" lon="9.562747726176594"><ele>80.6</ele><time>2026-04-04T13:16:05.015Z</time></trkpt><trkpt lat="45.00927319712709" lon="9.562881563917882"><ele>80.19999999999999</ele><time>2026-04-04T13:16:07.015Z</time></trkpt><trkpt lat="45.009306291601305" lon="9.563021176602271"><ele>79.80000000000001</ele><time>2026-04-04T13:16:09.015Z</time></trkpt><trkpt lat="45.00933927372689" lon="9.563164710318393"><ele>79.4</ele><time>2026-04-04T13:16:11.015Z</time></trkpt><trkpt lat="45.00937057197658" lon="9.563303898392089"><ele>79.0</ele><time>2026-04-04T13:16:13.015Z</time></trkpt><trkpt lat="45.0093943384675" lon="9.56343779774695"><ele>79.0</ele><time>2026-04-04T13:16:15.015Z</time></trkpt><trkpt lat="45.009417469118794" lon="9.563566225133227"><ele>79.0</ele><time>2026-04-04T13:16:17.015Z</time></trkpt><trkpt lat="45.009438237870185" lon="9.563692377015492"><ele>79.0</ele><time>2026-04-04T13:16:19.015Z</time></trkpt><trkpt lat="45.00946288539695" lon="9.56382285807584"><ele>79.0</ele><time>2026-04-04T13:16:21.015Z</time></trkpt><trkpt lat="45.00948693375417" lon="9.563967115265807"><ele>79.0</ele><time>2026-04-04T13:16:23.015Z</time></trkpt><trkpt lat="45.00951390584628" lon="9.564115460343269"><ele>78.8</ele><time>2026-04-04T13:16:25.015Z</time></trkpt><trkpt lat="45.00954032355723" lon="9.564257402751329"><ele>78.60000000000001</ele><time>2026-04-04T13:16:27.015Z</time></trkpt><trkpt lat="45.009564655415375" lon="9.564393065064701"><ele>78.4</ele><time>2026-04-04T13:16:29.015Z</time></trkpt><trkpt lat="45.00958621286317" lon="9.564518882978737"><ele>78.2</ele><time>2026-04-04T13:16:31.015Z</time></trkpt><trkpt lat="45.00961128217346" lon="9.564653343561853"><ele>78.0</ele><time>2026-04-04T13:16:33.015Z</time></trkpt><trkpt lat="45.00963796724076" lon="9.564786452569807"><ele>77.8</ele><time>2026-04-04T13:16:35.015Z</time></trkpt><trkpt lat="45.00966146866156" lon="9.564920025911702"><ele>77.6</ele><time>2026-04-04T13:16:37.015Z</time></trkpt><trkpt lat="45.009686280191175" lon="9.565058163399033"><ele>77.4</ele><time>2026-04-04T13:16:39.015Z</time></trkpt><trkpt lat="45.009713661468695" lon="9.565194338182945"><ele>77.2</ele><time>2026-04-04T13:16:41.015Z</time></trkpt><trkpt lat="45.00973985970593" lon="9.565335135074594"><ele>77.0</ele><time>2026-04-04T13:16:43.015Z</time></trkpt><trkpt lat="45.00976227989109" lon="9.565471237613579"><ele>77.0</ele><time>2026-04-04T13:16:45.015Z</time></trkpt><trkpt lat="45.00978789872726" lon="9.565607326663244"><ele>77.0</ele><time>2026-04-04T13:16:47.015Z</time></trkpt><trkpt lat="45.009816838104044" lon="9.565738809927796"><ele>77.0</ele><time>2026-04-04T13:16:49.015Z</time></trkpt><trkpt lat="45.00983723371104" lon="9.565876556386087"><ele>77.0</ele><time>2026-04-04T13:16:51.015Z</time></trkpt><trkpt lat="45.009866238538095" lon="9.56600939608303"><ele>77.0</ele><time>2026-04-04T13:16:53.015Z</time></trkpt><trkpt lat="45.009894932052795" lon="9.566141066736089"><ele>77.0</ele><time>2026-04-04T13:16:55.015Z</time></trkpt><trkpt lat="45.00992205747831" lon="9.56627591415538"><ele>77.0</ele><time>2026-04-04T13:16:57.015Z</time></trkpt><trkpt lat="45.00995005815963" lon="9.566413050492805"><ele>77.0</ele><time>2026-04-04T13:16:59.015Z</time></trkpt><trkpt lat="45.009980267272425" lon="9.566549733637203"><ele>77.0</ele><time>2026-04-04T13:17:01.015Z</time></trkpt><trkpt lat="45.010007256620405" lon="9.566685964428824"><ele>77.0</ele><time>2026-04-04T13:17:03.015Z</time></trkpt><trkpt lat="45.01003802262232" lon="9.56682191745605"><ele>77.0</ele><time>2026-04-04T13:17:05.015Z</time></trkpt><trkpt lat="45.0100605642237" lon="9.5669617243858"><ele>77.0</ele><time>2026-04-04T13:17:07.015Z</time></trkpt><trkpt lat="45.01008900779762" lon="9.567098339870984"><ele>77.0</ele><time>2026-04-04T13:17:09.015Z</time></trkpt><trkpt lat="45.01011794242248" lon="9.567235606320361"><ele>77.0</ele><time>2026-04-04T13:17:11.015Z</time></trkpt><trkpt lat="45.01014736070843" lon="9.567363344483084"><ele>77.0</ele><time>2026-04-04T13:17:13.015Z</time></trkpt><trkpt lat="45.010172313157085" lon="9.567483292089303"><ele>77.0</ele><time>2026-04-04T13:17:15.015Z</time></trkpt><trkpt lat="45.01019463312449" lon="9.567594783051824"><ele>77.0</ele><time>2026-04-04T13:17:17.015Z</time></trkpt><trkpt lat="45.01021623164772" lon="9.567718522019755"><ele>77.0</ele><time>2026-04-04T13:17:19.015Z</time></trkpt><trkpt lat="45.010244729742155" lon="9.567846674943283"><ele>77.0</ele><time>2026-04-04T13:17:21.016Z</time></trkpt><trkpt lat="45.01025814321928" lon="9.567973975314075"><ele>77.0</ele><time>2026-04-04T13:17:23.015Z</time></trkpt><trkpt lat="45.01018724307657" lon="9.568068107121269"><ele>77.16666666666667</ele><time>2026-04-04T13:17:25.015Z</time></trkpt><trkpt lat="45.01009198341148" lon="9.568055430542941"><ele>77.33333333333334</ele><time>2026-04-04T13:17:27.015Z</time></trkpt><trkpt lat="45.01001646813203" lon="9.568066024949603"><ele>77.5</ele><time>2026-04-04T13:17:29.015Z</time></trkpt><trkpt lat="45.009938904287935" lon="9.568074970549176"><ele>77.66666666666667</ele><time>2026-04-04T13:17:31.015Z</time></trkpt><trkpt lat="45.00986129551769" lon="9.568083907008957"><ele>77.83333333333333</ele><time>2026-04-04T13:17:33.015Z</time></trkpt><trkpt lat="45.00979330213978" lon="9.568087101378898"><ele>78.0</ele><time>2026-04-04T13:17:35.015Z</time></trkpt><trkpt lat="45.009719036631324" lon="9.568081354776078"><ele>78.0</ele><time>2026-04-04T13:17:37.015Z</time></trkpt><trkpt lat="45.009642717146185" lon="9.568092890391775"><ele>78.0</ele><time>2026-04-04T13:17:39.015Z</time></trkpt><trkpt lat="45.00955926955103" lon="9.568098211204077"><ele>78.0</ele><time>2026-04-04T13:17:41.015Z</time></trkpt><trkpt lat="45.009461581700606" lon="9.568102262371966"><ele>78.0</ele><time>2026-04-04T13:17:43.015Z</time></trkpt><trkpt lat="45.00936450642046" lon="9.568108441990695"><ele>78.0</ele><time>2026-04-04T13:17:45.015Z</time></trkpt><trkpt lat="45.00926629305656" lon="9.568118764827364"><ele>78.0</ele><time>2026-04-04T13:17:47.015Z</time></trkpt><trkpt lat="45.00917094004495" lon="9.568131307641956"><ele>78.0</ele><time>2026-04-04T13:17:49.015Z</time></trkpt><trkpt lat="45.00907673702654" lon="9.568124226438407"><ele>78.0</ele><time>2026-04-04T13:17:51.015Z</time></trkpt><trkpt lat="45.008982033447886" lon="9.568129521898372"><ele>78.0</ele><time>2026-04-04T13:17:53.015Z</time></trkpt><trkpt lat="45.00888638436098" lon="9.568137509179993"><ele>78.0</ele><time>2026-04-04T13:17:55.015Z</time></trkpt><trkpt lat="45.00879164350523" lon="9.568144333215798"><ele>78.16666666666667</ele><time>2026-04-04T13:17:57.015Z</time></trkpt><trkpt lat="45.00869126551036" lon="9.56814113378133"><ele>78.33333333333333</ele><time>2026-04-04T13:17:59.015Z</time></trkpt><trkpt lat="45.00859615150378" lon="9.56814070078169"><ele>78.5</ele><time>2026-04-04T13:18:01.015Z</time></trkpt><trkpt lat="45.008504738467835" lon="9.568136505480842"><ele>78.66666666666666</ele><time>2026-04-04T13:18:03.015Z</time></trkpt><trkpt lat="45.00841782924124" lon="9.568129629303577"><ele>78.83333333333333</ele><time>2026-04-04T13:18:05.015Z</time></trkpt><trkpt lat="45.00834694194101" lon="9.568129837765945"><ele>79.0</ele><time>2026-04-04T13:18:07.015Z</time></trkpt><trkpt lat="45.00826527128293" lon="9.568180765689213"><ele>79.0</ele><time>2026-04-04T13:18:10.015Z</time></trkpt><trkpt lat="45.00823442105615" lon="9.568305943508046"><ele>79.0</ele><time>2026-04-04T13:18:13.015Z</time></trkpt><trkpt lat="45.00821851419771" lon="9.568409179622066"><ele>79.0</ele><time>2026-04-04T13:18:15.015Z</time></trkpt><trkpt lat="45.008203484588456" lon="9.568513363507652"><ele>79.0</ele><time>2026-04-04T13:18:17.015Z</time></trkpt><trkpt lat="45.00818980116505" lon="9.568629442351918"><ele>79.0</ele><time>2026-04-04T13:18:19.015Z</time></trkpt><trkpt lat="45.00817938523911" lon="9.568745630788294"><ele>79.0</ele><time>2026-04-04T13:18:21.016Z</time></trkpt><trkpt lat="45.00817076299487" lon="9.568849570478736"><ele>79.00000000000001</ele><time>2026-04-04T13:18:23.016Z</time></trkpt><trkpt lat="45.00815882620625" lon="9.568963306646815"><ele>79.0</ele><time>2026-04-04T13:18:25.016Z</time></trkpt><trkpt lat="45.00815214818039" lon="9.56905289642624"><ele>79.0</ele><time>2026-04-04T13:18:27.016Z</time></trkpt><trkpt lat="45.008134715889575" lon="9.569152369155171"><ele>79.0</ele><time>2026-04-04T13:18:29.016Z</time></trkpt><trkpt lat="45.00812406024127" lon="9.569241112230884"><ele>79.0</ele><time>2026-04-04T13:18:31.016Z</time></trkpt><trkpt lat="45.00811771421775" lon="9.569334210242868"><ele>79.00000000000001</ele><time>2026-04-04T13:18:33.016Z</time></trkpt><trkpt lat="45.00810604975197" lon="9.56942961175491"><ele>79.0</ele><time>2026-04-04T13:18:35.016Z</time></trkpt><trkpt lat="45.00808687641831" lon="9.5695466461884"><ele>79.16666666666666</ele><time>2026-04-04T13:18:38.016Z</time></trkpt><trkpt lat="45.00807266362462" lon="9.569642883762489"><ele>79.33333333333333</ele><time>2026-04-04T13:18:42.016Z</time></trkpt><trkpt lat="45.00804431225607" lon="9.569742493945254"><ele>79.5</ele><time>2026-04-04T13:18:44.016Z</time></trkpt><trkpt lat="45.00802892270519" lon="9.569842771007616"><ele>79.66666666666667</ele><time>2026-04-04T13:18:46.016Z</time></trkpt><trkpt lat="45.00801791586197" lon="9.569945462831926"><ele>79.83333333333334</ele><time>2026-04-04T13:18:48.016Z</time></trkpt><trkpt lat="45.00800508603384" lon="9.570063241614513"><ele>80.0</ele><time>2026-04-04T13:18:50.016Z</time></trkpt><trkpt lat="45.0079875784693" lon="9.57017396521628"><ele>80.0</ele><time>2026-04-04T13:18:52.016Z</time></trkpt><trkpt lat="45.00797271739487" lon="9.570274456848878"><ele>80.0</ele><time>2026-04-04T13:18:54.016Z</time></trkpt><trkpt lat="45.007955745322256" lon="9.570374403452233"><ele>80.0</ele><time>2026-04-04T13:18:56.016Z</time></trkpt><trkpt lat="45.007946727274245" lon="9.570474359081237"><ele>80.0</ele><time>2026-04-04T13:18:58.016Z</time></trkpt><trkpt lat="45.00794190179196" lon="9.570582075398288"><ele>80.0</ele><time>2026-04-04T13:19:00.016Z</time></trkpt><trkpt lat="45.007934447027196" lon="9.570692878103511"><ele>80.0</ele><time>2026-04-04T13:19:02.016Z</time></trkpt><trkpt lat="45.007922495734064" lon="9.570808299085432"><ele>80.0</ele><time>2026-04-04T13:19:04.016Z</time></trkpt><trkpt lat="45.00791230419861" lon="9.57092804167931"><ele>80.0</ele><time>2026-04-04T13:19:06.016Z</time></trkpt><trkpt lat="45.007905200261305" lon="9.571044269943277"><ele>80.0</ele><time>2026-04-04T13:19:08.016Z</time></trkpt><trkpt lat="45.00790350666025" lon="9.571157707087343"><ele>80.0</ele><time>2026-04-04T13:19:10.016Z</time></trkpt><trkpt lat="45.00789845607462" lon="9.571272176514968"><ele>80.0</ele><time>2026-04-04T13:19:12.016Z</time></trkpt><trkpt lat="45.00789984494409" lon="9.571385115914833"><ele>80.0</ele><time>2026-04-04T13:19:14.016Z</time></trkpt><trkpt lat="45.00789273270642" lon="9.571501067190233"><ele>79.83333333333334</ele><time>2026-04-04T13:19:16.016Z</time></trkpt><trkpt lat="45.007888598297136" lon="9.57162116317735"><ele>79.66666666666667</ele><time>2026-04-04T13:19:18.016Z</time></trkpt><trkpt lat="45.00788028712638" lon="9.571728593685023"><ele>79.5</ele><time>2026-04-04T13:19:20.016Z</time></trkpt><trkpt lat="45.00787943112536" lon="9.571826362386215"><ele>79.33333333333333</ele><time>2026-04-04T13:19:22.015Z</time></trkpt><trkpt lat="45.007900080148076" lon="9.571912824864215"><ele>79.16666666666666</ele><time>2026-04-04T13:19:24.016Z</time></trkpt><trkpt lat="45.00798265372042" lon="9.5719629405535"><ele>79.0</ele><time>2026-04-04T13:19:26.015Z</time></trkpt><trkpt lat="45.00805257718272" lon="9.571954191563815"><ele>79.0</ele><time>2026-04-04T13:19:28.016Z</time></trkpt><trkpt lat="45.00812406707267" lon="9.571932327815333"><ele>79.0</ele><time>2026-04-04T13:19:30.016Z</time></trkpt><trkpt lat="45.00820118850532" lon="9.571919348198104"><ele>79.0</ele><time>2026-04-04T13:19:32.015Z</time></trkpt><trkpt lat="45.00828730677937" lon="9.571894107453552"><ele>79.0</ele><time>2026-04-04T13:19:34.016Z</time></trkpt><trkpt lat="45.00837606335154" lon="9.571881068646384"><ele>79.0</ele><time>2026-04-04T13:19:36.016Z</time></trkpt><trkpt lat="45.00846381637322" lon="9.571853803954289"><ele>79.0</ele><time>2026-04-04T13:19:38.016Z</time></trkpt><trkpt lat="45.008553502464565" lon="9.57183753425722"><ele>79.2</ele><time>2026-04-04T13:19:40.016Z</time></trkpt><trkpt lat="45.00864379330112" lon="9.571823300150806"><ele>79.4</ele><time>2026-04-04T13:19:42.016Z</time></trkpt><trkpt lat="45.00873121350081" lon="9.571810207298206"><ele>79.6</ele><time>2026-04-04T13:19:44.016Z</time></trkpt><trkpt lat="45.00882973721149" lon="9.571788463250142"><ele>79.8</ele><time>2026-04-04T13:19:46.016Z</time></trkpt><trkpt lat="45.0089141625014" lon="9.571778295803602"><ele>80.0</ele><time>2026-04-04T13:19:48.016Z</time></trkpt><trkpt lat="45.00900467021188" lon="9.57174461339429"><ele>80.0</ele><time>2026-04-04T13:19:50.016Z</time></trkpt><trkpt lat="45.009086340985334" lon="9.571727763652811"><ele>80.0</ele><time>2026-04-04T13:19:52.016Z</time></trkpt><trkpt lat="45.00916654898232" lon="9.571706333981775"><ele>80.0</ele><time>2026-04-04T13:19:54.016Z</time></trkpt><trkpt lat="45.00924816164773" lon="9.571694702028292"><ele>80.0</ele><time>2026-04-04T13:19:56.016Z</time></trkpt><trkpt lat="45.009343524079256" lon="9.571676295546869"><ele>80.0</ele><time>2026-04-04T13:19:58.016Z</time></trkpt><trkpt lat="45.00943381632239" lon="9.571653900919493"><ele>80.0</ele><time>2026-04-04T13:20:00.016Z</time></trkpt><trkpt lat="45.00952280460746" lon="9.571626584997473"><ele>80.0</ele><time>2026-04-04T13:20:02.016Z</time></trkpt><trkpt lat="45.00960820647179" lon="9.5716130076147"><ele>80.0</ele><time>2026-04-04T13:20:04.016Z</time></trkpt><trkpt lat="45.00969023395295" lon="9.571613266157259"><ele>80.0</ele><time>2026-04-04T13:20:06.016Z</time></trkpt><trkpt lat="45.00976997589325" lon="9.571600456712652"><ele>80.0</ele><time>2026-04-04T13:20:08.016Z</time></trkpt><trkpt lat="45.00984519391907" lon="9.571583238628627"><ele>80.0</ele><time>2026-04-04T13:20:10.016Z</time></trkpt><trkpt lat="45.009931527002905" lon="9.571571855106594"><ele>80.0</ele><time>2026-04-04T13:20:12.016Z</time></trkpt><trkpt lat="45.010015238805934" lon="9.571554602888934"><ele>80.0</ele><time>2026-04-04T13:20:14.016Z</time></trkpt><trkpt lat="45.01010636280244" lon="9.571547963049726"><ele>80.0</ele><time>2026-04-04T13:20:16.016Z</time></trkpt><trkpt lat="45.01018654782097" lon="9.571516527340238"><ele>80.0</ele><time>2026-04-04T13:20:18.016Z</time></trkpt><trkpt lat="45.010259719992554" lon="9.571490225735308"><ele>80.0</ele><time>2026-04-04T13:20:20.016Z</time></trkpt><trkpt lat="45.010339460548046" lon="9.571488276733799"><ele>80.0</ele><time>2026-04-04T13:20:23.016Z</time></trkpt><trkpt lat="45.01042332635511" lon="9.571474486969732"><ele>80.0</ele><time>2026-04-04T13:20:25.016Z</time></trkpt><trkpt lat="45.010502465633856" lon="9.571468381278311"><ele>80.0</ele><time>2026-04-04T13:20:27.016Z</time></trkpt><trkpt lat="45.010583860794114" lon="9.571451313077286"><ele>80.0</ele><time>2026-04-04T13:20:29.016Z</time></trkpt><trkpt lat="45.01067051844902" lon="9.571444618839426"><ele>80.0</ele><time>2026-04-04T13:20:31.016Z</time></trkpt><trkpt lat="45.01075351634807" lon="9.571434455146003"><ele>80.0</ele><time>2026-04-04T13:20:33.016Z</time></trkpt><trkpt lat="45.01083876931235" lon="9.571420022977318"><ele>80.0</ele><time>2026-04-04T13:20:35.016Z</time></trkpt><trkpt lat="45.0109268038375" lon="9.571425908230996"><ele>80.0</ele><time>2026-04-04T13:20:37.016Z</time></trkpt><trkpt lat="45.01101205731802" lon="9.571411841791289"><ele>79.66666666666667</ele><time>2026-04-04T13:20:39.016Z</time></trkpt><trkpt lat="45.01109399633649" lon="9.571384975446259"><ele>79.33333333333334</ele><time>2026-04-04T13:20:41.016Z</time></trkpt><trkpt lat="45.01117030441225" lon="9.571373755444908"><ele>79.0</ele><time>2026-04-04T13:20:43.016Z</time></trkpt><trkpt lat="45.01124049328507" lon="9.571366135078021"><ele>78.66666666666667</ele><time>2026-04-04T13:20:45.016Z</time></trkpt><trkpt lat="45.011314115706405" lon="9.571349561188372"><ele>78.33333333333333</ele><time>2026-04-04T13:20:47.016Z</time></trkpt><trkpt lat="45.011395907774734" lon="9.571331418696287"><ele>78.0</ele><time>2026-04-04T13:20:49.016Z</time></trkpt><trkpt lat="45.01148012078901" lon="9.571333355690829"><ele>78.0</ele><time>2026-04-04T13:20:51.016Z</time></trkpt><trkpt lat="45.01156065190365" lon="9.571313031875846"><ele>78.0</ele><time>2026-04-04T13:20:53.016Z</time></trkpt><trkpt lat="45.01164827929707" lon="9.571309969008935"><ele>78.0</ele><time>2026-04-04T13:20:55.016Z</time></trkpt><trkpt lat="45.01173998492328" lon="9.571306421176464"><ele>78.0</ele><time>2026-04-04T13:20:57.016Z</time></trkpt><trkpt lat="45.01183733993024" lon="9.571292345336586"><ele>78.0</ele><time>2026-04-04T13:20:59.016Z</time></trkpt><trkpt lat="45.011939174084226" lon="9.571291534809545"><ele>78.2</ele><time>2026-04-04T13:21:01.016Z</time></trkpt><trkpt lat="45.01203304850471" lon="9.571283573360969"><ele>78.4</ele><time>2026-04-04T13:21:03.016Z</time></trkpt><trkpt lat="45.01211685786104" lon="9.571284402915161"><ele>78.60000000000001</ele><time>2026-04-04T13:21:05.016Z</time></trkpt><trkpt lat="45.0121914893329" lon="9.571291794043493"><ele>78.8</ele><time>2026-04-04T13:21:07.016Z</time></trkpt><trkpt lat="45.01229685024871" lon="9.571303498190604"><ele>79.0</ele><time>2026-04-04T13:21:09.016Z</time></trkpt><trkpt lat="45.01239454974023" lon="9.571303035742377"><ele>79.0</ele><time>2026-04-04T13:21:11.016Z</time></trkpt><trkpt lat="45.01248352860637" lon="9.571315139959852"><ele>79.0</ele><time>2026-04-04T13:21:13.016Z</time></trkpt><trkpt lat="45.01256772327581" lon="9.571324233774225"><ele>79.0</ele><time>2026-04-04T13:21:15.016Z</time></trkpt><trkpt lat="45.01266082968643" lon="9.571316800298842"><ele>79.0</ele><time>2026-04-04T13:21:17.016Z</time></trkpt><trkpt lat="45.01273981434074" lon="9.571304386772617"><ele>79.0</ele><time>2026-04-04T13:21:19.016Z</time></trkpt><trkpt lat="45.01281342234712" lon="9.571307139449797"><ele>79.0</ele><time>2026-04-04T13:21:21.016Z</time></trkpt><trkpt lat="45.012887507272715" lon="9.571288667173407"><ele>79.0</ele><time>2026-04-04T13:21:23.016Z</time></trkpt><trkpt lat="45.0129570817861" lon="9.571288816854807"><ele>79.0</ele><time>2026-04-04T13:21:25.016Z</time></trkpt><trkpt lat="45.01303898495175" lon="9.571308714989598"><ele>79.0</ele><time>2026-04-04T13:21:27.017Z</time></trkpt><trkpt lat="45.013130636344805" lon="9.57133233999088"><ele>79.0</ele><time>2026-04-04T13:21:29.016Z</time></trkpt><trkpt lat="45.01320406644784" lon="9.571332709645342"><ele>79.0</ele><time>2026-04-04T13:21:31.016Z</time></trkpt><trkpt lat="45.01328507384236" lon="9.571363407408665"><ele>79.0</ele><time>2026-04-04T13:21:33.016Z</time></trkpt><trkpt lat="45.01336164033571" lon="9.571366840356598"><ele>78.66666666666666</ele><time>2026-04-04T13:21:35.016Z</time></trkpt><trkpt lat="45.013432418806914" lon="9.57136824510631"><ele>78.33333333333333</ele><time>2026-04-04T13:21:37.016Z</time></trkpt><trkpt lat="45.01350767254565" lon="9.57137683396265"><ele>78.0</ele><time>2026-04-04T13:21:39.017Z</time></trkpt><trkpt lat="45.013590693017704" lon="9.571391639855866"><ele>77.66666666666667</ele><time>2026-04-04T13:21:41.016Z</time></trkpt><trkpt lat="45.013675424803694" lon="9.571401417177581"><ele>77.33333333333334</ele><time>2026-04-04T13:21:43.016Z</time></trkpt><trkpt lat="45.01376938738794" lon="9.571414141353218"><ele>77.0</ele><time>2026-04-04T13:21:45.016Z</time></trkpt><trkpt lat="45.01386293544673" lon="9.571422498475332"><ele>77.0</ele><time>2026-04-04T13:21:47.016Z</time></trkpt><trkpt lat="45.013956724190315" lon="9.571427877385252"><ele>77.0</ele><time>2026-04-04T13:21:49.016Z</time></trkpt><trkpt lat="45.01405393802534" lon="9.57143466019626"><ele>77.0</ele><time>2026-04-04T13:21:51.016Z</time></trkpt><trkpt lat="45.014141783517644" lon="9.571444790361559"><ele>77.0</ele><time>2026-04-04T13:21:53.016Z</time></trkpt><trkpt lat="45.014234318223245" lon="9.571434670970097"><ele>77.0</ele><time>2026-04-04T13:21:55.016Z</time></trkpt><trkpt lat="45.01432487418396" lon="9.57142771677607"><ele>77.0</ele><time>2026-04-04T13:21:57.016Z</time></trkpt><trkpt lat="45.01441570490855" lon="9.571419654832827"><ele>77.0</ele><time>2026-04-04T13:21:59.016Z</time></trkpt><trkpt lat="45.014500262670964" lon="9.571410585711872"><ele>77.0</ele><time>2026-04-04T13:22:01.016Z</time></trkpt><trkpt lat="45.01459249097815" lon="9.571396839621942"><ele>77.0</ele><time>2026-04-04T13:22:03.016Z</time></trkpt><trkpt lat="45.01466950511923" lon="9.57138739989137"><ele>77.0</ele><time>2026-04-04T13:22:05.016Z</time></trkpt><trkpt lat="45.01475606691051" lon="9.571378256634663"><ele>77.0</ele><time>2026-04-04T13:22:07.016Z</time></trkpt><trkpt lat="45.01483944703922" lon="9.571374413679358"><ele>77.0</ele><time>2026-04-04T13:22:09.016Z</time></trkpt><trkpt lat="45.01493280869404" lon="9.571352802340762"><ele>77.0</ele><time>2026-04-04T13:22:11.016Z</time></trkpt><trkpt lat="45.01502698009236" lon="9.571347661270705"><ele>77.0</ele><time>2026-04-04T13:22:13.016Z</time></trkpt><trkpt lat="45.015115069748084" lon="9.571332765738877"><ele>77.0</ele><time>2026-04-04T13:22:15.016Z</time></trkpt><trkpt lat="45.01520461964324" lon="9.571324027228885"><ele>77.0</ele><time>2026-04-04T13:22:17.016Z</time></trkpt><trkpt lat="45.01528848816547" lon="9.571302933832344"><ele>77.0</ele><time>2026-04-04T13:22:19.016Z</time></trkpt><trkpt lat="45.015373603118796" lon="9.571289213467718"><ele>77.0</ele><time>2026-04-04T13:22:21.016Z</time></trkpt><trkpt lat="45.01546008593873" lon="9.571288926030977"><ele>77.0</ele><time>2026-04-04T13:22:23.016Z</time></trkpt><trkpt lat="45.01556506718999" lon="9.571282721462644"><ele>77.0</ele><time>2026-04-04T13:22:25.016Z</time></trkpt><trkpt lat="45.015656987607386" lon="9.571274032320913"><ele>77.0</ele><time>2026-04-04T13:22:27.016Z</time></trkpt><trkpt lat="45.01574770966882" lon="9.571279817352767"><ele>77.0</ele><time>2026-04-04T13:22:29.016Z</time></trkpt><trkpt lat="45.01584840833593" lon="9.571267285605604"><ele>77.0</ele><time>2026-04-04T13:22:31.016Z</time></trkpt><trkpt lat="45.01594386485665" lon="9.571250059058283"><ele>77.0</ele><time>2026-04-04T13:22:33.016Z</time></trkpt><trkpt lat="45.01604581350446" lon="9.571241373699104"><ele>77.0</ele><time>2026-04-04T13:22:35.016Z</time></trkpt><trkpt lat="45.01612735452302" lon="9.57123619224755"><ele>77.0</ele><time>2026-04-04T13:22:37.016Z</time></trkpt><trkpt lat="45.01622178913437" lon="9.571225570720005"><ele>77.0</ele><time>2026-04-04T13:22:39.016Z</time></trkpt><trkpt lat="45.01630633324622" lon="9.571216389002956"><ele>77.0</ele><time>2026-04-04T13:22:41.016Z</time></trkpt><trkpt lat="45.0163938895033" lon="9.571205067321225"><ele>77.0</ele><time>2026-04-04T13:22:43.016Z</time></trkpt><trkpt lat="45.01648169415761" lon="9.571197155771848"><ele>77.0</ele><time>2026-04-04T13:22:45.016Z</time></trkpt><trkpt lat="45.016581929710064" lon="9.571187668964374"><ele>77.0</ele><time>2026-04-04T13:22:47.016Z</time></trkpt><trkpt lat="45.01667639194141" lon="9.571175345513241"><ele>77.0</ele><time>2026-04-04T13:22:49.016Z</time></trkpt><trkpt lat="45.0167446284284" lon="9.57115894088208"><ele>77.0</ele><time>2026-04-04T13:22:51.015Z</time></trkpt><trkpt lat="45.01682336613038" lon="9.57114768347728"><ele>77.0</ele><time>2026-04-04T13:22:53.015Z</time></trkpt><trkpt lat="45.0169054752883" lon="9.571137515911307"><ele>77.0</ele><time>2026-04-04T13:22:55.014Z</time></trkpt><trkpt lat="45.01698835859698" lon="9.571153622583893"><ele>77.0</ele><time>2026-04-04T13:22:58.014Z</time></trkpt><trkpt lat="45.017029070356266" lon="9.571268290635949"><ele>77.0</ele><time>2026-04-04T13:23:00.013Z</time></trkpt><trkpt lat="45.01704620890047" lon="9.571382746651263"><ele>77.0</ele><time>2026-04-04T13:23:02.013Z</time></trkpt><trkpt lat="45.01707783516386" lon="9.571504492990629"><ele>77.0</ele><time>2026-04-04T13:23:04.013Z</time></trkpt><trkpt lat="45.01712026195987" lon="9.571608836358218"><ele>77.0</ele><time>2026-04-04T13:23:06.013Z</time></trkpt><trkpt lat="45.01715389071769" lon="9.571728358406288"><ele>77.0</ele><time>2026-04-04T13:23:08.012Z</time></trkpt><trkpt lat="45.01719556461113" lon="9.571830046097903"><ele>77.0</ele><time>2026-04-04T13:23:10.012Z</time></trkpt><trkpt lat="45.017243020021056" lon="9.571934058782652"><ele>77.0</ele><time>2026-04-04T13:23:12.012Z</time></trkpt><trkpt lat="45.017296825189185" lon="9.572054674868614"><ele>76.83333333333334</ele><time>2026-04-04T13:23:14.012Z</time></trkpt><trkpt lat="45.0173536584616" lon="9.572166034479904"><ele>76.66666666666667</ele><time>2026-04-04T13:23:16.012Z</time></trkpt><trkpt lat="45.017407272845006" lon="9.57225830431185"><ele>76.5</ele><time>2026-04-04T13:23:18.012Z</time></trkpt><trkpt lat="45.01746391612084" lon="9.572346353308136"><ele>76.33333333333333</ele><time>2026-04-04T13:23:20.012Z</time></trkpt><trkpt lat="45.01752116077859" lon="9.572433534370397"><ele>76.16666666666666</ele><time>2026-04-04T13:23:22.012Z</time></trkpt><trkpt lat="45.01757559097569" lon="9.572529200160163"><ele>76.0</ele><time>2026-04-04T13:23:24.012Z</time></trkpt><trkpt lat="45.017644393472274" lon="9.572630057020916"><ele>76.0</ele><time>2026-04-04T13:23:26.012Z</time></trkpt><trkpt lat="45.01770804132699" lon="9.572719930090088"><ele>76.0</ele><time>2026-04-04T13:23:28.011Z</time></trkpt><trkpt lat="45.01777145429453" lon="9.57282652093914"><ele>76.0</ele><time>2026-04-04T13:23:30.011Z</time></trkpt><trkpt lat="45.017831938377064" lon="9.572908527471"><ele>76.0</ele><time>2026-04-04T13:23:32.011Z</time></trkpt><trkpt lat="45.01789670933558" lon="9.57300427909891"><ele>76.0</ele><time>2026-04-04T13:23:34.011Z</time></trkpt><trkpt lat="45.01796036748714" lon="9.573103330100693"><ele>76.0</ele><time>2026-04-04T13:23:36.011Z</time></trkpt><trkpt lat="45.01802638134189" lon="9.573196586209216"><ele>76.0</ele><time>2026-04-04T13:23:38.011Z</time></trkpt><trkpt lat="45.018085357510664" lon="9.573291362127309"><ele>76.0</ele><time>2026-04-04T13:23:40.011Z</time></trkpt><trkpt lat="45.0181486748853" lon="9.57337976060206"><ele>76.0</ele><time>2026-04-04T13:23:42.011Z</time></trkpt><trkpt lat="45.018212191246924" lon="9.573470460119971"><ele>76.0</ele><time>2026-04-04T13:23:44.011Z</time></trkpt><trkpt lat="45.018275539627" lon="9.573560019579084"><ele>76.0</ele><time>2026-04-04T13:23:46.011Z</time></trkpt><trkpt lat="45.01833475731207" lon="9.573640224690633"><ele>76.0</ele><time>2026-04-04T13:23:48.011Z</time></trkpt><trkpt lat="45.01839591200106" lon="9.57372487924692"><ele>76.0</ele><time>2026-04-04T13:23:50.011Z</time></trkpt><trkpt lat="45.01845567830082" lon="9.573817759710213"><ele>76.0</ele><time>2026-04-04T13:23:52.011Z</time></trkpt><trkpt lat="45.018517355329685" lon="9.573911333637703"><ele>76.0</ele><time>2026-04-04T13:23:54.011Z</time></trkpt><trkpt lat="45.0185697027364" lon="9.57401081632666"><ele>76.0</ele><time>2026-04-04T13:23:56.011Z</time></trkpt><trkpt lat="45.01862325136724" lon="9.5741110460318"><ele>75.66666666666666</ele><time>2026-04-04T13:23:58.011Z</time></trkpt><trkpt lat="45.018666147085625" lon="9.574218265443113"><ele>75.33333333333333</ele><time>2026-04-04T13:24:00.011Z</time></trkpt><trkpt lat="45.018712237666996" lon="9.57431837719115"><ele>75.0</ele><time>2026-04-04T13:24:02.011Z</time></trkpt><trkpt lat="45.01875665151796" lon="9.574424765738813"><ele>74.66666666666667</ele><time>2026-04-04T13:24:04.011Z</time></trkpt><trkpt lat="45.01880027216452" lon="9.57452546985759"><ele>74.33333333333334</ele><time>2026-04-04T13:24:06.011Z</time></trkpt><trkpt lat="45.01885091938149" lon="9.574633569580442"><ele>74.0</ele><time>2026-04-04T13:24:08.011Z</time></trkpt><trkpt lat="45.018893013750514" lon="9.574739066973766"><ele>74.0</ele><time>2026-04-04T13:24:10.011Z</time></trkpt><trkpt lat="45.01894051688422" lon="9.574845458824969"><ele>74.0</ele><time>2026-04-04T13:24:12.011Z</time></trkpt><trkpt lat="45.01898679856399" lon="9.574950277927693"><ele>74.0</ele><time>2026-04-04T13:24:14.011Z</time></trkpt><trkpt lat="45.01903522677206" lon="9.575055926304248"><ele>74.0</ele><time>2026-04-04T13:24:16.011Z</time></trkpt><trkpt lat="45.01907858088624" lon="9.575164656997657"><ele>74.0</ele><time>2026-04-04T13:24:18.011Z</time></trkpt><trkpt lat="45.0191261182386" lon="9.57527504248039"><ele>74.0</ele><time>2026-04-04T13:24:20.011Z</time></trkpt><trkpt lat="45.01917540807229" lon="9.5753818845528"><ele>74.0</ele><time>2026-04-04T13:24:22.011Z</time></trkpt><trkpt lat="45.01922531340184" lon="9.575485914469416"><ele>74.0</ele><time>2026-04-04T13:24:24.011Z</time></trkpt><trkpt lat="45.01928187777212" lon="9.575595223170376"><ele>74.0</ele><time>2026-04-04T13:24:26.011Z</time></trkpt><trkpt lat="45.01932949736691" lon="9.575705109368613"><ele>74.0</ele><time>2026-04-04T13:24:28.011Z</time></trkpt><trkpt lat="45.019371717629284" lon="9.575812586260907"><ele>74.0</ele><time>2026-04-04T13:24:30.011Z</time></trkpt><trkpt lat="45.019416959704586" lon="9.57591792782698"><ele>74.0</ele><time>2026-04-04T13:24:32.011Z</time></trkpt><trkpt lat="45.01946055763775" lon="9.576031773025122"><ele>74.0</ele><time>2026-04-04T13:24:34.011Z</time></trkpt><trkpt lat="45.01949415492927" lon="9.576128502958186"><ele>74.0</ele><time>2026-04-04T13:24:36.011Z</time></trkpt><trkpt lat="45.01953686027862" lon="9.576235498142415"><ele>74.0</ele><time>2026-04-04T13:24:38.011Z</time></trkpt><trkpt lat="45.019567913320884" lon="9.576349174568922"><ele>74.0</ele><time>2026-04-04T13:24:40.011Z</time></trkpt><trkpt lat="45.01960591421373" lon="9.576460916350229"><ele>74.0</ele><time>2026-04-04T13:24:42.011Z</time></trkpt><trkpt lat="45.01964242666757" lon="9.576582719455043"><ele>74.2</ele><time>2026-04-04T13:24:44.011Z</time></trkpt><trkpt lat="45.01967367159279" lon="9.576706569667108"><ele>74.4</ele><time>2026-04-04T13:24:46.011Z</time></trkpt><trkpt lat="45.019715314769726" lon="9.576821804792942"><ele>74.6</ele><time>2026-04-04T13:24:48.011Z</time></trkpt><trkpt lat="45.01975774340673" lon="9.576936273061138"><ele>74.8</ele><time>2026-04-04T13:24:50.011Z</time></trkpt><trkpt lat="45.01979457698089" lon="9.57705388074149"><ele>75.0</ele><time>2026-04-04T13:24:52.011Z</time></trkpt><trkpt lat="45.01983353464516" lon="9.577173530567062"><ele>75.0</ele><time>2026-04-04T13:24:54.011Z</time></trkpt><trkpt lat="45.01986895153435" lon="9.577291029537827"><ele>75.0</ele><time>2026-04-04T13:24:56.011Z</time></trkpt><trkpt lat="45.019904844968096" lon="9.57741768429406"><ele>75.0</ele><time>2026-04-04T13:24:58.011Z</time></trkpt><trkpt lat="45.01992981403055" lon="9.57754724090646"><ele>75.0</ele><time>2026-04-04T13:25:00.011Z</time></trkpt><trkpt lat="45.019965369793255" lon="9.577668288993047"><ele>75.0</ele><time>2026-04-04T13:25:02.011Z</time></trkpt><trkpt lat="45.01999916465859" lon="9.577788707243116"><ele>74.8</ele><time>2026-04-04T13:25:04.011Z</time></trkpt><trkpt lat="45.02003999783097" lon="9.577907441287941"><ele>74.6</ele><time>2026-04-04T13:25:06.011Z</time></trkpt><trkpt lat="45.02008392791651" lon="9.578031359078267"><ele>74.4</ele><time>2026-04-04T13:25:08.011Z</time></trkpt><trkpt lat="45.02012838050704" lon="9.578155317956895"><ele>74.2</ele><time>2026-04-04T13:25:10.011Z</time></trkpt><trkpt lat="45.02017189674891" lon="9.578273826326447"><ele>74.0</ele><time>2026-04-04T13:25:12.011Z</time></trkpt><trkpt lat="45.020226541541895" lon="9.57838701095021"><ele>74.0</ele><time>2026-04-04T13:25:14.011Z</time></trkpt><trkpt lat="45.020274992599354" lon="9.578507009074862"><ele>74.0</ele><time>2026-04-04T13:25:16.011Z</time></trkpt><trkpt lat="45.020321949712404" lon="9.578602436887312"><ele>74.0</ele><time>2026-04-04T13:25:18.011Z</time></trkpt><trkpt lat="45.02036767906624" lon="9.578714585212433"><ele>74.0</ele><time>2026-04-04T13:25:20.011Z</time></trkpt><trkpt lat="45.02041595770359" lon="9.578824349632393"><ele>74.0</ele><time>2026-04-04T13:25:22.011Z</time></trkpt><trkpt lat="45.02047363087029" lon="9.578942069006576"><ele>74.16666666666667</ele><time>2026-04-04T13:25:24.011Z</time></trkpt><trkpt lat="45.02052696519638" lon="9.57905978349381"><ele>74.33333333333334</ele><time>2026-04-04T13:25:26.011Z</time></trkpt><trkpt lat="45.02057640608803" lon="9.579165776505155"><ele>74.5</ele><time>2026-04-04T13:25:28.011Z</time></trkpt><trkpt lat="45.0206193007251" lon="9.579277751905998"><ele>74.66666666666667</ele><time>2026-04-04T13:25:30.011Z</time></trkpt><trkpt lat="45.0206528590319" lon="9.579379788538237"><ele>74.83333333333333</ele><time>2026-04-04T13:25:32.011Z</time></trkpt><trkpt lat="45.02069661519731" lon="9.579479813049282"><ele>75.0</ele><time>2026-04-04T13:25:34.011Z</time></trkpt><trkpt lat="45.020734584223554" lon="9.579588634805765"><ele>75.0</ele><time>2026-04-04T13:25:36.011Z</time></trkpt><trkpt lat="45.020774540377694" lon="9.579703437335896"><ele>75.0</ele><time>2026-04-04T13:25:38.011Z</time></trkpt><trkpt lat="45.020819801289896" lon="9.579816726744141"><ele>75.0</ele><time>2026-04-04T13:25:40.012Z</time></trkpt><trkpt lat="45.020860332724695" lon="9.57992550146248"><ele>75.0</ele><time>2026-04-04T13:25:42.011Z</time></trkpt><trkpt lat="45.020897144319036" lon="9.580030631042527"><ele>75.0</ele><time>2026-04-04T13:25:44.011Z</time></trkpt><trkpt lat="45.02093541822123" lon="9.58013567251009"><ele>75.0</ele><time>2026-04-04T13:25:46.011Z</time></trkpt><trkpt lat="45.0209726098196" lon="9.580233397559072"><ele>75.2</ele><time>2026-04-04T13:25:48.011Z</time></trkpt><trkpt lat="45.02101151263119" lon="9.580333002278591"><ele>75.4</ele><time>2026-04-04T13:25:50.011Z</time></trkpt><trkpt lat="45.021049468465506" lon="9.580436509863462"><ele>75.6</ele><time>2026-04-04T13:25:52.011Z</time></trkpt><trkpt lat="45.02108723508517" lon="9.580553195277313"><ele>75.8</ele><time>2026-04-04T13:25:54.011Z</time></trkpt><trkpt lat="45.021131259192735" lon="9.58067184521095"><ele>76.0</ele><time>2026-04-04T13:25:56.011Z</time></trkpt><trkpt lat="45.02118123949116" lon="9.580799025801381"><ele>75.6</ele><time>2026-04-04T13:25:58.011Z</time></trkpt><trkpt lat="45.021224681745956" lon="9.580911274570704"><ele>75.19999999999999</ele><time>2026-04-04T13:26:00.011Z</time></trkpt><trkpt lat="45.021269534815175" lon="9.58102074420664"><ele>74.80000000000001</ele><time>2026-04-04T13:26:02.011Z</time></trkpt><trkpt lat="45.02131881605564" lon="9.581130587198382"><ele>74.4</ele><time>2026-04-04T13:26:04.011Z</time></trkpt><trkpt lat="45.02137131897674" lon="9.581249505769081"><ele>74.0</ele><time>2026-04-04T13:26:06.011Z</time></trkpt><trkpt lat="45.02142844269795" lon="9.581364914648363"><ele>74.0</ele><time>2026-04-04T13:26:08.011Z</time></trkpt><trkpt lat="45.021484544917975" lon="9.581473550656167"><ele>74.0</ele><time>2026-04-04T13:26:10.011Z</time></trkpt><trkpt lat="45.021535545494295" lon="9.581570751015796"><ele>74.0</ele><time>2026-04-04T13:26:12.011Z</time></trkpt><trkpt lat="45.02158687148015" lon="9.581667893019144"><ele>74.0</ele><time>2026-04-04T13:26:14.011Z</time></trkpt><trkpt lat="45.021645893674254" lon="9.581771262402071"><ele>74.0</ele><time>2026-04-04T13:26:16.011Z</time></trkpt><trkpt lat="45.02170628717" lon="9.581875114454503"><ele>74.0</ele><time>2026-04-04T13:26:18.011Z</time></trkpt><trkpt lat="45.02177442413297" lon="9.581977575202183"><ele>74.0</ele><time>2026-04-04T13:26:20.011Z</time></trkpt><trkpt lat="45.021832821290616" lon="9.582078678201038"><ele>74.0</ele><time>2026-04-04T13:26:22.011Z</time></trkpt><trkpt lat="45.02188939466345" lon="9.582185203788663"><ele>74.0</ele><time>2026-04-04T13:26:24.012Z</time></trkpt><trkpt lat="45.02195037710107" lon="9.582287123118798"><ele>74.0</ele><time>2026-04-04T13:26:26.012Z</time></trkpt><trkpt lat="45.02200852939922" lon="9.582390899471154"><ele>74.0</ele><time>2026-04-04T13:26:28.012Z</time></trkpt><trkpt lat="45.02207159517316" lon="9.582507476787043"><ele>74.0</ele><time>2026-04-04T13:26:30.012Z</time></trkpt><trkpt lat="45.022132577029716" lon="9.582623318037271"><ele>74.0</ele><time>2026-04-04T13:26:32.012Z</time></trkpt><trkpt lat="45.02219344723975" lon="9.582748999345267"><ele>74.0</ele><time>2026-04-04T13:26:34.012Z</time></trkpt><trkpt lat="45.022246663331075" lon="9.582877704135687"><ele>74.0</ele><time>2026-04-04T13:26:36.012Z</time></trkpt><trkpt lat="45.022301875778375" lon="9.582998616253219"><ele>73.60000000000001</ele><time>2026-04-04T13:26:38.012Z</time></trkpt><trkpt lat="45.02234652605558" lon="9.583110615624507"><ele>73.2</ele><time>2026-04-04T13:26:40.012Z</time></trkpt><trkpt lat="45.02240226135196" lon="9.583232745848463"><ele>72.80000000000001</ele><time>2026-04-04T13:26:42.012Z</time></trkpt><trkpt lat="45.022447384275814" lon="9.583349168522583"><ele>72.4</ele><time>2026-04-04T13:26:44.012Z</time></trkpt><trkpt lat="45.02249804245318" lon="9.583468838339744"><ele>72.0</ele><time>2026-04-04T13:26:46.012Z</time></trkpt><trkpt lat="45.022544784315265" lon="9.583593882852025"><ele>71.8</ele><time>2026-04-04T13:26:48.012Z</time></trkpt><trkpt lat="45.02259120898611" lon="9.583715506027655"><ele>71.6</ele><time>2026-04-04T13:26:50.012Z</time></trkpt><trkpt lat="45.022641968815" lon="9.583843238063075"><ele>71.39999999999999</ele><time>2026-04-04T13:26:52.012Z</time></trkpt><trkpt lat="45.022689206047495" lon="9.583962216555463"><ele>71.2</ele><time>2026-04-04T13:26:54.012Z</time></trkpt><trkpt lat="45.02273627619006" lon="9.584084352293992"><ele>71.0</ele><time>2026-04-04T13:26:56.012Z</time></trkpt><trkpt lat="45.022781198557304" lon="9.584189819205438"><ele>71.0</ele><time>2026-04-04T13:26:58.012Z</time></trkpt><trkpt lat="45.02282281348407" lon="9.584295327076504"><ele>71.0</ele><time>2026-04-04T13:27:00.012Z</time></trkpt><trkpt lat="45.02286065914579" lon="9.584417546655688"><ele>71.0</ele><time>2026-04-04T13:27:02.012Z</time></trkpt><trkpt lat="45.022911037387026" lon="9.584532914512268"><ele>71.0</ele><time>2026-04-04T13:27:04.012Z</time></trkpt><trkpt lat="45.022958756307744" lon="9.584648033265047"><ele>71.0</ele><time>2026-04-04T13:27:06.012Z</time></trkpt><trkpt lat="45.02303799899642" lon="9.584721329241399"><ele>71.2</ele><time>2026-04-04T13:27:08.012Z</time></trkpt><trkpt lat="45.02313449759613" lon="9.584689632139272"><ele>71.39999999999999</ele><time>2026-04-04T13:27:10.012Z</time></trkpt><trkpt lat="45.02321826091681" lon="9.584659566066971"><ele>71.6</ele><time>2026-04-04T13:27:12.012Z</time></trkpt><trkpt lat="45.02331141660006" lon="9.584638692162734"><ele>71.8</ele><time>2026-04-04T13:27:14.012Z</time></trkpt><trkpt lat="45.02340511467251" lon="9.584613081685994"><ele>72.0</ele><time>2026-04-04T13:27:16.012Z</time></trkpt><trkpt lat="45.02350220861556" lon="9.584589293088953"><ele>72.0</ele><time>2026-04-04T13:27:18.012Z</time></trkpt><trkpt lat="45.02360228262979" lon="9.584562140916347"><ele>72.0</ele><time>2026-04-04T13:27:20.012Z</time></trkpt><trkpt lat="45.023700629616386" lon="9.584537837160688"><ele>72.0</ele><time>2026-04-04T13:27:22.012Z</time></trkpt><trkpt lat="45.02380041208329" lon="9.584506118188283"><ele>72.0</ele><time>2026-04-04T13:27:24.012Z</time></trkpt><trkpt lat="45.02390200228442" lon="9.5844759471934"><ele>72.0</ele><time>2026-04-04T13:27:26.012Z</time></trkpt><trkpt lat="45.02399724735843" lon="9.584453800910424"><ele>71.8</ele><time>2026-04-04T13:27:28.012Z</time></trkpt><trkpt lat="45.02409266991128" lon="9.584428257458782"><ele>71.6</ele><time>2026-04-04T13:27:30.012Z</time></trkpt><trkpt lat="45.02418171763919" lon="9.584406810774249"><ele>71.39999999999999</ele><time>2026-04-04T13:27:32.012Z</time></trkpt><trkpt lat="45.02427318546391" lon="9.584383626321998"><ele>71.2</ele><time>2026-04-04T13:27:34.012Z</time></trkpt><trkpt lat="45.02436716835814" lon="9.58436087966282"><ele>71.0</ele><time>2026-04-04T13:27:36.012Z</time></trkpt><trkpt lat="45.02445716878406" lon="9.584334796225416"><ele>71.0</ele><time>2026-04-04T13:27:38.012Z</time></trkpt><trkpt lat="45.02455181207481" lon="9.584309067057154"><ele>71.0</ele><time>2026-04-04T13:27:40.012Z</time></trkpt><trkpt lat="45.02464757459305" lon="9.584281426079581"><ele>71.0</ele><time>2026-04-04T13:27:42.012Z</time></trkpt><trkpt lat="45.02474601998199" lon="9.584253584914794"><ele>71.0</ele><time>2026-04-04T13:27:44.012Z</time></trkpt><trkpt lat="45.02484251149631" lon="9.584228286720323"><ele>71.0</ele><time>2026-04-04T13:27:46.012Z</time></trkpt><trkpt lat="45.024936428200306" lon="9.584201084554506"><ele>71.0</ele><time>2026-04-04T13:27:48.012Z</time></trkpt><trkpt lat="45.02502784396537" lon="9.58417235939621"><ele>71.0</ele><time>2026-04-04T13:27:50.011Z</time></trkpt><trkpt lat="45.025120378624194" lon="9.58414753906406"><ele>71.0</ele><time>2026-04-04T13:27:52.011Z</time></trkpt><trkpt lat="45.025211804268665" lon="9.584118602374359"><ele>71.0</ele><time>2026-04-04T13:27:54.012Z</time></trkpt><trkpt lat="45.02530146253599" lon="9.584089321770232"><ele>71.0</ele><time>2026-04-04T13:27:56.011Z</time></trkpt><trkpt lat="45.0253922130001" lon="9.584055510884957"><ele>71.0</ele><time>2026-04-04T13:27:58.011Z</time></trkpt><trkpt lat="45.025478644647286" lon="9.584012801821974"><ele>71.0</ele><time>2026-04-04T13:28:00.011Z</time></trkpt><trkpt lat="45.02556844444079" lon="9.583967424292926"><ele>71.0</ele><time>2026-04-04T13:28:02.011Z</time></trkpt><trkpt lat="45.025654564463956" lon="9.583919340332937"><ele>71.0</ele><time>2026-04-04T13:28:04.011Z</time></trkpt><trkpt lat="45.02573371823051" lon="9.583871065349818"><ele>71.0</ele><time>2026-04-04T13:28:06.011Z</time></trkpt><trkpt lat="45.02581238514104" lon="9.58383156064664"><ele>71.0</ele><time>2026-04-04T13:28:08.011Z</time></trkpt><trkpt lat="45.025886751916396" lon="9.583788553106563"><ele>70.83333333333334</ele><time>2026-04-04T13:28:10.011Z</time></trkpt><trkpt lat="45.02596136542671" lon="9.583744192105797"><ele>70.66666666666667</ele><time>2026-04-04T13:28:12.011Z</time></trkpt><trkpt lat="45.02604551981601" lon="9.583693653054851"><ele>70.5</ele><time>2026-04-04T13:28:14.011Z</time></trkpt><trkpt lat="45.0261290230254" lon="9.58364711886866"><ele>70.33333333333333</ele><time>2026-04-04T13:28:16.011Z</time></trkpt><trkpt lat="45.02621922107438" lon="9.583596205926542"><ele>70.16666666666666</ele><time>2026-04-04T13:28:18.011Z</time></trkpt><trkpt lat="45.02630472866089" lon="9.583575974004741"><ele>70.0</ele><time>2026-04-04T13:28:20.011Z</time></trkpt><trkpt lat="45.02637567813145" lon="9.58367334454461"><ele>70.0</ele><time>2026-04-04T13:28:22.011Z</time></trkpt><trkpt lat="45.02639389348874" lon="9.583792399704464"><ele>70.0</ele><time>2026-04-04T13:28:24.011Z</time></trkpt><trkpt lat="45.02640746807844" lon="9.583906325686117"><ele>70.0</ele><time>2026-04-04T13:28:26.011Z</time></trkpt><trkpt lat="45.026428994088825" lon="9.584028679882726"><ele>70.0</ele><time>2026-04-04T13:28:28.011Z</time></trkpt><trkpt lat="45.02644868690196" lon="9.584149903287976"><ele>70.0</ele><time>2026-04-04T13:28:30.011Z</time></trkpt><trkpt lat="45.026466232077034" lon="9.584272431348735"><ele>70.0</ele><time>2026-04-04T13:28:32.011Z</time></trkpt><trkpt lat="45.02648328965653" lon="9.58439588576872"><ele>70.0</ele><time>2026-04-04T13:28:34.011Z</time></trkpt><trkpt lat="45.026500270099305" lon="9.584525186014023"><ele>70.0</ele><time>2026-04-04T13:28:36.011Z</time></trkpt><trkpt lat="45.02651692608037" lon="9.584656326559106"><ele>70.0</ele><time>2026-04-04T13:28:38.011Z</time></trkpt><trkpt lat="45.02653756646061" lon="9.584779511435883"><ele>70.0</ele><time>2026-04-04T13:28:40.011Z</time></trkpt><trkpt lat="45.026554756738726" lon="9.58490932163933"><ele>70.0</ele><time>2026-04-04T13:28:42.011Z</time></trkpt><trkpt lat="45.02657399785485" lon="9.585036962954536"><ele>70.0</ele><time>2026-04-04T13:28:44.011Z</time></trkpt><trkpt lat="45.026606771483564" lon="9.58515917615064"><ele>70.0</ele><time>2026-04-04T13:28:46.011Z</time></trkpt><trkpt lat="45.02665947629042" lon="9.585261334793953"><ele>70.0</ele><time>2026-04-04T13:28:48.011Z</time></trkpt><trkpt lat="45.02673674526403" lon="9.585336778100974"><ele>70.0</ele><time>2026-04-04T13:28:50.011Z</time></trkpt><trkpt lat="45.02680800394644" lon="9.585399395185744"><ele>70.0</ele><time>2026-04-04T13:28:52.011Z</time></trkpt><trkpt lat="45.026883822189134" lon="9.585439818687922"><ele>70.0</ele><time>2026-04-04T13:28:54.011Z</time></trkpt><trkpt lat="45.026972568160396" lon="9.585447560063173"><ele>70.2</ele><time>2026-04-04T13:28:56.011Z</time></trkpt><trkpt lat="45.0270666402854" lon="9.585425222108967"><ele>70.4</ele><time>2026-04-04T13:28:58.011Z</time></trkpt><trkpt lat="45.02715855823299" lon="9.585411603365786"><ele>70.6</ele><time>2026-04-04T13:29:00.011Z</time></trkpt><trkpt lat="45.02725319411819" lon="9.585394866758431"><ele>70.8</ele><time>2026-04-04T13:29:02.011Z</time></trkpt><trkpt lat="45.027345573536145" lon="9.585378648986145"><ele>71.0</ele><time>2026-04-04T13:29:04.011Z</time></trkpt><trkpt lat="45.02744351772301" lon="9.585368981161865"><ele>71.0</ele><time>2026-04-04T13:29:06.011Z</time></trkpt><trkpt lat="45.02753523328682" lon="9.585349127620177"><ele>71.0</ele><time>2026-04-04T13:29:08.011Z</time></trkpt><trkpt lat="45.02763014878897" lon="9.585328333192816"><ele>71.0</ele><time>2026-04-04T13:29:10.011Z</time></trkpt><trkpt lat="45.02772390694672" lon="9.585317116857325"><ele>71.0</ele><time>2026-04-04T13:29:12.011Z</time></trkpt><trkpt lat="45.02781533084272" lon="9.585296268331472"><ele>71.0</ele><time>2026-04-04T13:29:14.011Z</time></trkpt><trkpt lat="45.02790541089186" lon="9.585278824844119"><ele>71.0</ele><time>2026-04-04T13:29:16.011Z</time></trkpt><trkpt lat="45.02799970409755" lon="9.585264768366494"><ele>71.0</ele><time>2026-04-04T13:29:18.011Z</time></trkpt><trkpt lat="45.02809482847497" lon="9.585249877179347"><ele>71.0</ele><time>2026-04-04T13:29:20.011Z</time></trkpt><trkpt lat="45.02819119762039" lon="9.58523785530959"><ele>71.0</ele><time>2026-04-04T13:29:22.011Z</time></trkpt><trkpt lat="45.02828805379746" lon="9.585215298453697"><ele>71.0</ele><time>2026-04-04T13:29:24.011Z</time></trkpt><trkpt lat="45.028381491753834" lon="9.585180550139732"><ele>71.2</ele><time>2026-04-04T13:29:26.011Z</time></trkpt><trkpt lat="45.028471841866704" lon="9.585144399912869"><ele>71.39999999999999</ele><time>2026-04-04T13:29:28.011Z</time></trkpt><trkpt lat="45.028561501504655" lon="9.585090244322862"><ele>71.6</ele><time>2026-04-04T13:29:30.011Z</time></trkpt><trkpt lat="45.028650035698995" lon="9.585034828742732"><ele>71.8</ele><time>2026-04-04T13:29:32.011Z</time></trkpt><trkpt lat="45.02873567926466" lon="9.584988967348842"><ele>72.0</ele><time>2026-04-04T13:29:34.011Z</time></trkpt><trkpt lat="45.028832070219934" lon="9.584947301195582"><ele>72.0</ele><time>2026-04-04T13:29:36.011Z</time></trkpt><trkpt lat="45.02892094542764" lon="9.58492373307279"><ele>72.0</ele><time>2026-04-04T13:29:38.011Z</time></trkpt><trkpt lat="45.02900269758881" lon="9.584897587059407"><ele>72.0</ele><time>2026-04-04T13:29:40.012Z</time></trkpt><trkpt lat="45.02908096595558" lon="9.58488499485465"><ele>72.0</ele><time>2026-04-04T13:29:42.012Z</time></trkpt><trkpt lat="45.02916789929988" lon="9.584879030206809"><ele>72.0</ele><time>2026-04-04T13:29:44.012Z</time></trkpt><trkpt lat="45.02926441554726" lon="9.584856049564168"><ele>72.0</ele><time>2026-04-04T13:29:46.012Z</time></trkpt><trkpt lat="45.02936055439428" lon="9.58484135326876"><ele>71.4</ele><time>2026-04-04T13:29:48.012Z</time></trkpt><trkpt lat="45.02945273062098" lon="9.584832340391266"><ele>70.80000000000001</ele><time>2026-04-04T13:29:50.012Z</time></trkpt><trkpt lat="45.02954460540474" lon="9.584822835260814"><ele>70.2</ele><time>2026-04-04T13:29:52.012Z</time></trkpt><trkpt lat="45.02963200409354" lon="9.58480740298135"><ele>69.60000000000001</ele><time>2026-04-04T13:29:54.013Z</time></trkpt><trkpt lat="45.02972333443802" lon="9.584802108044286"><ele>69.0</ele><time>2026-04-04T13:29:56.012Z</time></trkpt><trkpt lat="45.029811501666735" lon="9.58478671396489"><ele>69.0</ele><time>2026-04-04T13:29:58.012Z</time></trkpt><trkpt lat="45.02990101466455" lon="9.584773128019478"><ele>69.0</ele><time>2026-04-04T13:30:00.012Z</time></trkpt><trkpt lat="45.02998173870772" lon="9.584760001035768"><ele>69.0</ele><time>2026-04-04T13:30:02.012Z</time></trkpt><trkpt lat="45.030072776495736" lon="9.584726710332129"><ele>69.0</ele><time>2026-04-04T13:30:04.012Z</time></trkpt><trkpt lat="45.03016339564242" lon="9.584702190621279"><ele>69.0</ele><time>2026-04-04T13:30:06.012Z</time></trkpt><trkpt lat="45.030251260286974" lon="9.584683370471177"><ele>69.0</ele><time>2026-04-04T13:30:08.012Z</time></trkpt><trkpt lat="45.0303454618777" lon="9.584674566849284"><ele>68.8</ele><time>2026-04-04T13:30:10.012Z</time></trkpt><trkpt lat="45.030430850332564" lon="9.584657959661532"><ele>68.60000000000001</ele><time>2026-04-04T13:30:12.012Z</time></trkpt><trkpt lat="45.03052384711639" lon="9.584641919398264"><ele>68.4</ele><time>2026-04-04T13:30:14.012Z</time></trkpt><trkpt lat="45.03061894934303" lon="9.584624184719443"><ele>68.2</ele><time>2026-04-04T13:30:16.012Z</time></trkpt><trkpt lat="45.03071171479416" lon="9.584598371013076"><ele>68.0</ele><time>2026-04-04T13:30:18.012Z</time></trkpt><trkpt lat="45.03080504464329" lon="9.584578295690376"><ele>68.0</ele><time>2026-04-04T13:30:20.012Z</time></trkpt><trkpt lat="45.03089713133902" lon="9.584553530114727"><ele>68.0</ele><time>2026-04-04T13:30:22.012Z</time></trkpt><trkpt lat="45.03099172492247" lon="9.584535107015496"><ele>68.0</ele><time>2026-04-04T13:30:24.012Z</time></trkpt><trkpt lat="45.031082318586854" lon="9.584511901290387"><ele>68.0</ele><time>2026-04-04T13:30:26.012Z</time></trkpt><trkpt lat="45.03117064933816" lon="9.584494329032848"><ele>68.0</ele><time>2026-04-04T13:30:28.012Z</time></trkpt><trkpt lat="45.03126290301217" lon="9.584464195860338"><ele>68.2</ele><time>2026-04-04T13:30:30.012Z</time></trkpt><trkpt lat="45.03135264111347" lon="9.584449513731595"><ele>68.4</ele><time>2026-04-04T13:30:32.012Z</time></trkpt><trkpt lat="45.031444673928405" lon="9.584429212265004"><ele>68.60000000000001</ele><time>2026-04-04T13:30:34.012Z</time></trkpt><trkpt lat="45.03153609259361" lon="9.584413909810333"><ele>68.8</ele><time>2026-04-04T13:30:36.012Z</time></trkpt><trkpt lat="45.031630730291646" lon="9.584396133790802"><ele>69.0</ele><time>2026-04-04T13:30:38.012Z</time></trkpt><trkpt lat="45.03172286513685" lon="9.584370017538573"><ele>69.0</ele><time>2026-04-04T13:30:40.012Z</time></trkpt><trkpt lat="45.03180938279338" lon="9.584346073858933"><ele>69.0</ele><time>2026-04-04T13:30:42.012Z</time></trkpt><trkpt lat="45.03190320889324" lon="9.584319936591164"><ele>69.0</ele><time>2026-04-04T13:30:44.012Z</time></trkpt><trkpt lat="45.03199620623552" lon="9.584296095794244"><ele>69.0</ele><time>2026-04-04T13:30:46.012Z</time></trkpt><trkpt lat="45.032086845950076" lon="9.584269770672375"><ele>69.0</ele><time>2026-04-04T13:30:48.012Z</time></trkpt><trkpt lat="45.032183835293566" lon="9.584240967995846"><ele>69.0</ele><time>2026-04-04T13:30:50.012Z</time></trkpt><trkpt lat="45.03228107124642" lon="9.584225584442244"><ele>69.0</ele><time>2026-04-04T13:30:52.012Z</time></trkpt><trkpt lat="45.03236993866406" lon="9.584207108483346"><ele>69.0</ele><time>2026-04-04T13:30:54.012Z</time></trkpt><trkpt lat="45.03246194375465" lon="9.584184498290638"><ele>69.0</ele><time>2026-04-04T13:30:56.012Z</time></trkpt><trkpt lat="45.03256073087629" lon="9.584156735619334"><ele>69.0</ele><time>2026-04-04T13:30:58.012Z</time></trkpt><trkpt lat="45.03265347425182" lon="9.584137949334517"><ele>69.0</ele><time>2026-04-04T13:31:00.012Z</time></trkpt><trkpt lat="45.03274945460267" lon="9.584119641479003"><ele>69.0</ele><time>2026-04-04T13:31:02.012Z</time></trkpt><trkpt lat="45.03284382453871" lon="9.58409456186888"><ele>69.0</ele><time>2026-04-04T13:31:04.012Z</time></trkpt><trkpt lat="45.03293536624664" lon="9.584050491868416"><ele>69.0</ele><time>2026-04-04T13:31:06.012Z</time></trkpt><trkpt lat="45.03303243332012" lon="9.584011669583774"><ele>69.0</ele><time>2026-04-04T13:31:08.012Z</time></trkpt><trkpt lat="45.03312866180135" lon="9.583985222440427"><ele>69.0</ele><time>2026-04-04T13:31:10.012Z</time></trkpt><trkpt lat="45.033208755173014" lon="9.584015856334416"><ele>69.0</ele><time>2026-04-04T13:31:12.012Z</time></trkpt><trkpt lat="45.033233276919695" lon="9.584115430749502"><ele>69.0</ele><time>2026-04-04T13:31:14.012Z</time></trkpt><trkpt lat="45.03327799125134" lon="9.584232201235547"><ele>69.0</ele><time>2026-04-04T13:31:17.012Z</time></trkpt><trkpt lat="45.033329197082956" lon="9.584334364907711"><ele>69.0</ele><time>2026-04-04T13:31:20.012Z</time></trkpt><trkpt lat="45.03336673417705" lon="9.584418280285519"><ele>69.0</ele><time>2026-04-04T13:31:22.012Z</time></trkpt><trkpt lat="45.03339376389107" lon="9.584522767940378"><ele>69.0</ele><time>2026-04-04T13:31:24.012Z</time></trkpt><trkpt lat="45.033418799070475" lon="9.584629098256464"><ele>69.0</ele><time>2026-04-04T13:31:26.012Z</time></trkpt><trkpt lat="45.033448681565886" lon="9.58473387019476"><ele>69.0</ele><time>2026-04-04T13:31:28.012Z</time></trkpt><trkpt lat="45.033483720019646" lon="9.58483558863013"><ele>69.0</ele><time>2026-04-04T13:31:30.012Z</time></trkpt><trkpt lat="45.03350670524953" lon="9.58494135536533"><ele>69.0</ele><time>2026-04-04T13:31:32.012Z</time></trkpt><trkpt lat="45.03354762916184" lon="9.585043851143093"><ele>69.0</ele><time>2026-04-04T13:31:34.012Z</time></trkpt><trkpt lat="45.033580087710156" lon="9.585156647093992"><ele>69.0</ele><time>2026-04-04T13:31:36.012Z</time></trkpt><trkpt lat="45.03361742386087" lon="9.585264022397835"><ele>69.0</ele><time>2026-04-04T13:31:38.012Z</time></trkpt><trkpt lat="45.033652691683876" lon="9.585379141357647"><ele>69.0</ele><time>2026-04-04T13:31:40.012Z</time></trkpt><trkpt lat="45.03369055541909" lon="9.585486460950301"><ele>69.0</ele><time>2026-04-04T13:31:42.012Z</time></trkpt><trkpt lat="45.03373714658535" lon="9.585580115195024"><ele>69.0</ele><time>2026-04-04T13:31:44.012Z</time></trkpt><trkpt lat="45.03378330683532" lon="9.585681991666853"><ele>69.0</ele><time>2026-04-04T13:31:46.012Z</time></trkpt><trkpt lat="45.03383342330277" lon="9.585784631758322"><ele>68.83333333333333</ele><time>2026-04-04T13:31:48.012Z</time></trkpt><trkpt lat="45.033879475710826" lon="9.58588359628687"><ele>68.66666666666667</ele><time>2026-04-04T13:31:50.012Z</time></trkpt><trkpt lat="45.03392294345405" lon="9.58598344212702"><ele>68.5</ele><time>2026-04-04T13:31:52.012Z</time></trkpt><trkpt lat="45.033967346397034" lon="9.58608885696019"><ele>68.33333333333334</ele><time>2026-04-04T13:31:54.012Z</time></trkpt><trkpt lat="45.03401033825121" lon="9.586195044674978"><ele>68.16666666666667</ele><time>2026-04-04T13:31:56.012Z</time></trkpt><trkpt lat="45.03405502930744" lon="9.586300006548798"><ele>68.0</ele><time>2026-04-04T13:31:58.012Z</time></trkpt><trkpt lat="45.03410949757246" lon="9.586403406985204"><ele>67.8</ele><time>2026-04-04T13:32:00.012Z</time></trkpt><trkpt lat="45.034151722803614" lon="9.58651726032752"><ele>67.6</ele><time>2026-04-04T13:32:02.012Z</time></trkpt><trkpt lat="45.03420396948952" lon="9.58662175224557"><ele>67.4</ele><time>2026-04-04T13:32:04.012Z</time></trkpt><trkpt lat="45.034245765535026" lon="9.586731664715893"><ele>67.2</ele><time>2026-04-04T13:32:06.013Z</time></trkpt><trkpt lat="45.0342762216514" lon="9.586860416908442"><ele>67.0</ele><time>2026-04-04T13:32:08.012Z</time></trkpt><trkpt lat="45.034305962457225" lon="9.586978826406021"><ele>67.2</ele><time>2026-04-04T13:32:10.012Z</time></trkpt><trkpt lat="45.03432442397025" lon="9.587116763533587"><ele>67.4</ele><time>2026-04-04T13:32:12.012Z</time></trkpt><trkpt lat="45.03433005397117" lon="9.587253661925962"><ele>67.6</ele><time>2026-04-04T13:32:14.012Z</time></trkpt><trkpt lat="45.034327608995746" lon="9.587394442275636"><ele>67.8</ele><time>2026-04-04T13:32:16.012Z</time></trkpt><trkpt lat="45.03431308564811" lon="9.587522137881326"><ele>68.0</ele><time>2026-04-04T13:32:18.012Z</time></trkpt><trkpt lat="45.03429158041632" lon="9.587635143722368"><ele>68.0</ele><time>2026-04-04T13:32:20.012Z</time></trkpt><trkpt lat="45.03426444749887" lon="9.587745593625838"><ele>68.0</ele><time>2026-04-04T13:32:22.012Z</time></trkpt><trkpt lat="45.03422535455753" lon="9.587851683108175"><ele>68.0</ele><time>2026-04-04T13:32:24.012Z</time></trkpt><trkpt lat="45.03417964264046" lon="9.587960525895195"><ele>68.0</ele><time>2026-04-04T13:32:26.012Z</time></trkpt><trkpt lat="45.03412935689075" lon="9.588058740005897"><ele>68.0</ele><time>2026-04-04T13:32:28.012Z</time></trkpt><trkpt lat="45.03406536400694" lon="9.588155026052757"><ele>68.0</ele><time>2026-04-04T13:32:30.012Z</time></trkpt><trkpt lat="45.03399404510018" lon="9.588242110365698"><ele>67.8</ele><time>2026-04-04T13:32:32.012Z</time></trkpt><trkpt lat="45.033923402215244" lon="9.588320022261899"><ele>67.6</ele><time>2026-04-04T13:32:34.012Z</time></trkpt><trkpt lat="45.03385317881369" lon="9.58839640095762"><ele>67.4</ele><time>2026-04-04T13:32:36.012Z</time></trkpt><trkpt lat="45.03377679133275" lon="9.588475171781866"><ele>67.2</ele><time>2026-04-04T13:32:38.012Z</time></trkpt><trkpt lat="45.03369618263506" lon="9.588546863732525"><ele>67.0</ele><time>2026-04-04T13:32:40.012Z</time></trkpt><trkpt lat="45.03361982480825" lon="9.588622332298963"><ele>67.0</ele><time>2026-04-04T13:32:42.012Z</time></trkpt><trkpt lat="45.03356295006421" lon="9.588700198236097"><ele>67.0</ele><time>2026-04-04T13:32:44.012Z</time></trkpt><trkpt lat="45.03349222770981" lon="9.588773249853968"><ele>67.0</ele><time>2026-04-04T13:32:46.012Z</time></trkpt><trkpt lat="45.03342681443926" lon="9.588831443741727"><ele>67.0</ele><time>2026-04-04T13:32:48.012Z</time></trkpt><trkpt lat="45.033359995801895" lon="9.588898719199777"><ele>67.0</ele><time>2026-04-04T13:32:50.012Z</time></trkpt><trkpt lat="45.03330276568297" lon="9.588978248127775"><ele>67.0</ele><time>2026-04-04T13:32:52.012Z</time></trkpt><trkpt lat="45.03323161124072" lon="9.58905656624593"><ele>67.0</ele><time>2026-04-04T13:32:54.012Z</time></trkpt><trkpt lat="45.03316264490864" lon="9.589140031488725"><ele>67.0</ele><time>2026-04-04T13:32:56.012Z</time></trkpt><trkpt lat="45.03309514266398" lon="9.589228524069132"><ele>67.0</ele><time>2026-04-04T13:32:58.012Z</time></trkpt><trkpt lat="45.03303060678031" lon="9.58930663482501"><ele>67.0</ele><time>2026-04-04T13:33:00.012Z</time></trkpt><trkpt lat="45.03297243486304" lon="9.589395334907493"><ele>67.0</ele><time>2026-04-04T13:33:02.012Z</time></trkpt><trkpt lat="45.03291672590934" lon="9.589478488456766"><ele>67.0</ele><time>2026-04-04T13:33:04.012Z</time></trkpt><trkpt lat="45.03285604788586" lon="9.589564767592849"><ele>67.2</ele><time>2026-04-04T13:33:06.012Z</time></trkpt><trkpt lat="45.03279354613532" lon="9.589662038388239"><ele>67.4</ele><time>2026-04-04T13:33:08.012Z</time></trkpt><trkpt lat="45.032737961418604" lon="9.589758615106982"><ele>67.6</ele><time>2026-04-04T13:33:10.012Z</time></trkpt><trkpt lat="45.03267088397362" lon="9.589849255781115"><ele>67.8</ele><time>2026-04-04T13:33:12.012Z</time></trkpt><trkpt lat="45.03261353072886" lon="9.589949445574359"><ele>68.0</ele><time>2026-04-04T13:33:14.012Z</time></trkpt><trkpt lat="45.03255331912652" lon="9.590048373945184"><ele>68.0</ele><time>2026-04-04T13:33:16.012Z</time></trkpt><trkpt lat="45.03249507861596" lon="9.590153273344722"><ele>68.0</ele><time>2026-04-04T13:33:18.012Z</time></trkpt><trkpt lat="45.03243402087198" lon="9.590253771910037"><ele>68.0</ele><time>2026-04-04T13:33:20.012Z</time></trkpt><trkpt lat="45.03237910819261" lon="9.590362800602993"><ele>68.0</ele><time>2026-04-04T13:33:22.012Z</time></trkpt><trkpt lat="45.032320090949995" lon="9.590470057106383"><ele>68.0</ele><time>2026-04-04T13:33:24.012Z</time></trkpt><trkpt lat="45.0322647509105" lon="9.590582556560543"><ele>68.0</ele><time>2026-04-04T13:33:26.012Z</time></trkpt><trkpt lat="45.03220752353913" lon="9.59069997975512"><ele>68.0</ele><time>2026-04-04T13:33:28.012Z</time></trkpt><trkpt lat="45.032154155713386" lon="9.590811576637467"><ele>68.0</ele><time>2026-04-04T13:33:30.012Z</time></trkpt><trkpt lat="45.03210545635435" lon="9.590923334539497"><ele>68.0</ele><time>2026-04-04T13:33:32.012Z</time></trkpt><trkpt lat="45.032054580357645" lon="9.591033230877613"><ele>68.0</ele><time>2026-04-04T13:33:34.012Z</time></trkpt><trkpt lat="45.03200762152675" lon="9.591145157275847"><ele>67.6</ele><time>2026-04-04T13:33:36.012Z</time></trkpt><trkpt lat="45.03196320820626" lon="9.591250168224269"><ele>67.19999999999999</ele><time>2026-04-04T13:33:38.012Z</time></trkpt><trkpt lat="45.03192052420802" lon="9.591361386406398"><ele>66.8</ele><time>2026-04-04T13:33:40.012Z</time></trkpt><trkpt lat="45.03187498343188" lon="9.591476900261855"><ele>66.39999999999999</ele><time>2026-04-04T13:33:42.012Z</time></trkpt><trkpt lat="45.031832577047915" lon="9.591592478019733"><ele>66.0</ele><time>2026-04-04T13:33:44.012Z</time></trkpt><trkpt lat="45.03179330467758" lon="9.591710664806579"><ele>66.0</ele><time>2026-04-04T13:33:46.012Z</time></trkpt><trkpt lat="45.031748436616894" lon="9.591832322307852"><ele>66.0</ele><time>2026-04-04T13:33:48.012Z</time></trkpt><trkpt lat="45.03171160236613" lon="9.591955596956112"><ele>66.0</ele><time>2026-04-04T13:33:50.012Z</time></trkpt><trkpt lat="45.03166981478204" lon="9.592076523599001"><ele>66.0</ele><time>2026-04-04T13:33:52.012Z</time></trkpt><trkpt lat="45.03163006732224" lon="9.5921964791889"><ele>66.0</ele><time>2026-04-04T13:33:54.012Z</time></trkpt><trkpt lat="45.03158886800273" lon="9.592312866895016"><ele>66.39999999999999</ele><time>2026-04-04T13:33:56.012Z</time></trkpt><trkpt lat="45.03155302105312" lon="9.592436472920259"><ele>66.8</ele><time>2026-04-04T13:33:58.012Z</time></trkpt><trkpt lat="45.03151109595665" lon="9.59255211090864"><ele>67.19999999999999</ele><time>2026-04-04T13:34:00.012Z</time></trkpt><trkpt lat="45.03146541670062" lon="9.592671108483056"><ele>67.6</ele><time>2026-04-04T13:34:02.012Z</time></trkpt><trkpt lat="45.03139153720671" lon="9.592758225296116"><ele>68.0</ele><time>2026-04-04T13:34:04.012Z</time></trkpt><trkpt lat="45.03131720651381" lon="9.592822860246645"><ele>67.8</ele><time>2026-04-04T13:34:06.012Z</time></trkpt><trkpt lat="45.031283209746285" lon="9.592943169361876"><ele>67.6</ele><time>2026-04-04T13:34:08.012Z</time></trkpt><trkpt lat="45.031271358190885" lon="9.59308884555791"><ele>67.4</ele><time>2026-04-04T13:34:10.012Z</time></trkpt><trkpt lat="45.03128461594736" lon="9.593226591864601"><ele>67.2</ele><time>2026-04-04T13:34:12.012Z</time></trkpt><trkpt lat="45.03128486235735" lon="9.5933642881541"><ele>67.0</ele><time>2026-04-04T13:34:14.012Z</time></trkpt><trkpt lat="45.031280827074596" lon="9.593504830336636"><ele>67.0</ele><time>2026-04-04T13:34:16.012Z</time></trkpt><trkpt lat="45.031263534890236" lon="9.593626099523654"><ele>67.0</ele><time>2026-04-04T13:34:18.012Z</time></trkpt><trkpt lat="45.03124172956992" lon="9.593753066106972"><ele>67.0</ele><time>2026-04-04T13:34:20.012Z</time></trkpt><trkpt lat="45.031223525415626" lon="9.593875367966096"><ele>67.0</ele><time>2026-04-04T13:34:22.012Z</time></trkpt><trkpt lat="45.03120613256727" lon="9.594006470341728"><ele>67.0</ele><time>2026-04-04T13:34:24.012Z</time></trkpt><trkpt lat="45.03118571152708" lon="9.594143540181367"><ele>67.0</ele><time>2026-04-04T13:34:26.012Z</time></trkpt><trkpt lat="45.03116824816468" lon="9.594276793334236"><ele>67.0</ele><time>2026-04-04T13:34:28.012Z</time></trkpt><trkpt lat="45.0311539023295" lon="9.594414807921392"><ele>67.0</ele><time>2026-04-04T13:34:30.012Z</time></trkpt><trkpt lat="45.03114372926586" lon="9.594540732384546"><ele>67.0</ele><time>2026-04-04T13:34:32.012Z</time></trkpt><trkpt lat="45.0311249313744" lon="9.59466093279524"><ele>67.0</ele><time>2026-04-04T13:34:34.012Z</time></trkpt><trkpt lat="45.031120998080624" lon="9.594784326888975"><ele>67.2</ele><time>2026-04-04T13:34:36.012Z</time></trkpt><trkpt lat="45.031105722037736" lon="9.594916511158212"><ele>67.4</ele><time>2026-04-04T13:34:38.012Z</time></trkpt><trkpt lat="45.03109681449749" lon="9.595048230648867"><ele>67.6</ele><time>2026-04-04T13:34:40.012Z</time></trkpt><trkpt lat="45.03108808819331" lon="9.595191437200732"><ele>67.8</ele><time>2026-04-04T13:34:42.012Z</time></trkpt><trkpt lat="45.03108400458472" lon="9.59532466536905"><ele>68.0</ele><time>2026-04-04T13:34:44.012Z</time></trkpt><trkpt lat="45.03108230906694" lon="9.595456168687264"><ele>68.0</ele><time>2026-04-04T13:34:46.012Z</time></trkpt><trkpt lat="45.03107760230422" lon="9.595598101099453"><ele>68.0</ele><time>2026-04-04T13:34:48.012Z</time></trkpt><trkpt lat="45.03107177036035" lon="9.595753765294406"><ele>68.0</ele><time>2026-04-04T13:34:50.012Z</time></trkpt><trkpt lat="45.03106965307931" lon="9.59590333732541"><ele>68.0</ele><time>2026-04-04T13:34:52.012Z</time></trkpt><trkpt lat="45.031069912137255" lon="9.596059959147262"><ele>68.0</ele><time>2026-04-04T13:34:54.012Z</time></trkpt><trkpt lat="45.03106580643119" lon="9.596212630936515"><ele>67.4</ele><time>2026-04-04T13:34:56.012Z</time></trkpt><trkpt lat="45.031062849107194" lon="9.59635978549486"><ele>66.8</ele><time>2026-04-04T13:34:58.012Z</time></trkpt><trkpt lat="45.03107774898449" lon="9.596509960864864"><ele>66.2</ele><time>2026-04-04T13:35:00.012Z</time></trkpt><trkpt lat="45.03113733623902" lon="9.596632317713308"><ele>65.6</ele><time>2026-04-04T13:35:02.012Z</time></trkpt><trkpt lat="45.0312135606916" lon="9.596701673402006"><ele>65.0</ele><time>2026-04-04T13:35:04.012Z</time></trkpt><trkpt lat="45.03128467425179" lon="9.596760075574087"><ele>65.0</ele><time>2026-04-04T13:35:06.012Z</time></trkpt><trkpt lat="45.03135110583396" lon="9.596833126044626"><ele>65.0</ele><time>2026-04-04T13:35:08.012Z</time></trkpt><trkpt lat="45.0314317510822" lon="9.596913629535054"><ele>65.0</ele><time>2026-04-04T13:35:10.012Z</time></trkpt><trkpt lat="45.03152053255439" lon="9.596990551310924"><ele>65.0</ele><time>2026-04-04T13:35:12.012Z</time></trkpt><trkpt lat="45.03158870565519" lon="9.597045175688072"><ele>65.0</ele><time>2026-04-04T13:35:14.012Z</time></trkpt><trkpt lat="45.031670106512784" lon="9.597060073765698"><ele>65.0</ele><time>2026-04-04T13:35:16.012Z</time></trkpt><trkpt lat="45.03173991224085" lon="9.597037433226847"><ele>65.16666666666667</ele><time>2026-04-04T13:35:18.012Z</time></trkpt><trkpt lat="45.031769449462054" lon="9.596943124118875"><ele>65.33333333333334</ele><time>2026-04-04T13:35:22.012Z</time></trkpt><trkpt lat="45.03174049191813" lon="9.596838550258266"><ele>65.5</ele><time>2026-04-04T13:35:25.012Z</time></trkpt><trkpt lat="45.03172089905228" lon="9.596735517867783"><ele>65.66666666666667</ele><time>2026-04-04T13:35:28.012Z</time></trkpt><trkpt lat="45.03170390112198" lon="9.5966156207137"><ele>65.83333333333333</ele><time>2026-04-04T13:35:31.012Z</time></trkpt><trkpt lat="45.031675468910414" lon="9.59649500355571"><ele>66.0</ele><time>2026-04-04T13:35:34.013Z</time></trkpt><trkpt lat="45.03164859172312" lon="9.596360245970374"><ele>65.83333333333333</ele><time>2026-04-04T13:35:38.013Z</time></trkpt><trkpt lat="45.03162962501913" lon="9.596244285133851"><ele>65.66666666666667</ele><time>2026-04-04T13:35:42.013Z</time></trkpt><trkpt lat="45.031608837664585" lon="9.59613513259022"><ele>65.5</ele><time>2026-04-04T13:35:45.013Z</time></trkpt><trkpt lat="45.031556752798664" lon="9.596046811777088"><ele>65.33333333333334</ele><time>2026-04-04T13:35:48.013Z</time></trkpt><trkpt lat="45.03149541095545" lon="9.596098811563955"><ele>65.16666666666667</ele><time>2026-04-04T13:35:52.013Z</time></trkpt><trkpt lat="45.03149412880159" lon="9.596209844988843"><ele>65.0</ele><time>2026-04-04T13:35:54.013Z</time></trkpt><trkpt lat="45.03149229795267" lon="9.596303552473024"><ele>65.0</ele><time>2026-04-04T13:35:56.013Z</time></trkpt><trkpt lat="45.03147034009243" lon="9.596392389446146"><ele>65.0</ele><time>2026-04-04T13:35:58.013Z</time></trkpt><trkpt lat="45.031413811438696" lon="9.596482183201013"><ele>65.0</ele><time>2026-04-04T13:36:01.013Z</time></trkpt><trkpt lat="45.03139912516145" lon="9.596603867875325"><ele>65.0</ele><time>2026-04-04T13:36:04.013Z</time></trkpt><trkpt lat="45.0314295978384" lon="9.59670732394559"><ele>65.0</ele><time>2026-04-04T13:36:06.013Z</time></trkpt><trkpt lat="45.03144451868977" lon="9.596819122447995"><ele>65.0</ele><time>2026-04-04T13:36:08.013Z</time></trkpt><trkpt lat="45.03144276829131" lon="9.596914757202088"><ele>64.5</ele><time>2026-04-04T13:36:10.012Z</time></trkpt><trkpt lat="45.031428517801686" lon="9.597036384949176"><ele>64.0</ele><time>2026-04-04T13:36:12.012Z</time></trkpt><trkpt lat="45.031428975871464" lon="9.59715320572447"><ele>63.5</ele><time>2026-04-04T13:36:14.012Z</time></trkpt><trkpt lat="45.03141799808993" lon="9.597272758856052"><ele>63.0</ele><time>2026-04-04T13:36:16.012Z</time></trkpt><trkpt lat="45.031411167763416" lon="9.597385206722551"><ele>62.50000000000001</ele><time>2026-04-04T13:36:18.012Z</time></trkpt><trkpt lat="45.03141341931818" lon="9.59750541589234"><ele>62.0</ele><time>2026-04-04T13:36:20.012Z</time></trkpt><trkpt lat="45.031433169592695" lon="9.597631777298307"><ele>62.00000000000001</ele><time>2026-04-04T13:36:22.012Z</time></trkpt><trkpt lat="45.03144889692492" lon="9.59776100143087"><ele>62.0</ele><time>2026-04-04T13:36:24.012Z</time></trkpt><trkpt lat="45.031468555190756" lon="9.597875550764053"><ele>62.0</ele><time>2026-04-04T13:36:26.012Z</time></trkpt><trkpt lat="45.03147436484392" lon="9.597993642805893"><ele>62.0</ele><time>2026-04-04T13:36:28.012Z</time></trkpt><trkpt lat="45.031480827687155" lon="9.598120775410244"><ele>62.00000000000001</ele><time>2026-04-04T13:36:30.012Z</time></trkpt><trkpt lat="45.031491816575986" lon="9.598241580911926"><ele>62.0</ele><time>2026-04-04T13:36:32.012Z</time></trkpt><trkpt lat="45.03150792838367" lon="9.59835305220081"><ele>62.0</ele><time>2026-04-04T13:36:34.012Z</time></trkpt><trkpt lat="45.031512407413175" lon="9.598465932118748"><ele>62.0</ele><time>2026-04-04T13:36:36.012Z</time></trkpt><trkpt lat="45.0315140366484" lon="9.598598135909478"><ele>62.0</ele><time>2026-04-04T13:36:38.012Z</time></trkpt><trkpt lat="45.03150234251787" lon="9.598720548951851"><ele>62.0</ele><time>2026-04-04T13:36:40.012Z</time></trkpt><trkpt lat="45.03148436573978" lon="9.598853129339894"><ele>62.0</ele><time>2026-04-04T13:36:42.012Z</time></trkpt><trkpt lat="45.03147581046904" lon="9.598986179533531"><ele>62.16666666666667</ele><time>2026-04-04T13:36:44.012Z</time></trkpt><trkpt lat="45.031474841985904" lon="9.59911549003784"><ele>62.333333333333336</ele><time>2026-04-04T13:36:46.012Z</time></trkpt><trkpt lat="45.03146932122458" lon="9.599251443378705"><ele>62.5</ele><time>2026-04-04T13:36:48.012Z</time></trkpt><trkpt lat="45.031480462213565" lon="9.599344951429725"><ele>62.66666666666667</ele><time>2026-04-04T13:36:50.012Z</time></trkpt><trkpt lat="45.03148317591344" lon="9.599435726689524"><ele>62.833333333333336</ele><time>2026-04-04T13:36:51.012Z</time></trkpt><trkpt lat="45.03148656123882" lon="9.599539492305475"><ele>63.0</ele><time>2026-04-04T13:36:53.012Z</time></trkpt><trkpt lat="45.03149163495281" lon="9.599649683273897"><ele>63.2</ele><time>2026-04-04T13:36:55.012Z</time></trkpt><trkpt lat="45.03147276302803" lon="9.599791960353695"><ele>63.4</ele><time>2026-04-04T13:36:57.012Z</time></trkpt><trkpt lat="45.03147123113108" lon="9.599922002655934"><ele>63.60000000000001</ele><time>2026-04-04T13:36:59.012Z</time></trkpt><trkpt lat="45.03146715306056" lon="9.60006663545664"><ele>63.800000000000004</ele><time>2026-04-04T13:37:01.012Z</time></trkpt><trkpt lat="45.031454246977226" lon="9.600193451252615"><ele>64.0</ele><time>2026-04-04T13:37:03.012Z</time></trkpt><trkpt lat="45.03145015002316" lon="9.600316881921144"><ele>64.16666666666666</ele><time>2026-04-04T13:37:05.012Z</time></trkpt><trkpt lat="45.03143957801199" lon="9.600451107212598"><ele>64.33333333333333</ele><time>2026-04-04T13:37:07.012Z</time></trkpt><trkpt lat="45.03144687753217" lon="9.600575274110588"><ele>64.5</ele><time>2026-04-04T13:37:09.012Z</time></trkpt><trkpt lat="45.03143289084434" lon="9.600685186525698"><ele>64.66666666666667</ele><time>2026-04-04T13:37:11.012Z</time></trkpt><trkpt lat="45.03144394817624" lon="9.60078391768346"><ele>64.83333333333334</ele><time>2026-04-04T13:37:13.012Z</time></trkpt><trkpt lat="45.03143440963169" lon="9.600891056850841"><ele>65.0</ele><time>2026-04-04T13:37:15.012Z</time></trkpt><trkpt lat="45.031436410794846" lon="9.600987590443387"><ele>65.0</ele><time>2026-04-04T13:37:17.012Z</time></trkpt><trkpt lat="45.031439297639444" lon="9.601111042579161"><ele>65.0</ele><time>2026-04-04T13:37:19.012Z</time></trkpt><trkpt lat="45.031419529539775" lon="9.601251346093425"><ele>65.0</ele><time>2026-04-04T13:37:21.012Z</time></trkpt><trkpt lat="45.031429702169916" lon="9.601373703121133"><ele>65.0</ele><time>2026-04-04T13:37:23.012Z</time></trkpt><trkpt lat="45.031428797619256" lon="9.601499414572968"><ele>65.0</ele><time>2026-04-04T13:37:25.012Z</time></trkpt><trkpt lat="45.031433406740945" lon="9.601637774520535"><ele>65.00000000000001</ele><time>2026-04-04T13:37:27.012Z</time></trkpt><trkpt lat="45.03142104027693" lon="9.601750799097623"><ele>65.0</ele><time>2026-04-04T13:37:29.012Z</time></trkpt><trkpt lat="45.03142983311561" lon="9.601839312078148"><ele>65.0</ele><time>2026-04-04T13:37:31.012Z</time></trkpt><trkpt lat="45.03142797158671" lon="9.601939031405076"><ele>65.0</ele><time>2026-04-04T13:37:33.012Z</time></trkpt><trkpt lat="45.0314359337055" lon="9.602041786232375"><ele>65.0</ele><time>2026-04-04T13:37:35.012Z</time></trkpt><trkpt lat="45.03143537574805" lon="9.602137148132142"><ele>65.00000000000001</ele><time>2026-04-04T13:37:37.012Z</time></trkpt><trkpt lat="45.031439204830626" lon="9.60226392227247"><ele>65.0</ele><time>2026-04-04T13:37:39.012Z</time></trkpt><trkpt lat="45.03143172274566" lon="9.602384158882357"><ele>65.2</ele><time>2026-04-04T13:37:41.012Z</time></trkpt><trkpt lat="45.0314421308815" lon="9.60249632967139"><ele>65.4</ele><time>2026-04-04T13:37:43.012Z</time></trkpt><trkpt lat="45.03144704441544" lon="9.60262269371122"><ele>65.6</ele><time>2026-04-04T13:37:45.012Z</time></trkpt><trkpt lat="45.03143212041476" lon="9.602791939463108"><ele>65.8</ele><time>2026-04-04T13:37:48.012Z</time></trkpt><trkpt lat="45.0314295241782" lon="9.6029121736877"><ele>66.0</ele><time>2026-04-04T13:37:50.012Z</time></trkpt><trkpt lat="45.031434450186154" lon="9.603031909548013"><ele>66.0</ele><time>2026-04-04T13:37:52.012Z</time></trkpt><trkpt lat="45.031436629006286" lon="9.603158782749803"><ele>66.0</ele><time>2026-04-04T13:37:54.012Z</time></trkpt><trkpt lat="45.031438499417725" lon="9.603248109359134"><ele>66.0</ele><time>2026-04-04T13:37:56.012Z</time></trkpt><trkpt lat="45.03143135372186" lon="9.603343203124211"><ele>66.0</ele><time>2026-04-04T13:37:57.012Z</time></trkpt><trkpt lat="45.03142953881373" lon="9.603489529564708"><ele>66.0</ele><time>2026-04-04T13:37:59.012Z</time></trkpt><trkpt lat="45.0314354092892" lon="9.603615568077469"><ele>66.0</ele><time>2026-04-04T13:38:01.012Z</time></trkpt><trkpt lat="45.03144031906709" lon="9.60374375875779"><ele>66.16666666666667</ele><time>2026-04-04T13:38:03.012Z</time></trkpt><trkpt lat="45.0314422350697" lon="9.603911563463557"><ele>66.33333333333333</ele><time>2026-04-04T13:38:06.012Z</time></trkpt><trkpt lat="45.031448608922204" lon="9.604021852299"><ele>66.5</ele><time>2026-04-04T13:38:08.012Z</time></trkpt><trkpt lat="45.03145176766903" lon="9.604131683057258"><ele>66.66666666666666</ele><time>2026-04-04T13:38:10.012Z</time></trkpt><trkpt lat="45.03145799764567" lon="9.604234086565492"><ele>66.83333333333333</ele><time>2026-04-04T13:38:12.012Z</time></trkpt><trkpt lat="45.03145980760092" lon="9.604338275440776"><ele>67.0</ele><time>2026-04-04T13:38:14.012Z</time></trkpt><trkpt lat="45.031444266069634" lon="9.604435916920067"><ele>67.0</ele><time>2026-04-04T13:38:16.013Z</time></trkpt><trkpt lat="45.03145914130344" lon="9.604547133838931"><ele>67.0</ele><time>2026-04-04T13:38:18.012Z</time></trkpt><trkpt lat="45.031486935051575" lon="9.604667644121408"><ele>67.0</ele><time>2026-04-04T13:38:20.013Z</time></trkpt><trkpt lat="45.03153003632561" lon="9.604789211058524"><ele>67.0</ele><time>2026-04-04T13:38:22.012Z</time></trkpt><trkpt lat="45.031553283719326" lon="9.604922993034439"><ele>67.0</ele><time>2026-04-04T13:38:24.012Z</time></trkpt><trkpt lat="45.031536133351864" lon="9.605060171281137"><ele>67.0</ele><time>2026-04-04T13:38:26.013Z</time></trkpt><trkpt lat="45.031532189871285" lon="9.605206503157074"><ele>67.0</ele><time>2026-04-04T13:38:28.012Z</time></trkpt><trkpt lat="45.031528368582464" lon="9.605351475135725"><ele>67.0</ele><time>2026-04-04T13:38:30.012Z</time></trkpt><trkpt lat="45.03152732609855" lon="9.605496866834118"><ele>67.0</ele><time>2026-04-04T13:38:32.012Z</time></trkpt><trkpt lat="45.031528103529695" lon="9.605642819690214"><ele>67.0</ele><time>2026-04-04T13:38:34.012Z</time></trkpt><trkpt lat="45.031517279153356" lon="9.605790144140816"><ele>67.2</ele><time>2026-04-04T13:38:36.012Z</time></trkpt><trkpt lat="45.031524817930446" lon="9.605934117574982"><ele>67.4</ele><time>2026-04-04T13:38:38.012Z</time></trkpt><trkpt lat="45.03151689837488" lon="9.606072379059212"><ele>67.6</ele><time>2026-04-04T13:38:40.012Z</time></trkpt><trkpt lat="45.03151656598204" lon="9.606206284618303"><ele>67.8</ele><time>2026-04-04T13:38:42.012Z</time></trkpt><trkpt lat="45.03151743311048" lon="9.606340841845775"><ele>68.0</ele><time>2026-04-04T13:38:44.012Z</time></trkpt><trkpt lat="45.03151431947915" lon="9.606461838323142"><ele>67.8</ele><time>2026-04-04T13:38:46.012Z</time></trkpt><trkpt lat="45.031514655050174" lon="9.606599604312859"><ele>67.6</ele><time>2026-04-04T13:38:48.012Z</time></trkpt><trkpt lat="45.03151614450945" lon="9.606732226319355"><ele>67.4</ele><time>2026-04-04T13:38:50.01Z</time></trkpt><trkpt lat="45.03151559148666" lon="9.606853319878885"><ele>67.2</ele><time>2026-04-04T13:38:52.009Z</time></trkpt><trkpt lat="45.03151317683976" lon="9.606979869386132"><ele>67.0</ele><time>2026-04-04T13:38:54.007Z</time></trkpt><trkpt lat="45.03151103285049" lon="9.607111084377406"><ele>67.0</ele><time>2026-04-04T13:38:56.006Z</time></trkpt><trkpt lat="45.031507602771754" lon="9.607236796269094"><ele>67.0</ele><time>2026-04-04T13:38:58.005Z</time></trkpt><trkpt lat="45.03150950511305" lon="9.607362012425002"><ele>67.0</ele><time>2026-04-04T13:39:00.004Z</time></trkpt><trkpt lat="45.031508671350714" lon="9.607495323671987"><ele>67.0</ele><time>2026-04-04T13:39:02.004Z</time></trkpt><trkpt lat="45.031504130450436" lon="9.607620333488846"><ele>67.0</ele><time>2026-04-04T13:39:04.003Z</time></trkpt><trkpt lat="45.03149935055141" lon="9.60774734287524"><ele>67.16666666666666</ele><time>2026-04-04T13:39:06.002Z</time></trkpt><trkpt lat="45.03149479876545" lon="9.607868468856255"><ele>67.33333333333333</ele><time>2026-04-04T13:39:08.002Z</time></trkpt><trkpt lat="45.03149713255499" lon="9.607989434581057"><ele>67.5</ele><time>2026-04-04T13:39:10.001Z</time></trkpt><trkpt lat="45.031490122959895" lon="9.608105773437359"><ele>67.66666666666667</ele><time>2026-04-04T13:39:12.001Z</time></trkpt><trkpt lat="45.031488165769844" lon="9.608226025730485"><ele>67.83333333333334</ele><time>2026-04-04T13:39:14Z</time></trkpt><trkpt lat="45.03148615896331" lon="9.608348274167124"><ele>68.0</ele><time>2026-04-04T13:39:16Z</time></trkpt><trkpt lat="45.03148645777027" lon="9.608465398322142"><ele>68.0</ele><time>2026-04-04T13:39:18Z</time></trkpt><trkpt lat="45.03149276072955" lon="9.608585807658883"><ele>68.0</ele><time>2026-04-04T13:39:20Z</time></trkpt><trkpt lat="45.03148571165704" lon="9.608708113529007"><ele>68.0</ele><time>2026-04-04T13:39:21.999Z</time></trkpt><trkpt lat="45.031485426393736" lon="9.608828857146152"><ele>68.0</ele><time>2026-04-04T13:39:23.999Z</time></trkpt><trkpt lat="45.0314999108027" lon="9.608949436356886"><ele>68.0</ele><time>2026-04-04T13:39:25.999Z</time></trkpt><trkpt lat="45.03151268951333" lon="9.609071093794821"><ele>68.0</ele><time>2026-04-04T13:39:27.999Z</time></trkpt><trkpt lat="45.03152799050126" lon="9.60919546381087"><ele>67.83333333333334</ele><time>2026-04-04T13:39:29.999Z</time></trkpt><trkpt lat="45.03154153196958" lon="9.609324139041421"><ele>67.66666666666667</ele><time>2026-04-04T13:39:31.999Z</time></trkpt><trkpt lat="45.03155627332491" lon="9.609440403004633"><ele>67.5</ele><time>2026-04-04T13:39:33.999Z</time></trkpt><trkpt lat="45.03155444596979" lon="9.609566659442123"><ele>67.33333333333333</ele><time>2026-04-04T13:39:35.998Z</time></trkpt><trkpt lat="45.03155710174611" lon="9.609691997819173"><ele>67.16666666666666</ele><time>2026-04-04T13:39:37.998Z</time></trkpt><trkpt lat="45.03155596704975" lon="9.609812977903617"><ele>67.0</ele><time>2026-04-04T13:39:39.998Z</time></trkpt><trkpt lat="45.031557292295936" lon="9.609941631287882"><ele>66.8</ele><time>2026-04-04T13:39:41.998Z</time></trkpt><trkpt lat="45.03155705717323" lon="9.610073475710001"><ele>66.6</ele><time>2026-04-04T13:39:43.998Z</time></trkpt><trkpt lat="45.03155410409233" lon="9.610209883176982"><ele>66.39999999999999</ele><time>2026-04-04T13:39:45.998Z</time></trkpt><trkpt lat="45.03155866925427" lon="9.610348197409596"><ele>66.2</ele><time>2026-04-04T13:39:47.998Z</time></trkpt><trkpt lat="45.0315546313526" lon="9.610484966361923"><ele>66.0</ele><time>2026-04-04T13:39:49.998Z</time></trkpt><trkpt lat="45.0315560631487" lon="9.610625489075977"><ele>66.0</ele><time>2026-04-04T13:39:51.998Z</time></trkpt><trkpt lat="45.031556955687584" lon="9.610763432344866"><ele>66.0</ele><time>2026-04-04T13:39:53.998Z</time></trkpt><trkpt lat="45.0315544458962" lon="9.610905566972146"><ele>66.0</ele><time>2026-04-04T13:39:55.998Z</time></trkpt><trkpt lat="45.03155398727811" lon="9.611047785344988"><ele>66.0</ele><time>2026-04-04T13:39:57.998Z</time></trkpt><trkpt lat="45.03154553878768" lon="9.611190919153698"><ele>66.0</ele><time>2026-04-04T13:39:59.998Z</time></trkpt><trkpt lat="45.03155223261374" lon="9.611328603364633"><ele>66.0</ele><time>2026-04-04T13:40:01.998Z</time></trkpt><trkpt lat="45.03155424602666" lon="9.611467633936751"><ele>66.0</ele><time>2026-04-04T13:40:03.998Z</time></trkpt><trkpt lat="45.031546538854506" lon="9.611603039815625"><ele>66.0</ele><time>2026-04-04T13:40:05.998Z</time></trkpt><trkpt lat="45.03154712526114" lon="9.611739776257396"><ele>66.0</ele><time>2026-04-04T13:40:07.998Z</time></trkpt><trkpt lat="45.031551522175626" lon="9.611877539623176"><ele>66.0</ele><time>2026-04-04T13:40:09.998Z</time></trkpt><trkpt lat="45.031541273683274" lon="9.612013198573317"><ele>66.2</ele><time>2026-04-04T13:40:11.998Z</time></trkpt><trkpt lat="45.03154059129448" lon="9.612149313556463"><ele>66.39999999999999</ele><time>2026-04-04T13:40:13.998Z</time></trkpt><trkpt lat="45.0315383626003" lon="9.612283416762788"><ele>66.6</ele><time>2026-04-04T13:40:15.998Z</time></trkpt><trkpt lat="45.03153696690752" lon="9.612418388406104"><ele>66.8</ele><time>2026-04-04T13:40:17.998Z</time></trkpt><trkpt lat="45.03153958566121" lon="9.612552095171658"><ele>67.0</ele><time>2026-04-04T13:40:19.998Z</time></trkpt><trkpt lat="45.03153945799061" lon="9.61268750954697"><ele>67.0</ele><time>2026-04-04T13:40:21.998Z</time></trkpt><trkpt lat="45.031537558785" lon="9.612818872707559"><ele>67.0</ele><time>2026-04-04T13:40:23.999Z</time></trkpt><trkpt lat="45.0315413129432" lon="9.612950530797574"><ele>67.0</ele><time>2026-04-04T13:40:25.998Z</time></trkpt><trkpt lat="45.03154073028296" lon="9.613081300913604"><ele>67.0</ele><time>2026-04-04T13:40:27.998Z</time></trkpt><trkpt lat="45.03154144387387" lon="9.61320967549231"><ele>67.0</ele><time>2026-04-04T13:40:29.998Z</time></trkpt><trkpt lat="45.03154148806175" lon="9.613341372457628"><ele>67.0</ele><time>2026-04-04T13:40:31.999Z</time></trkpt><trkpt lat="45.03153673575714" lon="9.613469875322068"><ele>67.0</ele><time>2026-04-04T13:40:33.998Z</time></trkpt><trkpt lat="45.03154013416315" lon="9.613605147873514"><ele>67.0</ele><time>2026-04-04T13:40:35.998Z</time></trkpt><trkpt lat="45.03154194047189" lon="9.613729323530658"><ele>67.0</ele><time>2026-04-04T13:40:37.998Z</time></trkpt><trkpt lat="45.03154481055283" lon="9.613864608274968"><ele>67.0</ele><time>2026-04-04T13:40:39.998Z</time></trkpt><trkpt lat="45.03154835738638" lon="9.614000542751588"><ele>67.0</ele><time>2026-04-04T13:40:41.998Z</time></trkpt><trkpt lat="45.03155088685364" lon="9.614141273460312"><ele>67.0</ele><time>2026-04-04T13:40:43.998Z</time></trkpt><trkpt lat="45.031547507944204" lon="9.614275268255208"><ele>67.0</ele><time>2026-04-04T13:40:45.998Z</time></trkpt><trkpt lat="45.0315470541993" lon="9.61441743713138"><ele>67.0</ele><time>2026-04-04T13:40:47.998Z</time></trkpt><trkpt lat="45.03154667927363" lon="9.614546517974278"><ele>67.0</ele><time>2026-04-04T13:40:49.998Z</time></trkpt><trkpt lat="45.03155496977845" lon="9.614678246861487"><ele>66.8</ele><time>2026-04-04T13:40:51.998Z</time></trkpt><trkpt lat="45.031554661165764" lon="9.614812188706072"><ele>66.6</ele><time>2026-04-04T13:40:53.998Z</time></trkpt><trkpt lat="45.03155715628675" lon="9.614940816848083"><ele>66.39999999999999</ele><time>2026-04-04T13:40:55.998Z</time></trkpt><trkpt lat="45.03156656956075" lon="9.615082255997137"><ele>66.2</ele><time>2026-04-04T13:40:57.998Z</time></trkpt><trkpt lat="45.031564738867004" lon="9.61521831284872"><ele>66.0</ele><time>2026-04-04T13:40:59.998Z</time></trkpt><trkpt lat="45.03157315105556" lon="9.615344101200426"><ele>66.0</ele><time>2026-04-04T13:41:01.998Z</time></trkpt><trkpt lat="45.03156652597335" lon="9.615483380974045"><ele>66.0</ele><time>2026-04-04T13:41:03.998Z</time></trkpt><trkpt lat="45.03156655175507" lon="9.615622336182103"><ele>66.0</ele><time>2026-04-04T13:41:05.998Z</time></trkpt><trkpt lat="45.03156305507502" lon="9.615763016517281"><ele>66.0</ele><time>2026-04-04T13:41:07.998Z</time></trkpt><trkpt lat="45.03156860364043" lon="9.61589845463739"><ele>66.0</ele><time>2026-04-04T13:41:09.998Z</time></trkpt><trkpt lat="45.031565628660324" lon="9.616034858822227"><ele>65.8</ele><time>2026-04-04T13:41:11.998Z</time></trkpt><trkpt lat="45.03156090258971" lon="9.616169433187853"><ele>65.6</ele><time>2026-04-04T13:41:13.998Z</time></trkpt><trkpt lat="45.03156271669297" lon="9.616307904217749"><ele>65.4</ele><time>2026-04-04T13:41:15.998Z</time></trkpt><trkpt lat="45.03155872369143" lon="9.61644134652373"><ele>65.2</ele><time>2026-04-04T13:41:17.998Z</time></trkpt><trkpt lat="45.0315596169536" lon="9.616573799525757"><ele>65.0</ele><time>2026-04-04T13:41:19.998Z</time></trkpt><trkpt lat="45.03156237593882" lon="9.61670274918195"><ele>65.0</ele><time>2026-04-04T13:41:21.998Z</time></trkpt><trkpt lat="45.03155881758558" lon="9.616838764192511"><ele>65.0</ele><time>2026-04-04T13:41:23.998Z</time></trkpt><trkpt lat="45.031558134158054" lon="9.616973178628042"><ele>65.0</ele><time>2026-04-04T13:41:25.998Z</time></trkpt><trkpt lat="45.03155715548735" lon="9.617106864834103"><ele>65.0</ele><time>2026-04-04T13:41:27.998Z</time></trkpt><trkpt lat="45.0315555186676" lon="9.617244108049215"><ele>65.0</ele><time>2026-04-04T13:41:29.998Z</time></trkpt><trkpt lat="45.03155701307333" lon="9.61738116930636"><ele>65.2</ele><time>2026-04-04T13:41:31.998Z</time></trkpt><trkpt lat="45.031557520202604" lon="9.617520392513798"><ele>65.4</ele><time>2026-04-04T13:41:33.998Z</time></trkpt><trkpt lat="45.03155500146806" lon="9.6176613848134"><ele>65.6</ele><time>2026-04-04T13:41:35.998Z</time></trkpt><trkpt lat="45.03155846898742" lon="9.617801695088987"><ele>65.8</ele><time>2026-04-04T13:41:37.998Z</time></trkpt><trkpt lat="45.0315584701047" lon="9.61793468801003"><ele>66.0</ele><time>2026-04-04T13:41:39.998Z</time></trkpt><trkpt lat="45.031559243220066" lon="9.618070551444719"><ele>66.0</ele><time>2026-04-04T13:41:41.998Z</time></trkpt><trkpt lat="45.031559633791694" lon="9.618209575338469"><ele>66.0</ele><time>2026-04-04T13:41:43.998Z</time></trkpt><trkpt lat="45.03155755164553" lon="9.618341870933765"><ele>66.0</ele><time>2026-04-04T13:41:45.998Z</time></trkpt><trkpt lat="45.03156031451343" lon="9.618481535190007"><ele>66.0</ele><time>2026-04-04T13:41:47.998Z</time></trkpt><trkpt lat="45.03156025853553" lon="9.61861488151397"><ele>66.0</ele><time>2026-04-04T13:41:49.998Z</time></trkpt><trkpt lat="45.031555798252626" lon="9.618747014801725"><ele>65.8</ele><time>2026-04-04T13:41:51.998Z</time></trkpt><trkpt lat="45.03155510799557" lon="9.618881989713838"><ele>65.6</ele><time>2026-04-04T13:41:53.998Z</time></trkpt><trkpt lat="45.031556554016554" lon="9.619013849670715"><ele>65.4</ele><time>2026-04-04T13:41:55.998Z</time></trkpt><trkpt lat="45.03155536715546" lon="9.61914297678796"><ele>65.2</ele><time>2026-04-04T13:41:57.998Z</time></trkpt><trkpt lat="45.031557111634044" lon="9.619274285213814"><ele>65.0</ele><time>2026-04-04T13:41:59.998Z</time></trkpt><trkpt lat="45.03155842170833" lon="9.619404078609824"><ele>65.16666666666667</ele><time>2026-04-04T13:42:01.998Z</time></trkpt><trkpt lat="45.031553196237105" lon="9.619534628033469"><ele>65.33333333333334</ele><time>2026-04-04T13:42:03.998Z</time></trkpt><trkpt lat="45.03155229940621" lon="9.619661441495591"><ele>65.5</ele><time>2026-04-04T13:42:05.998Z</time></trkpt><trkpt lat="45.03154967902058" lon="9.619783391173273"><ele>65.66666666666667</ele><time>2026-04-04T13:42:07.998Z</time></trkpt><trkpt lat="45.031548575992105" lon="9.619910682720878"><ele>65.83333333333333</ele><time>2026-04-04T13:42:09.998Z</time></trkpt><trkpt lat="45.03154946454714" lon="9.620036402678258"><ele>66.0</ele><time>2026-04-04T13:42:11.998Z</time></trkpt><trkpt lat="45.0315492656911" lon="9.620162367284664"><ele>66.0</ele><time>2026-04-04T13:42:13.998Z</time></trkpt><trkpt lat="45.03154815618079" lon="9.620289196848141"><ele>66.0</ele><time>2026-04-04T13:42:15.998Z</time></trkpt><trkpt lat="45.031547364509294" lon="9.620415915016945"><ele>66.0</ele><time>2026-04-04T13:42:17.998Z</time></trkpt><trkpt lat="45.03154640194197" lon="9.620541560351297"><ele>66.0</ele><time>2026-04-04T13:42:19.998Z</time></trkpt><trkpt lat="45.03154482507015" lon="9.62066443394504"><ele>66.0</ele><time>2026-04-04T13:42:21.998Z</time></trkpt><trkpt lat="45.0315457809849" lon="9.620782356558609"><ele>66.0</ele><time>2026-04-04T13:42:23.998Z</time></trkpt><trkpt lat="45.03154844627948" lon="9.620906187005705"><ele>66.5</ele><time>2026-04-04T13:42:25.998Z</time></trkpt><trkpt lat="45.031549259256785" lon="9.621027804452526"><ele>67.0</ele><time>2026-04-04T13:42:27.998Z</time></trkpt><trkpt lat="45.0315477963314" lon="9.621154659411873"><ele>67.5</ele><time>2026-04-04T13:42:29.998Z</time></trkpt><trkpt lat="45.03154400072006" lon="9.621273176629312"><ele>68.0</ele><time>2026-04-04T13:42:31.998Z</time></trkpt><trkpt lat="45.03154457191395" lon="9.621397141145307"><ele>68.5</ele><time>2026-04-04T13:42:33.998Z</time></trkpt><trkpt lat="45.03154469386596" lon="9.621524233815732"><ele>69.0</ele><time>2026-04-04T13:42:35.998Z</time></trkpt><trkpt lat="45.03154457481007" lon="9.621649248603115"><ele>69.0</ele><time>2026-04-04T13:42:37.998Z</time></trkpt><trkpt lat="45.03154218010302" lon="9.621773992462927"><ele>69.0</ele><time>2026-04-04T13:42:39.997Z</time></trkpt><trkpt lat="45.03154357238392" lon="9.621895214124864"><ele>69.0</ele><time>2026-04-04T13:42:41.997Z</time></trkpt><trkpt lat="45.031543281617836" lon="9.622012311203292"><ele>69.0</ele><time>2026-04-04T13:42:43.997Z</time></trkpt><trkpt lat="45.03154814798921" lon="9.622129161985576"><ele>69.0</ele><time>2026-04-04T13:42:45.997Z</time></trkpt><trkpt lat="45.03155136387535" lon="9.622240540017064"><ele>69.0</ele><time>2026-04-04T13:42:47.997Z</time></trkpt><trkpt lat="45.03154783812532" lon="9.622358863192092"><ele>69.0</ele><time>2026-04-04T13:42:49.997Z</time></trkpt><trkpt lat="45.031551708974504" lon="9.622481935743906"><ele>69.0</ele><time>2026-04-04T13:42:51.997Z</time></trkpt><trkpt lat="45.03155555186959" lon="9.622611617374709"><ele>69.0</ele><time>2026-04-04T13:42:53.997Z</time></trkpt><trkpt lat="45.031554096914235" lon="9.622747937207162"><ele>69.0</ele><time>2026-04-04T13:42:55.997Z</time></trkpt><trkpt lat="45.03155610740055" lon="9.6228877488164"><ele>69.0</ele><time>2026-04-04T13:42:57.997Z</time></trkpt><trkpt lat="45.031556159796025" lon="9.623021333012385"><ele>69.0</ele><time>2026-04-04T13:42:59.997Z</time></trkpt><trkpt lat="45.03156071253535" lon="9.623150143058192"><ele>69.0</ele><time>2026-04-04T13:43:01.997Z</time></trkpt><trkpt lat="45.03156074027591" lon="9.623295643234052"><ele>69.0</ele><time>2026-04-04T13:43:03.997Z</time></trkpt><trkpt lat="45.031562843727166" lon="9.623430713538575"><ele>69.0</ele><time>2026-04-04T13:43:05.997Z</time></trkpt><trkpt lat="45.03156909629938" lon="9.62355682925704"><ele>69.0</ele><time>2026-04-04T13:43:07.997Z</time></trkpt><trkpt lat="45.03156957912895" lon="9.623684196053551"><ele>68.8</ele><time>2026-04-04T13:43:09.997Z</time></trkpt><trkpt lat="45.03157265451019" lon="9.623811415106749"><ele>68.60000000000001</ele><time>2026-04-04T13:43:11.997Z</time></trkpt><trkpt lat="45.03157802242347" lon="9.623936603203012"><ele>68.4</ele><time>2026-04-04T13:43:13.997Z</time></trkpt><trkpt lat="45.031581612215334" lon="9.624071142281467"><ele>68.2</ele><time>2026-04-04T13:43:15.997Z</time></trkpt><trkpt lat="45.031588739888456" lon="9.624205615162964"><ele>68.0</ele><time>2026-04-04T13:43:17.997Z</time></trkpt><trkpt lat="45.03159746134372" lon="9.62433415181664"><ele>68.0</ele><time>2026-04-04T13:43:19.997Z</time></trkpt><trkpt lat="45.031608363935824" lon="9.624468753428173"><ele>68.0</ele><time>2026-04-04T13:43:21.997Z</time></trkpt><trkpt lat="45.03161329659282" lon="9.624600636115796"><ele>68.0</ele><time>2026-04-04T13:43:23.997Z</time></trkpt><trkpt lat="45.03162383791501" lon="9.624719409405474"><ele>68.0</ele><time>2026-04-04T13:43:25.997Z</time></trkpt><trkpt lat="45.031631213673045" lon="9.624848823314736"><ele>68.0</ele><time>2026-04-04T13:43:27.997Z</time></trkpt><trkpt lat="45.03164730586366" lon="9.62498127760559"><ele>67.8</ele><time>2026-04-04T13:43:29.997Z</time></trkpt><trkpt lat="45.03165399888477" lon="9.62511351467201"><ele>67.6</ele><time>2026-04-04T13:43:31.997Z</time></trkpt><trkpt lat="45.031665220904486" lon="9.625247367385713"><ele>67.4</ele><time>2026-04-04T13:43:33.997Z</time></trkpt><trkpt lat="45.03167907771137" lon="9.625374863408373"><ele>67.2</ele><time>2026-04-04T13:43:35.997Z</time></trkpt><trkpt lat="45.03169894311269" lon="9.625519529446303"><ele>67.0</ele><time>2026-04-04T13:43:37.997Z</time></trkpt><trkpt lat="45.03171992716622" lon="9.625638439650649"><ele>66.8</ele><time>2026-04-04T13:43:39.997Z</time></trkpt><trkpt lat="45.031755372782804" lon="9.625762439231078"><ele>66.6</ele><time>2026-04-04T13:43:41.997Z</time></trkpt><trkpt lat="45.031800604013256" lon="9.625895298686313"><ele>66.39999999999999</ele><time>2026-04-04T13:43:43.997Z</time></trkpt><trkpt lat="45.03185582111089" lon="9.626007729955672"><ele>66.2</ele><time>2026-04-04T13:43:45.997Z</time></trkpt><trkpt lat="45.03190644723865" lon="9.626122636404641"><ele>66.0</ele><time>2026-04-04T13:43:47.997Z</time></trkpt><trkpt lat="45.031952598974456" lon="9.626248232902823"><ele>66.0</ele><time>2026-04-04T13:43:49.997Z</time></trkpt><trkpt lat="45.03197201743036" lon="9.626379009135428"><ele>66.0</ele><time>2026-04-04T13:43:51.997Z</time></trkpt><trkpt lat="45.03198410704623" lon="9.6265042976017"><ele>66.0</ele><time>2026-04-04T13:43:53.997Z</time></trkpt><trkpt lat="45.03199735171718" lon="9.626637090072519"><ele>66.0</ele><time>2026-04-04T13:43:55.997Z</time></trkpt><trkpt lat="45.03200445996755" lon="9.62677240954089"><ele>66.0</ele><time>2026-04-04T13:43:57.997Z</time></trkpt><trkpt lat="45.03200956603193" lon="9.626912473759258"><ele>66.16666666666667</ele><time>2026-04-04T13:43:59.997Z</time></trkpt><trkpt lat="45.032005522314456" lon="9.627035712171283"><ele>66.33333333333333</ele><time>2026-04-04T13:44:01.997Z</time></trkpt><trkpt lat="45.03199402351946" lon="9.627152239212354"><ele>66.5</ele><time>2026-04-04T13:44:03.997Z</time></trkpt><trkpt lat="45.03197856464291" lon="9.627276677474075"><ele>66.66666666666666</ele><time>2026-04-04T13:44:05.997Z</time></trkpt><trkpt lat="45.031979152561334" lon="9.627409677908078"><ele>66.83333333333333</ele><time>2026-04-04T13:44:07.997Z</time></trkpt><trkpt lat="45.031998243893604" lon="9.627532892556138"><ele>67.0</ele><time>2026-04-04T13:44:09.997Z</time></trkpt><trkpt lat="45.03202789555018" lon="9.627662333031203"><ele>67.0</ele><time>2026-04-04T13:44:11.997Z</time></trkpt><trkpt lat="45.03206873397318" lon="9.627776124264907"><ele>67.0</ele><time>2026-04-04T13:44:13.997Z</time></trkpt><trkpt lat="45.032109028494986" lon="9.62789123456542"><ele>67.0</ele><time>2026-04-04T13:44:15.997Z</time></trkpt><trkpt lat="45.03214556656589" lon="9.62800798971773"><ele>67.0</ele><time>2026-04-04T13:44:17.997Z</time></trkpt><trkpt lat="45.032186525999116" lon="9.628126294235887"><ele>67.0</ele><time>2026-04-04T13:44:19.997Z</time></trkpt><trkpt lat="45.03222092879758" lon="9.628248052396424"><ele>67.0</ele><time>2026-04-04T13:44:21.997Z</time></trkpt><trkpt lat="45.03226027585534" lon="9.628361379682405"><ele>67.0</ele><time>2026-04-04T13:44:23.997Z</time></trkpt><trkpt lat="45.03231139176138" lon="9.628481876844631"><ele>67.0</ele><time>2026-04-04T13:44:25.997Z</time></trkpt><trkpt lat="45.03234974114669" lon="9.628595401210136"><ele>67.0</ele><time>2026-04-04T13:44:27.997Z</time></trkpt><trkpt lat="45.03239708276544" lon="9.628700960919472"><ele>67.0</ele><time>2026-04-04T13:44:29.997Z</time></trkpt><trkpt lat="45.03244006547218" lon="9.62882380382444"><ele>66.8</ele><time>2026-04-04T13:44:31.997Z</time></trkpt><trkpt lat="45.032479461111436" lon="9.62894872410039"><ele>66.6</ele><time>2026-04-04T13:44:33.997Z</time></trkpt><trkpt lat="45.032526416558284" lon="9.62906204409053"><ele>66.39999999999999</ele><time>2026-04-04T13:44:35.998Z</time></trkpt><trkpt lat="45.032565162439205" lon="9.629180976135848"><ele>66.2</ele><time>2026-04-04T13:44:37.997Z</time></trkpt><trkpt lat="45.03260987617389" lon="9.629312307685284"><ele>66.0</ele><time>2026-04-04T13:44:39.998Z</time></trkpt><trkpt lat="45.03264894190673" lon="9.629429653491746"><ele>66.2</ele><time>2026-04-04T13:44:41.997Z</time></trkpt><trkpt lat="45.03268865341056" lon="9.62954240310779"><ele>66.39999999999999</ele><time>2026-04-04T13:44:43.997Z</time></trkpt><trkpt lat="45.03273154586347" lon="9.629666400814006"><ele>66.6</ele><time>2026-04-04T13:44:45.997Z</time></trkpt><trkpt lat="45.032775697349884" lon="9.629781502277662"><ele>66.8</ele><time>2026-04-04T13:44:47.997Z</time></trkpt><trkpt lat="45.03281640293637" lon="9.629910580208648"><ele>67.0</ele><time>2026-04-04T13:44:49.997Z</time></trkpt><trkpt lat="45.03286763988341" lon="9.630034983723743"><ele>67.0</ele><time>2026-04-04T13:44:51.997Z</time></trkpt><trkpt lat="45.03290601569396" lon="9.630153303750422"><ele>67.0</ele><time>2026-04-04T13:44:53.997Z</time></trkpt><trkpt lat="45.03294531648468" lon="9.630268067966457"><ele>67.0</ele><time>2026-04-04T13:44:55.997Z</time></trkpt><trkpt lat="45.03299161092932" lon="9.630382830341498"><ele>67.0</ele><time>2026-04-04T13:44:57.997Z</time></trkpt><trkpt lat="45.033033807384626" lon="9.630502622464345"><ele>67.0</ele><time>2026-04-04T13:44:59.997Z</time></trkpt><trkpt lat="45.03307479026357" lon="9.630617851445967"><ele>67.0</ele><time>2026-04-04T13:45:01.997Z</time></trkpt><trkpt lat="45.03311804234263" lon="9.630743010433102"><ele>67.0</ele><time>2026-04-04T13:45:03.997Z</time></trkpt><trkpt lat="45.03315449794088" lon="9.630858445211915"><ele>67.0</ele><time>2026-04-04T13:45:05.997Z</time></trkpt><trkpt lat="45.03319570502912" lon="9.630986257363794"><ele>67.0</ele><time>2026-04-04T13:45:07.997Z</time></trkpt><trkpt lat="45.03323589964884" lon="9.63110553863679"><ele>67.0</ele><time>2026-04-04T13:45:09.997Z</time></trkpt><trkpt lat="45.03327580236868" lon="9.631217101666339"><ele>66.8</ele><time>2026-04-04T13:45:11.997Z</time></trkpt><trkpt lat="45.033318406609126" lon="9.631329165228278"><ele>66.6</ele><time>2026-04-04T13:45:13.997Z</time></trkpt><trkpt lat="45.033353670383" lon="9.63145286992563"><ele>66.39999999999999</ele><time>2026-04-04T13:45:15.997Z</time></trkpt><trkpt lat="45.03340191759308" lon="9.631566320804739"><ele>66.2</ele><time>2026-04-04T13:45:17.997Z</time></trkpt><trkpt lat="45.03343912377472" lon="9.631688785598756"><ele>66.0</ele><time>2026-04-04T13:45:19.997Z</time></trkpt><trkpt lat="45.033481726021115" lon="9.631809044250131"><ele>66.0</ele><time>2026-04-04T13:45:21.997Z</time></trkpt><trkpt lat="45.033524459744136" lon="9.631929541253117"><ele>66.0</ele><time>2026-04-04T13:45:23.997Z</time></trkpt><trkpt lat="45.03357145746547" lon="9.632041983847923"><ele>66.0</ele><time>2026-04-04T13:45:25.997Z</time></trkpt><trkpt lat="45.0336089201359" lon="9.632152997646328"><ele>66.0</ele><time>2026-04-04T13:45:27.997Z</time></trkpt><trkpt lat="45.0336583258524" lon="9.632276527572069"><ele>66.0</ele><time>2026-04-04T13:45:29.997Z</time></trkpt><trkpt lat="45.03369134403582" lon="9.632392955610415"><ele>66.0</ele><time>2026-04-04T13:45:31.997Z</time></trkpt><trkpt lat="45.033739509160995" lon="9.632519111006763"><ele>66.0</ele><time>2026-04-04T13:45:33.997Z</time></trkpt><trkpt lat="45.03378279626485" lon="9.632641934151248"><ele>66.0</ele><time>2026-04-04T13:45:35.997Z</time></trkpt><trkpt lat="45.03381989196209" lon="9.632752898650416"><ele>66.0</ele><time>2026-04-04T13:45:37.997Z</time></trkpt><trkpt lat="45.03386397290117" lon="9.632873361262714"><ele>66.0</ele><time>2026-04-04T13:45:39.997Z</time></trkpt><trkpt lat="45.03390627203156" lon="9.632988626289356"><ele>65.8</ele><time>2026-04-04T13:45:41.997Z</time></trkpt><trkpt lat="45.033949594624495" lon="9.633099363409608"><ele>65.6</ele><time>2026-04-04T13:45:43.997Z</time></trkpt><trkpt lat="45.03399186385546" lon="9.63322019697481"><ele>65.4</ele><time>2026-04-04T13:45:45.997Z</time></trkpt><trkpt lat="45.03403200179481" lon="9.633337678864471"><ele>65.2</ele><time>2026-04-04T13:45:47.997Z</time></trkpt><trkpt lat="45.03407356032888" lon="9.633461022000636"><ele>65.0</ele><time>2026-04-04T13:45:49.997Z</time></trkpt><trkpt lat="45.03412157288751" lon="9.63357350818765"><ele>65.2</ele><time>2026-04-04T13:45:51.997Z</time></trkpt><trkpt lat="45.034160997527536" lon="9.633692221821441"><ele>65.4</ele><time>2026-04-04T13:45:53.997Z</time></trkpt><trkpt lat="45.034206997826885" lon="9.633813922436648"><ele>65.6</ele><time>2026-04-04T13:45:55.997Z</time></trkpt><trkpt lat="45.03424608863166" lon="9.63393227233763"><ele>65.8</ele><time>2026-04-04T13:45:57.997Z</time></trkpt><trkpt lat="45.034288363835884" lon="9.634047668240326"><ele>66.0</ele><time>2026-04-04T13:45:59.997Z</time></trkpt><trkpt lat="45.034329703450325" lon="9.634179523149786"><ele>66.0</ele><time>2026-04-04T13:46:01.997Z</time></trkpt><trkpt lat="45.034373563143085" lon="9.634297732271584"><ele>66.0</ele><time>2026-04-04T13:46:03.997Z</time></trkpt><trkpt lat="45.034418979664856" lon="9.63442778875894"><ele>66.0</ele><time>2026-04-04T13:46:05.997Z</time></trkpt><trkpt lat="45.03446730918912" lon="9.634549759432373"><ele>66.0</ele><time>2026-04-04T13:46:07.997Z</time></trkpt><trkpt lat="45.034506704391084" lon="9.634683615860684"><ele>66.0</ele><time>2026-04-04T13:46:09.997Z</time></trkpt><trkpt lat="45.03455096337618" lon="9.63480213996386"><ele>66.0</ele><time>2026-04-04T13:46:11.997Z</time></trkpt><trkpt lat="45.034595371284254" lon="9.634917215402174"><ele>66.0</ele><time>2026-04-04T13:46:13.997Z</time></trkpt><trkpt lat="45.034630299688835" lon="9.635027727868453"><ele>66.0</ele><time>2026-04-04T13:46:15.997Z</time></trkpt><trkpt lat="45.03466171359775" lon="9.6351311824607"><ele>66.0</ele><time>2026-04-04T13:46:17.997Z</time></trkpt><trkpt lat="45.03470400316248" lon="9.635230907150842"><ele>66.0</ele><time>2026-04-04T13:46:19.997Z</time></trkpt><trkpt lat="45.03474171925931" lon="9.635337854979444"><ele>66.0</ele><time>2026-04-04T13:46:21.997Z</time></trkpt><trkpt lat="45.034788123055385" lon="9.635445079461391"><ele>66.0</ele><time>2026-04-04T13:46:23.997Z</time></trkpt><trkpt lat="45.034821427926" lon="9.635556731505627"><ele>66.0</ele><time>2026-04-04T13:46:25.997Z</time></trkpt><trkpt lat="45.03486572955843" lon="9.635674730405604"><ele>66.0</ele><time>2026-04-04T13:46:27.997Z</time></trkpt><trkpt lat="45.03490639358301" lon="9.635792574638854"><ele>66.0</ele><time>2026-04-04T13:46:29.997Z</time></trkpt><trkpt lat="45.03495355636983" lon="9.635911516831516"><ele>66.0</ele><time>2026-04-04T13:46:31.997Z</time></trkpt><trkpt lat="45.03498680710528" lon="9.636027693345442"><ele>66.16666666666667</ele><time>2026-04-04T13:46:33.997Z</time></trkpt><trkpt lat="45.03502651706311" lon="9.636137528904444"><ele>66.33333333333333</ele><time>2026-04-04T13:46:35.997Z</time></trkpt><trkpt lat="45.03507529440468" lon="9.63624293301485"><ele>66.5</ele><time>2026-04-04T13:46:37.997Z</time></trkpt><trkpt lat="45.0351113182478" lon="9.636350125176032"><ele>66.66666666666666</ele><time>2026-04-04T13:46:39.997Z</time></trkpt><trkpt lat="45.03515501816387" lon="9.636467854607497"><ele>66.83333333333333</ele><time>2026-04-04T13:46:41.997Z</time></trkpt><trkpt lat="45.035193687730725" lon="9.63658329517617"><ele>67.0</ele><time>2026-04-04T13:46:43.997Z</time></trkpt><trkpt lat="45.03523888834634" lon="9.6366886011986"><ele>67.0</ele><time>2026-04-04T13:46:45.997Z</time></trkpt><trkpt lat="45.03527535601108" lon="9.636791388871089"><ele>67.0</ele><time>2026-04-04T13:46:47.998Z</time></trkpt><trkpt lat="45.03531215277344" lon="9.636904029313486"><ele>67.0</ele><time>2026-04-04T13:46:49.997Z</time></trkpt><trkpt lat="45.03535443831198" lon="9.637009953876527"><ele>67.0</ele><time>2026-04-04T13:46:51.997Z</time></trkpt><trkpt lat="45.03539896307745" lon="9.637128699632271"><ele>67.0</ele><time>2026-04-04T13:46:53.997Z</time></trkpt><trkpt lat="45.03543374837467" lon="9.63723989258014"><ele>67.0</ele><time>2026-04-04T13:46:55.997Z</time></trkpt><trkpt lat="45.03548556458302" lon="9.637360627096978"><ele>67.0</ele><time>2026-04-04T13:46:57.997Z</time></trkpt><trkpt lat="45.035525133758746" lon="9.637489013281956"><ele>67.0</ele><time>2026-04-04T13:46:59.997Z</time></trkpt><trkpt lat="45.03557338476076" lon="9.637609989091064"><ele>67.0</ele><time>2026-04-04T13:47:01.997Z</time></trkpt><trkpt lat="45.03560689909115" lon="9.637720897975493"><ele>67.0</ele><time>2026-04-04T13:47:03.997Z</time></trkpt><trkpt lat="45.03564825200417" lon="9.637820773451352"><ele>67.0</ele><time>2026-04-04T13:47:05.997Z</time></trkpt><trkpt lat="45.03568125069288" lon="9.637919596890068"><ele>67.0</ele><time>2026-04-04T13:47:07.997Z</time></trkpt><trkpt lat="45.035715431876994" lon="9.63801023588239"><ele>67.0</ele><time>2026-04-04T13:47:09.997Z</time></trkpt><trkpt lat="45.03575092335937" lon="9.638102449565856"><ele>67.0</ele><time>2026-04-04T13:47:11.997Z</time></trkpt><trkpt lat="45.03579165345813" lon="9.638203292509335"><ele>67.0</ele><time>2026-04-04T13:47:13.997Z</time></trkpt><trkpt lat="45.035826773677236" lon="9.638307321102978"><ele>67.0</ele><time>2026-04-04T13:47:15.997Z</time></trkpt><trkpt lat="45.035864155653904" lon="9.638418023607443"><ele>67.0</ele><time>2026-04-04T13:47:17.997Z</time></trkpt><trkpt lat="45.03590087481242" lon="9.63851565735874"><ele>67.0</ele><time>2026-04-04T13:47:19.997Z</time></trkpt><trkpt lat="45.03593359555801" lon="9.638620615683926"><ele>66.83333333333333</ele><time>2026-04-04T13:47:21.997Z</time></trkpt><trkpt lat="45.03597830891486" lon="9.638724855458683"><ele>66.66666666666666</ele><time>2026-04-04T13:47:23.997Z</time></trkpt><trkpt lat="45.03600862077071" lon="9.63883005951688"><ele>66.5</ele><time>2026-04-04T13:47:25.997Z</time></trkpt><trkpt lat="45.03604443672328" lon="9.638933321956156"><ele>66.33333333333333</ele><time>2026-04-04T13:47:27.997Z</time></trkpt><trkpt lat="45.03607486705233" lon="9.639024828162611"><ele>66.16666666666667</ele><time>2026-04-04T13:47:29.997Z</time></trkpt><trkpt lat="45.03610550983823" lon="9.63910303336587"><ele>66.0</ele><time>2026-04-04T13:47:31.997Z</time></trkpt><trkpt lat="45.03613545112817" lon="9.639191665178764"><ele>66.0</ele><time>2026-04-04T13:47:33.997Z</time></trkpt><trkpt lat="45.036181245673056" lon="9.639295326068611"><ele>66.0</ele><time>2026-04-04T13:47:36.997Z</time></trkpt><trkpt lat="45.03621806785158" lon="9.639380611724329"><ele>66.0</ele><time>2026-04-04T13:47:38.997Z</time></trkpt><trkpt lat="45.03624879530293" lon="9.639475441549715"><ele>66.0</ele><time>2026-04-04T13:47:40.997Z</time></trkpt><trkpt lat="45.036281066536986" lon="9.639559317928974"><ele>66.0</ele><time>2026-04-04T13:47:42.997Z</time></trkpt><trkpt lat="45.036313422198724" lon="9.639667758413692"><ele>66.0</ele><time>2026-04-04T13:47:44.997Z</time></trkpt><trkpt lat="45.036358679214366" lon="9.639760970917996"><ele>66.0</ele><time>2026-04-04T13:47:46.997Z</time></trkpt><trkpt lat="45.036406022961096" lon="9.639870347603942"><ele>66.0</ele><time>2026-04-04T13:47:48.997Z</time></trkpt><trkpt lat="45.036442416280586" lon="9.639971961996041"><ele>66.0</ele><time>2026-04-04T13:47:50.997Z</time></trkpt><trkpt lat="45.03647439248474" lon="9.640075929790704"><ele>66.0</ele><time>2026-04-04T13:47:52.997Z</time></trkpt><trkpt lat="45.036515102693365" lon="9.640171361549468"><ele>66.0</ele><time>2026-04-04T13:47:54.997Z</time></trkpt><trkpt lat="45.03655138704596" lon="9.640283638145593"><ele>66.0</ele><time>2026-04-04T13:47:56.997Z</time></trkpt><trkpt lat="45.03658715623695" lon="9.640390785082813"><ele>66.0</ele><time>2026-04-04T13:47:58.997Z</time></trkpt><trkpt lat="45.03662616549389" lon="9.640481431472425"><ele>66.0</ele><time>2026-04-04T13:48:00.997Z</time></trkpt><trkpt lat="45.03665615527831" lon="9.640572638745816"><ele>66.0</ele><time>2026-04-04T13:48:02.997Z</time></trkpt><trkpt lat="45.03669957385853" lon="9.640668704146615"><ele>66.0</ele><time>2026-04-04T13:48:04.997Z</time></trkpt><trkpt lat="45.03673501456933" lon="9.640759130242017"><ele>66.0</ele><time>2026-04-04T13:48:06.997Z</time></trkpt><trkpt lat="45.036780744730805" lon="9.640871844285833"><ele>66.0</ele><time>2026-04-04T13:48:08.997Z</time></trkpt><trkpt lat="45.03681341685078" lon="9.640974966172536"><ele>66.39999999999999</ele><time>2026-04-04T13:48:10.997Z</time></trkpt><trkpt lat="45.036848589057065" lon="9.641099346394634"><ele>66.8</ele><time>2026-04-04T13:48:12.997Z</time></trkpt><trkpt lat="45.03689564042483" lon="9.6412108832145"><ele>67.19999999999999</ele><time>2026-04-04T13:48:14.997Z</time></trkpt><trkpt lat="45.03694107903" lon="9.641322539582518"><ele>67.6</ele><time>2026-04-04T13:48:16.997Z</time></trkpt><trkpt lat="45.03698193069186" lon="9.641439889332235"><ele>68.0</ele><time>2026-04-04T13:48:18.997Z</time></trkpt><trkpt lat="45.03702229460112" lon="9.641561858790173"><ele>68.0</ele><time>2026-04-04T13:48:20.997Z</time></trkpt><trkpt lat="45.03706907126573" lon="9.641684642568524"><ele>68.0</ele><time>2026-04-04T13:48:22.997Z</time></trkpt><trkpt lat="45.037105892091894" lon="9.64180711734906"><ele>68.0</ele><time>2026-04-04T13:48:24.997Z</time></trkpt><trkpt lat="45.037144382898354" lon="9.641930788301869"><ele>68.0</ele><time>2026-04-04T13:48:26.997Z</time></trkpt><trkpt lat="45.03718710304183" lon="9.64204428791996"><ele>68.0</ele><time>2026-04-04T13:48:28.997Z</time></trkpt><trkpt lat="45.037230271841814" lon="9.64216276158893"><ele>67.66666666666667</ele><time>2026-04-04T13:48:30.997Z</time></trkpt><trkpt lat="45.037264534949095" lon="9.642280481716098"><ele>67.33333333333334</ele><time>2026-04-04T13:48:32.997Z</time></trkpt><trkpt lat="45.03729325913296" lon="9.64238899197831"><ele>67.0</ele><time>2026-04-04T13:48:34.997Z</time></trkpt><trkpt lat="45.037323745364574" lon="9.642509076167537"><ele>66.66666666666667</ele><time>2026-04-04T13:48:36.997Z</time></trkpt><trkpt lat="45.03736898750344" lon="9.642614447940963"><ele>66.33333333333333</ele><time>2026-04-04T13:48:38.997Z</time></trkpt><trkpt lat="45.037406350954434" lon="9.642727250652456"><ele>66.0</ele><time>2026-04-04T13:48:40.997Z</time></trkpt><trkpt lat="45.03745128107809" lon="9.642839953395004"><ele>66.2</ele><time>2026-04-04T13:48:42.997Z</time></trkpt><trkpt lat="45.037493319520436" lon="9.642949822878505"><ele>66.39999999999999</ele><time>2026-04-04T13:48:44.997Z</time></trkpt><trkpt lat="45.03752703339149" lon="9.643075117062745"><ele>66.6</ele><time>2026-04-04T13:48:46.997Z</time></trkpt><trkpt lat="45.03756911469276" lon="9.643189863022766"><ele>66.8</ele><time>2026-04-04T13:48:48.997Z</time></trkpt><trkpt lat="45.03761523934056" lon="9.643303751111803"><ele>67.0</ele><time>2026-04-04T13:48:50.997Z</time></trkpt><trkpt lat="45.03765600789322" lon="9.643415982858137"><ele>67.0</ele><time>2026-04-04T13:48:52.997Z</time></trkpt><trkpt lat="45.037681271163386" lon="9.64353911361112"><ele>67.0</ele><time>2026-04-04T13:48:54.997Z</time></trkpt><trkpt lat="45.0377289599427" lon="9.643659586337746"><ele>67.0</ele><time>2026-04-04T13:48:56.996Z</time></trkpt><trkpt lat="45.03777243594959" lon="9.643771628062586"><ele>67.0</ele><time>2026-04-04T13:48:58.997Z</time></trkpt><trkpt lat="45.03781811952325" lon="9.643887386280602"><ele>67.0</ele><time>2026-04-04T13:49:00.997Z</time></trkpt><trkpt lat="45.037860854557024" lon="9.644004155405554"><ele>67.0</ele><time>2026-04-04T13:49:02.997Z</time></trkpt><trkpt lat="45.037902466186765" lon="9.644131771610109"><ele>67.0</ele><time>2026-04-04T13:49:04.997Z</time></trkpt><trkpt lat="45.037942584998824" lon="9.644251908466844"><ele>67.0</ele><time>2026-04-04T13:49:06.997Z</time></trkpt><trkpt lat="45.03798596860227" lon="9.644366556535342"><ele>67.0</ele><time>2026-04-04T13:49:08.997Z</time></trkpt><trkpt lat="45.03802647883209" lon="9.64449502466041"><ele>67.0</ele><time>2026-04-04T13:49:10.997Z</time></trkpt><trkpt lat="45.03806624551832" lon="9.644614816301166"><ele>67.0</ele><time>2026-04-04T13:49:12.997Z</time></trkpt><trkpt lat="45.03810805723041" lon="9.644738059946405"><ele>67.0</ele><time>2026-04-04T13:49:14.997Z</time></trkpt><trkpt lat="45.038146666848434" lon="9.644869214709475"><ele>67.0</ele><time>2026-04-04T13:49:16.997Z</time></trkpt><trkpt lat="45.03818894796802" lon="9.64499129603246"><ele>67.0</ele><time>2026-04-04T13:49:18.997Z</time></trkpt><trkpt lat="45.03823245242452" lon="9.645118967820563"><ele>67.0</ele><time>2026-04-04T13:49:20.997Z</time></trkpt><trkpt lat="45.03827788717372" lon="9.645246022920531"><ele>66.6</ele><time>2026-04-04T13:49:22.997Z</time></trkpt><trkpt lat="45.03832684794861" lon="9.645373630951097"><ele>66.2</ele><time>2026-04-04T13:49:24.997Z</time></trkpt><trkpt lat="45.03837052974369" lon="9.645502023097391"><ele>65.8</ele><time>2026-04-04T13:49:26.997Z</time></trkpt><trkpt lat="45.0384136711822" lon="9.645620271583871"><ele>65.4</ele><time>2026-04-04T13:49:28.997Z</time></trkpt><trkpt lat="45.038460362859624" lon="9.645752476931682"><ele>65.0</ele><time>2026-04-04T13:49:30.997Z</time></trkpt><trkpt lat="45.03850036236528" lon="9.645891141255754"><ele>65.0</ele><time>2026-04-04T13:49:32.997Z</time></trkpt><trkpt lat="45.038547896454936" lon="9.646015599073587"><ele>65.0</ele><time>2026-04-04T13:49:34.997Z</time></trkpt><trkpt lat="45.038585515686364" lon="9.646142220305189"><ele>65.0</ele><time>2026-04-04T13:49:36.997Z</time></trkpt><trkpt lat="45.03862719553929" lon="9.64626815903069"><ele>65.0</ele><time>2026-04-04T13:49:38.997Z</time></trkpt><trkpt lat="45.03866673127855" lon="9.646391826604091"><ele>65.0</ele><time>2026-04-04T13:49:40.997Z</time></trkpt><trkpt lat="45.03871142341395" lon="9.646501593622133"><ele>64.8</ele><time>2026-04-04T13:49:42.997Z</time></trkpt><trkpt lat="45.038746114929246" lon="9.64661779907928"><ele>64.6</ele><time>2026-04-04T13:49:44.997Z</time></trkpt><trkpt lat="45.03879331323893" lon="9.64674218870168"><ele>64.4</ele><time>2026-04-04T13:49:46.997Z</time></trkpt><trkpt lat="45.03883779002811" lon="9.646859360682987"><ele>64.2</ele><time>2026-04-04T13:49:48.997Z</time></trkpt><trkpt lat="45.03888224653" lon="9.646972779678059"><ele>64.0</ele><time>2026-04-04T13:49:50.997Z</time></trkpt><trkpt lat="45.03892159225719" lon="9.64707813148981"><ele>64.4</ele><time>2026-04-04T13:49:52.997Z</time></trkpt><trkpt lat="45.038961583417276" lon="9.647194714699541"><ele>64.80000000000001</ele><time>2026-04-04T13:49:54.997Z</time></trkpt><trkpt lat="45.039009367377886" lon="9.647314401827279"><ele>65.19999999999999</ele><time>2026-04-04T13:49:56.997Z</time></trkpt><trkpt lat="45.039048237472564" lon="9.647439840587541"><ele>65.6</ele><time>2026-04-04T13:49:58.997Z</time></trkpt><trkpt lat="45.039091631731765" lon="9.647559512204095"><ele>66.0</ele><time>2026-04-04T13:50:00.997Z</time></trkpt><trkpt lat="45.03913115016626" lon="9.647677017770505"><ele>65.2</ele><time>2026-04-04T13:50:02.997Z</time></trkpt><trkpt lat="45.03916897105735" lon="9.647788224098267"><ele>64.39999999999999</ele><time>2026-04-04T13:50:04.997Z</time></trkpt><trkpt lat="45.039214483338846" lon="9.647905498412738"><ele>63.6</ele><time>2026-04-04T13:50:06.997Z</time></trkpt><trkpt lat="45.03925869020584" lon="9.64802643048007"><ele>62.8</ele><time>2026-04-04T13:50:08.997Z</time></trkpt><trkpt lat="45.0392988554371" lon="9.648143758826327"><ele>62.0</ele><time>2026-04-04T13:50:10.997Z</time></trkpt><trkpt lat="45.0393306685819" lon="9.648254105777232"><ele>61.833333333333336</ele><time>2026-04-04T13:50:12.997Z</time></trkpt><trkpt lat="45.0393740658058" lon="9.648369463653031"><ele>61.66666666666667</ele><time>2026-04-04T13:50:14.997Z</time></trkpt><trkpt lat="45.03942229710331" lon="9.648494156951562"><ele>61.5</ele><time>2026-04-04T13:50:16.997Z</time></trkpt><trkpt lat="45.03946896931866" lon="9.648599010054154"><ele>61.33333333333333</ele><time>2026-04-04T13:50:18.997Z</time></trkpt><trkpt lat="45.03949883075838" lon="9.648699005095951"><ele>61.166666666666664</ele><time>2026-04-04T13:50:20.997Z</time></trkpt><trkpt lat="45.03952292357925" lon="9.648815699160657"><ele>61.0</ele><time>2026-04-04T13:50:22.997Z</time></trkpt><trkpt lat="45.03956547005748" lon="9.648908016241892"><ele>60.99999999999999</ele><time>2026-04-04T13:50:24.997Z</time></trkpt><trkpt lat="45.03960183333707" lon="9.649004568350822"><ele>61.0</ele><time>2026-04-04T13:50:26.997Z</time></trkpt><trkpt lat="45.03963616135593" lon="9.649096634253064"><ele>61.0</ele><time>2026-04-04T13:50:28.997Z</time></trkpt><trkpt lat="45.03967452705679" lon="9.649199492795628"><ele>61.0</ele><time>2026-04-04T13:50:30.997Z</time></trkpt><trkpt lat="45.03971505735991" lon="9.649315238015125"><ele>60.99999999999999</ele><time>2026-04-04T13:50:32.997Z</time></trkpt><trkpt lat="45.03975204813431" lon="9.649433404129617"><ele>61.0</ele><time>2026-04-04T13:50:34.997Z</time></trkpt><trkpt lat="45.03978643086455" lon="9.649552030824122"><ele>61.199999999999996</ele><time>2026-04-04T13:50:36.997Z</time></trkpt><trkpt lat="45.039821649848236" lon="9.649667517862467"><ele>61.39999999999999</ele><time>2026-04-04T13:50:38.997Z</time></trkpt><trkpt lat="45.0398553429635" lon="9.649781691915297"><ele>61.6</ele><time>2026-04-04T13:50:40.997Z</time></trkpt><trkpt lat="45.0398982170419" lon="9.649902035618505"><ele>61.8</ele><time>2026-04-04T13:50:42.997Z</time></trkpt><trkpt lat="45.03993970128987" lon="9.65001773657226"><ele>62.0</ele><time>2026-04-04T13:50:44.997Z</time></trkpt><trkpt lat="45.0399829625483" lon="9.65013278166985"><ele>61.833333333333336</ele><time>2026-04-04T13:50:46.997Z</time></trkpt><trkpt lat="45.04001700367094" lon="9.650241726481362"><ele>61.66666666666667</ele><time>2026-04-04T13:50:48.997Z</time></trkpt><trkpt lat="45.04005177544186" lon="9.65035488910959"><ele>61.5</ele><time>2026-04-04T13:50:50.997Z</time></trkpt><trkpt lat="45.04009825097185" lon="9.65046443984355"><ele>61.33333333333333</ele><time>2026-04-04T13:50:52.997Z</time></trkpt><trkpt lat="45.040135092579625" lon="9.650577341618995"><ele>61.166666666666664</ele><time>2026-04-04T13:50:54.997Z</time></trkpt><trkpt lat="45.04018118922745" lon="9.65069412436868"><ele>61.0</ele><time>2026-04-04T13:50:56.997Z</time></trkpt><trkpt lat="45.04022343737684" lon="9.650814719296127"><ele>61.0</ele><time>2026-04-04T13:50:58.996Z</time></trkpt><trkpt lat="45.040263947046505" lon="9.650927921816209"><ele>60.99999999999999</ele><time>2026-04-04T13:51:00.996Z</time></trkpt><trkpt lat="45.04030911870359" lon="9.651045456227946"><ele>60.99999999999999</ele><time>2026-04-04T13:51:02.996Z</time></trkpt><trkpt lat="45.04035140333168" lon="9.651155016141093"><ele>61.0</ele><time>2026-04-04T13:51:04.997Z</time></trkpt><trkpt lat="45.04039067341148" lon="9.651270085458341"><ele>61.0</ele><time>2026-04-04T13:51:06.997Z</time></trkpt><trkpt lat="45.040433893213844" lon="9.651386209442554"><ele>61.0</ele><time>2026-04-04T13:51:08.997Z</time></trkpt><trkpt lat="45.04047824641708" lon="9.651505866065362"><ele>60.99999999999999</ele><time>2026-04-04T13:51:10.997Z</time></trkpt><trkpt lat="45.0405241334736" lon="9.651635945438727"><ele>60.99999999999999</ele><time>2026-04-04T13:51:12.997Z</time></trkpt><trkpt lat="45.04056259747333" lon="9.651743205351615"><ele>61.0</ele><time>2026-04-04T13:51:14.997Z</time></trkpt><trkpt lat="45.040604871019845" lon="9.651868185100048"><ele>61.0</ele><time>2026-04-04T13:51:16.997Z</time></trkpt><trkpt lat="45.040649856165814" lon="9.651990288594844"><ele>61.0</ele><time>2026-04-04T13:51:18.997Z</time></trkpt><trkpt lat="45.04069707042018" lon="9.652108954664563"><ele>60.99999999999999</ele><time>2026-04-04T13:51:20.997Z</time></trkpt><trkpt lat="45.040740191454404" lon="9.652229040725416"><ele>60.99999999999999</ele><time>2026-04-04T13:51:22.997Z</time></trkpt><trkpt lat="45.040780541646505" lon="9.65234441196447"><ele>61.0</ele><time>2026-04-04T13:51:24.997Z</time></trkpt><trkpt lat="45.04082222877339" lon="9.652454738608276"><ele>61.0</ele><time>2026-04-04T13:51:26.997Z</time></trkpt><trkpt lat="45.040867205048215" lon="9.652576071161365"><ele>60.83333333333333</ele><time>2026-04-04T13:51:28.997Z</time></trkpt><trkpt lat="45.040912969368925" lon="9.6526903988192"><ele>60.666666666666664</ele><time>2026-04-04T13:51:30.997Z</time></trkpt><trkpt lat="45.04095008480412" lon="9.652803107780688"><ele>60.5</ele><time>2026-04-04T13:51:32.997Z</time></trkpt><trkpt lat="45.04098590920633" lon="9.652903787478898"><ele>60.33333333333333</ele><time>2026-04-04T13:51:34.997Z</time></trkpt><trkpt lat="45.041028710039406" lon="9.65301575733581"><ele>60.166666666666664</ele><time>2026-04-04T13:51:36.997Z</time></trkpt><trkpt lat="45.04106849737828" lon="9.653129769980751"><ele>60.0</ele><time>2026-04-04T13:51:38.997Z</time></trkpt><trkpt lat="45.041111131147126" lon="9.65325009785279"><ele>60.0</ele><time>2026-04-04T13:51:40.997Z</time></trkpt><trkpt lat="45.04115737451287" lon="9.653357951965546"><ele>60.0</ele><time>2026-04-04T13:51:42.997Z</time></trkpt><trkpt lat="45.04120127216525" lon="9.653477122280451"><ele>60.0</ele><time>2026-04-04T13:51:44.997Z</time></trkpt><trkpt lat="45.041241007151754" lon="9.653587347579975"><ele>60.0</ele><time>2026-04-04T13:51:46.997Z</time></trkpt><trkpt lat="45.0412784249204" lon="9.653689918526796"><ele>60.0</ele><time>2026-04-04T13:51:48.997Z</time></trkpt><trkpt lat="45.04131910776044" lon="9.653797355615342"><ele>60.0</ele><time>2026-04-04T13:51:50.997Z</time></trkpt><trkpt lat="45.04136553853685" lon="9.653900854941094"><ele>60.0</ele><time>2026-04-04T13:51:52.997Z</time></trkpt><trkpt lat="45.041401580579084" lon="9.654009530325514"><ele>60.0</ele><time>2026-04-04T13:51:54.997Z</time></trkpt><trkpt lat="45.041443126975715" lon="9.65412456207101"><ele>60.0</ele><time>2026-04-04T13:51:56.997Z</time></trkpt><trkpt lat="45.0414833918585" lon="9.654240822641208"><ele>60.0</ele><time>2026-04-04T13:51:58.997Z</time></trkpt><trkpt lat="45.0415240982942" lon="9.654355568425954"><ele>60.0</ele><time>2026-04-04T13:52:00.997Z</time></trkpt><trkpt lat="45.041564117549306" lon="9.654472143651274"><ele>60.0</ele><time>2026-04-04T13:52:02.997Z</time></trkpt><trkpt lat="45.04160380382375" lon="9.654578937850829"><ele>60.0</ele><time>2026-04-04T13:52:04.997Z</time></trkpt><trkpt lat="45.041643256416634" lon="9.654684016879813"><ele>60.0</ele><time>2026-04-04T13:52:06.997Z</time></trkpt><trkpt lat="45.04168770167832" lon="9.65479956914544"><ele>60.0</ele><time>2026-04-04T13:52:08.997Z</time></trkpt><trkpt lat="45.04172615265943" lon="9.654919855744545"><ele>60.0</ele><time>2026-04-04T13:52:10.997Z</time></trkpt><trkpt lat="45.04176947926103" lon="9.655037343212081"><ele>60.0</ele><time>2026-04-04T13:52:12.997Z</time></trkpt><trkpt lat="45.041804833866514" lon="9.655147950559064"><ele>60.5</ele><time>2026-04-04T13:52:14.997Z</time></trkpt><trkpt lat="45.041843336471224" lon="9.655250690464056"><ele>61.0</ele><time>2026-04-04T13:52:16.997Z</time></trkpt><trkpt lat="45.04188340048432" lon="9.655361650847642"><ele>61.5</ele><time>2026-04-04T13:52:18.997Z</time></trkpt><trkpt lat="45.04192281204019" lon="9.655478888058777"><ele>62.0</ele><time>2026-04-04T13:52:20.997Z</time></trkpt><trkpt lat="45.04196376362174" lon="9.65558979941806"><ele>62.5</ele><time>2026-04-04T13:52:22.997Z</time></trkpt><trkpt lat="45.042004997426666" lon="9.655711506300822"><ele>63.0</ele><time>2026-04-04T13:52:24.997Z</time></trkpt><trkpt lat="45.04204612647449" lon="9.655826582387697"><ele>63.0</ele><time>2026-04-04T13:52:26.997Z</time></trkpt><trkpt lat="45.04208525832411" lon="9.655946073395754"><ele>63.0</ele><time>2026-04-04T13:52:28.997Z</time></trkpt><trkpt lat="45.04212296898924" lon="9.656049581775987"><ele>63.0</ele><time>2026-04-04T13:52:30.997Z</time></trkpt><trkpt lat="45.04216422954196" lon="9.656157684502126"><ele>63.0</ele><time>2026-04-04T13:52:32.997Z</time></trkpt><trkpt lat="45.04220792339609" lon="9.656267887250845"><ele>63.0</ele><time>2026-04-04T13:52:34.997Z</time></trkpt><trkpt lat="45.04224300229972" lon="9.65638386845392"><ele>63.0</ele><time>2026-04-04T13:52:36.997Z</time></trkpt><trkpt lat="45.04228443652057" lon="9.65650829060495"><ele>63.166666666666664</ele><time>2026-04-04T13:52:38.997Z</time></trkpt><trkpt lat="45.042330358211494" lon="9.656620560361379"><ele>63.33333333333333</ele><time>2026-04-04T13:52:40.997Z</time></trkpt><trkpt lat="45.04237688337651" lon="9.656736968476592"><ele>63.5</ele><time>2026-04-04T13:52:42.997Z</time></trkpt><trkpt lat="45.04241534732374" lon="9.656844329440359"><ele>63.666666666666664</ele><time>2026-04-04T13:52:44.997Z</time></trkpt><trkpt lat="45.04245675528463" lon="9.656951109852864"><ele>63.83333333333333</ele><time>2026-04-04T13:52:46.997Z</time></trkpt><trkpt lat="45.04249676724563" lon="9.657062143253693"><ele>64.0</ele><time>2026-04-04T13:52:48.997Z</time></trkpt><trkpt lat="45.042537650726864" lon="9.657183522152492"><ele>63.49999999999999</ele><time>2026-04-04T13:52:50.997Z</time></trkpt><trkpt lat="45.04256880451179" lon="9.65730612812329"><ele>63.0</ele><time>2026-04-04T13:52:52.997Z</time></trkpt><trkpt lat="45.04261127730286" lon="9.657425542861283"><ele>62.5</ele><time>2026-04-04T13:52:54.997Z</time></trkpt><trkpt lat="45.042645582518304" lon="9.65753802434074"><ele>62.0</ele><time>2026-04-04T13:52:56.997Z</time></trkpt><trkpt lat="45.04267925226456" lon="9.657647382375506"><ele>61.49999999999999</ele><time>2026-04-04T13:52:58.997Z</time></trkpt><trkpt lat="45.042715047324386" lon="9.657754096266098"><ele>61.0</ele><time>2026-04-04T13:53:00.996Z</time></trkpt><trkpt lat="45.0427502301886" lon="9.657860702655093"><ele>60.99999999999999</ele><time>2026-04-04T13:53:02.997Z</time></trkpt><trkpt lat="45.04279457558553" lon="9.657970481383844"><ele>61.0</ele><time>2026-04-04T13:53:04.996Z</time></trkpt><trkpt lat="45.042836421427246" lon="9.658083120281079"><ele>61.0</ele><time>2026-04-04T13:53:06.997Z</time></trkpt><trkpt lat="45.04287804990661" lon="9.658195975126757"><ele>61.0</ele><time>2026-04-04T13:53:08.997Z</time></trkpt><trkpt lat="45.04291266581502" lon="9.658310422348212"><ele>60.99999999999999</ele><time>2026-04-04T13:53:10.996Z</time></trkpt><trkpt lat="45.04295746403588" lon="9.658414571231683"><ele>61.0</ele><time>2026-04-04T13:53:12.996Z</time></trkpt><trkpt lat="45.04299421604065" lon="9.658523406633378"><ele>61.33333333333333</ele><time>2026-04-04T13:53:14.996Z</time></trkpt><trkpt lat="45.043038318746056" lon="9.658638278754923"><ele>61.666666666666664</ele><time>2026-04-04T13:53:16.996Z</time></trkpt><trkpt lat="45.04307065988509" lon="9.658753873570687"><ele>62.0</ele><time>2026-04-04T13:53:18.996Z</time></trkpt><trkpt lat="45.043109774199756" lon="9.658868495739348"><ele>62.33333333333333</ele><time>2026-04-04T13:53:20.996Z</time></trkpt><trkpt lat="45.043148742261344" lon="9.658975885973943"><ele>62.666666666666664</ele><time>2026-04-04T13:53:22.996Z</time></trkpt><trkpt lat="45.043188031305654" lon="9.659074493415341"><ele>63.0</ele><time>2026-04-04T13:53:24.996Z</time></trkpt><trkpt lat="45.04322113182969" lon="9.659169207854202"><ele>63.0</ele><time>2026-04-04T13:53:26.996Z</time></trkpt><trkpt lat="45.0432575633215" lon="9.659280361432877"><ele>63.0</ele><time>2026-04-04T13:53:28.996Z</time></trkpt><trkpt lat="45.04329671642487" lon="9.659379176174017"><ele>63.0</ele><time>2026-04-04T13:53:30.996Z</time></trkpt><trkpt lat="45.04333172087793" lon="9.659484079135087"><ele>63.0</ele><time>2026-04-04T13:53:32.996Z</time></trkpt><trkpt lat="45.043373120228466" lon="9.659592279840014"><ele>63.0</ele><time>2026-04-04T13:53:34.996Z</time></trkpt><trkpt lat="45.043408717673294" lon="9.659699601273218"><ele>63.0</ele><time>2026-04-04T13:53:36.996Z</time></trkpt><trkpt lat="45.04344647015264" lon="9.659815299270031"><ele>62.833333333333336</ele><time>2026-04-04T13:53:38.996Z</time></trkpt><trkpt lat="45.0434664699936" lon="9.659934806173872"><ele>62.66666666666667</ele><time>2026-04-04T13:53:40.996Z</time></trkpt><trkpt lat="45.04345255466973" lon="9.660068683749051"><ele>62.5</ele><time>2026-04-04T13:53:42.996Z</time></trkpt><trkpt lat="45.04344630728842" lon="9.66018708293415"><ele>62.333333333333336</ele><time>2026-04-04T13:53:44.996Z</time></trkpt><trkpt lat="45.04345035213726" lon="9.660304770625917"><ele>62.16666666666667</ele><time>2026-04-04T13:53:46.996Z</time></trkpt><trkpt lat="45.043479904606535" lon="9.66043864867446"><ele>62.0</ele><time>2026-04-04T14:00:21.987Z</time></trkpt><trkpt lat="45.04347815876489" lon="9.660337434707877"><ele>61.66666666666667</ele><time>2026-04-04T14:00:25.987Z</time></trkpt><trkpt lat="45.04347979308307" lon="9.660244785968704"><ele>61.333333333333336</ele><time>2026-04-04T14:00:28.987Z</time></trkpt><trkpt lat="45.043476917248874" lon="9.660118152359365"><ele>61.0</ele><time>2026-04-04T14:00:31.987Z</time></trkpt><trkpt lat="45.04347933043764" lon="9.660018337635499"><ele>60.66666666666667</ele><time>2026-04-04T14:00:33.987Z</time></trkpt><trkpt lat="45.04348102870695" lon="9.659913240972356"><ele>60.333333333333336</ele><time>2026-04-04T14:00:35.987Z</time></trkpt><trkpt lat="45.043453011133636" lon="9.659806784329735"><ele>60.0</ele><time>2026-04-04T14:00:37.987Z</time></trkpt><trkpt lat="45.04342307385674" lon="9.659706055091982"><ele>60.0</ele><time>2026-04-04T14:00:39.987Z</time></trkpt><trkpt lat="45.043391207488696" lon="9.659601075862145"><ele>60.0</ele><time>2026-04-04T14:00:41.987Z</time></trkpt><trkpt lat="45.043351460387704" lon="9.659498349873582"><ele>60.0</ele><time>2026-04-04T14:00:43.987Z</time></trkpt><trkpt lat="45.043316440868686" lon="9.65939504988101"><ele>60.0</ele><time>2026-04-04T14:00:45.987Z</time></trkpt><trkpt lat="45.04328055615278" lon="9.659292773689817"><ele>60.0</ele><time>2026-04-04T14:00:47.987Z</time></trkpt><trkpt lat="45.04324029127929" lon="9.659184144284259"><ele>60.0</ele><time>2026-04-04T14:00:49.987Z</time></trkpt><trkpt lat="45.04320855534664" lon="9.659074945689513"><ele>60.2</ele><time>2026-04-04T14:00:51.987Z</time></trkpt><trkpt lat="45.04316428311545" lon="9.658961974464674"><ele>60.4</ele><time>2026-04-04T14:00:53.987Z</time></trkpt><trkpt lat="45.04312649882411" lon="9.658843260610487"><ele>60.599999999999994</ele><time>2026-04-04T14:00:55.987Z</time></trkpt><trkpt lat="45.043091650497985" lon="9.65872572988741"><ele>60.8</ele><time>2026-04-04T14:00:57.987Z</time></trkpt><trkpt lat="45.04305094132315" lon="9.6586139064327"><ele>61.0</ele><time>2026-04-04T14:00:59.987Z</time></trkpt><trkpt lat="45.0430106612544" lon="9.658497253820217"><ele>60.99999999999999</ele><time>2026-04-04T14:01:01.987Z</time></trkpt><trkpt lat="45.04297174403901" lon="9.658386300040892"><ele>61.0</ele><time>2026-04-04T14:01:03.987Z</time></trkpt><trkpt lat="45.042939054815335" lon="9.658281186389596"><ele>61.0</ele><time>2026-04-04T14:01:05.987Z</time></trkpt><trkpt lat="45.04289720748174" lon="9.658174298348385"><ele>61.0</ele><time>2026-04-04T14:01:07.987Z</time></trkpt><trkpt lat="45.04285854219227" lon="9.65806421089237"><ele>60.99999999999999</ele><time>2026-04-04T14:01:09.987Z</time></trkpt><trkpt lat="45.04282316657414" lon="9.657954559128196"><ele>61.0</ele><time>2026-04-04T14:01:11.987Z</time></trkpt><trkpt lat="45.04277843101363" lon="9.657844856362383"><ele>60.99999999999999</ele><time>2026-04-04T14:01:13.987Z</time></trkpt><trkpt lat="45.04273727215468" lon="9.657742179717513"><ele>61.0</ele><time>2026-04-04T14:01:15.987Z</time></trkpt><trkpt lat="45.04270514385046" lon="9.657632645183137"><ele>61.0</ele><time>2026-04-04T14:01:17.987Z</time></trkpt><trkpt lat="45.042669700754786" lon="9.657522001915677"><ele>61.0</ele><time>2026-04-04T14:01:19.987Z</time></trkpt><trkpt lat="45.04262887776455" lon="9.657421630026397"><ele>60.99999999999999</ele><time>2026-04-04T14:01:21.987Z</time></trkpt><trkpt lat="45.04259216632951" lon="9.657320515707438"><ele>61.0</ele><time>2026-04-04T14:01:23.988Z</time></trkpt><trkpt lat="45.04255875705744" lon="9.657209275120048"><ele>60.99999999999999</ele><time>2026-04-04T14:01:25.987Z</time></trkpt><trkpt lat="45.042524324682056" lon="9.65710674558555"><ele>61.0</ele><time>2026-04-04T14:01:27.987Z</time></trkpt><trkpt lat="45.04248683528988" lon="9.656993186035674"><ele>61.0</ele><time>2026-04-04T14:01:29.987Z</time></trkpt><trkpt lat="45.04244351956402" lon="9.656891245323978"><ele>61.0</ele><time>2026-04-04T14:01:31.987Z</time></trkpt><trkpt lat="45.04240918806137" lon="9.656780402304777"><ele>60.99999999999999</ele><time>2026-04-04T14:01:33.987Z</time></trkpt><trkpt lat="45.04237502904573" lon="9.656671398450712"><ele>61.0</ele><time>2026-04-04T14:01:35.987Z</time></trkpt><trkpt lat="45.04233491202687" lon="9.656557808289982"><ele>61.33333333333333</ele><time>2026-04-04T14:01:37.987Z</time></trkpt><trkpt lat="45.042293113106666" lon="9.656452226945188"><ele>61.666666666666664</ele><time>2026-04-04T14:01:39.987Z</time></trkpt><trkpt lat="45.04225189424491" lon="9.65634343897528"><ele>62.0</ele><time>2026-04-04T14:01:41.987Z</time></trkpt><trkpt lat="45.04221520716125" lon="9.656236730694314"><ele>62.33333333333333</ele><time>2026-04-04T14:01:43.987Z</time></trkpt><trkpt lat="45.042176132166816" lon="9.656124937750146"><ele>62.666666666666664</ele><time>2026-04-04T14:01:45.987Z</time></trkpt><trkpt lat="45.042131427119884" lon="9.65600950343963"><ele>63.0</ele><time>2026-04-04T14:01:47.987Z</time></trkpt><trkpt lat="45.04209574060464" lon="9.655899080735919"><ele>63.0</ele><time>2026-04-04T14:01:49.987Z</time></trkpt><trkpt lat="45.042052752272475" lon="9.65578747026398"><ele>63.0</ele><time>2026-04-04T14:01:51.987Z</time></trkpt><trkpt lat="45.042025312352166" lon="9.655664560357453"><ele>63.0</ele><time>2026-04-04T14:01:53.987Z</time></trkpt><trkpt lat="45.04197563308824" lon="9.655560608135431"><ele>63.0</ele><time>2026-04-04T14:01:55.987Z</time></trkpt><trkpt lat="45.04193871572296" lon="9.655437579979345"><ele>63.0</ele><time>2026-04-04T14:01:57.987Z</time></trkpt><trkpt lat="45.04189591669484" lon="9.65533240618126"><ele>63.166666666666664</ele><time>2026-04-04T14:01:59.987Z</time></trkpt><trkpt lat="45.04185874185491" lon="9.655214319759349"><ele>63.33333333333333</ele><time>2026-04-04T14:02:01.987Z</time></trkpt><trkpt lat="45.04182076940924" lon="9.655102597157422"><ele>63.5</ele><time>2026-04-04T14:02:03.987Z</time></trkpt><trkpt lat="45.04177749468745" lon="9.654992483213338"><ele>63.666666666666664</ele><time>2026-04-04T14:02:05.987Z</time></trkpt><trkpt lat="45.0417382641548" lon="9.654872658117657"><ele>63.83333333333333</ele><time>2026-04-04T14:02:07.987Z</time></trkpt><trkpt lat="45.041692066780605" lon="9.654767411362739"><ele>64.0</ele><time>2026-04-04T14:02:09.987Z</time></trkpt><trkpt lat="45.041648980831624" lon="9.654651380842122"><ele>63.2</ele><time>2026-04-04T14:02:11.987Z</time></trkpt><trkpt lat="45.041608230089665" lon="9.654541530772127"><ele>62.400000000000006</ele><time>2026-04-04T14:02:13.987Z</time></trkpt><trkpt lat="45.041564980108795" lon="9.654433916091536"><ele>61.6</ele><time>2026-04-04T14:02:15.987Z</time></trkpt><trkpt lat="45.04153534639759" lon="9.654303566232745"><ele>60.8</ele><time>2026-04-04T14:02:17.987Z</time></trkpt><trkpt lat="45.041498031589356" lon="9.654190428122359"><ele>60.0</ele><time>2026-04-04T14:02:19.987Z</time></trkpt><trkpt lat="45.04145889365381" lon="9.654076576130475"><ele>60.0</ele><time>2026-04-04T14:02:21.987Z</time></trkpt><trkpt lat="45.041416571509636" lon="9.65397547166464"><ele>60.0</ele><time>2026-04-04T14:02:23.987Z</time></trkpt><trkpt lat="45.041376869390334" lon="9.653853488790093"><ele>60.0</ele><time>2026-04-04T14:02:25.987Z</time></trkpt><trkpt lat="45.04133648496247" lon="9.653749758112074"><ele>60.0</ele><time>2026-04-04T14:02:27.987Z</time></trkpt><trkpt lat="45.04129581591357" lon="9.653632067320304"><ele>60.0</ele><time>2026-04-04T14:02:29.987Z</time></trkpt><trkpt lat="45.041246289599506" lon="9.653526737429633"><ele>60.0</ele><time>2026-04-04T14:02:31.987Z</time></trkpt><trkpt lat="45.04120479264568" lon="9.653412804051705"><ele>60.0</ele><time>2026-04-04T14:02:33.987Z</time></trkpt><trkpt lat="45.04116635048762" lon="9.653303261292404"><ele>60.0</ele><time>2026-04-04T14:02:35.987Z</time></trkpt><trkpt lat="45.04112545975514" lon="9.65318395996475"><ele>60.0</ele><time>2026-04-04T14:02:37.987Z</time></trkpt><trkpt lat="45.04108068502069" lon="9.653072891453483"><ele>60.0</ele><time>2026-04-04T14:02:39.987Z</time></trkpt><trkpt lat="45.04104915614197" lon="9.652949792337775"><ele>60.0</ele><time>2026-04-04T14:02:41.987Z</time></trkpt><trkpt lat="45.041009069388906" lon="9.652836990004849"><ele>60.0</ele><time>2026-04-04T14:02:43.987Z</time></trkpt><trkpt lat="45.040966335431165" lon="9.652723540368735"><ele>60.0</ele><time>2026-04-04T14:02:45.987Z</time></trkpt><trkpt lat="45.04092769812104" lon="9.652611829605265"><ele>60.0</ele><time>2026-04-04T14:02:47.987Z</time></trkpt><trkpt lat="45.04089141629608" lon="9.652498761427116"><ele>60.0</ele><time>2026-04-04T14:02:49.987Z</time></trkpt><trkpt lat="45.04084952699935" lon="9.652392323005934"><ele>60.0</ele><time>2026-04-04T14:02:51.987Z</time></trkpt><trkpt lat="45.040809481891415" lon="9.65228181771653"><ele>60.0</ele><time>2026-04-04T14:02:53.987Z</time></trkpt><trkpt lat="45.0407679643097" lon="9.652172546169023"><ele>60.0</ele><time>2026-04-04T14:02:55.987Z</time></trkpt><trkpt lat="45.04072567344896" lon="9.652048590766078"><ele>60.0</ele><time>2026-04-04T14:02:57.987Z</time></trkpt><trkpt lat="45.040677531960036" lon="9.651929580423543"><ele>60.0</ele><time>2026-04-04T14:02:59.987Z</time></trkpt><trkpt lat="45.04063647015365" lon="9.651804133049625"><ele>60.0</ele><time>2026-04-04T14:03:01.987Z</time></trkpt><trkpt lat="45.040587184012246" lon="9.651691177116302"><ele>60.0</ele><time>2026-04-04T14:03:03.987Z</time></trkpt><trkpt lat="45.04054815425939" lon="9.651568958689268"><ele>60.0</ele><time>2026-04-04T14:03:05.987Z</time></trkpt><trkpt lat="45.04050290352906" lon="9.651452191950012"><ele>60.0</ele><time>2026-04-04T14:03:07.987Z</time></trkpt><trkpt lat="45.040461509394305" lon="9.651328241014985"><ele>60.0</ele><time>2026-04-04T14:03:09.987Z</time></trkpt><trkpt lat="45.04041487613637" lon="9.651207112791758"><ele>60.0</ele><time>2026-04-04T14:03:11.987Z</time></trkpt><trkpt lat="45.04036950983685" lon="9.651084219664522"><ele>60.0</ele><time>2026-04-04T14:03:13.987Z</time></trkpt><trkpt lat="45.040325318406886" lon="9.650955803782397"><ele>60.2</ele><time>2026-04-04T14:03:15.987Z</time></trkpt><trkpt lat="45.0402781760062" lon="9.650834648273854"><ele>60.4</ele><time>2026-04-04T14:03:17.987Z</time></trkpt><trkpt lat="45.0402343170841" lon="9.65070444755315"><ele>60.599999999999994</ele><time>2026-04-04T14:03:19.987Z</time></trkpt><trkpt lat="45.04019015669767" lon="9.650583846428034"><ele>60.8</ele><time>2026-04-04T14:03:21.987Z</time></trkpt><trkpt lat="45.04013834099272" lon="9.650461869515247"><ele>61.0</ele><time>2026-04-04T14:03:23.987Z</time></trkpt><trkpt lat="45.04009331644327" lon="9.650341535704664"><ele>61.199999999999996</ele><time>2026-04-04T14:03:25.987Z</time></trkpt><trkpt lat="45.04004304841943" lon="9.650207228297527"><ele>61.39999999999999</ele><time>2026-04-04T14:03:27.987Z</time></trkpt><trkpt lat="45.03999973504723" lon="9.650089530291172"><ele>61.6</ele><time>2026-04-04T14:03:29.987Z</time></trkpt><trkpt lat="45.03995158304578" lon="9.649964785928663"><ele>61.8</ele><time>2026-04-04T14:03:31.986Z</time></trkpt><trkpt lat="45.039910753186604" lon="9.649836544407174"><ele>62.0</ele><time>2026-04-04T14:03:33.986Z</time></trkpt><trkpt lat="45.03986684083012" lon="9.649712718129436"><ele>62.0</ele><time>2026-04-04T14:03:35.987Z</time></trkpt><trkpt lat="45.039819486700964" lon="9.649575461050295"><ele>62.0</ele><time>2026-04-04T14:03:37.987Z</time></trkpt><trkpt lat="45.039777035156625" lon="9.649452299060279"><ele>62.0</ele><time>2026-04-04T14:03:39.986Z</time></trkpt><trkpt lat="45.03973322378982" lon="9.649326198726222"><ele>62.0</ele><time>2026-04-04T14:03:41.986Z</time></trkpt><trkpt lat="45.03969442803542" lon="9.649197761043384"><ele>62.0</ele><time>2026-04-04T14:03:43.986Z</time></trkpt><trkpt lat="45.03965117901931" lon="9.64907088976926"><ele>61.8</ele><time>2026-04-04T14:03:45.986Z</time></trkpt><trkpt lat="45.03960872928699" lon="9.648945609859314"><ele>61.6</ele><time>2026-04-04T14:03:47.986Z</time></trkpt><trkpt lat="45.039568294248454" lon="9.648816044963123"><ele>61.39999999999999</ele><time>2026-04-04T14:03:49.986Z</time></trkpt><trkpt lat="45.0395249951809" lon="9.64869242969252"><ele>61.199999999999996</ele><time>2026-04-04T14:03:51.986Z</time></trkpt><trkpt lat="45.03948349418208" lon="9.648564344615563"><ele>61.0</ele><time>2026-04-04T14:03:53.986Z</time></trkpt><trkpt lat="45.03944115582772" lon="9.648442072967518"><ele>61.0</ele><time>2026-04-04T14:03:55.986Z</time></trkpt><trkpt lat="45.039396620955166" lon="9.648317205543075"><ele>60.99999999999999</ele><time>2026-04-04T14:03:57.986Z</time></trkpt><trkpt lat="45.03935181668132" lon="9.648190906297256"><ele>60.99999999999999</ele><time>2026-04-04T14:03:59.986Z</time></trkpt><trkpt lat="45.03931389815759" lon="9.648069837155957"><ele>61.0</ele><time>2026-04-04T14:04:01.986Z</time></trkpt><trkpt lat="45.03926914294491" lon="9.647947600435327"><ele>61.0</ele><time>2026-04-04T14:04:03.986Z</time></trkpt><trkpt lat="45.03922291742532" lon="9.647826624048028"><ele>61.199999999999996</ele><time>2026-04-04T14:04:05.986Z</time></trkpt><trkpt lat="45.03918187279344" lon="9.64770410622157"><ele>61.39999999999999</ele><time>2026-04-04T14:04:07.986Z</time></trkpt><trkpt lat="45.03913484947856" lon="9.647573046318898"><ele>61.6</ele><time>2026-04-04T14:04:09.986Z</time></trkpt><trkpt lat="45.03908821063631" lon="9.647460396728643"><ele>61.8</ele><time>2026-04-04T14:04:11.986Z</time></trkpt><trkpt lat="45.03904567611642" lon="9.647334215346024"><ele>62.0</ele><time>2026-04-04T14:04:13.986Z</time></trkpt><trkpt lat="45.03899255700554" lon="9.647209224262285"><ele>62.400000000000006</ele><time>2026-04-04T14:04:15.986Z</time></trkpt><trkpt lat="45.03894651770802" lon="9.647082057528122"><ele>62.800000000000004</ele><time>2026-04-04T14:04:17.986Z</time></trkpt><trkpt lat="45.03890276238584" lon="9.646955651314222"><ele>63.2</ele><time>2026-04-04T14:04:19.986Z</time></trkpt><trkpt lat="45.038861862011736" lon="9.646829421857186"><ele>63.6</ele><time>2026-04-04T14:04:21.986Z</time></trkpt><trkpt lat="45.03881343724039" lon="9.646701066187523"><ele>64.0</ele><time>2026-04-04T14:04:23.986Z</time></trkpt><trkpt lat="45.03876581358726" lon="9.646574931649951"><ele>64.0</ele><time>2026-04-04T14:04:25.986Z</time></trkpt><trkpt lat="45.03872048371677" lon="9.646449035453433"><ele>64.0</ele><time>2026-04-04T14:04:27.986Z</time></trkpt><trkpt lat="45.03867809853616" lon="9.646327131246862"><ele>64.0</ele><time>2026-04-04T14:04:29.986Z</time></trkpt><trkpt lat="45.03863217242478" lon="9.646195321346607"><ele>64.0</ele><time>2026-04-04T14:04:31.986Z</time></trkpt><trkpt lat="45.03859639896195" lon="9.646070184415963"><ele>64.0</ele><time>2026-04-04T14:04:33.986Z</time></trkpt><trkpt lat="45.03854218657822" lon="9.645942185067272"><ele>64.2</ele><time>2026-04-04T14:04:35.986Z</time></trkpt><trkpt lat="45.038503345056505" lon="9.64581116608527"><ele>64.4</ele><time>2026-04-04T14:04:37.986Z</time></trkpt><trkpt lat="45.038461139381184" lon="9.645679084426643"><ele>64.6</ele><time>2026-04-04T14:04:39.986Z</time></trkpt><trkpt lat="45.03842013091823" lon="9.645556766355076"><ele>64.8</ele><time>2026-04-04T14:04:41.986Z</time></trkpt><trkpt lat="45.038372667184305" lon="9.645433598448209"><ele>65.0</ele><time>2026-04-04T14:04:43.986Z</time></trkpt><trkpt lat="45.03832825596164" lon="9.645298138759784"><ele>65.5</ele><time>2026-04-04T14:04:45.986Z</time></trkpt><trkpt lat="45.03827502830021" lon="9.645151197455267"><ele>66.0</ele><time>2026-04-04T14:04:47.986Z</time></trkpt><trkpt lat="45.03822141393974" lon="9.645001917675279"><ele>66.5</ele><time>2026-04-04T14:04:49.986Z</time></trkpt><trkpt lat="45.038167319667664" lon="9.644852360201915"><ele>67.0</ele><time>2026-04-04T14:04:51.986Z</time></trkpt><trkpt lat="45.03811485907707" lon="9.64470210766171"><ele>67.0</ele><time>2026-04-04T14:04:53.986Z</time></trkpt><trkpt lat="45.03806607930568" lon="9.6445440287298"><ele>67.0</ele><time>2026-04-04T14:04:55.986Z</time></trkpt><trkpt lat="45.03801293108528" lon="9.644392951648133"><ele>67.0</ele><time>2026-04-04T14:04:57.986Z</time></trkpt><trkpt lat="45.037951106257495" lon="9.644241586690937"><ele>67.0</ele><time>2026-04-04T14:04:59.986Z</time></trkpt><trkpt lat="45.03789125107678" lon="9.644090086223668"><ele>67.0</ele><time>2026-04-04T14:05:01.986Z</time></trkpt><trkpt lat="45.03786189636763" lon="9.64400990171368"><ele>67.0</ele><time>2026-04-04T14:05:02.986Z</time></trkpt><trkpt lat="45.037805215495865" lon="9.643850559336167"><ele>67.0</ele><time>2026-04-04T14:05:04.986Z</time></trkpt><trkpt lat="45.03775174434655" lon="9.643693306694303"><ele>67.0</ele><time>2026-04-04T14:05:06.986Z</time></trkpt><trkpt lat="45.03772252593446" lon="9.643610850652998"><ele>67.0</ele><time>2026-04-04T14:05:07.986Z</time></trkpt><trkpt lat="45.03769495943448" lon="9.643529680593275"><ele>67.0</ele><time>2026-04-04T14:05:08.986Z</time></trkpt><trkpt lat="45.03766423952912" lon="9.643447663082016"><ele>67.0</ele><time>2026-04-04T14:05:09.986Z</time></trkpt><trkpt lat="45.037609254791754" lon="9.643294016794572"><ele>67.0</ele><time>2026-04-04T14:05:11.986Z</time></trkpt><trkpt lat="45.03757970505529" lon="9.643211348884607"><ele>67.0</ele><time>2026-04-04T14:05:12.986Z</time></trkpt><trkpt lat="45.03755216113161" lon="9.64312525423201"><ele>67.0</ele><time>2026-04-04T14:05:13.986Z</time></trkpt><trkpt lat="45.0375212063867" lon="9.64304268518011"><ele>67.0</ele><time>2026-04-04T14:05:14.986Z</time></trkpt><trkpt lat="45.037491593389106" lon="9.642962499044158"><ele>67.0</ele><time>2026-04-04T14:05:15.986Z</time></trkpt><trkpt lat="45.0374353975191" lon="9.642803443184247"><ele>66.8</ele><time>2026-04-04T14:05:17.986Z</time></trkpt><trkpt lat="45.037370965065044" lon="9.642636700789456"><ele>66.6</ele><time>2026-04-04T14:05:19.986Z</time></trkpt><trkpt lat="45.0373112720453" lon="9.642474181860923"><ele>66.39999999999999</ele><time>2026-04-04T14:05:21.986Z</time></trkpt><trkpt lat="45.0372806783244" lon="9.642384554214967"><ele>66.2</ele><time>2026-04-04T14:05:22.986Z</time></trkpt><trkpt lat="45.037255161065715" lon="9.642297217926178"><ele>66.0</ele><time>2026-04-04T14:05:23.986Z</time></trkpt><trkpt lat="45.037229373210266" lon="9.642210542626874"><ele>66.0</ele><time>2026-04-04T14:05:24.986Z</time></trkpt><trkpt lat="45.03719865007063" lon="9.642130272953352"><ele>66.0</ele><time>2026-04-04T14:05:25.986Z</time></trkpt><trkpt lat="45.037167531867794" lon="9.642045735452179"><ele>66.0</ele><time>2026-04-04T14:05:26.986Z</time></trkpt><trkpt lat="45.037130814827506" lon="9.641960279373635"><ele>66.0</ele><time>2026-04-04T14:05:27.986Z</time></trkpt><trkpt lat="45.03708246385442" lon="9.641792142191926"><ele>66.0</ele><time>2026-04-04T14:05:29.986Z</time></trkpt><trkpt lat="45.03705163355875" lon="9.64171099591805"><ele>66.0</ele><time>2026-04-04T14:05:30.986Z</time></trkpt><trkpt lat="45.03700417988723" lon="9.641548248562415"><ele>66.28571428571428</ele><time>2026-04-04T14:05:32.986Z</time></trkpt><trkpt lat="45.036976838174574" lon="9.641466904376747"><ele>66.57142857142857</ele><time>2026-04-04T14:05:33.985Z</time></trkpt><trkpt lat="45.036927411030874" lon="9.641328289622518"><ele>66.85714285714286</ele><time>2026-04-04T14:05:35.987Z</time></trkpt><trkpt lat="45.03689777336897" lon="9.641243544221483"><ele>67.14285714285714</ele><time>2026-04-04T14:05:36.986Z</time></trkpt><trkpt lat="45.03686866432666" lon="9.641161929931073"><ele>67.42857142857143</ele><time>2026-04-04T14:05:37.986Z</time></trkpt><trkpt lat="45.03683973422089" lon="9.641074966310958"><ele>67.71428571428571</ele><time>2026-04-04T14:05:38.986Z</time></trkpt><trkpt lat="45.03681159919337" lon="9.640992642716588"><ele>68.0</ele><time>2026-04-04T14:05:39.985Z</time></trkpt><trkpt lat="45.036752479197496" lon="9.640845252319272"><ele>68.16666666666667</ele><time>2026-04-04T14:05:41.986Z</time></trkpt><trkpt lat="45.036706976911304" lon="9.640697090290072"><ele>68.33333333333334</ele><time>2026-04-04T14:05:43.986Z</time></trkpt><trkpt lat="45.03665572912538" lon="9.64056075004846"><ele>68.5</ele><time>2026-04-04T14:05:45.986Z</time></trkpt><trkpt lat="45.0366332489119" lon="9.640466209673894"><ele>68.66666666666667</ele><time>2026-04-04T14:05:46.986Z</time></trkpt><trkpt lat="45.03659835467613" lon="9.640387650204795"><ele>68.83333333333333</ele><time>2026-04-04T14:05:47.986Z</time></trkpt><trkpt lat="45.03656494904598" lon="9.640288802471956"><ele>69.0</ele><time>2026-04-04T14:05:48.986Z</time></trkpt><trkpt lat="45.03653369827951" lon="9.640196316966373"><ele>68.42857142857143</ele><time>2026-04-04T14:05:49.986Z</time></trkpt><trkpt lat="45.03650135289288" lon="9.640112716268195"><ele>67.85714285714286</ele><time>2026-04-04T14:05:50.986Z</time></trkpt><trkpt lat="45.03646880252442" lon="9.640020305011747"><ele>67.28571428571429</ele><time>2026-04-04T14:05:51.986Z</time></trkpt><trkpt lat="45.036435516307485" lon="9.639934512364913"><ele>66.71428571428572</ele><time>2026-04-04T14:05:52.986Z</time></trkpt><trkpt lat="45.036406038883136" lon="9.639850812249087"><ele>66.14285714285714</ele><time>2026-04-04T14:05:53.986Z</time></trkpt><trkpt lat="45.036372338675264" lon="9.63975745037515"><ele>65.57142857142858</ele><time>2026-04-04T14:05:54.986Z</time></trkpt><trkpt lat="45.036337408510676" lon="9.639667640572576"><ele>65.0</ele><time>2026-04-04T14:05:55.986Z</time></trkpt><trkpt lat="45.0362869019582" lon="9.639518705927204"><ele>65.16666666666667</ele><time>2026-04-04T14:05:57.986Z</time></trkpt><trkpt lat="45.036265686922825" lon="9.639426464875104"><ele>65.33333333333334</ele><time>2026-04-04T14:05:58.986Z</time></trkpt><trkpt lat="45.03623412365409" lon="9.639336048163953"><ele>65.5</ele><time>2026-04-04T14:05:59.986Z</time></trkpt><trkpt lat="45.036181859659656" lon="9.639218244832533"><ele>65.66666666666667</ele><time>2026-04-04T14:06:01.986Z</time></trkpt><trkpt lat="45.03615366548944" lon="9.639121324647585"><ele>65.83333333333333</ele><time>2026-04-04T14:06:02.986Z</time></trkpt><trkpt lat="45.03612023811196" lon="9.639023569013709"><ele>66.0</ele><time>2026-04-04T14:06:03.986Z</time></trkpt><trkpt lat="45.03608854950705" lon="9.638923172925386"><ele>66.0</ele><time>2026-04-04T14:06:04.986Z</time></trkpt><trkpt lat="45.0360575090766" lon="9.638841857925561"><ele>66.0</ele><time>2026-04-04T14:06:05.986Z</time></trkpt><trkpt lat="45.03602076460557" lon="9.638744882801172"><ele>66.0</ele><time>2026-04-04T14:06:06.986Z</time></trkpt><trkpt lat="45.035987759823186" lon="9.638651940306984"><ele>66.0</ele><time>2026-04-04T14:06:07.986Z</time></trkpt><trkpt lat="45.03595438433884" lon="9.638565640564071"><ele>66.0</ele><time>2026-04-04T14:06:08.986Z</time></trkpt><trkpt lat="45.03592655516414" lon="9.638475492136157"><ele>66.0</ele><time>2026-04-04T14:06:09.986Z</time></trkpt><trkpt lat="45.035896355396424" lon="9.638387261513913"><ele>66.0</ele><time>2026-04-04T14:06:10.986Z</time></trkpt><trkpt lat="45.035863217016065" lon="9.638298517462752"><ele>66.0</ele><time>2026-04-04T14:06:11.986Z</time></trkpt><trkpt lat="45.035828380587574" lon="9.638206424900813"><ele>66.0</ele><time>2026-04-04T14:06:12.986Z</time></trkpt><trkpt lat="45.03579588213317" lon="9.638117063367028"><ele>66.0</ele><time>2026-04-04T14:06:13.986Z</time></trkpt><trkpt lat="45.03576695016213" lon="9.638029299720127"><ele>66.0</ele><time>2026-04-04T14:06:14.986Z</time></trkpt><trkpt lat="45.03573667629543" lon="9.637947766500579"><ele>66.0</ele><time>2026-04-04T14:06:15.986Z</time></trkpt><trkpt lat="45.03570564917631" lon="9.637861315698673"><ele>66.0</ele><time>2026-04-04T14:06:16.986Z</time></trkpt><trkpt lat="45.03567338421668" lon="9.63778014060261"><ele>66.0</ele><time>2026-04-04T14:06:17.986Z</time></trkpt><trkpt lat="45.03564146668803" lon="9.637696066238712"><ele>66.14285714285714</ele><time>2026-04-04T14:06:18.986Z</time></trkpt><trkpt lat="45.035608855521794" lon="9.637609285947436"><ele>66.28571428571429</ele><time>2026-04-04T14:06:19.986Z</time></trkpt><trkpt lat="45.0355770534383" lon="9.63752391135635"><ele>66.42857142857143</ele><time>2026-04-04T14:06:20.986Z</time></trkpt><trkpt lat="45.03554779387073" lon="9.637437177499352"><ele>66.57142857142857</ele><time>2026-04-04T14:06:21.986Z</time></trkpt><trkpt lat="45.03551561654639" lon="9.637355694087379"><ele>66.71428571428571</ele><time>2026-04-04T14:06:22.986Z</time></trkpt><trkpt lat="45.03548446950316" lon="9.637275123694288"><ele>66.85714285714286</ele><time>2026-04-04T14:06:23.986Z</time></trkpt><trkpt lat="45.03545273899591" lon="9.637188647203931"><ele>67.0</ele><time>2026-04-04T14:06:24.986Z</time></trkpt><trkpt lat="45.03542201136278" lon="9.63710768887316"><ele>67.0</ele><time>2026-04-04T14:06:25.986Z</time></trkpt><trkpt lat="45.035391617406646" lon="9.637024464916864"><ele>67.0</ele><time>2026-04-04T14:06:26.986Z</time></trkpt><trkpt lat="45.035362524148695" lon="9.636945162490889"><ele>67.0</ele><time>2026-04-04T14:06:27.986Z</time></trkpt><trkpt lat="45.03530387030117" lon="9.63678566957971"><ele>67.0</ele><time>2026-04-04T14:06:29.986Z</time></trkpt><trkpt lat="45.03527320384113" lon="9.636706887361463"><ele>67.0</ele><time>2026-04-04T14:06:30.986Z</time></trkpt><trkpt lat="45.03524121233859" lon="9.636614958788144"><ele>67.0</ele><time>2026-04-04T14:06:31.986Z</time></trkpt><trkpt lat="45.03518151631512" lon="9.636452988411161"><ele>67.0</ele><time>2026-04-04T14:06:33.986Z</time></trkpt><trkpt lat="45.0351494811793" lon="9.636369505603454"><ele>67.0</ele><time>2026-04-04T14:06:34.986Z</time></trkpt><trkpt lat="45.03511427709958" lon="9.636284053141713"><ele>67.0</ele><time>2026-04-04T14:06:35.986Z</time></trkpt><trkpt lat="45.03506244646923" lon="9.636118636839363"><ele>67.0</ele><time>2026-04-04T14:06:37.986Z</time></trkpt><trkpt lat="45.035027668174806" lon="9.636020624562132"><ele>67.0</ele><time>2026-04-04T14:06:38.986Z</time></trkpt><trkpt lat="45.034996185731785" lon="9.635936294848191"><ele>67.0</ele><time>2026-04-04T14:06:39.986Z</time></trkpt><trkpt lat="45.0349633227958" lon="9.635850459977105"><ele>67.0</ele><time>2026-04-04T14:06:40.986Z</time></trkpt><trkpt lat="45.0349339318348" lon="9.635765181848603"><ele>67.0</ele><time>2026-04-04T14:06:41.986Z</time></trkpt><trkpt lat="45.03490437985019" lon="9.635680061073765"><ele>67.0</ele><time>2026-04-04T14:06:42.986Z</time></trkpt><trkpt lat="45.0348738918027" lon="9.635597933836689"><ele>67.0</ele><time>2026-04-04T14:06:43.986Z</time></trkpt><trkpt lat="45.03480741600742" lon="9.635446896872908"><ele>67.0</ele><time>2026-04-04T14:06:45.986Z</time></trkpt><trkpt lat="45.034758713991685" lon="9.635289980808457"><ele>67.0</ele><time>2026-04-04T14:06:47.986Z</time></trkpt><trkpt lat="45.03470830173538" lon="9.635153046163152"><ele>67.0</ele><time>2026-04-04T14:06:49.986Z</time></trkpt><trkpt lat="45.03465754316945" lon="9.635019161376585"><ele>67.0</ele><time>2026-04-04T14:06:51.986Z</time></trkpt><trkpt lat="45.03460545022421" lon="9.634897560991083"><ele>67.0</ele><time>2026-04-04T14:06:53.986Z</time></trkpt><trkpt lat="45.03456583953281" lon="9.634801131703279"><ele>67.0</ele><time>2026-04-04T14:06:55.986Z</time></trkpt><trkpt lat="45.03451564744131" lon="9.63466181246412"><ele>67.0</ele><time>2026-04-04T14:06:57.986Z</time></trkpt><trkpt lat="45.03447875446342" lon="9.634586471545447"><ele>67.0</ele><time>2026-04-04T14:06:58.986Z</time></trkpt><trkpt lat="45.034444383153385" lon="9.634497118874414"><ele>67.0</ele><time>2026-04-04T14:06:59.986Z</time></trkpt><trkpt lat="45.03441285166685" lon="9.634415678383"><ele>67.0</ele><time>2026-04-04T14:07:00.986Z</time></trkpt><trkpt lat="45.03438398241992" lon="9.634327137803341"><ele>67.0</ele><time>2026-04-04T14:07:01.986Z</time></trkpt><trkpt lat="45.03434022802266" lon="9.634159236036327"><ele>67.0</ele><time>2026-04-04T14:07:03.986Z</time></trkpt><trkpt lat="45.034313901303726" lon="9.634077190948906"><ele>67.0</ele><time>2026-04-04T14:07:04.986Z</time></trkpt><trkpt lat="45.03428069710468" lon="9.633996011600754"><ele>66.85714285714286</ele><time>2026-04-04T14:07:05.986Z</time></trkpt><trkpt lat="45.03425255906253" lon="9.633913405052054"><ele>66.71428571428571</ele><time>2026-04-04T14:07:06.986Z</time></trkpt><trkpt lat="45.03422184736629" lon="9.63382626659066"><ele>66.57142857142857</ele><time>2026-04-04T14:07:07.986Z</time></trkpt><trkpt lat="45.034187765177194" lon="9.633744945928674"><ele>66.42857142857143</ele><time>2026-04-04T14:07:08.986Z</time></trkpt><trkpt lat="45.0341564430444" lon="9.633665899859734"><ele>66.28571428571429</ele><time>2026-04-04T14:07:09.986Z</time></trkpt><trkpt lat="45.034124488434394" lon="9.633581111346627"><ele>66.14285714285714</ele><time>2026-04-04T14:07:10.986Z</time></trkpt><trkpt lat="45.03409523574258" lon="9.633499896308154"><ele>66.0</ele><time>2026-04-04T14:07:11.986Z</time></trkpt><trkpt lat="45.03406582531193" lon="9.633413473163678"><ele>65.85714285714286</ele><time>2026-04-04T14:07:12.986Z</time></trkpt><trkpt lat="45.0340352166058" lon="9.63332857812268"><ele>65.71428571428572</ele><time>2026-04-04T14:07:13.986Z</time></trkpt><trkpt lat="45.034005114348666" lon="9.63324216328791"><ele>65.57142857142858</ele><time>2026-04-04T14:07:14.986Z</time></trkpt><trkpt lat="45.03397335211657" lon="9.633157861959633"><ele>65.42857142857143</ele><time>2026-04-04T14:07:15.986Z</time></trkpt><trkpt lat="45.03394275879741" lon="9.633075034824978"><ele>65.28571428571429</ele><time>2026-04-04T14:07:16.986Z</time></trkpt><trkpt lat="45.0339128521883" lon="9.632985221664583"><ele>65.14285714285715</ele><time>2026-04-04T14:07:17.986Z</time></trkpt><trkpt lat="45.033885324704244" lon="9.63290127179009"><ele>65.0</ele><time>2026-04-04T14:07:18.986Z</time></trkpt><trkpt lat="45.03385388335213" lon="9.632818593762156"><ele>65.14285714285715</ele><time>2026-04-04T14:07:19.986Z</time></trkpt><trkpt lat="45.03381964966064" lon="9.63273384651508"><ele>65.28571428571429</ele><time>2026-04-04T14:07:20.986Z</time></trkpt><trkpt lat="45.03378650068586" lon="9.632646679054519"><ele>65.42857142857143</ele><time>2026-04-04T14:07:21.986Z</time></trkpt><trkpt lat="45.03376371828394" lon="9.632560079549934"><ele>65.57142857142858</ele><time>2026-04-04T14:07:22.986Z</time></trkpt><trkpt lat="45.033734352368036" lon="9.632471466384478"><ele>65.71428571428572</ele><time>2026-04-04T14:07:23.986Z</time></trkpt><trkpt lat="45.03370231982813" lon="9.632386996939907"><ele>65.85714285714286</ele><time>2026-04-04T14:07:24.986Z</time></trkpt><trkpt lat="45.03367185419656" lon="9.632300740809688"><ele>66.0</ele><time>2026-04-04T14:07:25.986Z</time></trkpt><trkpt lat="45.033639590294364" lon="9.632214689331542"><ele>66.0</ele><time>2026-04-04T14:07:26.986Z</time></trkpt><trkpt lat="45.033614548325886" lon="9.632129203576811"><ele>66.0</ele><time>2026-04-04T14:07:27.986Z</time></trkpt><trkpt lat="45.03358480349582" lon="9.632043542184535"><ele>66.0</ele><time>2026-04-04T14:07:28.986Z</time></trkpt><trkpt lat="45.033554267215386" lon="9.631958210279986"><ele>66.0</ele><time>2026-04-04T14:07:29.986Z</time></trkpt><trkpt lat="45.033528566930876" lon="9.631873897604082"><ele>66.0</ele><time>2026-04-04T14:07:30.986Z</time></trkpt><trkpt lat="45.03349233233257" lon="9.631786478049817"><ele>66.0</ele><time>2026-04-04T14:07:31.986Z</time></trkpt><trkpt lat="45.03346252510369" lon="9.63169963808725"><ele>66.0</ele><time>2026-04-04T14:07:32.986Z</time></trkpt><trkpt lat="45.033430146757006" lon="9.631613989532623"><ele>66.0</ele><time>2026-04-04T14:07:33.986Z</time></trkpt><trkpt lat="45.033402119502185" lon="9.631525891090082"><ele>66.0</ele><time>2026-04-04T14:07:34.986Z</time></trkpt><trkpt lat="45.03337029397077" lon="9.631438599369012"><ele>66.0</ele><time>2026-04-04T14:07:35.986Z</time></trkpt><trkpt lat="45.03334124239662" lon="9.631352877734484"><ele>66.0</ele><time>2026-04-04T14:07:36.986Z</time></trkpt><trkpt lat="45.033311654511394" lon="9.63126613008128"><ele>66.0</ele><time>2026-04-04T14:07:37.986Z</time></trkpt><trkpt lat="45.03328276792618" lon="9.631181266204916"><ele>66.0</ele><time>2026-04-04T14:07:38.985Z</time></trkpt><trkpt lat="45.03325196355057" lon="9.631095937355372"><ele>66.0</ele><time>2026-04-04T14:07:39.985Z</time></trkpt><trkpt lat="45.0332225199848" lon="9.631010135855563"><ele>66.0</ele><time>2026-04-04T14:07:40.985Z</time></trkpt><trkpt lat="45.03319045634694" lon="9.630929164269816"><ele>66.0</ele><time>2026-04-04T14:07:41.986Z</time></trkpt><trkpt lat="45.03313964492205" lon="9.63076256563158"><ele>66.0</ele><time>2026-04-04T14:07:43.985Z</time></trkpt><trkpt lat="45.03310846054929" lon="9.630675339789006"><ele>66.0</ele><time>2026-04-04T14:07:44.985Z</time></trkpt><trkpt lat="45.033085140051085" lon="9.630587688187596"><ele>66.0</ele><time>2026-04-04T14:07:45.986Z</time></trkpt><trkpt lat="45.03305499554467" lon="9.630498373474131"><ele>66.0</ele><time>2026-04-04T14:07:46.986Z</time></trkpt><trkpt lat="45.03300997242537" lon="9.630328045277077"><ele>66.16666666666667</ele><time>2026-04-04T14:07:48.985Z</time></trkpt><trkpt lat="45.03297650429757" lon="9.63024476582782"><ele>66.33333333333333</ele><time>2026-04-04T14:07:49.985Z</time></trkpt><trkpt lat="45.03294677224526" lon="9.630157503663726"><ele>66.5</ele><time>2026-04-04T14:07:50.985Z</time></trkpt><trkpt lat="45.03288817362354" lon="9.629993661459816"><ele>66.66666666666666</ele><time>2026-04-04T14:07:52.985Z</time></trkpt><trkpt lat="45.03285652583266" lon="9.62991118045574"><ele>66.83333333333333</ele><time>2026-04-04T14:07:53.985Z</time></trkpt><trkpt lat="45.03282651985477" lon="9.629832801721873"><ele>67.0</ele><time>2026-04-04T14:07:54.985Z</time></trkpt><trkpt lat="45.032791450953795" lon="9.629750571281013"><ele>67.0</ele><time>2026-04-04T14:07:55.985Z</time></trkpt><trkpt lat="45.03275667990643" lon="9.629669467624192"><ele>67.0</ele><time>2026-04-04T14:07:56.985Z</time></trkpt><trkpt lat="45.03270564874876" lon="9.629504851690022"><ele>67.0</ele><time>2026-04-04T14:07:58.985Z</time></trkpt><trkpt lat="45.03267439624027" lon="9.629419989617704"><ele>67.0</ele><time>2026-04-04T14:07:59.985Z</time></trkpt><trkpt lat="45.032611413273294" lon="9.629259307788619"><ele>67.0</ele><time>2026-04-04T14:08:01.985Z</time></trkpt><trkpt lat="45.0325848035787" lon="9.629172817117851"><ele>67.0</ele><time>2026-04-04T14:08:02.985Z</time></trkpt><trkpt lat="45.03255408426591" lon="9.629087594474345"><ele>67.0</ele><time>2026-04-04T14:08:03.985Z</time></trkpt><trkpt lat="45.03252285761117" lon="9.629000736559737"><ele>67.0</ele><time>2026-04-04T14:08:04.985Z</time></trkpt><trkpt lat="45.03249143693744" lon="9.628914869699006"><ele>67.0</ele><time>2026-04-04T14:08:05.985Z</time></trkpt><trkpt lat="45.032456059104504" lon="9.628831641378337"><ele>67.0</ele><time>2026-04-04T14:08:06.985Z</time></trkpt><trkpt lat="45.032426660488575" lon="9.62874436978614"><ele>67.0</ele><time>2026-04-04T14:08:07.985Z</time></trkpt><trkpt lat="45.03239481072902" lon="9.628667376122824"><ele>67.0</ele><time>2026-04-04T14:08:08.985Z</time></trkpt><trkpt lat="45.03234430689515" lon="9.628513166926728"><ele>67.0</ele><time>2026-04-04T14:08:10.985Z</time></trkpt><trkpt lat="45.03230999250543" lon="9.62842869826211"><ele>67.0</ele><time>2026-04-04T14:08:11.985Z</time></trkpt><trkpt lat="45.03227794725369" lon="9.628344097399639"><ele>67.0</ele><time>2026-04-04T14:08:12.985Z</time></trkpt><trkpt lat="45.03225026985763" lon="9.628258553985567"><ele>67.0</ele><time>2026-04-04T14:08:13.985Z</time></trkpt><trkpt lat="45.032194156844234" lon="9.62809344722669"><ele>67.0</ele><time>2026-04-04T14:08:15.985Z</time></trkpt><trkpt lat="45.032166240794545" lon="9.628008281378834"><ele>67.0</ele><time>2026-04-04T14:08:16.985Z</time></trkpt><trkpt lat="45.03213220384328" lon="9.627925741290326"><ele>67.0</ele><time>2026-04-04T14:08:17.985Z</time></trkpt><trkpt lat="45.032107558393015" lon="9.627843541743378"><ele>67.0</ele><time>2026-04-04T14:08:18.985Z</time></trkpt><trkpt lat="45.032076893947824" lon="9.627755035849122"><ele>67.0</ele><time>2026-04-04T14:08:19.985Z</time></trkpt><trkpt lat="45.032051360802775" lon="9.62766952053636"><ele>67.0</ele><time>2026-04-04T14:08:20.985Z</time></trkpt><trkpt lat="45.03202268196005" lon="9.627580914654683"><ele>67.0</ele><time>2026-04-04T14:08:21.985Z</time></trkpt><trkpt lat="45.03200060078652" lon="9.627493917457288"><ele>67.0</ele><time>2026-04-04T14:08:22.985Z</time></trkpt><trkpt lat="45.031990652373224" lon="9.627405676765108"><ele>67.0</ele><time>2026-04-04T14:08:23.985Z</time></trkpt><trkpt lat="45.03197998892775" lon="9.627313379559597"><ele>67.0</ele><time>2026-04-04T14:08:24.985Z</time></trkpt><trkpt lat="45.03199027490477" lon="9.627214327124147"><ele>67.0</ele><time>2026-04-04T14:08:25.985Z</time></trkpt><trkpt lat="45.03200624229244" lon="9.627036249192052"><ele>67.0</ele><time>2026-04-04T14:08:27.985Z</time></trkpt><trkpt lat="45.03201100338999" lon="9.626939176664838"><ele>67.0</ele><time>2026-04-04T14:08:28.985Z</time></trkpt><trkpt lat="45.03201878319125" lon="9.626844451105155"><ele>67.0</ele><time>2026-04-04T14:08:29.985Z</time></trkpt><trkpt lat="45.0320134555697" lon="9.626751185210392"><ele>67.0</ele><time>2026-04-04T14:08:30.985Z</time></trkpt><trkpt lat="45.03200858467892" lon="9.62665911725256"><ele>66.85714285714286</ele><time>2026-04-04T14:08:31.985Z</time></trkpt><trkpt lat="45.032004353166165" lon="9.626565892859958"><ele>66.71428571428571</ele><time>2026-04-04T14:08:32.985Z</time></trkpt><trkpt lat="45.03199552399534" lon="9.626475334174927"><ele>66.57142857142857</ele><time>2026-04-04T14:08:33.985Z</time></trkpt><trkpt lat="45.03199303385005" lon="9.626383934178358"><ele>66.42857142857143</ele><time>2026-04-04T14:08:34.985Z</time></trkpt><trkpt lat="45.031979830399294" lon="9.626290215216699"><ele>66.28571428571429</ele><time>2026-04-04T14:08:35.985Z</time></trkpt><trkpt lat="45.03195945802882" lon="9.626201146806816"><ele>66.14285714285714</ele><time>2026-04-04T14:08:36.985Z</time></trkpt><trkpt lat="45.031931972408564" lon="9.62611463681461"><ele>66.0</ele><time>2026-04-04T14:08:37.985Z</time></trkpt><trkpt lat="45.03189663370723" lon="9.626035559960664"><ele>65.83333333333333</ele><time>2026-04-04T14:08:38.985Z</time></trkpt><trkpt lat="45.031825388425645" lon="9.625884902910578"><ele>65.66666666666667</ele><time>2026-04-04T14:08:40.985Z</time></trkpt><trkpt lat="45.031786794069994" lon="9.625794893842384"><ele>65.5</ele><time>2026-04-04T14:08:41.985Z</time></trkpt><trkpt lat="45.03175754584742" lon="9.625708664703424"><ele>65.33333333333334</ele><time>2026-04-04T14:08:42.985Z</time></trkpt><trkpt lat="45.03173692735684" lon="9.625613088308585"><ele>65.16666666666667</ele><time>2026-04-04T14:08:43.985Z</time></trkpt><trkpt lat="45.03172144942436" lon="9.625517252202998"><ele>65.0</ele><time>2026-04-04T14:08:44.985Z</time></trkpt><trkpt lat="45.03170765326685" lon="9.62542612517823"><ele>65.00000000000001</ele><time>2026-04-04T14:08:45.985Z</time></trkpt><trkpt lat="45.03169705916649" lon="9.625332084376266"><ele>65.0</ele><time>2026-04-04T14:08:46.985Z</time></trkpt><trkpt lat="45.031683889214584" lon="9.625235835369757"><ele>65.0</ele><time>2026-04-04T14:08:47.985Z</time></trkpt><trkpt lat="45.031673986123366" lon="9.62514584063017"><ele>65.0</ele><time>2026-04-04T14:08:48.985Z</time></trkpt><trkpt lat="45.031665740677944" lon="9.625049266342225"><ele>65.0</ele><time>2026-04-04T14:08:49.985Z</time></trkpt><trkpt lat="45.03165887108063" lon="9.624954517539374"><ele>65.00000000000001</ele><time>2026-04-04T14:08:50.985Z</time></trkpt><trkpt lat="45.03164974820518" lon="9.62486113660238"><ele>65.0</ele><time>2026-04-04T14:08:51.985Z</time></trkpt><trkpt lat="45.03164471131593" lon="9.624771669653455"><ele>65.42857142857143</ele><time>2026-04-04T14:08:52.985Z</time></trkpt><trkpt lat="45.03163949801247" lon="9.624680660636693"><ele>65.85714285714286</ele><time>2026-04-04T14:08:53.985Z</time></trkpt><trkpt lat="45.031630161150325" lon="9.624578168215713"><ele>66.28571428571428</ele><time>2026-04-04T14:08:54.985Z</time></trkpt><trkpt lat="45.03162285758655" lon="9.624482900374755"><ele>66.71428571428572</ele><time>2026-04-04T14:08:55.985Z</time></trkpt><trkpt lat="45.03161683666364" lon="9.624388641537967"><ele>67.14285714285714</ele><time>2026-04-04T14:08:56.985Z</time></trkpt><trkpt lat="45.03161111734494" lon="9.624293164715136"><ele>67.57142857142857</ele><time>2026-04-04T14:08:57.985Z</time></trkpt><trkpt lat="45.031604179438325" lon="9.624196017553496"><ele>68.0</ele><time>2026-04-04T14:08:58.985Z</time></trkpt><trkpt lat="45.031599582985336" lon="9.624097524112496"><ele>67.99999999999999</ele><time>2026-04-04T14:08:59.985Z</time></trkpt><trkpt lat="45.0315987831895" lon="9.624002085907842"><ele>68.0</ele><time>2026-04-04T14:09:00.985Z</time></trkpt><trkpt lat="45.03159347407423" lon="9.623907759585604"><ele>68.0</ele><time>2026-04-04T14:09:01.985Z</time></trkpt><trkpt lat="45.03159215777211" lon="9.623811944101945"><ele>68.0</ele><time>2026-04-04T14:09:02.985Z</time></trkpt><trkpt lat="45.03158488905043" lon="9.623717948427846"><ele>68.0</ele><time>2026-04-04T14:09:03.985Z</time></trkpt><trkpt lat="45.031578912675045" lon="9.623625509246873"><ele>67.99999999999999</ele><time>2026-04-04T14:09:04.985Z</time></trkpt><trkpt lat="45.031576350585105" lon="9.623536005460634"><ele>68.0</ele><time>2026-04-04T14:09:05.985Z</time></trkpt><trkpt lat="45.03157238570543" lon="9.623440306892407"><ele>68.0</ele><time>2026-04-04T14:09:06.985Z</time></trkpt><trkpt lat="45.031572267528084" lon="9.623341369967749"><ele>68.0</ele><time>2026-04-04T14:09:07.985Z</time></trkpt><trkpt lat="45.03156973357154" lon="9.623251607004418"><ele>68.0</ele><time>2026-04-04T14:09:08.985Z</time></trkpt><trkpt lat="45.03156379309463" lon="9.623154661924906"><ele>68.0</ele><time>2026-04-04T14:09:09.985Z</time></trkpt><trkpt lat="45.03156515438903" lon="9.623053684727774"><ele>68.0</ele><time>2026-04-04T14:09:10.985Z</time></trkpt><trkpt lat="45.031561658868284" lon="9.622955680715458"><ele>68.0</ele><time>2026-04-04T14:09:11.985Z</time></trkpt><trkpt lat="45.031556954408195" lon="9.622767445772002"><ele>67.99999999999999</ele><time>2026-04-04T14:09:13.985Z</time></trkpt><trkpt lat="45.03155616235238" lon="9.622671323253432"><ele>68.0</ele><time>2026-04-04T14:09:14.985Z</time></trkpt><trkpt lat="45.03155900837727" lon="9.622577896689137"><ele>68.0</ele><time>2026-04-04T14:09:15.985Z</time></trkpt><trkpt lat="45.03155617359301" lon="9.62248261357828"><ele>68.0</ele><time>2026-04-04T14:09:16.985Z</time></trkpt><trkpt lat="45.031553995695546" lon="9.622377910291938"><ele>68.0</ele><time>2026-04-04T14:09:17.985Z</time></trkpt><trkpt lat="45.03155416665078" lon="9.622284815641404"><ele>67.99999999999999</ele><time>2026-04-04T14:09:18.985Z</time></trkpt><trkpt lat="45.031551602856545" lon="9.622191286606137"><ele>68.0</ele><time>2026-04-04T14:09:19.985Z</time></trkpt><trkpt lat="45.03155421364721" lon="9.622097249894862"><ele>67.99999999999999</ele><time>2026-04-04T14:09:20.985Z</time></trkpt><trkpt lat="45.03155591887047" lon="9.62200072262543"><ele>68.0</ele><time>2026-04-04T14:09:21.985Z</time></trkpt><trkpt lat="45.031554980367595" lon="9.621908121162605"><ele>68.0</ele><time>2026-04-04T14:09:22.985Z</time></trkpt><trkpt lat="45.03155645186906" lon="9.621811974161156"><ele>68.0</ele><time>2026-04-04T14:09:23.985Z</time></trkpt><trkpt lat="45.03155903305221" lon="9.621716642091911"><ele>68.0</ele><time>2026-04-04T14:09:24.985Z</time></trkpt><trkpt lat="45.031552490692626" lon="9.621617509274643"><ele>67.99999999999999</ele><time>2026-04-04T14:09:25.985Z</time></trkpt><trkpt lat="45.031553752607586" lon="9.621528235098571"><ele>68.0</ele><time>2026-04-04T14:09:26.985Z</time></trkpt><trkpt lat="45.03154956601688" lon="9.621432152096892"><ele>68.14285714285714</ele><time>2026-04-04T14:09:27.985Z</time></trkpt><trkpt lat="45.031544934226964" lon="9.621336675485146"><ele>68.28571428571428</ele><time>2026-04-04T14:09:28.985Z</time></trkpt><trkpt lat="45.031545573465735" lon="9.62123894744288"><ele>68.42857142857143</ele><time>2026-04-04T14:09:29.985Z</time></trkpt><trkpt lat="45.03154435821136" lon="9.621141054208215"><ele>68.57142857142857</ele><time>2026-04-04T14:09:30.985Z</time></trkpt><trkpt lat="45.0315420433741" lon="9.62104365289938"><ele>68.71428571428572</ele><time>2026-04-04T14:09:31.985Z</time></trkpt><trkpt lat="45.03154637941404" lon="9.620948455748845"><ele>68.85714285714286</ele><time>2026-04-04T14:09:32.985Z</time></trkpt><trkpt lat="45.031555868278645" lon="9.62084684197086"><ele>69.0</ele><time>2026-04-04T14:09:33.985Z</time></trkpt><trkpt lat="45.031555396448454" lon="9.620745897444197"><ele>69.0</ele><time>2026-04-04T14:09:34.985Z</time></trkpt><trkpt lat="45.03155603017895" lon="9.620644847642295"><ele>69.0</ele><time>2026-04-04T14:09:35.985Z</time></trkpt><trkpt lat="45.031558562851" lon="9.620541546663121"><ele>69.0</ele><time>2026-04-04T14:09:36.985Z</time></trkpt><trkpt lat="45.03156163682946" lon="9.620439250192236"><ele>69.0</ele><time>2026-04-04T14:09:37.985Z</time></trkpt><trkpt lat="45.03156365181522" lon="9.62033615128821"><ele>69.0</ele><time>2026-04-04T14:09:38.985Z</time></trkpt><trkpt lat="45.03156571763065" lon="9.620233626313048"><ele>69.0</ele><time>2026-04-04T14:09:39.985Z</time></trkpt><trkpt lat="45.03156526033671" lon="9.620127085619771"><ele>69.0</ele><time>2026-04-04T14:09:40.985Z</time></trkpt><trkpt lat="45.03156315713087" lon="9.62002037226916"><ele>68.5</ele><time>2026-04-04T14:09:41.985Z</time></trkpt><trkpt lat="45.03156361213848" lon="9.61991569592701"><ele>68.0</ele><time>2026-04-04T14:09:42.985Z</time></trkpt><trkpt lat="45.03155874462969" lon="9.619806657340003"><ele>67.5</ele><time>2026-04-04T14:09:43.985Z</time></trkpt><trkpt lat="45.03156026329409" lon="9.619697479675644"><ele>67.0</ele><time>2026-04-04T14:09:44.985Z</time></trkpt><trkpt lat="45.03156570763691" lon="9.61958580555416"><ele>66.5</ele><time>2026-04-04T14:09:45.985Z</time></trkpt><trkpt lat="45.03156432950512" lon="9.619474338089892"><ele>66.0</ele><time>2026-04-04T14:09:46.985Z</time></trkpt><trkpt lat="45.03156347837583" lon="9.619357104139018"><ele>65.83333333333333</ele><time>2026-04-04T14:09:47.985Z</time></trkpt><trkpt lat="45.03156385179097" lon="9.61924978847955"><ele>65.66666666666667</ele><time>2026-04-04T14:09:48.985Z</time></trkpt><trkpt lat="45.03156299673989" lon="9.619140037183044"><ele>65.5</ele><time>2026-04-04T14:09:49.985Z</time></trkpt><trkpt lat="45.03156830500154" lon="9.619020327930004"><ele>65.33333333333334</ele><time>2026-04-04T14:09:50.986Z</time></trkpt><trkpt lat="45.03157039025808" lon="9.618907536374225"><ele>65.16666666666667</ele><time>2026-04-04T14:09:51.985Z</time></trkpt><trkpt lat="45.031569016348975" lon="9.618796165000957"><ele>65.0</ele><time>2026-04-04T14:09:52.985Z</time></trkpt><trkpt lat="45.03157044751017" lon="9.618679962968304"><ele>65.16666666666667</ele><time>2026-04-04T14:09:53.985Z</time></trkpt><trkpt lat="45.03157127416575" lon="9.61857184521009"><ele>65.33333333333334</ele><time>2026-04-04T14:09:54.985Z</time></trkpt><trkpt lat="45.03156932352554" lon="9.618457559151135"><ele>65.5</ele><time>2026-04-04T14:09:55.985Z</time></trkpt><trkpt lat="45.03156986562931" lon="9.618343594529179"><ele>65.66666666666667</ele><time>2026-04-04T14:09:56.985Z</time></trkpt><trkpt lat="45.03156480135753" lon="9.61823238753637"><ele>65.83333333333333</ele><time>2026-04-04T14:09:57.985Z</time></trkpt><trkpt lat="45.031569648136355" lon="9.618123364044612"><ele>66.0</ele><time>2026-04-04T14:09:58.985Z</time></trkpt><trkpt lat="45.03156524179628" lon="9.618011248353817"><ele>66.0</ele><time>2026-04-04T14:09:59.985Z</time></trkpt><trkpt lat="45.03157031167851" lon="9.61790466478297"><ele>66.0</ele><time>2026-04-04T14:10:00.985Z</time></trkpt><trkpt lat="45.03156489377419" lon="9.617792798415794"><ele>66.0</ele><time>2026-04-04T14:10:01.985Z</time></trkpt><trkpt lat="45.03156547151355" lon="9.61768516839286"><ele>66.0</ele><time>2026-04-04T14:10:02.985Z</time></trkpt><trkpt lat="45.031565066901386" lon="9.617575846589377"><ele>66.0</ele><time>2026-04-04T14:10:03.985Z</time></trkpt><trkpt lat="45.03156688708911" lon="9.617465658587513"><ele>66.0</ele><time>2026-04-04T14:10:04.985Z</time></trkpt><trkpt lat="45.031566368678945" lon="9.617354481095274"><ele>66.0</ele><time>2026-04-04T14:10:05.985Z</time></trkpt><trkpt lat="45.031565603731025" lon="9.617242360842907"><ele>66.0</ele><time>2026-04-04T14:10:06.985Z</time></trkpt><trkpt lat="45.03157156488257" lon="9.617133976983904"><ele>66.0</ele><time>2026-04-04T14:10:07.985Z</time></trkpt><trkpt lat="45.03156689020715" lon="9.617017856732259"><ele>66.0</ele><time>2026-04-04T14:10:08.985Z</time></trkpt><trkpt lat="45.03156509214671" lon="9.616904697661983"><ele>66.0</ele><time>2026-04-04T14:10:09.985Z</time></trkpt><trkpt lat="45.03156499998644" lon="9.616794070240395"><ele>66.0</ele><time>2026-04-04T14:10:10.985Z</time></trkpt><trkpt lat="45.03156384909674" lon="9.616684322721374"><ele>66.0</ele><time>2026-04-04T14:10:11.985Z</time></trkpt><trkpt lat="45.0315643888372" lon="9.616573451015364"><ele>66.0</ele><time>2026-04-04T14:10:12.985Z</time></trkpt><trkpt lat="45.03156315013474" lon="9.616466853234048"><ele>66.0</ele><time>2026-04-04T14:10:13.985Z</time></trkpt><trkpt lat="45.03156097088448" lon="9.616356565391303"><ele>66.0</ele><time>2026-04-04T14:10:14.985Z</time></trkpt><trkpt lat="45.03156111127648" lon="9.616249215464904"><ele>66.0</ele><time>2026-04-04T14:10:15.985Z</time></trkpt><trkpt lat="45.03156024022782" lon="9.616139164450932"><ele>66.0</ele><time>2026-04-04T14:10:16.985Z</time></trkpt><trkpt lat="45.031560239331725" lon="9.6160306974499"><ele>66.0</ele><time>2026-04-04T14:10:17.985Z</time></trkpt><trkpt lat="45.0315605806754" lon="9.615931836966839"><ele>66.0</ele><time>2026-04-04T14:10:18.985Z</time></trkpt><trkpt lat="45.03156055361811" lon="9.615822663221053"><ele>66.0</ele><time>2026-04-04T14:10:19.985Z</time></trkpt><trkpt lat="45.03156020455009" lon="9.615716266751711"><ele>66.0</ele><time>2026-04-04T14:10:20.985Z</time></trkpt><trkpt lat="45.03156065234425" lon="9.615609961183116"><ele>66.0</ele><time>2026-04-04T14:10:21.985Z</time></trkpt><trkpt lat="45.03155854614429" lon="9.615499695820588"><ele>66.0</ele><time>2026-04-04T14:10:22.985Z</time></trkpt><trkpt lat="45.031561360608265" lon="9.615395619659413"><ele>66.0</ele><time>2026-04-04T14:10:23.985Z</time></trkpt><trkpt lat="45.0315571641873" lon="9.615282297415973"><ele>66.0</ele><time>2026-04-04T14:10:24.985Z</time></trkpt><trkpt lat="45.03155376056854" lon="9.615175332350523"><ele>66.0</ele><time>2026-04-04T14:10:25.985Z</time></trkpt><trkpt lat="45.03155680931147" lon="9.615061407075977"><ele>66.0</ele><time>2026-04-04T14:10:26.985Z</time></trkpt><trkpt lat="45.03155671113899" lon="9.614958307513893"><ele>66.0</ele><time>2026-04-04T14:10:27.985Z</time></trkpt><trkpt lat="45.031551086901814" lon="9.61485458101487"><ele>66.0</ele><time>2026-04-04T14:10:28.985Z</time></trkpt><trkpt lat="45.03155289120919" lon="9.614753470399153"><ele>66.0</ele><time>2026-04-04T14:10:29.985Z</time></trkpt><trkpt lat="45.031554816742" lon="9.614638273348996"><ele>66.0</ele><time>2026-04-04T14:10:30.985Z</time></trkpt><trkpt lat="45.03155113191666" lon="9.614527232919277"><ele>66.0</ele><time>2026-04-04T14:10:31.985Z</time></trkpt><trkpt lat="45.03155005109732" lon="9.614419250154473"><ele>66.0</ele><time>2026-04-04T14:10:32.985Z</time></trkpt><trkpt lat="45.031549208048624" lon="9.614310030088305"><ele>66.0</ele><time>2026-04-04T14:10:33.985Z</time></trkpt><trkpt lat="45.03154678529652" lon="9.61420301713371"><ele>66.0</ele><time>2026-04-04T14:10:34.985Z</time></trkpt><trkpt lat="45.031546265954624" lon="9.614098053575656"><ele>66.0</ele><time>2026-04-04T14:10:35.985Z</time></trkpt><trkpt lat="45.03154016553956" lon="9.613994084860451"><ele>66.16666666666667</ele><time>2026-04-04T14:10:36.985Z</time></trkpt><trkpt lat="45.03154457601043" lon="9.613883660298907"><ele>66.33333333333333</ele><time>2026-04-04T14:10:37.985Z</time></trkpt><trkpt lat="45.031546542239056" lon="9.613775926755434"><ele>66.5</ele><time>2026-04-04T14:10:38.985Z</time></trkpt><trkpt lat="45.03154467160735" lon="9.61367214512723"><ele>66.66666666666666</ele><time>2026-04-04T14:10:39.985Z</time></trkpt><trkpt lat="45.03154433098766" lon="9.613564298226159"><ele>66.83333333333333</ele><time>2026-04-04T14:10:40.985Z</time></trkpt><trkpt lat="45.03154501145961" lon="9.613459948686137"><ele>67.0</ele><time>2026-04-04T14:10:41.985Z</time></trkpt><trkpt lat="45.03153933229426" lon="9.613356817414504"><ele>67.0</ele><time>2026-04-04T14:10:42.985Z</time></trkpt><trkpt lat="45.031538339790245" lon="9.613242952139284"><ele>67.0</ele><time>2026-04-04T14:10:43.985Z</time></trkpt><trkpt lat="45.03153577285408" lon="9.613126401874766"><ele>67.0</ele><time>2026-04-04T14:10:44.985Z</time></trkpt><trkpt lat="45.03153996315481" lon="9.613024423761328"><ele>67.0</ele><time>2026-04-04T14:10:45.985Z</time></trkpt><trkpt lat="45.03154154912048" lon="9.612921291804431"><ele>67.0</ele><time>2026-04-04T14:10:46.985Z</time></trkpt><trkpt lat="45.03154121500782" lon="9.612811091123241"><ele>67.0</ele><time>2026-04-04T14:10:47.985Z</time></trkpt><trkpt lat="45.03154046555743" lon="9.612700892081508"><ele>67.0</ele><time>2026-04-04T14:10:48.984Z</time></trkpt><trkpt lat="45.03154437721722" lon="9.612588112410604"><ele>67.0</ele><time>2026-04-04T14:10:49.984Z</time></trkpt><trkpt lat="45.03154359217135" lon="9.612478879059784"><ele>67.0</ele><time>2026-04-04T14:10:50.983Z</time></trkpt><trkpt lat="45.03154478344731" lon="9.612369671117447"><ele>67.0</ele><time>2026-04-04T14:10:51.982Z</time></trkpt><trkpt lat="45.031543461484475" lon="9.612259548336256"><ele>67.0</ele><time>2026-04-04T14:10:52.982Z</time></trkpt><trkpt lat="45.03154066498335" lon="9.612144405455481"><ele>67.0</ele><time>2026-04-04T14:10:53.981Z</time></trkpt><trkpt lat="45.03154430572563" lon="9.612038656021294"><ele>66.83333333333333</ele><time>2026-04-04T14:10:54.981Z</time></trkpt><trkpt lat="45.03154596934799" lon="9.61192906350271"><ele>66.66666666666666</ele><time>2026-04-04T14:10:55.98Z</time></trkpt><trkpt lat="45.031548301937995" lon="9.61182007144832"><ele>66.5</ele><time>2026-04-04T14:10:56.98Z</time></trkpt><trkpt lat="45.031550158323405" lon="9.61171570250475"><ele>66.33333333333333</ele><time>2026-04-04T14:10:57.98Z</time></trkpt><trkpt lat="45.03154888540285" lon="9.611609634549625"><ele>66.16666666666667</ele><time>2026-04-04T14:10:58.979Z</time></trkpt><trkpt lat="45.03155083975626" lon="9.611497739960132"><ele>66.0</ele><time>2026-04-04T14:10:59.979Z</time></trkpt><trkpt lat="45.03154941903192" lon="9.611388425150643"><ele>66.0</ele><time>2026-04-04T14:11:00.979Z</time></trkpt><trkpt lat="45.03155134356264" lon="9.611281774363837"><ele>66.0</ele><time>2026-04-04T14:11:01.978Z</time></trkpt><trkpt lat="45.031554988618865" lon="9.611173901350394"><ele>66.0</ele><time>2026-04-04T14:11:02.978Z</time></trkpt><trkpt lat="45.031550026622334" lon="9.611065303623931"><ele>66.0</ele><time>2026-04-04T14:11:03.978Z</time></trkpt><trkpt lat="45.03154881802456" lon="9.610955999376689"><ele>66.0</ele><time>2026-04-04T14:11:04.978Z</time></trkpt><trkpt lat="45.031551495055986" lon="9.610848915272074"><ele>66.0</ele><time>2026-04-04T14:11:05.977Z</time></trkpt><trkpt lat="45.03155363332791" lon="9.610740941129102"><ele>66.0</ele><time>2026-04-04T14:11:06.977Z</time></trkpt><trkpt lat="45.03155477118808" lon="9.610637751599558"><ele>66.0</ele><time>2026-04-04T14:11:07.977Z</time></trkpt><trkpt lat="45.031554462756134" lon="9.610533173227354"><ele>66.0</ele><time>2026-04-04T14:11:08.977Z</time></trkpt><trkpt lat="45.03155462525726" lon="9.610430859659937"><ele>66.0</ele><time>2026-04-04T14:11:09.977Z</time></trkpt><trkpt lat="45.031558146773286" lon="9.610330846118144"><ele>66.0</ele><time>2026-04-04T14:11:10.976Z</time></trkpt><trkpt lat="45.03156061113653" lon="9.610227791592775"><ele>66.0</ele><time>2026-04-04T14:11:11.976Z</time></trkpt><trkpt lat="45.03156263950894" lon="9.610129690566557"><ele>66.0</ele><time>2026-04-04T14:11:12.976Z</time></trkpt><trkpt lat="45.03156518833819" lon="9.610028349169733"><ele>66.0</ele><time>2026-04-04T14:11:13.976Z</time></trkpt><trkpt lat="45.03156289794813" lon="9.609924315973075"><ele>66.0</ele><time>2026-04-04T14:11:14.976Z</time></trkpt><trkpt lat="45.031561348927816" lon="9.60982201265268"><ele>66.0</ele><time>2026-04-04T14:11:15.976Z</time></trkpt><trkpt lat="45.03156465826427" lon="9.609716770276169"><ele>66.0</ele><time>2026-04-04T14:11:16.976Z</time></trkpt><trkpt lat="45.0315627944074" lon="9.609613350964793"><ele>66.0</ele><time>2026-04-04T14:11:17.975Z</time></trkpt><trkpt lat="45.03156634833793" lon="9.609506858504753"><ele>66.0</ele><time>2026-04-04T14:11:18.975Z</time></trkpt><trkpt lat="45.03156330550392" lon="9.60940471674453"><ele>66.0</ele><time>2026-04-04T14:11:19.975Z</time></trkpt><trkpt lat="45.031555666864186" lon="9.609302902979143"><ele>66.14285714285714</ele><time>2026-04-04T14:11:20.975Z</time></trkpt><trkpt lat="45.03154376868339" lon="9.609199641339414"><ele>66.28571428571429</ele><time>2026-04-04T14:11:21.975Z</time></trkpt><trkpt lat="45.03153412169216" lon="9.609096563287649"><ele>66.42857142857143</ele><time>2026-04-04T14:11:22.975Z</time></trkpt><trkpt lat="45.03151910320272" lon="9.608998327052927"><ele>66.57142857142857</ele><time>2026-04-04T14:11:23.975Z</time></trkpt><trkpt lat="45.031509125523634" lon="9.608897534323507"><ele>66.71428571428571</ele><time>2026-04-04T14:11:24.975Z</time></trkpt><trkpt lat="45.03150008536382" lon="9.608795425134895"><ele>66.85714285714286</ele><time>2026-04-04T14:11:25.975Z</time></trkpt><trkpt lat="45.031496019672105" lon="9.60868552445456"><ele>67.0</ele><time>2026-04-04T14:11:26.975Z</time></trkpt><trkpt lat="45.0314975465123" lon="9.60858188558633"><ele>67.16666666666666</ele><time>2026-04-04T14:11:27.975Z</time></trkpt><trkpt lat="45.03150068256449" lon="9.608466666560151"><ele>67.33333333333333</ele><time>2026-04-04T14:11:28.975Z</time></trkpt><trkpt lat="45.03149802099849" lon="9.60836294147744"><ele>67.5</ele><time>2026-04-04T14:11:29.975Z</time></trkpt><trkpt lat="45.03149696144806" lon="9.608257580829294"><ele>67.66666666666667</ele><time>2026-04-04T14:11:30.974Z</time></trkpt><trkpt lat="45.03149741822964" lon="9.60815420571149"><ele>67.83333333333334</ele><time>2026-04-04T14:11:31.974Z</time></trkpt><trkpt lat="45.031499997226106" lon="9.608046985630406"><ele>68.0</ele><time>2026-04-04T14:11:32.974Z</time></trkpt><trkpt lat="45.03150128096863" lon="9.607943703297693"><ele>67.99999999999999</ele><time>2026-04-04T14:11:33.974Z</time></trkpt><trkpt lat="45.031506081903146" lon="9.607835863986447"><ele>68.0</ele><time>2026-04-04T14:11:34.974Z</time></trkpt><trkpt lat="45.031506080011134" lon="9.607729168311353"><ele>68.0</ele><time>2026-04-04T14:11:35.974Z</time></trkpt><trkpt lat="45.03150513231117" lon="9.607625182238882"><ele>68.0</ele><time>2026-04-04T14:11:36.974Z</time></trkpt><trkpt lat="45.031503551801826" lon="9.607521415658915"><ele>68.0</ele><time>2026-04-04T14:11:37.974Z</time></trkpt><trkpt lat="45.03150196737581" lon="9.607415829758043"><ele>67.99999999999999</ele><time>2026-04-04T14:11:38.974Z</time></trkpt><trkpt lat="45.03150099258743" lon="9.607316038414929"><ele>68.0</ele><time>2026-04-04T14:11:39.974Z</time></trkpt><trkpt lat="45.03150167850561" lon="9.607211604206867"><ele>67.85714285714285</ele><time>2026-04-04T14:11:40.974Z</time></trkpt><trkpt lat="45.03150123975416" lon="9.607110525501309"><ele>67.71428571428571</ele><time>2026-04-04T14:11:41.974Z</time></trkpt><trkpt lat="45.03149961909997" lon="9.607010107307381"><ele>67.57142857142857</ele><time>2026-04-04T14:11:42.974Z</time></trkpt><trkpt lat="45.03150773643044" lon="9.606904310292071"><ele>67.42857142857142</ele><time>2026-04-04T14:11:43.974Z</time></trkpt><trkpt lat="45.03150658996121" lon="9.606807182051137"><ele>67.28571428571428</ele><time>2026-04-04T14:11:44.974Z</time></trkpt><trkpt lat="45.03150743734233" lon="9.606702620869179"><ele>67.14285714285714</ele><time>2026-04-04T14:11:45.974Z</time></trkpt><trkpt lat="45.03150377818398" lon="9.606603069346445"><ele>67.0</ele><time>2026-04-04T14:11:46.974Z</time></trkpt><trkpt lat="45.03150750738616" lon="9.606501373890083"><ele>66.85714285714286</ele><time>2026-04-04T14:11:47.974Z</time></trkpt><trkpt lat="45.03149197910543" lon="9.606394782871615"><ele>66.71428571428571</ele><time>2026-04-04T14:11:48.974Z</time></trkpt><trkpt lat="45.03149541120989" lon="9.60630250622203"><ele>66.57142857142857</ele><time>2026-04-04T14:11:49.974Z</time></trkpt><trkpt lat="45.03150220251611" lon="9.606201588693612"><ele>66.42857142857143</ele><time>2026-04-04T14:11:50.974Z</time></trkpt><trkpt lat="45.031499155279526" lon="9.606100744880237"><ele>66.28571428571429</ele><time>2026-04-04T14:11:51.974Z</time></trkpt><trkpt lat="45.03149944361427" lon="9.606007120376914"><ele>66.14285714285714</ele><time>2026-04-04T14:11:52.974Z</time></trkpt><trkpt lat="45.03150080648877" lon="9.605906916091072"><ele>66.0</ele><time>2026-04-04T14:11:53.974Z</time></trkpt><trkpt lat="45.03149918599966" lon="9.60580828123539"><ele>66.16666666666667</ele><time>2026-04-04T14:11:54.974Z</time></trkpt><trkpt lat="45.03149999617994" lon="9.605707644936013"><ele>66.33333333333333</ele><time>2026-04-04T14:11:55.974Z</time></trkpt><trkpt lat="45.03149762395339" lon="9.605612325526021"><ele>66.5</ele><time>2026-04-04T14:11:56.974Z</time></trkpt><trkpt lat="45.0314981007342" lon="9.605518033757704"><ele>66.66666666666666</ele><time>2026-04-04T14:11:57.974Z</time></trkpt><trkpt lat="45.031494874028006" lon="9.605425847479843"><ele>66.83333333333333</ele><time>2026-04-04T14:11:58.974Z</time></trkpt><trkpt lat="45.03149301075811" lon="9.605331256470807"><ele>67.0</ele><time>2026-04-04T14:11:59.974Z</time></trkpt><trkpt lat="45.03148133091168" lon="9.605161352403805"><ele>67.0</ele><time>2026-04-04T14:12:01.973Z</time></trkpt><trkpt lat="45.03148124874672" lon="9.604997711975996"><ele>67.0</ele><time>2026-04-04T14:12:03.974Z</time></trkpt><trkpt lat="45.031433609989215" lon="9.604867298252115"><ele>67.0</ele><time>2026-04-04T14:12:05.974Z</time></trkpt><trkpt lat="45.03140294794759" lon="9.604753437251414"><ele>67.0</ele><time>2026-04-04T14:12:07.974Z</time></trkpt><trkpt lat="45.03136217888943" lon="9.604650772541312"><ele>67.0</ele><time>2026-04-04T14:12:09.974Z</time></trkpt><trkpt lat="45.03137124851048" lon="9.60451244595471"><ele>67.0</ele><time>2026-04-04T14:12:11.974Z</time></trkpt><trkpt lat="45.031388892674336" lon="9.604355123135264"><ele>67.0</ele><time>2026-04-04T14:12:13.974Z</time></trkpt><trkpt lat="45.03138810695257" lon="9.604181789109605"><ele>67.0</ele><time>2026-04-04T14:12:15.974Z</time></trkpt><trkpt lat="45.03138041852212" lon="9.604011106515031"><ele>67.0</ele><time>2026-04-04T14:12:17.974Z</time></trkpt><trkpt lat="45.03139808696558" lon="9.603924878787163"><ele>67.0</ele><time>2026-04-04T14:12:18.974Z</time></trkpt><trkpt lat="45.031397674466525" lon="9.60376017101011"><ele>66.8</ele><time>2026-04-04T14:12:20.974Z</time></trkpt><trkpt lat="45.03139729485236" lon="9.603577878514516"><ele>66.6</ele><time>2026-04-04T14:12:22.974Z</time></trkpt><trkpt lat="45.03139712396094" lon="9.603482947110539"><ele>66.39999999999999</ele><time>2026-04-04T14:12:23.974Z</time></trkpt><trkpt lat="45.03138678324226" lon="9.603325990330262"><ele>66.2</ele><time>2026-04-04T14:12:25.974Z</time></trkpt><trkpt lat="45.03137754767776" lon="9.603177411085811"><ele>66.0</ele><time>2026-04-04T14:12:27.974Z</time></trkpt><trkpt lat="45.03137664015103" lon="9.603026435154433"><ele>66.0</ele><time>2026-04-04T14:12:29.974Z</time></trkpt><trkpt lat="45.031383340696266" lon="9.602900481544845"><ele>66.0</ele><time>2026-04-04T14:12:31.974Z</time></trkpt><trkpt lat="45.03138924100331" lon="9.602766590447791"><ele>66.0</ele><time>2026-04-04T14:12:33.974Z</time></trkpt><trkpt lat="45.03137855314762" lon="9.602613135843276"><ele>66.0</ele><time>2026-04-04T14:12:35.973Z</time></trkpt><trkpt lat="45.03138054888293" lon="9.602427344591394"><ele>66.0</ele><time>2026-04-04T14:12:37.973Z</time></trkpt><trkpt lat="45.03137196145135" lon="9.602259842503262"><ele>66.0</ele><time>2026-04-04T14:12:39.973Z</time></trkpt><trkpt lat="45.03137399842529" lon="9.602160852523406"><ele>66.0</ele><time>2026-04-04T14:12:40.973Z</time></trkpt><trkpt lat="45.031382597574485" lon="9.601987546487516"><ele>66.0</ele><time>2026-04-04T14:12:42.973Z</time></trkpt><trkpt lat="45.031387368818706" lon="9.601886123367592"><ele>66.0</ele><time>2026-04-04T14:12:43.973Z</time></trkpt><trkpt lat="45.03139280596183" lon="9.601792403536964"><ele>66.0</ele><time>2026-04-04T14:12:44.973Z</time></trkpt><trkpt lat="45.03139111897293" lon="9.601691226966574"><ele>66.0</ele><time>2026-04-04T14:12:45.973Z</time></trkpt><trkpt lat="45.03138984774193" lon="9.60159861220915"><ele>65.83333333333333</ele><time>2026-04-04T14:12:46.973Z</time></trkpt><trkpt lat="45.0313820791009" lon="9.601497351996931"><ele>65.66666666666667</ele><time>2026-04-04T14:12:47.973Z</time></trkpt><trkpt lat="45.031377458065" lon="9.601311841049334"><ele>65.5</ele><time>2026-04-04T14:12:49.973Z</time></trkpt><trkpt lat="45.03137847121677" lon="9.601221541238608"><ele>65.33333333333334</ele><time>2026-04-04T14:12:50.973Z</time></trkpt><trkpt lat="45.03138105808683" lon="9.601118000153962"><ele>65.16666666666667</ele><time>2026-04-04T14:12:51.973Z</time></trkpt><trkpt lat="45.03138333211906" lon="9.60102368303082"><ele>65.0</ele><time>2026-04-04T14:12:52.973Z</time></trkpt><trkpt lat="45.031378310871595" lon="9.600847362816136"><ele>65.00000000000001</ele><time>2026-04-04T14:12:54.973Z</time></trkpt><trkpt lat="45.03138071226429" lon="9.60074677993247"><ele>65.0</ele><time>2026-04-04T14:12:55.973Z</time></trkpt><trkpt lat="45.031388575493935" lon="9.600640134798391"><ele>65.0</ele><time>2026-04-04T14:12:56.973Z</time></trkpt><trkpt lat="45.03139979279941" lon="9.600532119964347"><ele>65.0</ele><time>2026-04-04T14:12:57.973Z</time></trkpt><trkpt lat="45.03139580915225" lon="9.60042819943797"><ele>65.0</ele><time>2026-04-04T14:12:58.973Z</time></trkpt><trkpt lat="45.031389692547116" lon="9.600336010059012"><ele>65.00000000000001</ele><time>2026-04-04T14:12:59.973Z</time></trkpt><trkpt lat="45.03139313042322" lon="9.600235543873278"><ele>65.0</ele><time>2026-04-04T14:13:00.973Z</time></trkpt><trkpt lat="45.031399965519945" lon="9.600129048165906"><ele>64.83333333333334</ele><time>2026-04-04T14:13:01.973Z</time></trkpt><trkpt lat="45.03138645149338" lon="9.599944469849584"><ele>64.66666666666667</ele><time>2026-04-04T14:13:03.973Z</time></trkpt><trkpt lat="45.031389992241685" lon="9.59984353052841"><ele>64.5</ele><time>2026-04-04T14:13:04.973Z</time></trkpt><trkpt lat="45.031392657096816" lon="9.599746200602096"><ele>64.33333333333333</ele><time>2026-04-04T14:13:05.973Z</time></trkpt><trkpt lat="45.031391753335356" lon="9.599654936378853"><ele>64.16666666666666</ele><time>2026-04-04T14:13:06.973Z</time></trkpt><trkpt lat="45.03138749995126" lon="9.599561057124083"><ele>64.0</ele><time>2026-04-04T14:13:07.973Z</time></trkpt><trkpt lat="45.03138990378557" lon="9.599470435078283"><ele>63.83333333333333</ele><time>2026-04-04T14:13:08.973Z</time></trkpt><trkpt lat="45.03138513964033" lon="9.599374756288924"><ele>63.666666666666664</ele><time>2026-04-04T14:13:09.973Z</time></trkpt><trkpt lat="45.031391834398185" lon="9.599270680134229"><ele>63.5</ele><time>2026-04-04T14:13:10.973Z</time></trkpt><trkpt lat="45.0313876118503" lon="9.59908908581777"><ele>63.33333333333333</ele><time>2026-04-04T14:13:12.973Z</time></trkpt><trkpt lat="45.03138520433866" lon="9.598997564932947"><ele>63.166666666666664</ele><time>2026-04-04T14:13:13.973Z</time></trkpt><trkpt lat="45.03138700474965" lon="9.598895856453895"><ele>63.0</ele><time>2026-04-04T14:13:14.973Z</time></trkpt><trkpt lat="45.03139667710276" lon="9.598792273565799"><ele>62.833333333333336</ele><time>2026-04-04T14:13:15.973Z</time></trkpt><trkpt lat="45.03138952143053" lon="9.598612124672735"><ele>62.66666666666667</ele><time>2026-04-04T14:13:17.973Z</time></trkpt><trkpt lat="45.031383612423284" lon="9.598518827850308"><ele>62.5</ele><time>2026-04-04T14:13:18.973Z</time></trkpt><trkpt lat="45.03137331307282" lon="9.598424382298724"><ele>62.333333333333336</ele><time>2026-04-04T14:13:19.973Z</time></trkpt><trkpt lat="45.031378936659245" lon="9.598329806510971"><ele>62.16666666666667</ele><time>2026-04-04T14:13:20.973Z</time></trkpt><trkpt lat="45.03137783602973" lon="9.598234987327164"><ele>62.0</ele><time>2026-04-04T14:13:21.973Z</time></trkpt><trkpt lat="45.031376158961" lon="9.598058746586084"><ele>62.0</ele><time>2026-04-04T14:13:23.973Z</time></trkpt><trkpt lat="45.031378807075214" lon="9.597872642031172"><ele>62.0</ele><time>2026-04-04T14:13:25.973Z</time></trkpt><trkpt lat="45.03137829437235" lon="9.597779072517902"><ele>62.0</ele><time>2026-04-04T14:13:26.973Z</time></trkpt><trkpt lat="45.031372633572644" lon="9.597683735285997"><ele>62.0</ele><time>2026-04-04T14:13:27.973Z</time></trkpt><trkpt lat="45.03136696901824" lon="9.597510133680267"><ele>62.0</ele><time>2026-04-04T14:13:29.973Z</time></trkpt><trkpt lat="45.03136661645663" lon="9.597415303054872"><ele>62.00000000000001</ele><time>2026-04-04T14:13:30.973Z</time></trkpt><trkpt lat="45.03137646159876" lon="9.597317091029694"><ele>62.0</ele><time>2026-04-04T14:13:31.973Z</time></trkpt><trkpt lat="45.03138743169463" lon="9.597140512054745"><ele>62.0</ele><time>2026-04-04T14:13:33.973Z</time></trkpt><trkpt lat="45.03139669709525" lon="9.597048507681398"><ele>62.0</ele><time>2026-04-04T14:13:34.973Z</time></trkpt><trkpt lat="45.03139742637022" lon="9.596950247758672"><ele>62.00000000000001</ele><time>2026-04-04T14:13:35.973Z</time></trkpt><trkpt lat="45.03139969109848" lon="9.59678364063046"><ele>62.0</ele><time>2026-04-04T14:13:37.973Z</time></trkpt><trkpt lat="45.03139261303338" lon="9.596655035006052"><ele>62.42857142857143</ele><time>2026-04-04T14:13:39.973Z</time></trkpt><trkpt lat="45.03140196001437" lon="9.596566270469308"><ele>62.85714285714286</ele><time>2026-04-04T14:13:41.973Z</time></trkpt><trkpt lat="45.03141686407313" lon="9.596478605178103"><ele>63.28571428571429</ele><time>2026-04-04T14:13:43.973Z</time></trkpt><trkpt lat="45.03144578968196" lon="9.596388538057377"><ele>63.71428571428572</ele><time>2026-04-04T14:13:45.973Z</time></trkpt><trkpt lat="45.03145751969693" lon="9.596300812368673"><ele>64.14285714285714</ele><time>2026-04-04T14:13:47.973Z</time></trkpt><trkpt lat="45.03145380741333" lon="9.596207961949935"><ele>64.57142857142858</ele><time>2026-04-04T14:13:49.973Z</time></trkpt><trkpt lat="45.03145771758164" lon="9.596084892603871"><ele>65.0</ele><time>2026-04-04T14:13:52.973Z</time></trkpt><trkpt lat="45.03148688544932" lon="9.595970122303395"><ele>65.0</ele><time>2026-04-04T14:13:55.973Z</time></trkpt><trkpt lat="45.03155904418694" lon="9.595982299048732"><ele>65.0</ele><time>2026-04-04T14:13:58.973Z</time></trkpt><trkpt lat="45.03159160389708" lon="9.596107228796734"><ele>65.0</ele><time>2026-04-04T14:14:01.973Z</time></trkpt><trkpt lat="45.03161411515955" lon="9.596213327057198"><ele>65.0</ele><time>2026-04-04T14:14:03.973Z</time></trkpt><trkpt lat="45.0316443169433" lon="9.596334105572423"><ele>65.0</ele><time>2026-04-04T14:14:05.974Z</time></trkpt><trkpt lat="45.03167047690847" lon="9.596477137098859"><ele>65.0</ele><time>2026-04-04T14:14:07.973Z</time></trkpt><trkpt lat="45.031699098586095" lon="9.596631464446144"><ele>65.0</ele><time>2026-04-04T14:14:09.973Z</time></trkpt><trkpt lat="45.03172233598948" lon="9.596747783533077"><ele>65.0</ele><time>2026-04-04T14:14:11.973Z</time></trkpt><trkpt lat="45.03174363653343" lon="9.596841058565957"><ele>65.0</ele><time>2026-04-04T14:14:14.973Z</time></trkpt><trkpt lat="45.03176619893614" lon="9.596965012637847"><ele>65.0</ele><time>2026-04-04T14:14:17.973Z</time></trkpt><trkpt lat="45.031715707923155" lon="9.597053447179773"><ele>65.0</ele><time>2026-04-04T14:14:19.973Z</time></trkpt><trkpt lat="45.03160180824825" lon="9.597041880112544"><ele>65.0</ele><time>2026-04-04T14:14:21.973Z</time></trkpt><trkpt lat="45.0315014359346" lon="9.596962954341755"><ele>65.0</ele><time>2026-04-04T14:14:23.973Z</time></trkpt><trkpt lat="45.03141176419508" lon="9.596862337698138"><ele>65.0</ele><time>2026-04-04T14:14:25.973Z</time></trkpt><trkpt lat="45.03131880925011" lon="9.59679780012175"><ele>65.0</ele><time>2026-04-04T14:14:27.973Z</time></trkpt><trkpt lat="45.03121593233468" lon="9.596702420942735"><ele>65.0</ele><time>2026-04-04T14:14:29.973Z</time></trkpt><trkpt lat="45.03116787739561" lon="9.59664392697252"><ele>65.0</ele><time>2026-04-04T14:14:30.973Z</time></trkpt><trkpt lat="45.031113697223965" lon="9.59658927176156"><ele>65.0</ele><time>2026-04-04T14:14:31.973Z</time></trkpt><trkpt lat="45.031075327857565" lon="9.596516134570694"><ele>65.0</ele><time>2026-04-04T14:14:32.973Z</time></trkpt><trkpt lat="45.031068741979546" lon="9.596338180811482"><ele>65.0</ele><time>2026-04-04T14:14:34.973Z</time></trkpt><trkpt lat="45.03108171511469" lon="9.596170560676672"><ele>65.0</ele><time>2026-04-04T14:14:36.973Z</time></trkpt><trkpt lat="45.031073066822316" lon="9.595996987583975"><ele>65.0</ele><time>2026-04-04T14:14:38.973Z</time></trkpt><trkpt lat="45.031073600657166" lon="9.595829798592513"><ele>65.6</ele><time>2026-04-04T14:14:40.973Z</time></trkpt><trkpt lat="45.03107825747541" lon="9.59565919549557"><ele>66.2</ele><time>2026-04-04T14:14:42.973Z</time></trkpt><trkpt lat="45.031089813169885" lon="9.595492642136612"><ele>66.8</ele><time>2026-04-04T14:14:44.973Z</time></trkpt><trkpt lat="45.0310949213428" lon="9.595336610187026"><ele>67.4</ele><time>2026-04-04T14:14:46.973Z</time></trkpt><trkpt lat="45.03109627328241" lon="9.59523803565483"><ele>68.0</ele><time>2026-04-04T14:14:47.973Z</time></trkpt><trkpt lat="45.03110491673139" lon="9.59513908072887"><ele>68.0</ele><time>2026-04-04T14:14:48.973Z</time></trkpt><trkpt lat="45.0311166929454" lon="9.594955992927185"><ele>68.0</ele><time>2026-04-04T14:14:50.973Z</time></trkpt><trkpt lat="45.03112086959528" lon="9.594860775841596"><ele>68.0</ele><time>2026-04-04T14:14:51.973Z</time></trkpt><trkpt lat="45.03113050280848" lon="9.594767223369022"><ele>68.0</ele><time>2026-04-04T14:14:52.973Z</time></trkpt><trkpt lat="45.031139496057044" lon="9.594676110336769"><ele>68.0</ele><time>2026-04-04T14:14:53.973Z</time></trkpt><trkpt lat="45.03114967184733" lon="9.594585265704577"><ele>68.0</ele><time>2026-04-04T14:14:54.973Z</time></trkpt><trkpt lat="45.031157548659415" lon="9.594494144434053"><ele>67.83333333333334</ele><time>2026-04-04T14:14:55.973Z</time></trkpt><trkpt lat="45.03116534456984" lon="9.594402098566144"><ele>67.66666666666667</ele><time>2026-04-04T14:14:56.973Z</time></trkpt><trkpt lat="45.031171685620706" lon="9.594312950252524"><ele>67.5</ele><time>2026-04-04T14:14:57.973Z</time></trkpt><trkpt lat="45.03118771327757" lon="9.594220507616411"><ele>67.33333333333333</ele><time>2026-04-04T14:14:58.973Z</time></trkpt><trkpt lat="45.031200594304934" lon="9.59412805199328"><ele>67.16666666666666</ele><time>2026-04-04T14:14:59.973Z</time></trkpt><trkpt lat="45.03122531207035" lon="9.593951709808211"><ele>67.0</ele><time>2026-04-04T14:15:01.973Z</time></trkpt><trkpt lat="45.03123572097537" lon="9.593862020159005"><ele>67.0</ele><time>2026-04-04T14:15:02.973Z</time></trkpt><trkpt lat="45.03124952431332" lon="9.593772804095234"><ele>67.0</ele><time>2026-04-04T14:15:03.973Z</time></trkpt><trkpt lat="45.03126572834455" lon="9.593683939607615"><ele>67.0</ele><time>2026-04-04T14:15:04.973Z</time></trkpt><trkpt lat="45.03128605654339" lon="9.593508036807764"><ele>67.0</ele><time>2026-04-04T14:15:06.973Z</time></trkpt><trkpt lat="45.03129896318686" lon="9.5934171190327"><ele>67.0</ele><time>2026-04-04T14:15:07.973Z</time></trkpt><trkpt lat="45.031291835120676" lon="9.593236916722603"><ele>67.0</ele><time>2026-04-04T14:15:09.973Z</time></trkpt><trkpt lat="45.03129833901392" lon="9.593137181618815"><ele>67.0</ele><time>2026-04-04T14:15:10.973Z</time></trkpt><trkpt lat="45.03128793439216" lon="9.592980396180048"><ele>67.0</ele><time>2026-04-04T14:15:12.973Z</time></trkpt><trkpt lat="45.03131036938102" lon="9.592815715281693"><ele>67.0</ele><time>2026-04-04T14:15:14.973Z</time></trkpt><trkpt lat="45.03141036890989" lon="9.592730489190401"><ele>67.0</ele><time>2026-04-04T14:15:16.973Z</time></trkpt><trkpt lat="45.0314695184102" lon="9.592680529279498"><ele>67.0</ele><time>2026-04-04T14:15:17.973Z</time></trkpt><trkpt lat="45.03151422426442" lon="9.592607748021168"><ele>67.0</ele><time>2026-04-04T14:15:18.973Z</time></trkpt><trkpt lat="45.031539669617636" lon="9.592520072789066"><ele>67.0</ele><time>2026-04-04T14:15:19.973Z</time></trkpt><trkpt lat="45.03155827530059" lon="9.592433406313294"><ele>67.0</ele><time>2026-04-04T14:15:20.973Z</time></trkpt><trkpt lat="45.03158538589568" lon="9.592351009778842"><ele>67.0</ele><time>2026-04-04T14:15:21.973Z</time></trkpt><trkpt lat="45.031639444504954" lon="9.592193002535774"><ele>67.0</ele><time>2026-04-04T14:15:23.973Z</time></trkpt><trkpt lat="45.031671225097455" lon="9.592109041155174"><ele>67.0</ele><time>2026-04-04T14:15:24.973Z</time></trkpt><trkpt lat="45.03171990832754" lon="9.591950708062273"><ele>66.83333333333333</ele><time>2026-04-04T14:15:26.973Z</time></trkpt><trkpt lat="45.03174817222291" lon="9.591871016972714"><ele>66.66666666666666</ele><time>2026-04-04T14:15:27.973Z</time></trkpt><trkpt lat="45.031776738974344" lon="9.591788247970822"><ele>66.5</ele><time>2026-04-04T14:15:28.973Z</time></trkpt><trkpt lat="45.03182751319841" lon="9.591630124355742"><ele>66.33333333333333</ele><time>2026-04-04T14:15:30.973Z</time></trkpt><trkpt lat="45.03188795533333" lon="9.591471881231001"><ele>66.16666666666667</ele><time>2026-04-04T14:15:32.973Z</time></trkpt><trkpt lat="45.031919834480455" lon="9.591389000940502"><ele>66.0</ele><time>2026-04-04T14:15:33.973Z</time></trkpt><trkpt lat="45.031949845505046" lon="9.591310248446566"><ele>66.0</ele><time>2026-04-04T14:15:34.973Z</time></trkpt><trkpt lat="45.031978634636" lon="9.591228818320873"><ele>66.0</ele><time>2026-04-04T14:15:35.973Z</time></trkpt><trkpt lat="45.03201379373088" lon="9.591143843108904"><ele>66.0</ele><time>2026-04-04T14:15:36.972Z</time></trkpt><trkpt lat="45.03204931365343" lon="9.591061541005352"><ele>66.0</ele><time>2026-04-04T14:15:37.972Z</time></trkpt><trkpt lat="45.03208397187416" lon="9.590979448026815"><ele>66.0</ele><time>2026-04-04T14:15:38.972Z</time></trkpt><trkpt lat="45.032119549028764" lon="9.590899092727048"><ele>66.0</ele><time>2026-04-04T14:15:39.972Z</time></trkpt><trkpt lat="45.03215518407852" lon="9.590819515887146"><ele>66.0</ele><time>2026-04-04T14:15:40.972Z</time></trkpt><trkpt lat="45.03219242470285" lon="9.59074026554245"><ele>66.28571428571428</ele><time>2026-04-04T14:15:41.972Z</time></trkpt><trkpt lat="45.0322304623431" lon="9.590664141736122"><ele>66.57142857142857</ele><time>2026-04-04T14:15:42.972Z</time></trkpt><trkpt lat="45.03226658038044" lon="9.590584516318135"><ele>66.85714285714286</ele><time>2026-04-04T14:15:43.972Z</time></trkpt><trkpt lat="45.0323041396179" lon="9.590507823305039"><ele>67.14285714285714</ele><time>2026-04-04T14:15:44.972Z</time></trkpt><trkpt lat="45.03234813171613" lon="9.590432076924905"><ele>67.42857142857143</ele><time>2026-04-04T14:15:45.972Z</time></trkpt><trkpt lat="45.032388779665595" lon="9.590354993880622"><ele>67.71428571428571</ele><time>2026-04-04T14:15:46.972Z</time></trkpt><trkpt lat="45.03242663587304" lon="9.590276975260952"><ele>68.0</ele><time>2026-04-04T14:15:47.972Z</time></trkpt><trkpt lat="45.03246738872313" lon="9.59020246974449"><ele>67.99999999999999</ele><time>2026-04-04T14:15:48.972Z</time></trkpt><trkpt lat="45.032511494788174" lon="9.590129785102048"><ele>68.0</ele><time>2026-04-04T14:15:49.972Z</time></trkpt><trkpt lat="45.03255096631863" lon="9.590054013589866"><ele>68.0</ele><time>2026-04-04T14:15:50.972Z</time></trkpt><trkpt lat="45.032592593593506" lon="9.589980668796406"><ele>68.0</ele><time>2026-04-04T14:15:51.972Z</time></trkpt><trkpt lat="45.032638088649136" lon="9.589910409938485"><ele>68.0</ele><time>2026-04-04T14:15:52.972Z</time></trkpt><trkpt lat="45.032681649756775" lon="9.589843788335095"><ele>67.99999999999999</ele><time>2026-04-04T14:15:53.972Z</time></trkpt><trkpt lat="45.03272376431964" lon="9.58977453299463"><ele>68.0</ele><time>2026-04-04T14:15:54.972Z</time></trkpt><trkpt lat="45.032814058488384" lon="9.589645027450072"><ele>68.0</ele><time>2026-04-04T14:15:56.972Z</time></trkpt><trkpt lat="45.03285706052193" lon="9.589571697152612"><ele>68.0</ele><time>2026-04-04T14:15:57.972Z</time></trkpt><trkpt lat="45.03290312126386" lon="9.589506446145577"><ele>68.0</ele><time>2026-04-04T14:15:58.972Z</time></trkpt><trkpt lat="45.03295035168543" lon="9.58944026686825"><ele>68.0</ele><time>2026-04-04T14:15:59.972Z</time></trkpt><trkpt lat="45.033043959082946" lon="9.58932531297526"><ele>68.0</ele><time>2026-04-04T14:16:01.972Z</time></trkpt><trkpt lat="45.03309317793059" lon="9.589260203819306"><ele>68.0</ele><time>2026-04-04T14:16:02.973Z</time></trkpt><trkpt lat="45.03314459397578" lon="9.589189623552313"><ele>67.83333333333334</ele><time>2026-04-04T14:16:03.973Z</time></trkpt><trkpt lat="45.0331950909693" lon="9.589125012054032"><ele>67.66666666666667</ele><time>2026-04-04T14:16:04.973Z</time></trkpt><trkpt lat="45.0332495076792" lon="9.589058784574236"><ele>67.5</ele><time>2026-04-04T14:16:05.973Z</time></trkpt><trkpt lat="45.03329861463817" lon="9.588996336887028"><ele>67.33333333333333</ele><time>2026-04-04T14:16:06.973Z</time></trkpt><trkpt lat="45.03334987993001" lon="9.588934436065266"><ele>67.16666666666666</ele><time>2026-04-04T14:16:07.973Z</time></trkpt><trkpt lat="45.03339759841815" lon="9.588868065534989"><ele>67.0</ele><time>2026-04-04T14:16:08.973Z</time></trkpt><trkpt lat="45.03350040795405" lon="9.588765805170995"><ele>67.0</ele><time>2026-04-04T14:16:10.972Z</time></trkpt><trkpt lat="45.033595014492846" lon="9.588663549887931"><ele>67.0</ele><time>2026-04-04T14:16:12.972Z</time></trkpt><trkpt lat="45.033685894487874" lon="9.588563042467822"><ele>67.0</ele><time>2026-04-04T14:16:14.973Z</time></trkpt><trkpt lat="45.03377179665571" lon="9.588467405669826"><ele>67.0</ele><time>2026-04-04T14:16:16.973Z</time></trkpt><trkpt lat="45.03385380829406" lon="9.588380228954959"><ele>67.0</ele><time>2026-04-04T14:16:18.973Z</time></trkpt><trkpt lat="45.03393270634839" lon="9.588301359483825"><ele>67.0</ele><time>2026-04-04T14:16:20.973Z</time></trkpt><trkpt lat="45.03400687698604" lon="9.588219535617009"><ele>67.0</ele><time>2026-04-04T14:16:22.973Z</time></trkpt><trkpt lat="45.03407405666108" lon="9.588140902516727"><ele>67.0</ele><time>2026-04-04T14:16:24.973Z</time></trkpt><trkpt lat="45.03413254885181" lon="9.588052596769744"><ele>67.0</ele><time>2026-04-04T14:16:26.973Z</time></trkpt><trkpt lat="45.034176692544754" lon="9.58796421491282"><ele>67.0</ele><time>2026-04-04T14:16:28.973Z</time></trkpt><trkpt lat="45.03422022278926" lon="9.587866427219867"><ele>67.0</ele><time>2026-04-04T14:16:30.973Z</time></trkpt><trkpt lat="45.034259843319134" lon="9.587759085115712"><ele>67.16666666666666</ele><time>2026-04-04T14:16:32.973Z</time></trkpt><trkpt lat="45.03428896397269" lon="9.58763932661326"><ele>67.33333333333333</ele><time>2026-04-04T14:16:34.973Z</time></trkpt><trkpt lat="45.034313751692856" lon="9.587517143140786"><ele>67.5</ele><time>2026-04-04T14:16:36.973Z</time></trkpt><trkpt lat="45.03433065223694" lon="9.587395224146158"><ele>67.66666666666667</ele><time>2026-04-04T14:16:38.973Z</time></trkpt><trkpt lat="45.03433926131384" lon="9.58727203012119"><ele>67.83333333333334</ele><time>2026-04-04T14:16:40.973Z</time></trkpt><trkpt lat="45.03433700973904" lon="9.587154536268498"><ele>68.0</ele><time>2026-04-04T14:16:42.973Z</time></trkpt><trkpt lat="45.034324396423045" lon="9.587049062157787"><ele>67.83333333333334</ele><time>2026-04-04T14:16:44.973Z</time></trkpt><trkpt lat="45.034313878514205" lon="9.586951117695294"><ele>67.66666666666667</ele><time>2026-04-04T14:16:46.973Z</time></trkpt><trkpt lat="45.03429631061007" lon="9.586846074646495"><ele>67.5</ele><time>2026-04-04T14:16:48.973Z</time></trkpt><trkpt lat="45.034263873229825" lon="9.586728227718453"><ele>67.33333333333333</ele><time>2026-04-04T14:16:50.973Z</time></trkpt><trkpt lat="45.03421645334236" lon="9.58662029824745"><ele>67.16666666666666</ele><time>2026-04-04T14:16:52.973Z</time></trkpt><trkpt lat="45.03417695618675" lon="9.586503938603936"><ele>67.0</ele><time>2026-04-04T14:16:54.973Z</time></trkpt><trkpt lat="45.034123893522114" lon="9.58639504636361"><ele>67.0</ele><time>2026-04-04T14:16:56.973Z</time></trkpt><trkpt lat="45.03407773216563" lon="9.586279652365276"><ele>67.0</ele><time>2026-04-04T14:16:58.973Z</time></trkpt><trkpt lat="45.03402798141993" lon="9.586171370573473"><ele>67.0</ele><time>2026-04-04T14:17:00.973Z</time></trkpt><trkpt lat="45.03397363030665" lon="9.58607130219503"><ele>67.0</ele><time>2026-04-04T14:17:02.973Z</time></trkpt><trkpt lat="45.033924209423326" lon="9.585956528394934"><ele>67.0</ele><time>2026-04-04T14:17:04.973Z</time></trkpt><trkpt lat="45.03387405872882" lon="9.585843647762436"><ele>67.16666666666666</ele><time>2026-04-04T14:17:06.973Z</time></trkpt><trkpt lat="45.033821684957154" lon="9.585736632908679"><ele>67.33333333333333</ele><time>2026-04-04T14:17:08.973Z</time></trkpt><trkpt lat="45.03377358038176" lon="9.585629000819843"><ele>67.5</ele><time>2026-04-04T14:17:10.973Z</time></trkpt><trkpt lat="45.03372716865652" lon="9.5855337758106"><ele>67.66666666666667</ele><time>2026-04-04T14:17:12.973Z</time></trkpt><trkpt lat="45.033687629392034" lon="9.585441112604123"><ele>67.83333333333334</ele><time>2026-04-04T14:17:14.973Z</time></trkpt><trkpt lat="45.03364424661152" lon="9.585334017841117"><ele>68.0</ele><time>2026-04-04T14:17:16.973Z</time></trkpt><trkpt lat="45.03360985956087" lon="9.585217304513318"><ele>68.2</ele><time>2026-04-04T14:17:18.973Z</time></trkpt><trkpt lat="45.03357549234542" lon="9.58510916333948"><ele>68.4</ele><time>2026-04-04T14:17:20.973Z</time></trkpt><trkpt lat="45.03353514170741" lon="9.584983330115273"><ele>68.60000000000001</ele><time>2026-04-04T14:17:22.973Z</time></trkpt><trkpt lat="45.03349679163403" lon="9.584857456029358"><ele>68.8</ele><time>2026-04-04T14:17:24.973Z</time></trkpt><trkpt lat="45.03345510144517" lon="9.584730995708862"><ele>69.0</ele><time>2026-04-04T14:17:26.973Z</time></trkpt><trkpt lat="45.03342178119688" lon="9.584602225085536"><ele>69.0</ele><time>2026-04-04T14:17:28.973Z</time></trkpt><trkpt lat="45.03338863189848" lon="9.584475663355393"><ele>69.0</ele><time>2026-04-04T14:17:30.973Z</time></trkpt><trkpt lat="45.033350977352164" lon="9.584356637415565"><ele>69.0</ele><time>2026-04-04T14:17:32.973Z</time></trkpt><trkpt lat="45.03329218281536" lon="9.584267891032734"><ele>69.0</ele><time>2026-04-04T14:17:34.973Z</time></trkpt><trkpt lat="45.03324654367153" lon="9.584172456111299"><ele>69.0</ele><time>2026-04-04T14:17:36.973Z</time></trkpt><trkpt lat="45.03321266626156" lon="9.584082253086423"><ele>69.0</ele><time>2026-04-04T14:17:38.973Z</time></trkpt><trkpt lat="45.03319046792433" lon="9.583957854498747"><ele>69.0</ele><time>2026-04-04T14:17:40.973Z</time></trkpt><trkpt lat="45.03318748263647" lon="9.583821239432828"><ele>69.0</ele><time>2026-04-04T14:17:42.973Z</time></trkpt><trkpt lat="45.03322320319614" lon="9.583708000726997"><ele>69.0</ele><time>2026-04-04T14:17:44.973Z</time></trkpt><trkpt lat="45.033244336451034" lon="9.583580592643047"><ele>69.0</ele><time>2026-04-04T14:17:46.973Z</time></trkpt><trkpt lat="45.03323298005004" lon="9.583439434973272"><ele>69.0</ele><time>2026-04-04T14:17:48.973Z</time></trkpt><trkpt lat="45.033200296369934" lon="9.58328519015074"><ele>69.25</ele><time>2026-04-04T14:17:50.973Z</time></trkpt><trkpt lat="45.03329709907732" lon="9.58315923821118"><ele>69.5</ele><time>2026-04-04T14:17:51.973Z</time></trkpt><trkpt lat="45.03326565914945" lon="9.583008762014986"><ele>69.75</ele><time>2026-04-04T14:17:53.973Z</time></trkpt><trkpt lat="45.033233566590724" lon="9.582855162236504"><ele>70.0</ele><time>2026-04-04T14:17:55.973Z</time></trkpt><trkpt lat="45.033201084590786" lon="9.582699698513151"><ele>69.5</ele><time>2026-04-04T14:17:57.973Z</time></trkpt><trkpt lat="45.033168656583086" lon="9.582544493236178"><ele>69.0</ele><time>2026-04-04T14:17:59.973Z</time></trkpt><trkpt lat="45.03313472342194" lon="9.582382084046253"><ele>68.5</ele><time>2026-04-04T14:18:01.973Z</time></trkpt><trkpt lat="45.03310062948752" lon="9.582224855323561"><ele>68.0</ele><time>2026-04-04T14:18:03.973Z</time></trkpt><trkpt lat="45.033066638463644" lon="9.582069857083694"><ele>68.0</ele><time>2026-04-04T14:18:05.973Z</time></trkpt><trkpt lat="45.03303221893172" lon="9.581912904840351"><ele>68.0</ele><time>2026-04-04T14:18:07.973Z</time></trkpt><trkpt lat="45.03299823364143" lon="9.58175793274222"><ele>68.0</ele><time>2026-04-04T14:18:09.972Z</time></trkpt><trkpt lat="45.03296425947597" lon="9.581603011361759"><ele>68.0</ele><time>2026-04-04T14:18:11.973Z</time></trkpt><trkpt lat="45.03292995734168" lon="9.58144659445361"><ele>68.0</ele><time>2026-04-04T14:18:13.972Z</time></trkpt><trkpt lat="45.0328946773191" lon="9.58128571840099"><ele>68.0</ele><time>2026-04-04T14:18:15.972Z</time></trkpt><trkpt lat="45.032859104942006" lon="9.58112350921507"><ele>68.0</ele><time>2026-04-04T14:18:17.972Z</time></trkpt><trkpt lat="45.03282233152805" lon="9.580955823353131"><ele>68.0</ele><time>2026-04-04T14:18:19.972Z</time></trkpt><trkpt lat="45.032787238988696" lon="9.580795802358912"><ele>68.0</ele><time>2026-04-04T14:18:21.973Z</time></trkpt><trkpt lat="45.03275306451908" lon="9.58063883751681"><ele>68.0</ele><time>2026-04-04T14:18:23.973Z</time></trkpt><trkpt lat="45.03271834951319" lon="9.58047960493689"><ele>68.0</ele><time>2026-04-04T14:18:25.973Z</time></trkpt><trkpt lat="45.03268464599538" lon="9.58032501190287"><ele>68.0</ele><time>2026-04-04T14:18:27.973Z</time></trkpt><trkpt lat="45.03265112881851" lon="9.580171273586958"><ele>68.0</ele><time>2026-04-04T14:18:29.973Z</time></trkpt><trkpt lat="45.03261692072947" lon="9.580013961549643"><ele>68.0</ele><time>2026-04-04T14:18:31.973Z</time></trkpt><trkpt lat="45.032581576377154" lon="9.57985068857333"><ele>68.0</ele><time>2026-04-04T14:18:33.973Z</time></trkpt><trkpt lat="45.03254582038353" lon="9.57968556825254"><ele>68.0</ele><time>2026-04-04T14:18:35.973Z</time></trkpt><trkpt lat="45.032510029289085" lon="9.579520457247634"><ele>67.8</ele><time>2026-04-04T14:18:37.973Z</time></trkpt><trkpt lat="45.032491324939045" lon="9.579434170586618"><ele>67.6</ele><time>2026-04-04T14:18:38.973Z</time></trkpt><trkpt lat="45.03245631415648" lon="9.57927329436832"><ele>67.4</ele><time>2026-04-04T14:18:40.973Z</time></trkpt><trkpt lat="45.03242177303177" lon="9.579117042893957"><ele>67.2</ele><time>2026-04-04T14:18:42.973Z</time></trkpt><trkpt lat="45.032387939398674" lon="9.578963991840741"><ele>67.0</ele><time>2026-04-04T14:18:44.973Z</time></trkpt><trkpt lat="45.03235516057903" lon="9.578815712408533"><ele>67.5</ele><time>2026-04-04T14:18:46.973Z</time></trkpt><trkpt lat="45.032326924464456" lon="9.578675846729611"><ele>68.0</ele><time>2026-04-04T14:18:48.973Z</time></trkpt><trkpt lat="45.03230232813436" lon="9.578553331914025"><ele>68.5</ele><time>2026-04-04T14:18:50.973Z</time></trkpt><trkpt lat="45.03228225197481" lon="9.578453332146882"><ele>69.0</ele><time>2026-04-04T14:18:52.973Z</time></trkpt><trkpt lat="45.032260392356804" lon="9.578344449137107"><ele>69.5</ele><time>2026-04-04T14:18:55.973Z</time></trkpt><trkpt lat="45.03230471500561" lon="9.578244923408645"><ele>70.0</ele><time>2026-04-04T14:19:10.972Z</time></trkpt><trkpt lat="45.032257643194704" lon="9.57810314462684"><ele>70.0</ele><time>2026-04-04T14:19:13.972Z</time></trkpt><trkpt lat="45.03230819609525" lon="9.578013290856578"><ele>70.0</ele><time>2026-04-04T14:19:14.972Z</time></trkpt><trkpt lat="45.03229375089489" lon="9.577873186551827"><ele>70.0</ele><time>2026-04-04T14:19:16.972Z</time></trkpt><trkpt lat="45.0323026241331" lon="9.577733951251659"><ele>70.0</ele><time>2026-04-04T14:19:18.972Z</time></trkpt><trkpt lat="45.03238427737088" lon="9.577652580809604"><ele>70.0</ele><time>2026-04-04T14:19:20.972Z</time></trkpt><trkpt lat="45.0324653941102" lon="9.577610877742517"><ele>70.0</ele><time>2026-04-04T14:19:22.972Z</time></trkpt><trkpt lat="45.032540327701945" lon="9.577565813117582"><ele>70.0</ele><time>2026-04-04T14:19:24.972Z</time></trkpt><trkpt lat="45.032619998790686" lon="9.577518096381503"><ele>70.0</ele><time>2026-04-04T14:19:26.972Z</time></trkpt><trkpt lat="45.0327201726207" lon="9.577458100274267"><ele>70.0</ele><time>2026-04-04T14:19:28.972Z</time></trkpt><trkpt lat="45.03278101873637" lon="9.57741012447614"><ele>70.0</ele><time>2026-04-04T14:19:29.972Z</time></trkpt><trkpt lat="45.03288814218549" lon="9.57734562759688"><ele>70.0</ele><time>2026-04-04T14:19:31.972Z</time></trkpt><trkpt lat="45.03300261898791" lon="9.57730377590453"><ele>70.0</ele><time>2026-04-04T14:19:33.972Z</time></trkpt><trkpt lat="45.03311416087271" lon="9.577256265821834"><ele>70.0</ele><time>2026-04-04T14:19:35.972Z</time></trkpt><trkpt lat="45.0331762331114" lon="9.577229889819339"><ele>70.0</ele><time>2026-04-04T14:19:36.972Z</time></trkpt><trkpt lat="45.033297448260875" lon="9.577181164365173"><ele>70.0</ele><time>2026-04-04T14:19:38.972Z</time></trkpt><trkpt lat="45.03335869818366" lon="9.577152129424018"><ele>70.0</ele><time>2026-04-04T14:19:39.972Z</time></trkpt><trkpt lat="45.03342376110877" lon="9.57712323158578"><ele>70.0</ele><time>2026-04-04T14:19:40.972Z</time></trkpt><trkpt lat="45.033487288500666" lon="9.577101647920028"><ele>70.0</ele><time>2026-04-04T14:19:41.972Z</time></trkpt><trkpt lat="45.0335534376377" lon="9.577088199918885"><ele>70.0</ele><time>2026-04-04T14:19:42.972Z</time></trkpt><trkpt lat="45.03362354935323" lon="9.57705813384607"><ele>70.0</ele><time>2026-04-04T14:19:43.972Z</time></trkpt><trkpt lat="45.03368500080331" lon="9.577031280578316"><ele>70.0</ele><time>2026-04-04T14:19:44.972Z</time></trkpt><trkpt lat="45.033752312660035" lon="9.576996677822187"><ele>70.0</ele><time>2026-04-04T14:19:45.972Z</time></trkpt><trkpt lat="45.033823062881325" lon="9.576975984404612"><ele>70.0</ele><time>2026-04-04T14:19:46.972Z</time></trkpt><trkpt lat="45.03389311924131" lon="9.57694776665578"><ele>70.0</ele><time>2026-04-04T14:19:47.972Z</time></trkpt><trkpt lat="45.03395992264038" lon="9.576919548244348"><ele>70.0</ele><time>2026-04-04T14:19:48.972Z</time></trkpt><trkpt lat="45.03402676968563" lon="9.576891397120246"><ele>70.0</ele><time>2026-04-04T14:19:49.972Z</time></trkpt><trkpt lat="45.03409444923042" lon="9.576864817510199"><ele>70.0</ele><time>2026-04-04T14:19:50.972Z</time></trkpt><trkpt lat="45.03416349659592" lon="9.576840183784974"><ele>70.0</ele><time>2026-04-04T14:19:51.972Z</time></trkpt><trkpt lat="45.03422975695357" lon="9.576811756495902"><ele>70.0</ele><time>2026-04-04T14:19:52.972Z</time></trkpt><trkpt lat="45.03429720201333" lon="9.576784827835418"><ele>70.33333333333333</ele><time>2026-04-04T14:19:53.972Z</time></trkpt><trkpt lat="45.0343592336335" lon="9.576755013817383"><ele>70.66666666666666</ele><time>2026-04-04T14:19:54.972Z</time></trkpt><trkpt lat="45.03442489732979" lon="9.576730617036656"><ele>71.0</ele><time>2026-04-04T14:19:55.972Z</time></trkpt><trkpt lat="45.034493267711056" lon="9.576706419350248"><ele>71.33333333333333</ele><time>2026-04-04T14:19:56.972Z</time></trkpt><trkpt lat="45.0345617607252" lon="9.57667630774219"><ele>71.66666666666667</ele><time>2026-04-04T14:19:57.972Z</time></trkpt><trkpt lat="45.03467717924165" lon="9.576605190441668"><ele>72.0</ele><time>2026-04-04T14:19:59.972Z</time></trkpt><trkpt lat="45.03479940294882" lon="9.576550750566975"><ele>72.00000000000001</ele><time>2026-04-04T14:20:01.972Z</time></trkpt><trkpt lat="45.03486470621484" lon="9.576520310590448"><ele>72.0</ele><time>2026-04-04T14:20:02.972Z</time></trkpt><trkpt lat="45.03494177801847" lon="9.576505752966526"><ele>72.0</ele><time>2026-04-04T14:20:03.972Z</time></trkpt><trkpt lat="45.03500986625092" lon="9.576470920494398"><ele>72.0</ele><time>2026-04-04T14:20:04.972Z</time></trkpt><trkpt lat="45.03507225705946" lon="9.576449231122618"><ele>72.0</ele><time>2026-04-04T14:20:05.972Z</time></trkpt><trkpt lat="45.03513361267941" lon="9.57642439444866"><ele>72.00000000000001</ele><time>2026-04-04T14:20:06.972Z</time></trkpt><trkpt lat="45.03520389523716" lon="9.576394887848721"><ele>72.0</ele><time>2026-04-04T14:20:07.972Z</time></trkpt><trkpt lat="45.035265935125565" lon="9.57636940203155"><ele>71.66666666666667</ele><time>2026-04-04T14:20:08.972Z</time></trkpt><trkpt lat="45.03533440649951" lon="9.576338666901"><ele>71.33333333333333</ele><time>2026-04-04T14:20:09.972Z</time></trkpt><trkpt lat="45.03540036601489" lon="9.576307357383136"><ele>71.0</ele><time>2026-04-04T14:20:10.972Z</time></trkpt><trkpt lat="45.03546456468597" lon="9.576270187031403"><ele>70.66666666666666</ele><time>2026-04-04T14:20:11.972Z</time></trkpt><trkpt lat="45.03553536324264" lon="9.576233211964539"><ele>70.33333333333333</ele><time>2026-04-04T14:20:12.972Z</time></trkpt><trkpt lat="45.035661047135605" lon="9.576169392081162"><ele>70.0</ele><time>2026-04-04T14:20:14.973Z</time></trkpt><trkpt lat="45.03572912895491" lon="9.57613824763359"><ele>69.85714285714286</ele><time>2026-04-04T14:20:15.972Z</time></trkpt><trkpt lat="45.03578959151143" lon="9.576088882255588"><ele>69.71428571428572</ele><time>2026-04-04T14:20:16.972Z</time></trkpt><trkpt lat="45.03585647606155" lon="9.576045142494257"><ele>69.57142857142857</ele><time>2026-04-04T14:20:17.972Z</time></trkpt><trkpt lat="45.035917829788026" lon="9.576002845107409"><ele>69.42857142857143</ele><time>2026-04-04T14:20:18.972Z</time></trkpt><trkpt lat="45.03598778838553" lon="9.575972488541666"><ele>69.28571428571429</ele><time>2026-04-04T14:20:19.972Z</time></trkpt><trkpt lat="45.03604624663861" lon="9.575917948211332"><ele>69.14285714285714</ele><time>2026-04-04T14:20:20.972Z</time></trkpt><trkpt lat="45.03609766169926" lon="9.57586518875213"><ele>69.0</ele><time>2026-04-04T14:20:21.972Z</time></trkpt><trkpt lat="45.03616385547679" lon="9.57580481009815"><ele>69.66666666666667</ele><time>2026-04-04T14:20:22.972Z</time></trkpt><trkpt lat="45.03622702403609" lon="9.575745968089473"><ele>70.33333333333333</ele><time>2026-04-04T14:20:23.972Z</time></trkpt><trkpt lat="45.03627288262356" lon="9.575683916354151"><ele>71.0</ele><time>2026-04-04T14:20:24.972Z</time></trkpt><trkpt lat="45.03633532217026" lon="9.575629979675522"><ele>71.66666666666666</ele><time>2026-04-04T14:20:25.972Z</time></trkpt><trkpt lat="45.036403730573255" lon="9.575585668579278"><ele>72.33333333333333</ele><time>2026-04-04T14:20:26.972Z</time></trkpt><trkpt lat="45.03650526263858" lon="9.575483600804597"><ele>73.0</ele><time>2026-04-04T14:20:28.972Z</time></trkpt><trkpt lat="45.03655928810065" lon="9.575421951831425"><ele>73.0</ele><time>2026-04-04T14:20:29.972Z</time></trkpt><trkpt lat="45.036610239831106" lon="9.575355044964532"><ele>73.0</ele><time>2026-04-04T14:20:30.972Z</time></trkpt><trkpt lat="45.036708261069926" lon="9.575242676668188"><ele>73.0</ele><time>2026-04-04T14:20:32.972Z</time></trkpt><trkpt lat="45.03680418036288" lon="9.575139767754047"><ele>73.0</ele><time>2026-04-04T14:20:34.972Z</time></trkpt><trkpt lat="45.03688724131638" lon="9.575048673724362"><ele>73.0</ele><time>2026-04-04T14:20:36.972Z</time></trkpt><trkpt lat="45.03697740209602" lon="9.574930296770537"><ele>72.42857142857143</ele><time>2026-04-04T14:20:38.972Z</time></trkpt><trkpt lat="45.0370378560377" lon="9.574878779946335"><ele>71.85714285714286</ele><time>2026-04-04T14:20:39.972Z</time></trkpt><trkpt lat="45.03709213727195" lon="9.57480229387847"><ele>71.28571428571429</ele><time>2026-04-04T14:20:40.972Z</time></trkpt><trkpt lat="45.03714423112841" lon="9.574741799163306"><ele>70.71428571428572</ele><time>2026-04-04T14:20:41.972Z</time></trkpt><trkpt lat="45.0371920724345" lon="9.574680852406733"><ele>70.14285714285715</ele><time>2026-04-04T14:20:42.972Z</time></trkpt><trkpt lat="45.03724824322967" lon="9.574626228096516"><ele>69.57142857142857</ele><time>2026-04-04T14:20:43.972Z</time></trkpt><trkpt lat="45.03730284285397" lon="9.574560028427884"><ele>69.0</ele><time>2026-04-04T14:20:44.972Z</time></trkpt><trkpt lat="45.03739887442866" lon="9.574441074535677"><ele>68.85714285714286</ele><time>2026-04-04T14:20:46.972Z</time></trkpt><trkpt lat="45.03745421414562" lon="9.574384673006676"><ele>68.71428571428572</ele><time>2026-04-04T14:20:47.972Z</time></trkpt><trkpt lat="45.03751375657361" lon="9.574341354450205"><ele>68.57142857142857</ele><time>2026-04-04T14:20:48.972Z</time></trkpt><trkpt lat="45.037568487364965" lon="9.57427701239298"><ele>68.42857142857143</ele><time>2026-04-04T14:20:49.972Z</time></trkpt><trkpt lat="45.037625712287316" lon="9.574214075785006"><ele>68.28571428571428</ele><time>2026-04-04T14:20:50.972Z</time></trkpt><trkpt lat="45.03768320378302" lon="9.574150874676501"><ele>68.14285714285714</ele><time>2026-04-04T14:20:51.972Z</time></trkpt><trkpt lat="45.037740315222756" lon="9.57408355202416"><ele>68.0</ele><time>2026-04-04T14:20:52.972Z</time></trkpt><trkpt lat="45.037793250670184" lon="9.574029322657834"><ele>67.99999999999999</ele><time>2026-04-04T14:20:53.972Z</time></trkpt><trkpt lat="45.03784966120844" lon="9.573960094353957"><ele>68.0</ele><time>2026-04-04T14:20:54.972Z</time></trkpt><trkpt lat="45.03790454245976" lon="9.57389492899136"><ele>68.0</ele><time>2026-04-04T14:20:55.972Z</time></trkpt><trkpt lat="45.03796236124338" lon="9.573832915235647"><ele>68.0</ele><time>2026-04-04T14:20:56.972Z</time></trkpt><trkpt lat="45.038022569267625" lon="9.573772187323325"><ele>68.0</ele><time>2026-04-04T14:20:57.972Z</time></trkpt><trkpt lat="45.03807763753203" lon="9.573704824085823"><ele>67.99999999999999</ele><time>2026-04-04T14:20:58.972Z</time></trkpt><trkpt lat="45.03813933231775" lon="9.57363753487091"><ele>68.0</ele><time>2026-04-04T14:20:59.972Z</time></trkpt><trkpt lat="45.03819268148085" lon="9.57357802854626"><ele>67.85714285714285</ele><time>2026-04-04T14:21:00.972Z</time></trkpt><trkpt lat="45.03824682714652" lon="9.573509915245044"><ele>67.71428571428571</ele><time>2026-04-04T14:21:01.972Z</time></trkpt><trkpt lat="45.03830050347217" lon="9.573448402650556"><ele>67.57142857142857</ele><time>2026-04-04T14:21:02.972Z</time></trkpt><trkpt lat="45.038357255657694" lon="9.573383389608516"><ele>67.42857142857142</ele><time>2026-04-04T14:21:03.972Z</time></trkpt><trkpt lat="45.038414497769" lon="9.573324448367622"><ele>67.28571428571428</ele><time>2026-04-04T14:21:04.972Z</time></trkpt><trkpt lat="45.038471068092534" lon="9.573261851974426"><ele>67.14285714285714</ele><time>2026-04-04T14:21:05.972Z</time></trkpt><trkpt lat="45.03852478089547" lon="9.573199036374573"><ele>67.0</ele><time>2026-04-04T14:21:06.972Z</time></trkpt><trkpt lat="45.03857876793529" lon="9.573134341009128"><ele>66.71428571428572</ele><time>2026-04-04T14:21:07.972Z</time></trkpt><trkpt lat="45.038634275960604" lon="9.573072210982913"><ele>66.42857142857143</ele><time>2026-04-04T14:21:08.972Z</time></trkpt><trkpt lat="45.03869286285382" lon="9.573010449168674"><ele>66.14285714285714</ele><time>2026-04-04T14:21:09.972Z</time></trkpt><trkpt lat="45.03874610787219" lon="9.572945341781761"><ele>65.85714285714286</ele><time>2026-04-04T14:21:10.972Z</time></trkpt><trkpt lat="45.03880807207781" lon="9.57288540434594"><ele>65.57142857142857</ele><time>2026-04-04T14:21:11.972Z</time></trkpt><trkpt lat="45.038861916409545" lon="9.572818161321948"><ele>65.28571428571429</ele><time>2026-04-04T14:21:12.972Z</time></trkpt><trkpt lat="45.03891772238721" lon="9.572756544964662"><ele>65.0</ele><time>2026-04-04T14:21:13.972Z</time></trkpt><trkpt lat="45.03897083965815" lon="9.572691108668474"><ele>65.00000000000001</ele><time>2026-04-04T14:21:14.972Z</time></trkpt><trkpt lat="45.03902659961484" lon="9.572632011753793"><ele>65.0</ele><time>2026-04-04T14:21:15.972Z</time></trkpt><trkpt lat="45.03908585458377" lon="9.572570916248269"><ele>65.0</ele><time>2026-04-04T14:21:16.972Z</time></trkpt><trkpt lat="45.0391351496685" lon="9.57251328932097"><ele>65.0</ele><time>2026-04-04T14:21:17.972Z</time></trkpt><trkpt lat="45.03918924556433" lon="9.57244804954758"><ele>65.0</ele><time>2026-04-04T14:21:18.972Z</time></trkpt><trkpt lat="45.03924239909253" lon="9.572380917703518"><ele>65.00000000000001</ele><time>2026-04-04T14:21:19.972Z</time></trkpt><trkpt lat="45.03929842517746" lon="9.572318966292165"><ele>65.0</ele><time>2026-04-04T14:21:20.972Z</time></trkpt><trkpt lat="45.039355294223185" lon="9.572260425632672"><ele>64.85714285714286</ele><time>2026-04-04T14:21:21.972Z</time></trkpt><trkpt lat="45.03940609776422" lon="9.572196842262485"><ele>64.71428571428572</ele><time>2026-04-04T14:21:22.972Z</time></trkpt><trkpt lat="45.039458009945854" lon="9.572141522314883"><ele>64.57142857142857</ele><time>2026-04-04T14:21:23.972Z</time></trkpt><trkpt lat="45.03951943672695" lon="9.572084755089017"><ele>64.42857142857143</ele><time>2026-04-04T14:21:24.972Z</time></trkpt><trkpt lat="45.03957124788996" lon="9.572031489816638"><ele>64.28571428571428</ele><time>2026-04-04T14:21:25.972Z</time></trkpt><trkpt lat="45.0396229361016" lon="9.571968704591056"><ele>64.14285714285714</ele><time>2026-04-04T14:21:26.972Z</time></trkpt><trkpt lat="45.03967383167688" lon="9.571908428478382"><ele>64.0</ele><time>2026-04-04T14:21:27.972Z</time></trkpt><trkpt lat="45.039726689881235" lon="9.571848674016126"><ele>63.857142857142854</ele><time>2026-04-04T14:21:28.972Z</time></trkpt><trkpt lat="45.03978145789691" lon="9.571790130991474"><ele>63.71428571428571</ele><time>2026-04-04T14:21:29.972Z</time></trkpt><trkpt lat="45.03983472466332" lon="9.571729213402595"><ele>63.57142857142857</ele><time>2026-04-04T14:21:30.972Z</time></trkpt><trkpt lat="45.03988472931065" lon="9.571669664151832"><ele>63.42857142857143</ele><time>2026-04-04T14:21:31.972Z</time></trkpt><trkpt lat="45.039943111340435" lon="9.571613939654155"><ele>63.285714285714285</ele><time>2026-04-04T14:21:32.972Z</time></trkpt><trkpt lat="45.03999357012183" lon="9.57155637530478"><ele>63.14285714285714</ele><time>2026-04-04T14:21:33.972Z</time></trkpt><trkpt lat="45.04004817324405" lon="9.571498778824889"><ele>63.0</ele><time>2026-04-04T14:21:34.972Z</time></trkpt><trkpt lat="45.040101525875905" lon="9.571441688611483"><ele>63.0</ele><time>2026-04-04T14:21:35.972Z</time></trkpt><trkpt lat="45.04015533977696" lon="9.57138207327592"><ele>63.0</ele><time>2026-04-04T14:21:36.972Z</time></trkpt><trkpt lat="45.0402072515991" lon="9.571320852246082"><ele>63.0</ele><time>2026-04-04T14:21:37.972Z</time></trkpt><trkpt lat="45.040259190288886" lon="9.57125879608446"><ele>63.0</ele><time>2026-04-04T14:21:38.972Z</time></trkpt><trkpt lat="45.04031270772183" lon="9.57120068957138"><ele>63.0</ele><time>2026-04-04T14:21:39.972Z</time></trkpt><trkpt lat="45.04036603863595" lon="9.57114132454733"><ele>63.0</ele><time>2026-04-04T14:21:40.972Z</time></trkpt><trkpt lat="45.04041877164608" lon="9.571080828911423"><ele>63.0</ele><time>2026-04-04T14:21:41.972Z</time></trkpt><trkpt lat="45.04047047824664" lon="9.571021281332795"><ele>63.14285714285714</ele><time>2026-04-04T14:21:42.972Z</time></trkpt><trkpt lat="45.04052387010529" lon="9.570961580693263"><ele>63.285714285714285</ele><time>2026-04-04T14:21:43.971Z</time></trkpt><trkpt lat="45.04057594402588" lon="9.570903776004487"><ele>63.42857142857143</ele><time>2026-04-04T14:21:44.971Z</time></trkpt><trkpt lat="45.0406277518374" lon="9.570842991115349"><ele>63.57142857142857</ele><time>2026-04-04T14:21:45.971Z</time></trkpt><trkpt lat="45.04068107709387" lon="9.57078258810102"><ele>63.71428571428571</ele><time>2026-04-04T14:21:46.971Z</time></trkpt><trkpt lat="45.04073454725403" lon="9.570719804082458"><ele>63.857142857142854</ele><time>2026-04-04T14:21:47.971Z</time></trkpt><trkpt lat="45.04079214349876" lon="9.57065946359675"><ele>64.0</ele><time>2026-04-04T14:21:48.971Z</time></trkpt><trkpt lat="45.04084618686933" lon="9.570594267461534"><ele>64.0</ele><time>2026-04-04T14:21:49.971Z</time></trkpt><trkpt lat="45.04090123229708" lon="9.57052559716719"><ele>63.99999999999999</ele><time>2026-04-04T14:21:50.971Z</time></trkpt><trkpt lat="45.040957796460795" lon="9.570461393259096"><ele>64.0</ele><time>2026-04-04T14:21:51.971Z</time></trkpt><trkpt lat="45.041009598809914" lon="9.570397900631072"><ele>64.0</ele><time>2026-04-04T14:21:52.971Z</time></trkpt><trkpt lat="45.04106555235571" lon="9.57033851842085"><ele>63.99999999999999</ele><time>2026-04-04T14:21:53.971Z</time></trkpt><trkpt lat="45.04112550214379" lon="9.570277053036714"><ele>64.0</ele><time>2026-04-04T14:21:54.971Z</time></trkpt><trkpt lat="45.04118604332429" lon="9.570214887030223"><ele>64.0</ele><time>2026-04-04T14:21:55.971Z</time></trkpt><trkpt lat="45.04124548646504" lon="9.570152366547495"><ele>63.857142857142854</ele><time>2026-04-04T14:21:56.971Z</time></trkpt><trkpt lat="45.041307257220524" lon="9.570091885158538"><ele>63.71428571428571</ele><time>2026-04-04T14:21:57.971Z</time></trkpt><trkpt lat="45.04136629602813" lon="9.570027727301285"><ele>63.57142857142857</ele><time>2026-04-04T14:21:58.971Z</time></trkpt><trkpt lat="45.041425384787345" lon="9.569966379999318"><ele>63.42857142857143</ele><time>2026-04-04T14:21:59.971Z</time></trkpt><trkpt lat="45.041480848985124" lon="9.569900308029995"><ele>63.285714285714285</ele><time>2026-04-04T14:22:00.971Z</time></trkpt><trkpt lat="45.04153236927409" lon="9.569843290283414"><ele>63.14285714285714</ele><time>2026-04-04T14:22:01.971Z</time></trkpt><trkpt lat="45.041585871777166" lon="9.56978345635615"><ele>63.0</ele><time>2026-04-04T14:22:02.971Z</time></trkpt><trkpt lat="45.04163864218349" lon="9.569713043066349"><ele>63.0</ele><time>2026-04-04T14:22:03.971Z</time></trkpt><trkpt lat="45.041700083688305" lon="9.569654734250225"><ele>63.0</ele><time>2026-04-04T14:22:04.971Z</time></trkpt><trkpt lat="45.041758399366266" lon="9.569595511402161"><ele>63.0</ele><time>2026-04-04T14:22:05.971Z</time></trkpt><trkpt lat="45.04181645855272" lon="9.569533181771742"><ele>63.0</ele><time>2026-04-04T14:22:06.971Z</time></trkpt><trkpt lat="45.04187613025307" lon="9.569475585012022"><ele>63.0</ele><time>2026-04-04T14:22:07.971Z</time></trkpt><trkpt lat="45.04193135893001" lon="9.569423174492544"><ele>63.0</ele><time>2026-04-04T14:22:08.971Z</time></trkpt><trkpt lat="45.041986462178706" lon="9.569363643565023"><ele>63.0</ele><time>2026-04-04T14:22:09.971Z</time></trkpt><trkpt lat="45.04204106033187" lon="9.569302197669717"><ele>63.14285714285714</ele><time>2026-04-04T14:22:10.971Z</time></trkpt><trkpt lat="45.04209503329699" lon="9.569242034213007"><ele>63.285714285714285</ele><time>2026-04-04T14:22:11.971Z</time></trkpt><trkpt lat="45.04215222614376" lon="9.56918181951137"><ele>63.42857142857143</ele><time>2026-04-04T14:22:12.971Z</time></trkpt><trkpt lat="45.04221096482047" lon="9.56912354010288"><ele>63.57142857142857</ele><time>2026-04-04T14:22:13.971Z</time></trkpt><trkpt lat="45.042265280456334" lon="9.569059295474027"><ele>63.71428571428571</ele><time>2026-04-04T14:22:14.971Z</time></trkpt><trkpt lat="45.04232227173848" lon="9.569001935716125"><ele>63.857142857142854</ele><time>2026-04-04T14:22:15.971Z</time></trkpt><trkpt lat="45.04237921969098" lon="9.568945306454614"><ele>64.0</ele><time>2026-04-04T14:22:16.971Z</time></trkpt><trkpt lat="45.042434757885744" lon="9.56889182176446"><ele>64.0</ele><time>2026-04-04T14:22:17.971Z</time></trkpt><trkpt lat="45.04248988643736" lon="9.568831673322354"><ele>63.99999999999999</ele><time>2026-04-04T14:22:18.971Z</time></trkpt><trkpt lat="45.042543992683676" lon="9.568777223018037"><ele>64.0</ele><time>2026-04-04T14:22:19.971Z</time></trkpt><trkpt lat="45.042594551444125" lon="9.568720255435283"><ele>64.0</ele><time>2026-04-04T14:22:20.972Z</time></trkpt><trkpt lat="45.042649854064095" lon="9.568659916514427"><ele>63.99999999999999</ele><time>2026-04-04T14:22:21.971Z</time></trkpt><trkpt lat="45.042704817228454" lon="9.568603906303611"><ele>64.0</ele><time>2026-04-04T14:22:22.971Z</time></trkpt><trkpt lat="45.04275485400969" lon="9.568544639026626"><ele>64.0</ele><time>2026-04-04T14:22:23.971Z</time></trkpt><trkpt lat="45.04280870947028" lon="9.568489823998876"><ele>64.0</ele><time>2026-04-04T14:22:24.971Z</time></trkpt><trkpt lat="45.042863092355795" lon="9.568433777352682"><ele>63.99999999999999</ele><time>2026-04-04T14:22:25.971Z</time></trkpt><trkpt lat="45.04291894405523" lon="9.568385313841452"><ele>64.0</ele><time>2026-04-04T14:22:26.971Z</time></trkpt><trkpt lat="45.04296821726388" lon="9.568322683189038"><ele>64.0</ele><time>2026-04-04T14:22:27.971Z</time></trkpt><trkpt lat="45.04301197939646" lon="9.568256365462926"><ele>63.99999999999999</ele><time>2026-04-04T14:22:28.971Z</time></trkpt><trkpt lat="45.043073895617155" lon="9.568217530065327"><ele>64.0</ele><time>2026-04-04T14:22:29.972Z</time></trkpt><trkpt lat="45.04316340670961" lon="9.568111213135124"><ele>64.0</ele><time>2026-04-04T14:22:31.971Z</time></trkpt><trkpt lat="45.04323385576" lon="9.568074507189795"><ele>64.0</ele><time>2026-04-04T14:22:33.971Z</time></trkpt><trkpt lat="45.04327224024021" lon="9.568223377670503"><ele>64.0</ele><time>2026-04-04T14:22:34.971Z</time></trkpt><trkpt lat="45.04335052871495" lon="9.568347082744097"><ele>64.0</ele><time>2026-04-04T14:22:36.971Z</time></trkpt><trkpt lat="45.043378435828295" lon="9.568444099472899"><ele>64.0</ele><time>2026-04-04T14:22:37.971Z</time></trkpt><trkpt lat="45.043419081902414" lon="9.568529109722691"><ele>64.0</ele><time>2026-04-04T14:22:38.971Z</time></trkpt><trkpt lat="45.04346571516548" lon="9.568614117571967"><ele>63.857142857142854</ele><time>2026-04-04T14:22:39.971Z</time></trkpt><trkpt lat="45.0435066507618" lon="9.568694427034893"><ele>63.71428571428571</ele><time>2026-04-04T14:22:40.971Z</time></trkpt><trkpt lat="45.04354618626214" lon="9.568772002199484"><ele>63.57142857142857</ele><time>2026-04-04T14:22:41.971Z</time></trkpt><trkpt lat="45.04358531077581" lon="9.568854890323458"><ele>63.42857142857143</ele><time>2026-04-04T14:22:42.971Z</time></trkpt><trkpt lat="45.04362625173733" lon="9.568933353151948"><ele>63.285714285714285</ele><time>2026-04-04T14:22:43.971Z</time></trkpt><trkpt lat="45.043669718470234" lon="9.56901418518054"><ele>63.14285714285714</ele><time>2026-04-04T14:22:44.971Z</time></trkpt><trkpt lat="45.043704799797865" lon="9.56910191181359"><ele>63.0</ele><time>2026-04-04T14:22:45.971Z</time></trkpt><trkpt lat="45.04374144710752" lon="9.569186175868408"><ele>63.0</ele><time>2026-04-04T14:22:46.971Z</time></trkpt><trkpt lat="45.043780400874574" lon="9.56927018450774"><ele>63.0</ele><time>2026-04-04T14:22:47.971Z</time></trkpt><trkpt lat="45.043815204690056" lon="9.56935355440179"><ele>63.0</ele><time>2026-04-04T14:22:48.971Z</time></trkpt><trkpt lat="45.04385028203412" lon="9.569437898231547"><ele>63.0</ele><time>2026-04-04T14:22:49.971Z</time></trkpt><trkpt lat="45.04389046947766" lon="9.569520465422462"><ele>63.0</ele><time>2026-04-04T14:22:50.971Z</time></trkpt><trkpt lat="45.04392930526325" lon="9.569597644156657"><ele>63.0</ele><time>2026-04-04T14:22:51.971Z</time></trkpt><trkpt lat="45.04396879805922" lon="9.5696802618288"><ele>63.0</ele><time>2026-04-04T14:22:52.971Z</time></trkpt><trkpt lat="45.04400795977548" lon="9.569761434121471"><ele>63.14285714285714</ele><time>2026-04-04T14:22:53.971Z</time></trkpt><trkpt lat="45.044046678207664" lon="9.569837852486199"><ele>63.285714285714285</ele><time>2026-04-04T14:22:54.971Z</time></trkpt><trkpt lat="45.04408600582284" lon="9.569916207092989"><ele>63.42857142857143</ele><time>2026-04-04T14:22:55.971Z</time></trkpt><trkpt lat="45.044127275349105" lon="9.570000873592942"><ele>63.57142857142857</ele><time>2026-04-04T14:22:56.971Z</time></trkpt><trkpt lat="45.044171267250476" lon="9.570079326627178"><ele>63.71428571428571</ele><time>2026-04-04T14:22:57.971Z</time></trkpt><trkpt lat="45.04421483237851" lon="9.570160814042133"><ele>63.857142857142854</ele><time>2026-04-04T14:22:58.971Z</time></trkpt><trkpt lat="45.04425404615631" lon="9.570247625247369"><ele>64.0</ele><time>2026-04-04T14:22:59.971Z</time></trkpt><trkpt lat="45.04429381084516" lon="9.570323953383246"><ele>64.0</ele><time>2026-04-04T14:23:00.971Z</time></trkpt><trkpt lat="45.044339634587" lon="9.570408734546069"><ele>63.99999999999999</ele><time>2026-04-04T14:23:01.971Z</time></trkpt><trkpt lat="45.04438242779267" lon="9.570482031089986"><ele>64.0</ele><time>2026-04-04T14:23:02.971Z</time></trkpt><trkpt lat="45.0444233431039" lon="9.570562654044895"><ele>64.0</ele><time>2026-04-04T14:23:03.971Z</time></trkpt><trkpt lat="45.04446234075995" lon="9.57063732476015"><ele>63.99999999999999</ele><time>2026-04-04T14:23:04.971Z</time></trkpt><trkpt lat="45.044509237666" lon="9.570718779085713"><ele>64.0</ele><time>2026-04-04T14:23:05.971Z</time></trkpt><trkpt lat="45.044547896625474" lon="9.570797304513501"><ele>64.0</ele><time>2026-04-04T14:23:06.971Z</time></trkpt><trkpt lat="45.04459121926593" lon="9.570872298682527"><ele>64.0</ele><time>2026-04-04T14:23:07.971Z</time></trkpt><trkpt lat="45.04463133614735" lon="9.570956149570984"><ele>63.99999999999999</ele><time>2026-04-04T14:23:08.971Z</time></trkpt><trkpt lat="45.04467350020184" lon="9.571030467290704"><ele>64.0</ele><time>2026-04-04T14:23:09.971Z</time></trkpt><trkpt lat="45.044711264278824" lon="9.57110658431477"><ele>64.0</ele><time>2026-04-04T14:23:10.971Z</time></trkpt><trkpt lat="45.04474214468541" lon="9.571193232690616"><ele>63.99999999999999</ele><time>2026-04-04T14:23:11.971Z</time></trkpt><trkpt lat="45.0447682556242" lon="9.57128198235126"><ele>64.0</ele><time>2026-04-04T14:23:12.971Z</time></trkpt><trkpt lat="45.04478416699244" lon="9.57137640627177"><ele>64.0</ele><time>2026-04-04T14:23:13.971Z</time></trkpt><trkpt lat="45.044790036345674" lon="9.571467875248583"><ele>63.857142857142854</ele><time>2026-04-04T14:23:14.971Z</time></trkpt><trkpt lat="45.04478566834584" lon="9.571568921438036"><ele>63.71428571428571</ele><time>2026-04-04T14:23:15.971Z</time></trkpt><trkpt lat="45.044778143594954" lon="9.571663421768914"><ele>63.57142857142857</ele><time>2026-04-04T14:23:16.971Z</time></trkpt><trkpt lat="45.04476933903362" lon="9.57176818479949"><ele>63.42857142857143</ele><time>2026-04-04T14:23:17.971Z</time></trkpt><trkpt lat="45.044760776632835" lon="9.571873551372725"><ele>63.285714285714285</ele><time>2026-04-04T14:23:18.971Z</time></trkpt><trkpt lat="45.04474884803695" lon="9.57197528850966"><ele>63.14285714285714</ele><time>2026-04-04T14:23:19.971Z</time></trkpt><trkpt lat="45.04474022616667" lon="9.572081965523761"><ele>63.0</ele><time>2026-04-04T14:23:20.971Z</time></trkpt><trkpt lat="45.044728664511425" lon="9.572178739562197"><ele>63.0</ele><time>2026-04-04T14:23:21.971Z</time></trkpt><trkpt lat="45.04471556824829" lon="9.572287028758106"><ele>63.0</ele><time>2026-04-04T14:23:22.971Z</time></trkpt><trkpt lat="45.04470664166683" lon="9.572383194981175"><ele>63.0</ele><time>2026-04-04T14:23:23.971Z</time></trkpt><trkpt lat="45.04469464388086" lon="9.572482997511067"><ele>63.0</ele><time>2026-04-04T14:23:24.971Z</time></trkpt><trkpt lat="45.044683271786994" lon="9.572581314919857"><ele>63.0</ele><time>2026-04-04T14:23:25.971Z</time></trkpt><trkpt lat="45.04467877536332" lon="9.572679449364072"><ele>63.0</ele><time>2026-04-04T14:23:26.971Z</time></trkpt><trkpt lat="45.04468861337225" lon="9.572782252608004"><ele>63.0</ele><time>2026-04-04T14:23:27.971Z</time></trkpt><trkpt lat="45.04470783861898" lon="9.57287714347218"><ele>63.0</ele><time>2026-04-04T14:23:28.971Z</time></trkpt><trkpt lat="45.04473233338306" lon="9.572968075120317"><ele>63.0</ele><time>2026-04-04T14:23:29.971Z</time></trkpt><trkpt lat="45.04475997662949" lon="9.573057158228915"><ele>63.0</ele><time>2026-04-04T14:23:30.971Z</time></trkpt><trkpt lat="45.044791384368736" lon="9.573153504298244"><ele>63.0</ele><time>2026-04-04T14:23:31.971Z</time></trkpt><trkpt lat="45.044818956494964" lon="9.573248303621924"><ele>63.0</ele><time>2026-04-04T14:23:32.971Z</time></trkpt><trkpt lat="45.04485179848865" lon="9.573335408512238"><ele>63.0</ele><time>2026-04-04T14:23:33.971Z</time></trkpt><trkpt lat="45.044884296823014" lon="9.573420727935241"><ele>63.0</ele><time>2026-04-04T14:23:34.971Z</time></trkpt><trkpt lat="45.044915930534906" lon="9.573508721035068"><ele>63.0</ele><time>2026-04-04T14:23:35.971Z</time></trkpt><trkpt lat="45.0449485826997" lon="9.573597309680665"><ele>63.0</ele><time>2026-04-04T14:23:36.971Z</time></trkpt><trkpt lat="45.04496376655038" lon="9.573700546179927"><ele>63.0</ele><time>2026-04-04T14:23:37.971Z</time></trkpt><trkpt lat="45.04499234939848" lon="9.573788846046284"><ele>63.0</ele><time>2026-04-04T14:23:38.971Z</time></trkpt><trkpt lat="45.04502244960252" lon="9.573881833368349"><ele>63.0</ele><time>2026-04-04T14:23:39.971Z</time></trkpt><trkpt lat="45.04505392113732" lon="9.57397791386765"><ele>63.0</ele><time>2026-04-04T14:23:40.971Z</time></trkpt><trkpt lat="45.04508627827392" lon="9.574076309456531"><ele>63.0</ele><time>2026-04-04T14:23:41.971Z</time></trkpt><trkpt lat="45.045117890831065" lon="9.574172440470381"><ele>63.166666666666664</ele><time>2026-04-04T14:23:42.971Z</time></trkpt><trkpt lat="45.04515013349973" lon="9.574270487660879"><ele>63.33333333333333</ele><time>2026-04-04T14:23:43.971Z</time></trkpt><trkpt lat="45.04518032118499" lon="9.574367443015468"><ele>63.5</ele><time>2026-04-04T14:23:44.971Z</time></trkpt><trkpt lat="45.04520908960174" lon="9.57446123115093"><ele>63.666666666666664</ele><time>2026-04-04T14:23:45.971Z</time></trkpt><trkpt lat="45.04523807173642" lon="9.574557776713513"><ele>63.83333333333333</ele><time>2026-04-04T14:23:46.971Z</time></trkpt><trkpt lat="45.04526717180005" lon="9.574654715172468"><ele>64.0</ele><time>2026-04-04T14:23:47.971Z</time></trkpt><trkpt lat="45.04529837590801" lon="9.574758662672624"><ele>63.99999999999999</ele><time>2026-04-04T14:23:48.971Z</time></trkpt><trkpt lat="45.04533004527953" lon="9.574861128790198"><ele>64.0</ele><time>2026-04-04T14:23:49.971Z</time></trkpt><trkpt lat="45.04536288505141" lon="9.57496617307686"><ele>64.0</ele><time>2026-04-04T14:23:50.971Z</time></trkpt><trkpt lat="45.04539772564773" lon="9.575072216578128"><ele>64.0</ele><time>2026-04-04T14:23:51.971Z</time></trkpt><trkpt lat="45.04543190122852" lon="9.575176236218981"><ele>63.99999999999999</ele><time>2026-04-04T14:23:52.971Z</time></trkpt><trkpt lat="45.045468710595905" lon="9.575286746151487"><ele>64.0</ele><time>2026-04-04T14:23:53.971Z</time></trkpt><trkpt lat="45.04550628344356" lon="9.575398176917025"><ele>63.83333333333333</ele><time>2026-04-04T14:23:54.971Z</time></trkpt><trkpt lat="45.045555979472034" lon="9.575499160062867"><ele>63.666666666666664</ele><time>2026-04-04T14:23:55.971Z</time></trkpt><trkpt lat="45.04558777243159" lon="9.57559603462981"><ele>63.5</ele><time>2026-04-04T14:23:56.971Z</time></trkpt><trkpt lat="45.045619779058775" lon="9.575699327064347"><ele>63.33333333333333</ele><time>2026-04-04T14:23:57.971Z</time></trkpt><trkpt lat="45.04564987515267" lon="9.575804038637516"><ele>63.166666666666664</ele><time>2026-04-04T14:23:58.971Z</time></trkpt><trkpt lat="45.04567191584839" lon="9.575910896385796"><ele>63.0</ele><time>2026-04-04T14:23:59.971Z</time></trkpt><trkpt lat="45.04569952060348" lon="9.576015483393382"><ele>63.0</ele><time>2026-04-04T14:24:00.971Z</time></trkpt><trkpt lat="45.04573202540408" lon="9.576114104014119"><ele>63.0</ele><time>2026-04-04T14:24:01.971Z</time></trkpt><trkpt lat="45.045763334356636" lon="9.576218494724376"><ele>63.0</ele><time>2026-04-04T14:24:02.971Z</time></trkpt><trkpt lat="45.04579954436299" lon="9.576322781133582"><ele>63.0</ele><time>2026-04-04T14:24:03.971Z</time></trkpt><trkpt lat="45.04584232354139" lon="9.576429755968741"><ele>63.0</ele><time>2026-04-04T14:24:04.971Z</time></trkpt><trkpt lat="45.045876178396384" lon="9.576535641502275"><ele>63.0</ele><time>2026-04-04T14:24:05.971Z</time></trkpt><trkpt lat="45.04591059780087" lon="9.576640650577566"><ele>62.833333333333336</ele><time>2026-04-04T14:24:06.971Z</time></trkpt><trkpt lat="45.04594820057296" lon="9.576748120858456"><ele>62.66666666666667</ele><time>2026-04-04T14:24:07.971Z</time></trkpt><trkpt lat="45.04598577676638" lon="9.576855748282709"><ele>62.5</ele><time>2026-04-04T14:24:08.971Z</time></trkpt><trkpt lat="45.04602180219666" lon="9.576963771198928"><ele>62.333333333333336</ele><time>2026-04-04T14:24:09.971Z</time></trkpt><trkpt lat="45.04605849950303" lon="9.577073262859857"><ele>62.16666666666667</ele><time>2026-04-04T14:24:10.971Z</time></trkpt><trkpt lat="45.046098758779955" lon="9.577182530280107"><ele>62.0</ele><time>2026-04-04T14:24:11.971Z</time></trkpt><trkpt lat="45.04613615179708" lon="9.577291647838706"><ele>62.00000000000001</ele><time>2026-04-04T14:24:12.97Z</time></trkpt><trkpt lat="45.046174524543595" lon="9.577397940280331"><ele>62.0</ele><time>2026-04-04T14:24:13.97Z</time></trkpt><trkpt lat="45.04621213900885" lon="9.577508847282447"><ele>62.0</ele><time>2026-04-04T14:24:14.97Z</time></trkpt><trkpt lat="45.0462470736363" lon="9.577618195824572"><ele>62.0</ele><time>2026-04-04T14:24:15.97Z</time></trkpt><trkpt lat="45.0462816355949" lon="9.577725580898608"><ele>62.00000000000001</ele><time>2026-04-04T14:24:16.97Z</time></trkpt><trkpt lat="45.04631949784687" lon="9.577826785539209"><ele>62.0</ele><time>2026-04-04T14:24:17.97Z</time></trkpt><trkpt lat="45.04635128935165" lon="9.577940770666444"><ele>62.00000000000001</ele><time>2026-04-04T14:24:18.97Z</time></trkpt><trkpt lat="45.04638693139379" lon="9.578045208181903"><ele>62.0</ele><time>2026-04-04T14:24:19.97Z</time></trkpt><trkpt lat="45.04641869157808" lon="9.578151801420079"><ele>62.0</ele><time>2026-04-04T14:24:20.97Z</time></trkpt><trkpt lat="45.04645540101813" lon="9.578258855819655"><ele>62.0</ele><time>2026-04-04T14:24:21.97Z</time></trkpt><trkpt lat="45.04648879334774" lon="9.578371823056525"><ele>62.00000000000001</ele><time>2026-04-04T14:24:22.97Z</time></trkpt><trkpt lat="45.046525856220434" lon="9.578482394148654"><ele>62.0</ele><time>2026-04-04T14:24:23.97Z</time></trkpt><trkpt lat="45.046562039603465" lon="9.57857877221646"><ele>62.00000000000001</ele><time>2026-04-04T14:24:24.97Z</time></trkpt><trkpt lat="45.04660290584743" lon="9.5786885710218"><ele>62.0</ele><time>2026-04-04T14:24:25.97Z</time></trkpt><trkpt lat="45.04663796937027" lon="9.578790157415535"><ele>62.0</ele><time>2026-04-04T14:24:26.971Z</time></trkpt><trkpt lat="45.04667133727537" lon="9.57889275373106"><ele>62.0</ele><time>2026-04-04T14:24:27.971Z</time></trkpt><trkpt lat="45.04670471395171" lon="9.579003732929753"><ele>62.00000000000001</ele><time>2026-04-04T14:24:28.971Z</time></trkpt><trkpt lat="45.04674372962542" lon="9.579119032658735"><ele>62.0</ele><time>2026-04-04T14:24:29.971Z</time></trkpt><trkpt lat="45.04678268354369" lon="9.579232495584327"><ele>62.00000000000001</ele><time>2026-04-04T14:24:30.971Z</time></trkpt><trkpt lat="45.04682467688993" lon="9.57933093363145"><ele>62.0</ele><time>2026-04-04T14:24:31.971Z</time></trkpt><trkpt lat="45.04686740806812" lon="9.57943280483545"><ele>62.0</ele><time>2026-04-04T14:24:32.971Z</time></trkpt><trkpt lat="45.04690905154702" lon="9.579537268687421"><ele>62.0</ele><time>2026-04-04T14:24:33.971Z</time></trkpt><trkpt lat="45.0469538739163" lon="9.579649201773648"><ele>62.00000000000001</ele><time>2026-04-04T14:24:34.971Z</time></trkpt><trkpt lat="45.04699758896888" lon="9.57974731917031"><ele>62.0</ele><time>2026-04-04T14:24:35.971Z</time></trkpt><trkpt lat="45.04704138617037" lon="9.579853953156057"><ele>62.00000000000001</ele><time>2026-04-04T14:24:36.971Z</time></trkpt><trkpt lat="45.04708031990204" lon="9.579959988622853"><ele>62.0</ele><time>2026-04-04T14:24:37.971Z</time></trkpt><trkpt lat="45.04712074963165" lon="9.580057609900527"><ele>62.0</ele><time>2026-04-04T14:24:38.971Z</time></trkpt><trkpt lat="45.04716444230875" lon="9.580155233863852"><ele>62.0</ele><time>2026-04-04T14:24:39.971Z</time></trkpt><trkpt lat="45.04720566004162" lon="9.580252307887823"><ele>62.00000000000001</ele><time>2026-04-04T14:24:40.971Z</time></trkpt><trkpt lat="45.04724949838766" lon="9.580347475901847"><ele>62.0</ele><time>2026-04-04T14:24:41.971Z</time></trkpt><trkpt lat="45.047287257986504" lon="9.580449566839174"><ele>62.00000000000001</ele><time>2026-04-04T14:24:42.971Z</time></trkpt><trkpt lat="45.047329199671175" lon="9.580549086810613"><ele>62.0</ele><time>2026-04-04T14:24:43.971Z</time></trkpt><trkpt lat="45.047367516576536" lon="9.580650678953976"><ele>62.0</ele><time>2026-04-04T14:24:44.971Z</time></trkpt><trkpt lat="45.04741079280857" lon="9.580746256610743"><ele>62.0</ele><time>2026-04-04T14:24:45.971Z</time></trkpt><trkpt lat="45.04744750793076" lon="9.580846362453073"><ele>62.00000000000001</ele><time>2026-04-04T14:24:46.971Z</time></trkpt><trkpt lat="45.04748549237473" lon="9.580949764525434"><ele>62.0</ele><time>2026-04-04T14:24:47.971Z</time></trkpt><trkpt lat="45.047527391572075" lon="9.581045774698243"><ele>62.0</ele><time>2026-04-04T14:24:48.971Z</time></trkpt><trkpt lat="45.04756786737222" lon="9.581138663871492"><ele>62.0</ele><time>2026-04-04T14:24:49.971Z</time></trkpt><trkpt lat="45.04760318556124" lon="9.581226575625895"><ele>63.0</ele><time>2026-04-04T14:24:50.971Z</time></trkpt><trkpt lat="45.047640845903" lon="9.58131648310851"><ele>63.0</ele><time>2026-04-04T14:24:51.971Z</time></trkpt><trkpt lat="45.04767275087373" lon="9.581403724002637"><ele>63.0</ele><time>2026-04-04T14:24:52.971Z</time></trkpt><trkpt lat="45.04770797554585" lon="9.581487486356405"><ele>63.0</ele><time>2026-04-04T14:24:53.971Z</time></trkpt></trkseg></trk></gpx>